<?xml version="1.0" encoding="UTF-8" standalone="no" ?>
<gpx xmlns="http://www.topografix.com/GPX/1/1" xmlns:xsi="http://www.w3.org/2001/XMLSchema-instance" xsi:schemaLocation="http://www.topografix.com/GPX/1/1 http://www.topografix.com/GPX/1/1/gpx.xsd" version="1.1" creator="VisuGPX - https://www.visugpx.com">
  <metadata>
    <name>macot le camping du biolet macot</name>
    <desc><![CDATA[sortie longue
]]></desc>
  </metadata>
  <trk>
    <name><![CDATA[macot camping b]]></name>
    <trkseg>
      <trkpt lat="45.55405" lon="6.67723">
        <ele>790.40002441406</ele>
        <time>2013-04-14T07:02:54Z</time>
      </trkpt>
      <trkpt lat="45.55409" lon="6.67725">
        <ele>789.40002441406</ele>
        <time>2013-04-14T07:02:56Z</time>
      </trkpt>
      <trkpt lat="45.5541" lon="6.67721">
        <ele>789</ele>
        <time>2013-04-14T07:02:58Z</time>
      </trkpt>
      <trkpt lat="45.55413" lon="6.67713">
        <ele>787.79998779297</ele>
        <time>2013-04-14T07:03:00Z</time>
      </trkpt>
      <trkpt lat="45.55414" lon="6.67709">
        <ele>787.20001220703</ele>
        <time>2013-04-14T07:03:01Z</time>
      </trkpt>
      <trkpt lat="45.55415" lon="6.67706">
        <ele>786.79998779297</ele>
        <time>2013-04-14T07:03:02Z</time>
      </trkpt>
      <trkpt lat="45.55417" lon="6.677">
        <ele>786</ele>
        <time>2013-04-14T07:03:04Z</time>
      </trkpt>
      <trkpt lat="45.5542" lon="6.67694">
        <ele>785.40002441406</ele>
        <time>2013-04-14T07:03:06Z</time>
      </trkpt>
      <trkpt lat="45.55424" lon="6.67684">
        <ele>784.20001220703</ele>
        <time>2013-04-14T07:03:09Z</time>
      </trkpt>
      <trkpt lat="45.55429" lon="6.67672">
        <ele>783</ele>
        <time>2013-04-14T07:03:13Z</time>
      </trkpt>
      <trkpt lat="45.5543" lon="6.67669">
        <ele>782.59997558594</ele>
        <time>2013-04-14T07:03:14Z</time>
      </trkpt>
      <trkpt lat="45.55435" lon="6.67652">
        <ele>782.20001220703</ele>
        <time>2013-04-14T07:03:19Z</time>
      </trkpt>
      <trkpt lat="45.55436" lon="6.67645">
        <ele>782</ele>
        <time>2013-04-14T07:03:21Z</time>
      </trkpt>
      <trkpt lat="45.55435" lon="6.6762">
        <ele>782.59997558594</ele>
        <time>2013-04-14T07:03:28Z</time>
      </trkpt>
      <trkpt lat="45.55433" lon="6.6761">
        <ele>783</ele>
        <time>2013-04-14T07:03:31Z</time>
      </trkpt>
      <trkpt lat="45.55432" lon="6.67606">
        <ele>783.20001220703</ele>
        <time>2013-04-14T07:03:32Z</time>
      </trkpt>
      <trkpt lat="45.55431" lon="6.67602">
        <ele>783.40002441406</ele>
        <time>2013-04-14T07:03:33Z</time>
      </trkpt>
      <trkpt lat="45.5543" lon="6.67595">
        <ele>783.79998779297</ele>
        <time>2013-04-14T07:03:35Z</time>
      </trkpt>
      <trkpt lat="45.55429" lon="6.67591">
        <ele>784</ele>
        <time>2013-04-14T07:03:36Z</time>
      </trkpt>
      <trkpt lat="45.55426" lon="6.67572">
        <ele>784.20001220703</ele>
        <time>2013-04-14T07:03:41Z</time>
      </trkpt>
      <trkpt lat="45.5542" lon="6.6755">
        <ele>784.20001220703</ele>
        <time>2013-04-14T07:03:47Z</time>
      </trkpt>
      <trkpt lat="45.55418" lon="6.6753">
        <ele>783.79998779297</ele>
        <time>2013-04-14T07:03:53Z</time>
      </trkpt>
      <trkpt lat="45.55417" lon="6.67517">
        <ele>783.59997558594</ele>
        <time>2013-04-14T07:03:56Z</time>
      </trkpt>
      <trkpt lat="45.55416" lon="6.6751">
        <ele>783.40002441406</ele>
        <time>2013-04-14T07:03:58Z</time>
      </trkpt>
      <trkpt lat="45.55416" lon="6.67507">
        <ele>783.20001220703</ele>
        <time>2013-04-14T07:03:59Z</time>
      </trkpt>
      <trkpt lat="45.55414" lon="6.67504">
        <ele>783.40002441406</ele>
        <time>2013-04-14T07:04:00Z</time>
      </trkpt>
      <trkpt lat="45.55413" lon="6.675">
        <ele>783.40002441406</ele>
        <time>2013-04-14T07:04:01Z</time>
      </trkpt>
      <trkpt lat="45.55413" lon="6.67496">
        <ele>783.20001220703</ele>
        <time>2013-04-14T07:04:02Z</time>
      </trkpt>
      <trkpt lat="45.55412" lon="6.67493">
        <ele>783</ele>
        <time>2013-04-14T07:04:03Z</time>
      </trkpt>
      <trkpt lat="45.55407" lon="6.67477">
        <ele>782.20001220703</ele>
        <time>2013-04-14T07:04:08Z</time>
      </trkpt>
      <trkpt lat="45.55401" lon="6.67459">
        <ele>781.40002441406</ele>
        <time>2013-04-14T07:04:14Z</time>
      </trkpt>
      <trkpt lat="45.55401" lon="6.67455">
        <ele>781.20001220703</ele>
        <time>2013-04-14T07:04:15Z</time>
      </trkpt>
      <trkpt lat="45.554" lon="6.67452">
        <ele>781</ele>
        <time>2013-04-14T07:04:16Z</time>
      </trkpt>
      <trkpt lat="45.554" lon="6.67449">
        <ele>780.79998779297</ele>
        <time>2013-04-14T07:04:17Z</time>
      </trkpt>
      <trkpt lat="45.55399" lon="6.67446">
        <ele>780.59997558594</ele>
        <time>2013-04-14T07:04:18Z</time>
      </trkpt>
      <trkpt lat="45.55398" lon="6.67442">
        <ele>780.40002441406</ele>
        <time>2013-04-14T07:04:19Z</time>
      </trkpt>
      <trkpt lat="45.55396" lon="6.67428">
        <ele>779.59997558594</ele>
        <time>2013-04-14T07:04:23Z</time>
      </trkpt>
      <trkpt lat="45.55396" lon="6.67424">
        <ele>779.40002441406</ele>
        <time>2013-04-14T07:04:24Z</time>
      </trkpt>
      <trkpt lat="45.55396" lon="6.67421">
        <ele>779</ele>
        <time>2013-04-14T07:04:25Z</time>
      </trkpt>
      <trkpt lat="45.55397" lon="6.67417">
        <ele>778.40002441406</ele>
        <time>2013-04-14T07:04:26Z</time>
      </trkpt>
      <trkpt lat="45.55398" lon="6.67413">
        <ele>778.20001220703</ele>
        <time>2013-04-14T07:04:27Z</time>
      </trkpt>
      <trkpt lat="45.55398" lon="6.6741">
        <ele>778</ele>
        <time>2013-04-14T07:04:28Z</time>
      </trkpt>
      <trkpt lat="45.55397" lon="6.67406">
        <ele>777.79998779297</ele>
        <time>2013-04-14T07:04:29Z</time>
      </trkpt>
      <trkpt lat="45.55397" lon="6.67399">
        <ele>777.40002441406</ele>
        <time>2013-04-14T07:04:31Z</time>
      </trkpt>
      <trkpt lat="45.55398" lon="6.67388">
        <ele>776.59997558594</ele>
        <time>2013-04-14T07:04:34Z</time>
      </trkpt>
      <trkpt lat="45.55398" lon="6.67373">
        <ele>775.59997558594</ele>
        <time>2013-04-14T07:04:38Z</time>
      </trkpt>
      <trkpt lat="45.55398" lon="6.67364">
        <ele>775</ele>
        <time>2013-04-14T07:04:40Z</time>
      </trkpt>
      <trkpt lat="45.55398" lon="6.67361">
        <ele>774.79998779297</ele>
        <time>2013-04-14T07:04:41Z</time>
      </trkpt>
      <trkpt lat="45.55398" lon="6.67357">
        <ele>774.59997558594</ele>
        <time>2013-04-14T07:04:42Z</time>
      </trkpt>
      <trkpt lat="45.55398" lon="6.67353">
        <ele>774.40002441406</ele>
        <time>2013-04-14T07:04:43Z</time>
      </trkpt>
      <trkpt lat="45.55397" lon="6.67349">
        <ele>774.20001220703</ele>
        <time>2013-04-14T07:04:44Z</time>
      </trkpt>
      <trkpt lat="45.55397" lon="6.67345">
        <ele>774</ele>
        <time>2013-04-14T07:04:45Z</time>
      </trkpt>
      <trkpt lat="45.55397" lon="6.67341">
        <ele>773.79998779297</ele>
        <time>2013-04-14T07:04:46Z</time>
      </trkpt>
      <trkpt lat="45.55394" lon="6.67327">
        <ele>773.20001220703</ele>
        <time>2013-04-14T07:04:50Z</time>
      </trkpt>
      <trkpt lat="45.55389" lon="6.67315">
        <ele>773.20001220703</ele>
        <time>2013-04-14T07:04:54Z</time>
      </trkpt>
      <trkpt lat="45.55387" lon="6.67309">
        <ele>773</ele>
        <time>2013-04-14T07:04:56Z</time>
      </trkpt>
      <trkpt lat="45.55386" lon="6.67305">
        <ele>773</ele>
        <time>2013-04-14T07:04:57Z</time>
      </trkpt>
      <trkpt lat="45.55385" lon="6.67303">
        <ele>773</ele>
        <time>2013-04-14T07:04:58Z</time>
      </trkpt>
      <trkpt lat="45.55384" lon="6.67299">
        <ele>773</ele>
        <time>2013-04-14T07:04:59Z</time>
      </trkpt>
      <trkpt lat="45.55382" lon="6.67297">
        <ele>773</ele>
        <time>2013-04-14T07:05:00Z</time>
      </trkpt>
      <trkpt lat="45.55374" lon="6.67279">
        <ele>772.79998779297</ele>
        <time>2013-04-14T07:05:06Z</time>
      </trkpt>
      <trkpt lat="45.55374" lon="6.67274">
        <ele>772.40002441406</ele>
        <time>2013-04-14T07:05:07Z</time>
      </trkpt>
      <trkpt lat="45.55371" lon="6.67264">
        <ele>772.20001220703</ele>
        <time>2013-04-14T07:05:10Z</time>
      </trkpt>
      <trkpt lat="45.55369" lon="6.67257">
        <ele>772</ele>
        <time>2013-04-14T07:05:12Z</time>
      </trkpt>
      <trkpt lat="45.55368" lon="6.67254">
        <ele>771.79998779297</ele>
        <time>2013-04-14T07:05:13Z</time>
      </trkpt>
      <trkpt lat="45.55366" lon="6.67251">
        <ele>771.79998779297</ele>
        <time>2013-04-14T07:05:14Z</time>
      </trkpt>
      <trkpt lat="45.55364" lon="6.67248">
        <ele>771.79998779297</ele>
        <time>2013-04-14T07:05:15Z</time>
      </trkpt>
      <trkpt lat="45.55363" lon="6.67246">
        <ele>771.59997558594</ele>
        <time>2013-04-14T07:05:16Z</time>
      </trkpt>
      <trkpt lat="45.5536" lon="6.67243">
        <ele>771.40002441406</ele>
        <time>2013-04-14T07:05:17Z</time>
      </trkpt>
      <trkpt lat="45.55355" lon="6.67233">
        <ele>771</ele>
        <time>2013-04-14T07:05:21Z</time>
      </trkpt>
      <trkpt lat="45.55348" lon="6.67217">
        <ele>770</ele>
        <time>2013-04-14T07:05:26Z</time>
      </trkpt>
      <trkpt lat="45.55339" lon="6.672">
        <ele>769</ele>
        <time>2013-04-14T07:05:31Z</time>
      </trkpt>
      <trkpt lat="45.55337" lon="6.67197">
        <ele>768.79998779297</ele>
        <time>2013-04-14T07:05:32Z</time>
      </trkpt>
      <trkpt lat="45.55336" lon="6.67194">
        <ele>768.59997558594</ele>
        <time>2013-04-14T07:05:33Z</time>
      </trkpt>
      <trkpt lat="45.55332" lon="6.67186">
        <ele>768.20001220703</ele>
        <time>2013-04-14T07:05:36Z</time>
      </trkpt>
      <trkpt lat="45.5533" lon="6.67183">
        <ele>768</ele>
        <time>2013-04-14T07:05:37Z</time>
      </trkpt>
      <trkpt lat="45.55324" lon="6.67168">
        <ele>767</ele>
        <time>2013-04-14T07:05:42Z</time>
      </trkpt>
      <trkpt lat="45.55313" lon="6.67153">
        <ele>766.40002441406</ele>
        <time>2013-04-14T07:05:48Z</time>
      </trkpt>
      <trkpt lat="45.55305" lon="6.67137">
        <ele>765.59997558594</ele>
        <time>2013-04-14T07:05:53Z</time>
      </trkpt>
      <trkpt lat="45.55298" lon="6.67125">
        <ele>764.79998779297</ele>
        <time>2013-04-14T07:05:57Z</time>
      </trkpt>
      <trkpt lat="45.55297" lon="6.67122">
        <ele>764.59997558594</ele>
        <time>2013-04-14T07:05:58Z</time>
      </trkpt>
      <trkpt lat="45.55295" lon="6.67119">
        <ele>764.40002441406</ele>
        <time>2013-04-14T07:05:59Z</time>
      </trkpt>
      <trkpt lat="45.55294" lon="6.67116">
        <ele>764.20001220703</ele>
        <time>2013-04-14T07:06:00Z</time>
      </trkpt>
      <trkpt lat="45.55293" lon="6.67113">
        <ele>764</ele>
        <time>2013-04-14T07:06:01Z</time>
      </trkpt>
      <trkpt lat="45.55291" lon="6.67111">
        <ele>763.79998779297</ele>
        <time>2013-04-14T07:06:02Z</time>
      </trkpt>
      <trkpt lat="45.55285" lon="6.671">
        <ele>763.20001220703</ele>
        <time>2013-04-14T07:06:06Z</time>
      </trkpt>
      <trkpt lat="45.55285" lon="6.67098">
        <ele>763</ele>
        <time>2013-04-14T07:06:08Z</time>
      </trkpt>
      <trkpt lat="45.55284" lon="6.67097">
        <ele>763</ele>
        <time>2013-04-14T07:06:09Z</time>
      </trkpt>
      <trkpt lat="45.55282" lon="6.67094">
        <ele>762.79998779297</ele>
        <time>2013-04-14T07:06:10Z</time>
      </trkpt>
      <trkpt lat="45.55281" lon="6.67092">
        <ele>762.79998779297</ele>
        <time>2013-04-14T07:06:11Z</time>
      </trkpt>
      <trkpt lat="45.55279" lon="6.67089">
        <ele>762.40002441406</ele>
        <time>2013-04-14T07:06:12Z</time>
      </trkpt>
      <trkpt lat="45.55278" lon="6.67086">
        <ele>762.20001220703</ele>
        <time>2013-04-14T07:06:13Z</time>
      </trkpt>
      <trkpt lat="45.55274" lon="6.67081">
        <ele>761.79998779297</ele>
        <time>2013-04-14T07:06:15Z</time>
      </trkpt>
      <trkpt lat="45.55261" lon="6.67058">
        <ele>760</ele>
        <time>2013-04-14T07:06:23Z</time>
      </trkpt>
      <trkpt lat="45.55259" lon="6.67055">
        <ele>759.79998779297</ele>
        <time>2013-04-14T07:06:24Z</time>
      </trkpt>
      <trkpt lat="45.55257" lon="6.67052">
        <ele>759.59997558594</ele>
        <time>2013-04-14T07:06:25Z</time>
      </trkpt>
      <trkpt lat="45.55255" lon="6.6705">
        <ele>759.40002441406</ele>
        <time>2013-04-14T07:06:26Z</time>
      </trkpt>
      <trkpt lat="45.55254" lon="6.67047">
        <ele>759.20001220703</ele>
        <time>2013-04-14T07:06:27Z</time>
      </trkpt>
      <trkpt lat="45.55252" lon="6.67044">
        <ele>759</ele>
        <time>2013-04-14T07:06:28Z</time>
      </trkpt>
      <trkpt lat="45.5525" lon="6.6704">
        <ele>758.79998779297</ele>
        <time>2013-04-14T07:06:29Z</time>
      </trkpt>
      <trkpt lat="45.55239" lon="6.67024">
        <ele>757.40002441406</ele>
        <time>2013-04-14T07:06:35Z</time>
      </trkpt>
      <trkpt lat="45.55235" lon="6.67019">
        <ele>757</ele>
        <time>2013-04-14T07:06:37Z</time>
      </trkpt>
      <trkpt lat="45.55234" lon="6.67017">
        <ele>756.79998779297</ele>
        <time>2013-04-14T07:06:38Z</time>
      </trkpt>
      <trkpt lat="45.55232" lon="6.67014">
        <ele>756.59997558594</ele>
        <time>2013-04-14T07:06:39Z</time>
      </trkpt>
      <trkpt lat="45.5523" lon="6.67012">
        <ele>756.20001220703</ele>
        <time>2013-04-14T07:06:40Z</time>
      </trkpt>
      <trkpt lat="45.55229" lon="6.67009">
        <ele>756</ele>
        <time>2013-04-14T07:06:41Z</time>
      </trkpt>
      <trkpt lat="45.55227" lon="6.67007">
        <ele>756</ele>
        <time>2013-04-14T07:06:42Z</time>
      </trkpt>
      <trkpt lat="45.55216" lon="6.66996">
        <ele>755.20001220703</ele>
        <time>2013-04-14T07:06:47Z</time>
      </trkpt>
      <trkpt lat="45.55214" lon="6.66995">
        <ele>755.20001220703</ele>
        <time>2013-04-14T07:06:48Z</time>
      </trkpt>
      <trkpt lat="45.55213" lon="6.66993">
        <ele>755</ele>
        <time>2013-04-14T07:06:49Z</time>
      </trkpt>
      <trkpt lat="45.55213" lon="6.66993">
        <ele>755</ele>
        <time>2013-04-14T07:06:50Z</time>
      </trkpt>
      <trkpt lat="45.55213" lon="6.66993">
        <ele>755</ele>
        <time>2013-04-14T07:06:51Z</time>
      </trkpt>
      <trkpt lat="45.55208" lon="6.66988">
        <ele>754.79998779297</ele>
        <time>2013-04-14T07:06:58Z</time>
      </trkpt>
      <trkpt lat="45.55195" lon="6.66975">
        <ele>754.20001220703</ele>
        <time>2013-04-14T07:07:04Z</time>
      </trkpt>
      <trkpt lat="45.55191" lon="6.66971">
        <ele>754</ele>
        <time>2013-04-14T07:07:06Z</time>
      </trkpt>
      <trkpt lat="45.55189" lon="6.66969">
        <ele>753.79998779297</ele>
        <time>2013-04-14T07:07:07Z</time>
      </trkpt>
      <trkpt lat="45.55187" lon="6.66967">
        <ele>753.79998779297</ele>
        <time>2013-04-14T07:07:08Z</time>
      </trkpt>
      <trkpt lat="45.55185" lon="6.66964">
        <ele>753.59997558594</ele>
        <time>2013-04-14T07:07:09Z</time>
      </trkpt>
      <trkpt lat="45.55183" lon="6.66962">
        <ele>753.40002441406</ele>
        <time>2013-04-14T07:07:10Z</time>
      </trkpt>
      <trkpt lat="45.55181" lon="6.66959">
        <ele>753.40002441406</ele>
        <time>2013-04-14T07:07:11Z</time>
      </trkpt>
      <trkpt lat="45.55167" lon="6.6694">
        <ele>752</ele>
        <time>2013-04-14T07:07:18Z</time>
      </trkpt>
      <trkpt lat="45.55159" lon="6.66924">
        <ele>752.59997558594</ele>
        <time>2013-04-14T07:07:23Z</time>
      </trkpt>
      <trkpt lat="45.55158" lon="6.6692">
        <ele>752.40002441406</ele>
        <time>2013-04-14T07:07:24Z</time>
      </trkpt>
      <trkpt lat="45.55156" lon="6.66917">
        <ele>752.59997558594</ele>
        <time>2013-04-14T07:07:25Z</time>
      </trkpt>
      <trkpt lat="45.55154" lon="6.66914">
        <ele>752.79998779297</ele>
        <time>2013-04-14T07:07:26Z</time>
      </trkpt>
      <trkpt lat="45.55153" lon="6.66911">
        <ele>752.79998779297</ele>
        <time>2013-04-14T07:07:27Z</time>
      </trkpt>
      <trkpt lat="45.55152" lon="6.66908">
        <ele>752.79998779297</ele>
        <time>2013-04-14T07:07:28Z</time>
      </trkpt>
      <trkpt lat="45.55149" lon="6.66902">
        <ele>752.79998779297</ele>
        <time>2013-04-14T07:07:30Z</time>
      </trkpt>
      <trkpt lat="45.55142" lon="6.6689">
        <ele>752.79998779297</ele>
        <time>2013-04-14T07:07:34Z</time>
      </trkpt>
      <trkpt lat="45.55141" lon="6.66887">
        <ele>752.79998779297</ele>
        <time>2013-04-14T07:07:35Z</time>
      </trkpt>
      <trkpt lat="45.55139" lon="6.66883">
        <ele>752.59997558594</ele>
        <time>2013-04-14T07:07:36Z</time>
      </trkpt>
      <trkpt lat="45.55136" lon="6.66877">
        <ele>752.59997558594</ele>
        <time>2013-04-14T07:07:38Z</time>
      </trkpt>
      <trkpt lat="45.55134" lon="6.66874">
        <ele>752.40002441406</ele>
        <time>2013-04-14T07:07:39Z</time>
      </trkpt>
      <trkpt lat="45.5513" lon="6.66864">
        <ele>751.79998779297</ele>
        <time>2013-04-14T07:07:42Z</time>
      </trkpt>
      <trkpt lat="45.55127" lon="6.66857">
        <ele>751.40002441406</ele>
        <time>2013-04-14T07:07:44Z</time>
      </trkpt>
      <trkpt lat="45.55125" lon="6.66853">
        <ele>751.40002441406</ele>
        <time>2013-04-14T07:07:45Z</time>
      </trkpt>
      <trkpt lat="45.55124" lon="6.6685">
        <ele>751</ele>
        <time>2013-04-14T07:07:46Z</time>
      </trkpt>
      <trkpt lat="45.55123" lon="6.66847">
        <ele>750.79998779297</ele>
        <time>2013-04-14T07:07:47Z</time>
      </trkpt>
      <trkpt lat="45.55121" lon="6.66844">
        <ele>750.59997558594</ele>
        <time>2013-04-14T07:07:48Z</time>
      </trkpt>
      <trkpt lat="45.5512" lon="6.66841">
        <ele>750.20001220703</ele>
        <time>2013-04-14T07:07:49Z</time>
      </trkpt>
      <trkpt lat="45.55115" lon="6.66829">
        <ele>749.20001220703</ele>
        <time>2013-04-14T07:07:53Z</time>
      </trkpt>
      <trkpt lat="45.55112" lon="6.66823">
        <ele>748.59997558594</ele>
        <time>2013-04-14T07:07:55Z</time>
      </trkpt>
      <trkpt lat="45.5511" lon="6.6682">
        <ele>748.40002441406</ele>
        <time>2013-04-14T07:07:56Z</time>
      </trkpt>
      <trkpt lat="45.55109" lon="6.66817">
        <ele>748.20001220703</ele>
        <time>2013-04-14T07:07:57Z</time>
      </trkpt>
      <trkpt lat="45.55108" lon="6.66814">
        <ele>748</ele>
        <time>2013-04-14T07:07:58Z</time>
      </trkpt>
      <trkpt lat="45.55106" lon="6.66811">
        <ele>747.79998779297</ele>
        <time>2013-04-14T07:07:59Z</time>
      </trkpt>
      <trkpt lat="45.55104" lon="6.66808">
        <ele>747.59997558594</ele>
        <time>2013-04-14T07:08:00Z</time>
      </trkpt>
      <trkpt lat="45.55099" lon="6.66796">
        <ele>746.59997558594</ele>
        <time>2013-04-14T07:08:04Z</time>
      </trkpt>
      <trkpt lat="45.55096" lon="6.66792">
        <ele>746.40002441406</ele>
        <time>2013-04-14T07:08:05Z</time>
      </trkpt>
      <trkpt lat="45.55095" lon="6.66789">
        <ele>746</ele>
        <time>2013-04-14T07:08:06Z</time>
      </trkpt>
      <trkpt lat="45.55092" lon="6.66783">
        <ele>745.40002441406</ele>
        <time>2013-04-14T07:08:08Z</time>
      </trkpt>
      <trkpt lat="45.55091" lon="6.6678">
        <ele>745.40002441406</ele>
        <time>2013-04-14T07:08:09Z</time>
      </trkpt>
      <trkpt lat="45.55086" lon="6.66766">
        <ele>743.79998779297</ele>
        <time>2013-04-14T07:08:13Z</time>
      </trkpt>
      <trkpt lat="45.55084" lon="6.66763">
        <ele>743.79998779297</ele>
        <time>2013-04-14T07:08:14Z</time>
      </trkpt>
      <trkpt lat="45.55084" lon="6.6676">
        <ele>743.20001220703</ele>
        <time>2013-04-14T07:08:15Z</time>
      </trkpt>
      <trkpt lat="45.55082" lon="6.66757">
        <ele>743.59997558594</ele>
        <time>2013-04-14T07:08:16Z</time>
      </trkpt>
      <trkpt lat="45.55081" lon="6.66753">
        <ele>743.59997558594</ele>
        <time>2013-04-14T07:08:17Z</time>
      </trkpt>
      <trkpt lat="45.5508" lon="6.66751">
        <ele>743.59997558594</ele>
        <time>2013-04-14T07:08:18Z</time>
      </trkpt>
      <trkpt lat="45.55076" lon="6.66744">
        <ele>744.40002441406</ele>
        <time>2013-04-14T07:08:20Z</time>
      </trkpt>
      <trkpt lat="45.55074" lon="6.66741">
        <ele>744.79998779297</ele>
        <time>2013-04-14T07:08:21Z</time>
      </trkpt>
      <trkpt lat="45.55073" lon="6.66739">
        <ele>745</ele>
        <time>2013-04-14T07:08:22Z</time>
      </trkpt>
      <trkpt lat="45.55072" lon="6.66736">
        <ele>745.40002441406</ele>
        <time>2013-04-14T07:08:23Z</time>
      </trkpt>
      <trkpt lat="45.55071" lon="6.66733">
        <ele>745.40002441406</ele>
        <time>2013-04-14T07:08:24Z</time>
      </trkpt>
      <trkpt lat="45.55069" lon="6.6673">
        <ele>745.79998779297</ele>
        <time>2013-04-14T07:08:25Z</time>
      </trkpt>
      <trkpt lat="45.55068" lon="6.66727">
        <ele>746</ele>
        <time>2013-04-14T07:08:26Z</time>
      </trkpt>
      <trkpt lat="45.55065" lon="6.66721">
        <ele>746.40002441406</ele>
        <time>2013-04-14T07:08:28Z</time>
      </trkpt>
      <trkpt lat="45.55063" lon="6.66715">
        <ele>746.59997558594</ele>
        <time>2013-04-14T07:08:31Z</time>
      </trkpt>
      <trkpt lat="45.55065" lon="6.66713">
        <ele>745.59997558594</ele>
        <time>2013-04-14T07:08:32Z</time>
      </trkpt>
      <trkpt lat="45.55065" lon="6.66712">
        <ele>745.20001220703</ele>
        <time>2013-04-14T07:08:33Z</time>
      </trkpt>
      <trkpt lat="45.55065" lon="6.66708">
        <ele>744.59997558594</ele>
        <time>2013-04-14T07:08:35Z</time>
      </trkpt>
      <trkpt lat="45.55065" lon="6.66706">
        <ele>744.40002441406</ele>
        <time>2013-04-14T07:08:36Z</time>
      </trkpt>
      <trkpt lat="45.55065" lon="6.66709">
        <ele>744.79998779297</ele>
        <time>2013-04-14T07:08:37Z</time>
      </trkpt>
      <trkpt lat="45.55065" lon="6.66708">
        <ele>744.79998779297</ele>
        <time>2013-04-14T07:08:38Z</time>
      </trkpt>
      <trkpt lat="45.55064" lon="6.66708">
        <ele>745</ele>
        <time>2013-04-14T07:08:39Z</time>
      </trkpt>
      <trkpt lat="45.55064" lon="6.66708">
        <ele>745.40002441406</ele>
        <time>2013-04-14T07:08:40Z</time>
      </trkpt>
      <trkpt lat="45.55062" lon="6.66706">
        <ele>745.59997558594</ele>
        <time>2013-04-14T07:08:41Z</time>
      </trkpt>
      <trkpt lat="45.55061" lon="6.66703">
        <ele>745.59997558594</ele>
        <time>2013-04-14T07:08:42Z</time>
      </trkpt>
      <trkpt lat="45.5506" lon="6.66702">
        <ele>746</ele>
        <time>2013-04-14T07:08:43Z</time>
      </trkpt>
      <trkpt lat="45.5506" lon="6.667">
        <ele>745.79998779297</ele>
        <time>2013-04-14T07:08:46Z</time>
      </trkpt>
      <trkpt lat="45.55062" lon="6.66699">
        <ele>745.20001220703</ele>
        <time>2013-04-14T07:08:47Z</time>
      </trkpt>
      <trkpt lat="45.55063" lon="6.66697">
        <ele>744.40002441406</ele>
        <time>2013-04-14T07:08:48Z</time>
      </trkpt>
      <trkpt lat="45.55064" lon="6.66695">
        <ele>743.59997558594</ele>
        <time>2013-04-14T07:08:49Z</time>
      </trkpt>
      <trkpt lat="45.55065" lon="6.66687">
        <ele>742</ele>
        <time>2013-04-14T07:08:51Z</time>
      </trkpt>
      <trkpt lat="45.55066" lon="6.66684">
        <ele>741</ele>
        <time>2013-04-14T07:08:52Z</time>
      </trkpt>
      <trkpt lat="45.55071" lon="6.66676">
        <ele>737.79998779297</ele>
        <time>2013-04-14T07:08:55Z</time>
      </trkpt>
      <trkpt lat="45.55075" lon="6.66669">
        <ele>735</ele>
        <time>2013-04-14T07:09:01Z</time>
      </trkpt>
      <trkpt lat="45.55078" lon="6.66667">
        <ele>733.40002441406</ele>
        <time>2013-04-14T07:09:04Z</time>
      </trkpt>
      <trkpt lat="45.55079" lon="6.66667">
        <ele>733</ele>
        <time>2013-04-14T07:09:05Z</time>
      </trkpt>
      <trkpt lat="45.55085" lon="6.66669">
        <ele>731.20001220703</ele>
        <time>2013-04-14T07:09:08Z</time>
      </trkpt>
      <trkpt lat="45.55087" lon="6.6667">
        <ele>731</ele>
        <time>2013-04-14T07:09:09Z</time>
      </trkpt>
      <trkpt lat="45.55092" lon="6.66671">
        <ele>730.59997558594</ele>
        <time>2013-04-14T07:09:11Z</time>
      </trkpt>
      <trkpt lat="45.55094" lon="6.66671">
        <ele>730.59997558594</ele>
        <time>2013-04-14T07:09:12Z</time>
      </trkpt>
      <trkpt lat="45.55096" lon="6.66671">
        <ele>730.40002441406</ele>
        <time>2013-04-14T07:09:13Z</time>
      </trkpt>
      <trkpt lat="45.55111" lon="6.66669">
        <ele>729</ele>
        <time>2013-04-14T07:09:19Z</time>
      </trkpt>
      <trkpt lat="45.55113" lon="6.66668">
        <ele>728.59997558594</ele>
        <time>2013-04-14T07:09:20Z</time>
      </trkpt>
      <trkpt lat="45.55115" lon="6.66668">
        <ele>728.40002441406</ele>
        <time>2013-04-14T07:09:21Z</time>
      </trkpt>
      <trkpt lat="45.5512" lon="6.66666">
        <ele>727.79998779297</ele>
        <time>2013-04-14T07:09:23Z</time>
      </trkpt>
      <trkpt lat="45.55122" lon="6.66665">
        <ele>727.40002441406</ele>
        <time>2013-04-14T07:09:24Z</time>
      </trkpt>
      <trkpt lat="45.55125" lon="6.66665">
        <ele>727.20001220703</ele>
        <time>2013-04-14T07:09:25Z</time>
      </trkpt>
      <trkpt lat="45.55139" lon="6.6666">
        <ele>725.40002441406</ele>
        <time>2013-04-14T07:09:31Z</time>
      </trkpt>
      <trkpt lat="45.55142" lon="6.66659">
        <ele>725.20001220703</ele>
        <time>2013-04-14T07:09:32Z</time>
      </trkpt>
      <trkpt lat="45.55144" lon="6.66658">
        <ele>725</ele>
        <time>2013-04-14T07:09:33Z</time>
      </trkpt>
      <trkpt lat="45.55149" lon="6.66656">
        <ele>724.20001220703</ele>
        <time>2013-04-14T07:09:35Z</time>
      </trkpt>
      <trkpt lat="45.55154" lon="6.66654">
        <ele>723.59997558594</ele>
        <time>2013-04-14T07:09:37Z</time>
      </trkpt>
      <trkpt lat="45.55156" lon="6.66653">
        <ele>723.40002441406</ele>
        <time>2013-04-14T07:09:38Z</time>
      </trkpt>
      <trkpt lat="45.55161" lon="6.66651">
        <ele>722.59997558594</ele>
        <time>2013-04-14T07:09:40Z</time>
      </trkpt>
      <trkpt lat="45.55163" lon="6.66649">
        <ele>722.40002441406</ele>
        <time>2013-04-14T07:09:41Z</time>
      </trkpt>
      <trkpt lat="45.55168" lon="6.66644">
        <ele>721.40002441406</ele>
        <time>2013-04-14T07:09:44Z</time>
      </trkpt>
      <trkpt lat="45.55172" lon="6.66644">
        <ele>721</ele>
        <time>2013-04-14T07:09:48Z</time>
      </trkpt>
      <trkpt lat="45.55172" lon="6.66644">
        <ele>721</ele>
        <time>2013-04-14T07:09:49Z</time>
      </trkpt>
      <trkpt lat="45.55172" lon="6.66643">
        <ele>721</ele>
        <time>2013-04-14T07:09:51Z</time>
      </trkpt>
      <trkpt lat="45.55172" lon="6.66643">
        <ele>721</ele>
        <time>2013-04-14T07:09:52Z</time>
      </trkpt>
      <trkpt lat="45.55172" lon="6.66643">
        <ele>721</ele>
        <time>2013-04-14T07:09:53Z</time>
      </trkpt>
      <trkpt lat="45.55173" lon="6.66645">
        <ele>721</ele>
        <time>2013-04-14T07:10:03Z</time>
      </trkpt>
      <trkpt lat="45.55173" lon="6.66643">
        <ele>720.79998779297</ele>
        <time>2013-04-14T07:10:07Z</time>
      </trkpt>
      <trkpt lat="45.55178" lon="6.66635">
        <ele>719.59997558594</ele>
        <time>2013-04-14T07:10:12Z</time>
      </trkpt>
      <trkpt lat="45.55192" lon="6.66631">
        <ele>718.40002441406</ele>
        <time>2013-04-14T07:10:18Z</time>
      </trkpt>
      <trkpt lat="45.55195" lon="6.6663">
        <ele>718</ele>
        <time>2013-04-14T07:10:19Z</time>
      </trkpt>
      <trkpt lat="45.55198" lon="6.66629">
        <ele>717.79998779297</ele>
        <time>2013-04-14T07:10:20Z</time>
      </trkpt>
      <trkpt lat="45.55202" lon="6.66628">
        <ele>717.40002441406</ele>
        <time>2013-04-14T07:10:22Z</time>
      </trkpt>
      <trkpt lat="45.55208" lon="6.66625">
        <ele>716.59997558594</ele>
        <time>2013-04-14T07:10:24Z</time>
      </trkpt>
      <trkpt lat="45.55218" lon="6.6662">
        <ele>715.59997558594</ele>
        <time>2013-04-14T07:10:28Z</time>
      </trkpt>
      <trkpt lat="45.55223" lon="6.66617">
        <ele>715</ele>
        <time>2013-04-14T07:10:30Z</time>
      </trkpt>
      <trkpt lat="45.55226" lon="6.66615">
        <ele>714.59997558594</ele>
        <time>2013-04-14T07:10:31Z</time>
      </trkpt>
      <trkpt lat="45.55228" lon="6.66613">
        <ele>714.40002441406</ele>
        <time>2013-04-14T07:10:32Z</time>
      </trkpt>
      <trkpt lat="45.55234" lon="6.66609">
        <ele>713.79998779297</ele>
        <time>2013-04-14T07:10:34Z</time>
      </trkpt>
      <trkpt lat="45.55244" lon="6.66605">
        <ele>712.79998779297</ele>
        <time>2013-04-14T07:10:38Z</time>
      </trkpt>
      <trkpt lat="45.55249" lon="6.66602">
        <ele>712.40002441406</ele>
        <time>2013-04-14T07:10:40Z</time>
      </trkpt>
      <trkpt lat="45.55252" lon="6.66601">
        <ele>712.20001220703</ele>
        <time>2013-04-14T07:10:41Z</time>
      </trkpt>
      <trkpt lat="45.55254" lon="6.666">
        <ele>712</ele>
        <time>2013-04-14T07:10:42Z</time>
      </trkpt>
      <trkpt lat="45.55264" lon="6.66594">
        <ele>711</ele>
        <time>2013-04-14T07:10:46Z</time>
      </trkpt>
      <trkpt lat="45.55266" lon="6.66593">
        <ele>710.79998779297</ele>
        <time>2013-04-14T07:10:47Z</time>
      </trkpt>
      <trkpt lat="45.55269" lon="6.66592">
        <ele>710.79998779297</ele>
        <time>2013-04-14T07:10:48Z</time>
      </trkpt>
      <trkpt lat="45.55274" lon="6.66589">
        <ele>710.20001220703</ele>
        <time>2013-04-14T07:10:50Z</time>
      </trkpt>
      <trkpt lat="45.55276" lon="6.66587">
        <ele>710</ele>
        <time>2013-04-14T07:10:51Z</time>
      </trkpt>
      <trkpt lat="45.55283" lon="6.66583">
        <ele>709.20001220703</ele>
        <time>2013-04-14T07:10:54Z</time>
      </trkpt>
      <trkpt lat="45.55293" lon="6.66582">
        <ele>708.59997558594</ele>
        <time>2013-04-14T07:10:58Z</time>
      </trkpt>
      <trkpt lat="45.55295" lon="6.66581">
        <ele>708.59997558594</ele>
        <time>2013-04-14T07:10:59Z</time>
      </trkpt>
      <trkpt lat="45.55298" lon="6.66581">
        <ele>708.40002441406</ele>
        <time>2013-04-14T07:11:00Z</time>
      </trkpt>
      <trkpt lat="45.55304" lon="6.6658">
        <ele>708</ele>
        <time>2013-04-14T07:11:02Z</time>
      </trkpt>
      <trkpt lat="45.55314" lon="6.66581">
        <ele>707.59997558594</ele>
        <time>2013-04-14T07:11:06Z</time>
      </trkpt>
      <trkpt lat="45.55333" lon="6.66581">
        <ele>706.79998779297</ele>
        <time>2013-04-14T07:11:13Z</time>
      </trkpt>
      <trkpt lat="45.55339" lon="6.66582">
        <ele>706.40002441406</ele>
        <time>2013-04-14T07:11:15Z</time>
      </trkpt>
      <trkpt lat="45.55341" lon="6.66582">
        <ele>706.40002441406</ele>
        <time>2013-04-14T07:11:16Z</time>
      </trkpt>
      <trkpt lat="45.55344" lon="6.66582">
        <ele>706.20001220703</ele>
        <time>2013-04-14T07:11:17Z</time>
      </trkpt>
      <trkpt lat="45.55355" lon="6.66581">
        <ele>705.40002441406</ele>
        <time>2013-04-14T07:11:21Z</time>
      </trkpt>
      <trkpt lat="45.55373" lon="6.66579">
        <ele>704.20001220703</ele>
        <time>2013-04-14T07:11:28Z</time>
      </trkpt>
      <trkpt lat="45.55379" lon="6.66579">
        <ele>703.79998779297</ele>
        <time>2013-04-14T07:11:30Z</time>
      </trkpt>
      <trkpt lat="45.55381" lon="6.66578">
        <ele>703.59997558594</ele>
        <time>2013-04-14T07:11:31Z</time>
      </trkpt>
      <trkpt lat="45.55384" lon="6.66578">
        <ele>703.40002441406</ele>
        <time>2013-04-14T07:11:32Z</time>
      </trkpt>
      <trkpt lat="45.55388" lon="6.66576">
        <ele>703.20001220703</ele>
        <time>2013-04-14T07:11:34Z</time>
      </trkpt>
      <trkpt lat="45.55393" lon="6.66573">
        <ele>702.59997558594</ele>
        <time>2013-04-14T07:11:36Z</time>
      </trkpt>
      <trkpt lat="45.55396" lon="6.66567">
        <ele>702</ele>
        <time>2013-04-14T07:11:38Z</time>
      </trkpt>
      <trkpt lat="45.55401" lon="6.66553">
        <ele>701</ele>
        <time>2013-04-14T07:11:42Z</time>
      </trkpt>
      <trkpt lat="45.55402" lon="6.66549">
        <ele>700.59997558594</ele>
        <time>2013-04-14T07:11:43Z</time>
      </trkpt>
      <trkpt lat="45.55403" lon="6.66546">
        <ele>700.40002441406</ele>
        <time>2013-04-14T07:11:44Z</time>
      </trkpt>
      <trkpt lat="45.55406" lon="6.66539">
        <ele>699.79998779297</ele>
        <time>2013-04-14T07:11:46Z</time>
      </trkpt>
      <trkpt lat="45.55408" lon="6.66535">
        <ele>699.40002441406</ele>
        <time>2013-04-14T07:11:47Z</time>
      </trkpt>
      <trkpt lat="45.55409" lon="6.66532">
        <ele>699.20001220703</ele>
        <time>2013-04-14T07:11:48Z</time>
      </trkpt>
      <trkpt lat="45.55412" lon="6.66525">
        <ele>698.59997558594</ele>
        <time>2013-04-14T07:11:50Z</time>
      </trkpt>
      <trkpt lat="45.55413" lon="6.66522">
        <ele>698.40002441406</ele>
        <time>2013-04-14T07:11:51Z</time>
      </trkpt>
      <trkpt lat="45.55414" lon="6.66518">
        <ele>698</ele>
        <time>2013-04-14T07:11:52Z</time>
      </trkpt>
      <trkpt lat="45.5542" lon="6.66503">
        <ele>696.79998779297</ele>
        <time>2013-04-14T07:11:56Z</time>
      </trkpt>
      <trkpt lat="45.55422" lon="6.66499">
        <ele>696.40002441406</ele>
        <time>2013-04-14T07:11:57Z</time>
      </trkpt>
      <trkpt lat="45.55426" lon="6.66485">
        <ele>695.40002441406</ele>
        <time>2013-04-14T07:12:01Z</time>
      </trkpt>
      <trkpt lat="45.55427" lon="6.66483">
        <ele>695.20001220703</ele>
        <time>2013-04-14T07:12:02Z</time>
      </trkpt>
      <trkpt lat="45.55429" lon="6.66479">
        <ele>694.79998779297</ele>
        <time>2013-04-14T07:12:03Z</time>
      </trkpt>
      <trkpt lat="45.55429" lon="6.66472">
        <ele>694.40002441406</ele>
        <time>2013-04-14T07:12:05Z</time>
      </trkpt>
      <trkpt lat="45.55429" lon="6.66467">
        <ele>694.20001220703</ele>
        <time>2013-04-14T07:12:06Z</time>
      </trkpt>
      <trkpt lat="45.55429" lon="6.66451">
        <ele>693.40002441406</ele>
        <time>2013-04-14T07:12:10Z</time>
      </trkpt>
      <trkpt lat="45.55427" lon="6.66444">
        <ele>693.20001220703</ele>
        <time>2013-04-14T07:12:12Z</time>
      </trkpt>
      <trkpt lat="45.55426" lon="6.6644">
        <ele>693.20001220703</ele>
        <time>2013-04-14T07:12:13Z</time>
      </trkpt>
      <trkpt lat="45.55425" lon="6.66436">
        <ele>693</ele>
        <time>2013-04-14T07:12:14Z</time>
      </trkpt>
      <trkpt lat="45.55423" lon="6.66429">
        <ele>692.79998779297</ele>
        <time>2013-04-14T07:12:16Z</time>
      </trkpt>
      <trkpt lat="45.55422" lon="6.66425">
        <ele>692.79998779297</ele>
        <time>2013-04-14T07:12:17Z</time>
      </trkpt>
      <trkpt lat="45.55421" lon="6.66422">
        <ele>692.79998779297</ele>
        <time>2013-04-14T07:12:18Z</time>
      </trkpt>
      <trkpt lat="45.55419" lon="6.66414">
        <ele>692.59997558594</ele>
        <time>2013-04-14T07:12:20Z</time>
      </trkpt>
      <trkpt lat="45.55419" lon="6.6641">
        <ele>692.20001220703</ele>
        <time>2013-04-14T07:12:21Z</time>
      </trkpt>
      <trkpt lat="45.55418" lon="6.66398">
        <ele>691.79998779297</ele>
        <time>2013-04-14T07:12:24Z</time>
      </trkpt>
      <trkpt lat="45.55417" lon="6.6639">
        <ele>691.20001220703</ele>
        <time>2013-04-14T07:12:26Z</time>
      </trkpt>
      <trkpt lat="45.55417" lon="6.66386">
        <ele>691</ele>
        <time>2013-04-14T07:12:27Z</time>
      </trkpt>
      <trkpt lat="45.55416" lon="6.66382">
        <ele>690.79998779297</ele>
        <time>2013-04-14T07:12:28Z</time>
      </trkpt>
      <trkpt lat="45.55416" lon="6.66366">
        <ele>689.79998779297</ele>
        <time>2013-04-14T07:12:32Z</time>
      </trkpt>
      <trkpt lat="45.55417" lon="6.66358">
        <ele>689.40002441406</ele>
        <time>2013-04-14T07:12:34Z</time>
      </trkpt>
      <trkpt lat="45.55417" lon="6.6635">
        <ele>688.79998779297</ele>
        <time>2013-04-14T07:12:36Z</time>
      </trkpt>
      <trkpt lat="45.55417" lon="6.66346">
        <ele>688.59997558594</ele>
        <time>2013-04-14T07:12:37Z</time>
      </trkpt>
      <trkpt lat="45.55418" lon="6.66343">
        <ele>688.40002441406</ele>
        <time>2013-04-14T07:12:38Z</time>
      </trkpt>
      <trkpt lat="45.5542" lon="6.66334">
        <ele>687.59997558594</ele>
        <time>2013-04-14T07:12:41Z</time>
      </trkpt>
      <trkpt lat="45.5542" lon="6.66329">
        <ele>687.20001220703</ele>
        <time>2013-04-14T07:12:42Z</time>
      </trkpt>
      <trkpt lat="45.55421" lon="6.66326">
        <ele>686.79998779297</ele>
        <time>2013-04-14T07:12:43Z</time>
      </trkpt>
      <trkpt lat="45.55422" lon="6.66319">
        <ele>686</ele>
        <time>2013-04-14T07:12:45Z</time>
      </trkpt>
      <trkpt lat="45.55425" lon="6.66313">
        <ele>685.20001220703</ele>
        <time>2013-04-14T07:12:47Z</time>
      </trkpt>
      <trkpt lat="45.55426" lon="6.66309">
        <ele>684.79998779297</ele>
        <time>2013-04-14T07:12:48Z</time>
      </trkpt>
      <trkpt lat="45.55428" lon="6.66301">
        <ele>683.79998779297</ele>
        <time>2013-04-14T07:12:50Z</time>
      </trkpt>
      <trkpt lat="45.55428" lon="6.66297">
        <ele>683.59997558594</ele>
        <time>2013-04-14T07:12:51Z</time>
      </trkpt>
      <trkpt lat="45.55429" lon="6.66293">
        <ele>683.20001220703</ele>
        <time>2013-04-14T07:12:52Z</time>
      </trkpt>
      <trkpt lat="45.5543" lon="6.66278">
        <ele>681.79998779297</ele>
        <time>2013-04-14T07:12:56Z</time>
      </trkpt>
      <trkpt lat="45.5543" lon="6.66274">
        <ele>681.40002441406</ele>
        <time>2013-04-14T07:12:57Z</time>
      </trkpt>
      <trkpt lat="45.5543" lon="6.6627">
        <ele>681.20001220703</ele>
        <time>2013-04-14T07:12:58Z</time>
      </trkpt>
      <trkpt lat="45.55429" lon="6.66262">
        <ele>680.59997558594</ele>
        <time>2013-04-14T07:13:00Z</time>
      </trkpt>
      <trkpt lat="45.55429" lon="6.66258">
        <ele>680.20001220703</ele>
        <time>2013-04-14T07:13:01Z</time>
      </trkpt>
      <trkpt lat="45.55428" lon="6.66254">
        <ele>680</ele>
        <time>2013-04-14T07:13:02Z</time>
      </trkpt>
      <trkpt lat="45.55428" lon="6.66243">
        <ele>679.40002441406</ele>
        <time>2013-04-14T07:13:05Z</time>
      </trkpt>
      <trkpt lat="45.55428" lon="6.66238">
        <ele>679.20001220703</ele>
        <time>2013-04-14T07:13:06Z</time>
      </trkpt>
      <trkpt lat="45.55434" lon="6.66222">
        <ele>678</ele>
        <time>2013-04-14T07:13:11Z</time>
      </trkpt>
      <trkpt lat="45.55436" lon="6.6622">
        <ele>677.59997558594</ele>
        <time>2013-04-14T07:13:12Z</time>
      </trkpt>
      <trkpt lat="45.55438" lon="6.66218">
        <ele>677.40002441406</ele>
        <time>2013-04-14T07:13:13Z</time>
      </trkpt>
      <trkpt lat="45.5544" lon="6.66212">
        <ele>676.79998779297</ele>
        <time>2013-04-14T07:13:15Z</time>
      </trkpt>
      <trkpt lat="45.55442" lon="6.66209">
        <ele>676.59997558594</ele>
        <time>2013-04-14T07:13:16Z</time>
      </trkpt>
      <trkpt lat="45.55444" lon="6.66206">
        <ele>676.20001220703</ele>
        <time>2013-04-14T07:13:17Z</time>
      </trkpt>
      <trkpt lat="45.55451" lon="6.662">
        <ele>675</ele>
        <time>2013-04-14T07:13:21Z</time>
      </trkpt>
      <trkpt lat="45.55454" lon="6.662">
        <ele>674.79998779297</ele>
        <time>2013-04-14T07:13:22Z</time>
      </trkpt>
      <trkpt lat="45.55456" lon="6.66199">
        <ele>674.59997558594</ele>
        <time>2013-04-14T07:13:23Z</time>
      </trkpt>
      <trkpt lat="45.55461" lon="6.66198">
        <ele>673.79998779297</ele>
        <time>2013-04-14T07:13:25Z</time>
      </trkpt>
      <trkpt lat="45.55466" lon="6.66197">
        <ele>673.40002441406</ele>
        <time>2013-04-14T07:13:27Z</time>
      </trkpt>
      <trkpt lat="45.55481" lon="6.66194">
        <ele>671.40002441406</ele>
        <time>2013-04-14T07:13:34Z</time>
      </trkpt>
      <trkpt lat="45.55484" lon="6.6619">
        <ele>671</ele>
        <time>2013-04-14T07:13:36Z</time>
      </trkpt>
      <trkpt lat="45.55485" lon="6.66189">
        <ele>670.79998779297</ele>
        <time>2013-04-14T07:13:37Z</time>
      </trkpt>
      <trkpt lat="45.55486" lon="6.6619">
        <ele>670.59997558594</ele>
        <time>2013-04-14T07:13:38Z</time>
      </trkpt>
      <trkpt lat="45.55485" lon="6.66189">
        <ele>670.79998779297</ele>
        <time>2013-04-14T07:13:40Z</time>
      </trkpt>
      <trkpt lat="45.55485" lon="6.66189">
        <ele>670.79998779297</ele>
        <time>2013-04-14T07:13:41Z</time>
      </trkpt>
      <trkpt lat="45.55485" lon="6.66189">
        <ele>670.79998779297</ele>
        <time>2013-04-14T07:13:44Z</time>
      </trkpt>
      <trkpt lat="45.55486" lon="6.66189">
        <ele>670.59997558594</ele>
        <time>2013-04-14T07:13:45Z</time>
      </trkpt>
      <trkpt lat="45.55481" lon="6.66192">
        <ele>671.20001220703</ele>
        <time>2013-04-14T07:13:49Z</time>
      </trkpt>
      <trkpt lat="45.55488" lon="6.66191">
        <ele>670.40002441406</ele>
        <time>2013-04-14T07:13:55Z</time>
      </trkpt>
      <trkpt lat="45.55488" lon="6.66189">
        <ele>670.40002441406</ele>
        <time>2013-04-14T07:14:03Z</time>
      </trkpt>
      <trkpt lat="45.55494" lon="6.66187">
        <ele>669.59997558594</ele>
        <time>2013-04-14T07:14:06Z</time>
      </trkpt>
      <trkpt lat="45.55522" lon="6.66187">
        <ele>667.40002441406</ele>
        <time>2013-04-14T07:14:18Z</time>
      </trkpt>
      <trkpt lat="45.55525" lon="6.66187">
        <ele>667.20001220703</ele>
        <time>2013-04-14T07:14:19Z</time>
      </trkpt>
      <trkpt lat="45.55527" lon="6.66187">
        <ele>667</ele>
        <time>2013-04-14T07:14:20Z</time>
      </trkpt>
      <trkpt lat="45.55528" lon="6.66187">
        <ele>667</ele>
        <time>2013-04-14T07:14:22Z</time>
      </trkpt>
      <trkpt lat="45.55528" lon="6.66185">
        <ele>666.79998779297</ele>
        <time>2013-04-14T07:14:23Z</time>
      </trkpt>
      <trkpt lat="45.55527" lon="6.66186">
        <ele>667</ele>
        <time>2013-04-14T07:14:24Z</time>
      </trkpt>
      <trkpt lat="45.5553" lon="6.66185">
        <ele>666.59997558594</ele>
        <time>2013-04-14T07:14:36Z</time>
      </trkpt>
      <trkpt lat="45.55531" lon="6.66185">
        <ele>666.59997558594</ele>
        <time>2013-04-14T07:14:38Z</time>
      </trkpt>
      <trkpt lat="45.55533" lon="6.66186">
        <ele>666.59997558594</ele>
        <time>2013-04-14T07:14:44Z</time>
      </trkpt>
      <trkpt lat="45.55536" lon="6.66176">
        <ele>665.79998779297</ele>
        <time>2013-04-14T07:14:55Z</time>
      </trkpt>
      <trkpt lat="45.55536" lon="6.66176">
        <ele>665.79998779297</ele>
        <time>2013-04-14T07:14:57Z</time>
      </trkpt>
      <trkpt lat="45.55533" lon="6.66175">
        <ele>666</ele>
        <time>2013-04-14T07:15:00Z</time>
      </trkpt>
      <trkpt lat="45.55531" lon="6.66175">
        <ele>666</ele>
        <time>2013-04-14T07:15:02Z</time>
      </trkpt>
      <trkpt lat="45.55531" lon="6.66173">
        <ele>666</ele>
        <time>2013-04-14T07:15:04Z</time>
      </trkpt>
      <trkpt lat="45.55532" lon="6.66171">
        <ele>665.79998779297</ele>
        <time>2013-04-14T07:15:06Z</time>
      </trkpt>
      <trkpt lat="45.55534" lon="6.6617">
        <ele>665.59997558594</ele>
        <time>2013-04-14T07:15:07Z</time>
      </trkpt>
      <trkpt lat="45.55536" lon="6.66169">
        <ele>665.40002441406</ele>
        <time>2013-04-14T07:15:08Z</time>
      </trkpt>
      <trkpt lat="45.55551" lon="6.66161">
        <ele>664.20001220703</ele>
        <time>2013-04-14T07:15:15Z</time>
      </trkpt>
      <trkpt lat="45.55553" lon="6.66159">
        <ele>664</ele>
        <time>2013-04-14T07:15:16Z</time>
      </trkpt>
      <trkpt lat="45.55555" lon="6.66157">
        <ele>663.79998779297</ele>
        <time>2013-04-14T07:15:17Z</time>
      </trkpt>
      <trkpt lat="45.55558" lon="6.66152">
        <ele>663.40002441406</ele>
        <time>2013-04-14T07:15:19Z</time>
      </trkpt>
      <trkpt lat="45.5556" lon="6.66149">
        <ele>663.20001220703</ele>
        <time>2013-04-14T07:15:20Z</time>
      </trkpt>
      <trkpt lat="45.55564" lon="6.66144">
        <ele>663</ele>
        <time>2013-04-14T07:15:22Z</time>
      </trkpt>
      <trkpt lat="45.55579" lon="6.66106">
        <ele>661.40002441406</ele>
        <time>2013-04-14T07:15:34Z</time>
      </trkpt>
      <trkpt lat="45.55584" lon="6.66088">
        <ele>661</ele>
        <time>2013-04-14T07:15:39Z</time>
      </trkpt>
      <trkpt lat="45.55585" lon="6.66081">
        <ele>661.20001220703</ele>
        <time>2013-04-14T07:15:41Z</time>
      </trkpt>
      <trkpt lat="45.55589" lon="6.66065">
        <ele>661.59997558594</ele>
        <time>2013-04-14T07:15:46Z</time>
      </trkpt>
      <trkpt lat="45.55595" lon="6.66046">
        <ele>662.40002441406</ele>
        <time>2013-04-14T07:15:52Z</time>
      </trkpt>
      <trkpt lat="45.55605" lon="6.66032">
        <ele>663.79998779297</ele>
        <time>2013-04-14T07:15:58Z</time>
      </trkpt>
      <trkpt lat="45.55616" lon="6.66024">
        <ele>665.40002441406</ele>
        <time>2013-04-14T07:16:03Z</time>
      </trkpt>
      <trkpt lat="45.55618" lon="6.66023">
        <ele>665.79998779297</ele>
        <time>2013-04-14T07:16:04Z</time>
      </trkpt>
      <trkpt lat="45.55621" lon="6.66022">
        <ele>666</ele>
        <time>2013-04-14T07:16:05Z</time>
      </trkpt>
      <trkpt lat="45.55628" lon="6.66018">
        <ele>667</ele>
        <time>2013-04-14T07:16:08Z</time>
      </trkpt>
      <trkpt lat="45.55642" lon="6.66009">
        <ele>669.20001220703</ele>
        <time>2013-04-14T07:16:14Z</time>
      </trkpt>
      <trkpt lat="45.55657" lon="6.65982">
        <ele>672.20001220703</ele>
        <time>2013-04-14T07:16:25Z</time>
      </trkpt>
      <trkpt lat="45.55659" lon="6.65973">
        <ele>672.79998779297</ele>
        <time>2013-04-14T07:16:29Z</time>
      </trkpt>
      <trkpt lat="45.55658" lon="6.65972">
        <ele>672.79998779297</ele>
        <time>2013-04-14T07:16:30Z</time>
      </trkpt>
      <trkpt lat="45.55658" lon="6.65964">
        <ele>673.20001220703</ele>
        <time>2013-04-14T07:16:36Z</time>
      </trkpt>
      <trkpt lat="45.55659" lon="6.65952">
        <ele>673.79998779297</ele>
        <time>2013-04-14T07:16:40Z</time>
      </trkpt>
      <trkpt lat="45.55659" lon="6.65948">
        <ele>674</ele>
        <time>2013-04-14T07:16:41Z</time>
      </trkpt>
      <trkpt lat="45.55658" lon="6.65941">
        <ele>674</ele>
        <time>2013-04-14T07:16:43Z</time>
      </trkpt>
      <trkpt lat="45.55657" lon="6.65937">
        <ele>674</ele>
        <time>2013-04-14T07:16:44Z</time>
      </trkpt>
      <trkpt lat="45.55657" lon="6.65933">
        <ele>674.20001220703</ele>
        <time>2013-04-14T07:16:45Z</time>
      </trkpt>
      <trkpt lat="45.55656" lon="6.65926">
        <ele>674.20001220703</ele>
        <time>2013-04-14T07:16:47Z</time>
      </trkpt>
      <trkpt lat="45.55655" lon="6.65905">
        <ele>674.40002441406</ele>
        <time>2013-04-14T07:16:53Z</time>
      </trkpt>
      <trkpt lat="45.55656" lon="6.65886">
        <ele>674.79998779297</ele>
        <time>2013-04-14T07:16:58Z</time>
      </trkpt>
      <trkpt lat="45.55655" lon="6.65875">
        <ele>674.79998779297</ele>
        <time>2013-04-14T07:17:01Z</time>
      </trkpt>
      <trkpt lat="45.55655" lon="6.65872">
        <ele>674.79998779297</ele>
        <time>2013-04-14T07:17:02Z</time>
      </trkpt>
      <trkpt lat="45.55655" lon="6.65868">
        <ele>675</ele>
        <time>2013-04-14T07:17:03Z</time>
      </trkpt>
      <trkpt lat="45.55655" lon="6.65861">
        <ele>675.20001220703</ele>
        <time>2013-04-14T07:17:05Z</time>
      </trkpt>
      <trkpt lat="45.55656" lon="6.65839">
        <ele>675.59997558594</ele>
        <time>2013-04-14T07:17:11Z</time>
      </trkpt>
      <trkpt lat="45.55657" lon="6.65829">
        <ele>676</ele>
        <time>2013-04-14T07:17:14Z</time>
      </trkpt>
      <trkpt lat="45.55657" lon="6.65825">
        <ele>676</ele>
        <time>2013-04-14T07:17:15Z</time>
      </trkpt>
      <trkpt lat="45.55657" lon="6.65821">
        <ele>676.20001220703</ele>
        <time>2013-04-14T07:17:16Z</time>
      </trkpt>
      <trkpt lat="45.55659" lon="6.65807">
        <ele>676.79998779297</ele>
        <time>2013-04-14T07:17:20Z</time>
      </trkpt>
      <trkpt lat="45.55664" lon="6.65784">
        <ele>678.40002441406</ele>
        <time>2013-04-14T07:17:27Z</time>
      </trkpt>
      <trkpt lat="45.55666" lon="6.65768">
        <ele>679.20001220703</ele>
        <time>2013-04-14T07:17:32Z</time>
      </trkpt>
      <trkpt lat="45.55667" lon="6.65762">
        <ele>679.59997558594</ele>
        <time>2013-04-14T07:17:34Z</time>
      </trkpt>
      <trkpt lat="45.55667" lon="6.65759">
        <ele>679.79998779297</ele>
        <time>2013-04-14T07:17:35Z</time>
      </trkpt>
      <trkpt lat="45.55667" lon="6.65755">
        <ele>679.79998779297</ele>
        <time>2013-04-14T07:17:36Z</time>
      </trkpt>
      <trkpt lat="45.55667" lon="6.65749">
        <ele>680</ele>
        <time>2013-04-14T07:17:38Z</time>
      </trkpt>
      <trkpt lat="45.55669" lon="6.65726">
        <ele>678.20001220703</ele>
        <time>2013-04-14T07:17:45Z</time>
      </trkpt>
      <trkpt lat="45.55669" lon="6.65719">
        <ele>677.79998779297</ele>
        <time>2013-04-14T07:17:47Z</time>
      </trkpt>
      <trkpt lat="45.5567" lon="6.65714">
        <ele>677.59997558594</ele>
        <time>2013-04-14T07:17:49Z</time>
      </trkpt>
      <trkpt lat="45.5567" lon="6.65711">
        <ele>677.40002441406</ele>
        <time>2013-04-14T07:17:50Z</time>
      </trkpt>
      <trkpt lat="45.55671" lon="6.65707">
        <ele>677.20001220703</ele>
        <time>2013-04-14T07:17:51Z</time>
      </trkpt>
      <trkpt lat="45.55672" lon="6.65698">
        <ele>676.59997558594</ele>
        <time>2013-04-14T07:17:54Z</time>
      </trkpt>
      <trkpt lat="45.55673" lon="6.65695">
        <ele>676.40002441406</ele>
        <time>2013-04-14T07:17:55Z</time>
      </trkpt>
      <trkpt lat="45.55673" lon="6.65692">
        <ele>676.20001220703</ele>
        <time>2013-04-14T07:17:56Z</time>
      </trkpt>
      <trkpt lat="45.55674" lon="6.65687">
        <ele>675.79998779297</ele>
        <time>2013-04-14T07:17:58Z</time>
      </trkpt>
      <trkpt lat="45.55682" lon="6.65673">
        <ele>676.20001220703</ele>
        <time>2013-04-14T07:18:04Z</time>
      </trkpt>
      <trkpt lat="45.55687" lon="6.65672">
        <ele>677.40002441406</ele>
        <time>2013-04-14T07:18:07Z</time>
      </trkpt>
      <trkpt lat="45.55689" lon="6.65673">
        <ele>678</ele>
        <time>2013-04-14T07:18:08Z</time>
      </trkpt>
      <trkpt lat="45.55691" lon="6.65675">
        <ele>678.59997558594</ele>
        <time>2013-04-14T07:18:09Z</time>
      </trkpt>
      <trkpt lat="45.55692" lon="6.65679">
        <ele>679.59997558594</ele>
        <time>2013-04-14T07:18:11Z</time>
      </trkpt>
      <trkpt lat="45.55694" lon="6.65681">
        <ele>680.40002441406</ele>
        <time>2013-04-14T07:18:12Z</time>
      </trkpt>
      <trkpt lat="45.55697" lon="6.65681">
        <ele>681</ele>
        <time>2013-04-14T07:18:13Z</time>
      </trkpt>
      <trkpt lat="45.55701" lon="6.65678">
        <ele>681.79998779297</ele>
        <time>2013-04-14T07:18:15Z</time>
      </trkpt>
      <trkpt lat="45.55703" lon="6.65676">
        <ele>681.79998779297</ele>
        <time>2013-04-14T07:18:16Z</time>
      </trkpt>
      <trkpt lat="45.55705" lon="6.65673">
        <ele>681.79998779297</ele>
        <time>2013-04-14T07:18:17Z</time>
      </trkpt>
      <trkpt lat="45.55714" lon="6.65657">
        <ele>682.20001220703</ele>
        <time>2013-04-14T07:18:23Z</time>
      </trkpt>
      <trkpt lat="45.5572" lon="6.65639">
        <ele>682.59997558594</ele>
        <time>2013-04-14T07:18:28Z</time>
      </trkpt>
      <trkpt lat="45.55726" lon="6.6562">
        <ele>682.79998779297</ele>
        <time>2013-04-14T07:18:34Z</time>
      </trkpt>
      <trkpt lat="45.55732" lon="6.6562">
        <ele>683.79998779297</ele>
        <time>2013-04-14T07:18:38Z</time>
      </trkpt>
      <trkpt lat="45.55737" lon="6.65625">
        <ele>685</ele>
        <time>2013-04-14T07:18:41Z</time>
      </trkpt>
      <trkpt lat="45.55745" lon="6.65632">
        <ele>687</ele>
        <time>2013-04-14T07:18:46Z</time>
      </trkpt>
      <trkpt lat="45.55748" lon="6.65637">
        <ele>688</ele>
        <time>2013-04-14T07:18:49Z</time>
      </trkpt>
      <trkpt lat="45.5575" lon="6.65639">
        <ele>688.59997558594</ele>
        <time>2013-04-14T07:18:50Z</time>
      </trkpt>
      <trkpt lat="45.55751" lon="6.6564">
        <ele>689</ele>
        <time>2013-04-14T07:18:51Z</time>
      </trkpt>
      <trkpt lat="45.55756" lon="6.65647">
        <ele>690.79998779297</ele>
        <time>2013-04-14T07:18:55Z</time>
      </trkpt>
      <trkpt lat="45.55757" lon="6.65649">
        <ele>691.20001220703</ele>
        <time>2013-04-14T07:18:56Z</time>
      </trkpt>
      <trkpt lat="45.55758" lon="6.65651">
        <ele>691.79998779297</ele>
        <time>2013-04-14T07:18:58Z</time>
      </trkpt>
      <trkpt lat="45.55758" lon="6.65652">
        <ele>692</ele>
        <time>2013-04-14T07:18:59Z</time>
      </trkpt>
      <trkpt lat="45.5576" lon="6.65654">
        <ele>692.59997558594</ele>
        <time>2013-04-14T07:19:00Z</time>
      </trkpt>
      <trkpt lat="45.55762" lon="6.65656">
        <ele>693.20001220703</ele>
        <time>2013-04-14T07:19:02Z</time>
      </trkpt>
      <trkpt lat="45.55763" lon="6.65656">
        <ele>693.79998779297</ele>
        <time>2013-04-14T07:19:03Z</time>
      </trkpt>
      <trkpt lat="45.55765" lon="6.65657">
        <ele>694.20001220703</ele>
        <time>2013-04-14T07:19:04Z</time>
      </trkpt>
      <trkpt lat="45.55767" lon="6.65657">
        <ele>694.79998779297</ele>
        <time>2013-04-14T07:19:06Z</time>
      </trkpt>
      <trkpt lat="45.5577" lon="6.65656">
        <ele>695.40002441406</ele>
        <time>2013-04-14T07:19:07Z</time>
      </trkpt>
      <trkpt lat="45.55772" lon="6.65654">
        <ele>695.79998779297</ele>
        <time>2013-04-14T07:19:08Z</time>
      </trkpt>
      <trkpt lat="45.55776" lon="6.65651">
        <ele>696.59997558594</ele>
        <time>2013-04-14T07:19:10Z</time>
      </trkpt>
      <trkpt lat="45.5578" lon="6.65648">
        <ele>697.20001220703</ele>
        <time>2013-04-14T07:19:12Z</time>
      </trkpt>
      <trkpt lat="45.55789" lon="6.65636">
        <ele>698</ele>
        <time>2013-04-14T07:19:19Z</time>
      </trkpt>
      <trkpt lat="45.55791" lon="6.65634">
        <ele>698.40002441406</ele>
        <time>2013-04-14T07:19:24Z</time>
      </trkpt>
      <trkpt lat="45.55792" lon="6.65632">
        <ele>698.20001220703</ele>
        <time>2013-04-14T07:19:25Z</time>
      </trkpt>
      <trkpt lat="45.55793" lon="6.65631">
        <ele>698.20001220703</ele>
        <time>2013-04-14T07:19:26Z</time>
      </trkpt>
      <trkpt lat="45.55795" lon="6.65629">
        <ele>698.40002441406</ele>
        <time>2013-04-14T07:19:29Z</time>
      </trkpt>
      <trkpt lat="45.55796" lon="6.65628">
        <ele>698.40002441406</ele>
        <time>2013-04-14T07:19:30Z</time>
      </trkpt>
      <trkpt lat="45.55799" lon="6.65626">
        <ele>699.20001220703</ele>
        <time>2013-04-14T07:19:33Z</time>
      </trkpt>
      <trkpt lat="45.55801" lon="6.65626">
        <ele>699.40002441406</ele>
        <time>2013-04-14T07:19:34Z</time>
      </trkpt>
      <trkpt lat="45.55801" lon="6.65625">
        <ele>699.40002441406</ele>
        <time>2013-04-14T07:19:35Z</time>
      </trkpt>
      <trkpt lat="45.55803" lon="6.65625">
        <ele>699.59997558594</ele>
        <time>2013-04-14T07:19:37Z</time>
      </trkpt>
      <trkpt lat="45.55803" lon="6.65624">
        <ele>699.79998779297</ele>
        <time>2013-04-14T07:19:38Z</time>
      </trkpt>
      <trkpt lat="45.55805" lon="6.65623">
        <ele>700</ele>
        <time>2013-04-14T07:19:40Z</time>
      </trkpt>
      <trkpt lat="45.55807" lon="6.65622">
        <ele>700.20001220703</ele>
        <time>2013-04-14T07:19:42Z</time>
      </trkpt>
      <trkpt lat="45.55808" lon="6.65621">
        <ele>700.20001220703</ele>
        <time>2013-04-14T07:19:43Z</time>
      </trkpt>
      <trkpt lat="45.55808" lon="6.65621">
        <ele>700.40002441406</ele>
        <time>2013-04-14T07:19:44Z</time>
      </trkpt>
      <trkpt lat="45.55811" lon="6.65619">
        <ele>700.59997558594</ele>
        <time>2013-04-14T07:19:46Z</time>
      </trkpt>
      <trkpt lat="45.55812" lon="6.65619">
        <ele>700.79998779297</ele>
        <time>2013-04-14T07:19:47Z</time>
      </trkpt>
      <trkpt lat="45.55813" lon="6.65618">
        <ele>701</ele>
        <time>2013-04-14T07:19:48Z</time>
      </trkpt>
      <trkpt lat="45.55815" lon="6.65617">
        <ele>701.20001220703</ele>
        <time>2013-04-14T07:19:50Z</time>
      </trkpt>
      <trkpt lat="45.55816" lon="6.65615">
        <ele>701.20001220703</ele>
        <time>2013-04-14T07:19:51Z</time>
      </trkpt>
      <trkpt lat="45.55816" lon="6.65614">
        <ele>701</ele>
        <time>2013-04-14T07:19:52Z</time>
      </trkpt>
      <trkpt lat="45.55817" lon="6.65614">
        <ele>701.20001220703</ele>
        <time>2013-04-14T07:19:54Z</time>
      </trkpt>
      <trkpt lat="45.55819" lon="6.65615">
        <ele>701.79998779297</ele>
        <time>2013-04-14T07:19:55Z</time>
      </trkpt>
      <trkpt lat="45.55819" lon="6.65615">
        <ele>701.79998779297</ele>
        <time>2013-04-14T07:19:56Z</time>
      </trkpt>
      <trkpt lat="45.55819" lon="6.65619">
        <ele>702.40002441406</ele>
        <time>2013-04-14T07:19:58Z</time>
      </trkpt>
      <trkpt lat="45.5582" lon="6.65623">
        <ele>703.40002441406</ele>
        <time>2013-04-14T07:20:01Z</time>
      </trkpt>
      <trkpt lat="45.5582" lon="6.65627">
        <ele>704.20001220703</ele>
        <time>2013-04-14T07:20:03Z</time>
      </trkpt>
      <trkpt lat="45.5582" lon="6.65628">
        <ele>704.40002441406</ele>
        <time>2013-04-14T07:20:04Z</time>
      </trkpt>
      <trkpt lat="45.5582" lon="6.65631">
        <ele>704.79998779297</ele>
        <time>2013-04-14T07:20:05Z</time>
      </trkpt>
      <trkpt lat="45.5582" lon="6.65636">
        <ele>705.59997558594</ele>
        <time>2013-04-14T07:20:08Z</time>
      </trkpt>
      <trkpt lat="45.55819" lon="6.65639">
        <ele>706</ele>
        <time>2013-04-14T07:20:09Z</time>
      </trkpt>
      <trkpt lat="45.55819" lon="6.6564">
        <ele>706.20001220703</ele>
        <time>2013-04-14T07:20:10Z</time>
      </trkpt>
      <trkpt lat="45.55814" lon="6.65653">
        <ele>707</ele>
        <time>2013-04-14T07:20:16Z</time>
      </trkpt>
      <trkpt lat="45.55813" lon="6.65657">
        <ele>707.40002441406</ele>
        <time>2013-04-14T07:20:19Z</time>
      </trkpt>
      <trkpt lat="45.55813" lon="6.65658">
        <ele>707.40002441406</ele>
        <time>2013-04-14T07:20:20Z</time>
      </trkpt>
      <trkpt lat="45.55812" lon="6.6566">
        <ele>707.40002441406</ele>
        <time>2013-04-14T07:20:22Z</time>
      </trkpt>
      <trkpt lat="45.55812" lon="6.65661">
        <ele>707.59997558594</ele>
        <time>2013-04-14T07:20:23Z</time>
      </trkpt>
      <trkpt lat="45.55811" lon="6.65662">
        <ele>707.59997558594</ele>
        <time>2013-04-14T07:20:24Z</time>
      </trkpt>
      <trkpt lat="45.55811" lon="6.65668">
        <ele>708.79998779297</ele>
        <time>2013-04-14T07:20:32Z</time>
      </trkpt>
      <trkpt lat="45.5581" lon="6.65669">
        <ele>708.79998779297</ele>
        <time>2013-04-14T07:20:33Z</time>
      </trkpt>
      <trkpt lat="45.5581" lon="6.6567">
        <ele>709</ele>
        <time>2013-04-14T07:20:34Z</time>
      </trkpt>
      <trkpt lat="45.55809" lon="6.65669">
        <ele>708.79998779297</ele>
        <time>2013-04-14T07:20:36Z</time>
      </trkpt>
      <trkpt lat="45.55808" lon="6.65671">
        <ele>708.79998779297</ele>
        <time>2013-04-14T07:20:37Z</time>
      </trkpt>
      <trkpt lat="45.55808" lon="6.65673">
        <ele>709.20001220703</ele>
        <time>2013-04-14T07:20:40Z</time>
      </trkpt>
      <trkpt lat="45.55802" lon="6.65678">
        <ele>709.20001220703</ele>
        <time>2013-04-14T07:20:51Z</time>
      </trkpt>
      <trkpt lat="45.55801" lon="6.65678">
        <ele>709</ele>
        <time>2013-04-14T07:20:52Z</time>
      </trkpt>
      <trkpt lat="45.55802" lon="6.6568">
        <ele>709.59997558594</ele>
        <time>2013-04-14T07:20:54Z</time>
      </trkpt>
      <trkpt lat="45.55801" lon="6.6568">
        <ele>709.40002441406</ele>
        <time>2013-04-14T07:20:55Z</time>
      </trkpt>
      <trkpt lat="45.558" lon="6.65682">
        <ele>709.79998779297</ele>
        <time>2013-04-14T07:20:59Z</time>
      </trkpt>
      <trkpt lat="45.55801" lon="6.65684">
        <ele>710.20001220703</ele>
        <time>2013-04-14T07:21:01Z</time>
      </trkpt>
      <trkpt lat="45.558" lon="6.65684">
        <ele>710.20001220703</ele>
        <time>2013-04-14T07:21:02Z</time>
      </trkpt>
      <trkpt lat="45.558" lon="6.65685">
        <ele>710.40002441406</ele>
        <time>2013-04-14T07:21:03Z</time>
      </trkpt>
      <trkpt lat="45.55799" lon="6.65689">
        <ele>711.20001220703</ele>
        <time>2013-04-14T07:21:08Z</time>
      </trkpt>
      <trkpt lat="45.55799" lon="6.65689">
        <ele>711.40002441406</ele>
        <time>2013-04-14T07:21:09Z</time>
      </trkpt>
      <trkpt lat="45.55798" lon="6.65688">
        <ele>711</ele>
        <time>2013-04-14T07:21:10Z</time>
      </trkpt>
      <trkpt lat="45.55798" lon="6.6569">
        <ele>711.40002441406</ele>
        <time>2013-04-14T07:21:12Z</time>
      </trkpt>
      <trkpt lat="45.55797" lon="6.65691">
        <ele>711.40002441406</ele>
        <time>2013-04-14T07:21:13Z</time>
      </trkpt>
      <trkpt lat="45.55797" lon="6.65692">
        <ele>711.59997558594</ele>
        <time>2013-04-14T07:21:14Z</time>
      </trkpt>
      <trkpt lat="45.55797" lon="6.65693">
        <ele>711.79998779297</ele>
        <time>2013-04-14T07:21:16Z</time>
      </trkpt>
      <trkpt lat="45.55797" lon="6.65693">
        <ele>712</ele>
        <time>2013-04-14T07:21:17Z</time>
      </trkpt>
      <trkpt lat="45.55798" lon="6.65694">
        <ele>712.20001220703</ele>
        <time>2013-04-14T07:21:18Z</time>
      </trkpt>
      <trkpt lat="45.55797" lon="6.65696">
        <ele>712.79998779297</ele>
        <time>2013-04-14T07:21:22Z</time>
      </trkpt>
      <trkpt lat="45.55797" lon="6.65696">
        <ele>712.79998779297</ele>
        <time>2013-04-14T07:21:23Z</time>
      </trkpt>
      <trkpt lat="45.55795" lon="6.65698">
        <ele>712.79998779297</ele>
        <time>2013-04-14T07:21:26Z</time>
      </trkpt>
      <trkpt lat="45.55795" lon="6.65699">
        <ele>713</ele>
        <time>2013-04-14T07:21:27Z</time>
      </trkpt>
      <trkpt lat="45.55795" lon="6.65701">
        <ele>713.59997558594</ele>
        <time>2013-04-14T07:21:30Z</time>
      </trkpt>
      <trkpt lat="45.55795" lon="6.65705">
        <ele>714.79998779297</ele>
        <time>2013-04-14T07:21:35Z</time>
      </trkpt>
      <trkpt lat="45.55795" lon="6.65705">
        <ele>714.79998779297</ele>
        <time>2013-04-14T07:21:36Z</time>
      </trkpt>
      <trkpt lat="45.55794" lon="6.65707">
        <ele>715</ele>
        <time>2013-04-14T07:21:37Z</time>
      </trkpt>
      <trkpt lat="45.55793" lon="6.6571">
        <ele>715.40002441406</ele>
        <time>2013-04-14T07:21:41Z</time>
      </trkpt>
      <trkpt lat="45.55793" lon="6.65709">
        <ele>715.20001220703</ele>
        <time>2013-04-14T07:21:42Z</time>
      </trkpt>
      <trkpt lat="45.55792" lon="6.65707">
        <ele>714.40002441406</ele>
        <time>2013-04-14T07:21:43Z</time>
      </trkpt>
      <trkpt lat="45.55792" lon="6.65714">
        <ele>716.40002441406</ele>
        <time>2013-04-14T07:21:45Z</time>
      </trkpt>
      <trkpt lat="45.55792" lon="6.65715">
        <ele>716.40002441406</ele>
        <time>2013-04-14T07:21:46Z</time>
      </trkpt>
      <trkpt lat="45.55789" lon="6.65718">
        <ele>716.59997558594</ele>
        <time>2013-04-14T07:21:51Z</time>
      </trkpt>
      <trkpt lat="45.55787" lon="6.65723">
        <ele>717.40002441406</ele>
        <time>2013-04-14T07:21:56Z</time>
      </trkpt>
      <trkpt lat="45.55786" lon="6.65724">
        <ele>717.59997558594</ele>
        <time>2013-04-14T07:21:57Z</time>
      </trkpt>
      <trkpt lat="45.55786" lon="6.65726">
        <ele>717.79998779297</ele>
        <time>2013-04-14T07:21:58Z</time>
      </trkpt>
      <trkpt lat="45.55785" lon="6.65728">
        <ele>718.40002441406</ele>
        <time>2013-04-14T07:22:00Z</time>
      </trkpt>
      <trkpt lat="45.55786" lon="6.6573">
        <ele>719</ele>
        <time>2013-04-14T07:22:01Z</time>
      </trkpt>
      <trkpt lat="45.55785" lon="6.65732">
        <ele>719.40002441406</ele>
        <time>2013-04-14T07:22:02Z</time>
      </trkpt>
      <trkpt lat="45.55786" lon="6.65735">
        <ele>720.40002441406</ele>
        <time>2013-04-14T07:22:04Z</time>
      </trkpt>
      <trkpt lat="45.55785" lon="6.65739">
        <ele>721.40002441406</ele>
        <time>2013-04-14T07:22:06Z</time>
      </trkpt>
      <trkpt lat="45.55786" lon="6.65743">
        <ele>722.79998779297</ele>
        <time>2013-04-14T07:22:08Z</time>
      </trkpt>
      <trkpt lat="45.55787" lon="6.65747">
        <ele>724.20001220703</ele>
        <time>2013-04-14T07:22:10Z</time>
      </trkpt>
      <trkpt lat="45.55788" lon="6.65749">
        <ele>724.79998779297</ele>
        <time>2013-04-14T07:22:11Z</time>
      </trkpt>
      <trkpt lat="45.55788" lon="6.65753">
        <ele>725.79998779297</ele>
        <time>2013-04-14T07:22:13Z</time>
      </trkpt>
      <trkpt lat="45.55789" lon="6.65755">
        <ele>726.20001220703</ele>
        <time>2013-04-14T07:22:14Z</time>
      </trkpt>
      <trkpt lat="45.55789" lon="6.65757">
        <ele>726.79998779297</ele>
        <time>2013-04-14T07:22:15Z</time>
      </trkpt>
      <trkpt lat="45.55789" lon="6.65761">
        <ele>727.40002441406</ele>
        <time>2013-04-14T07:22:17Z</time>
      </trkpt>
      <trkpt lat="45.5579" lon="6.65762">
        <ele>727.79998779297</ele>
        <time>2013-04-14T07:22:18Z</time>
      </trkpt>
      <trkpt lat="45.55791" lon="6.65765">
        <ele>728.59997558594</ele>
        <time>2013-04-14T07:22:19Z</time>
      </trkpt>
      <trkpt lat="45.55791" lon="6.65769">
        <ele>729.20001220703</ele>
        <time>2013-04-14T07:22:21Z</time>
      </trkpt>
      <trkpt lat="45.55791" lon="6.6577">
        <ele>729.40002441406</ele>
        <time>2013-04-14T07:22:22Z</time>
      </trkpt>
      <trkpt lat="45.55791" lon="6.65772">
        <ele>729.59997558594</ele>
        <time>2013-04-14T07:22:23Z</time>
      </trkpt>
      <trkpt lat="45.5579" lon="6.65775">
        <ele>729.79998779297</ele>
        <time>2013-04-14T07:22:25Z</time>
      </trkpt>
      <trkpt lat="45.5579" lon="6.65776">
        <ele>730.40002441406</ele>
        <time>2013-04-14T07:22:26Z</time>
      </trkpt>
      <trkpt lat="45.55789" lon="6.65781">
        <ele>730.40002441406</ele>
        <time>2013-04-14T07:22:29Z</time>
      </trkpt>
      <trkpt lat="45.55788" lon="6.65783">
        <ele>730.59997558594</ele>
        <time>2013-04-14T07:22:31Z</time>
      </trkpt>
      <trkpt lat="45.55788" lon="6.65785">
        <ele>730.79998779297</ele>
        <time>2013-04-14T07:22:32Z</time>
      </trkpt>
      <trkpt lat="45.55787" lon="6.65786">
        <ele>730.79998779297</ele>
        <time>2013-04-14T07:22:33Z</time>
      </trkpt>
      <trkpt lat="45.55788" lon="6.65791">
        <ele>732</ele>
        <time>2013-04-14T07:22:40Z</time>
      </trkpt>
      <trkpt lat="45.55789" lon="6.65791">
        <ele>732.20001220703</ele>
        <time>2013-04-14T07:22:41Z</time>
      </trkpt>
      <trkpt lat="45.55793" lon="6.6579">
        <ele>733.59997558594</ele>
        <time>2013-04-14T07:22:47Z</time>
      </trkpt>
      <trkpt lat="45.55793" lon="6.6579">
        <ele>733.40002441406</ele>
        <time>2013-04-14T07:22:48Z</time>
      </trkpt>
      <trkpt lat="45.55794" lon="6.6579">
        <ele>733.40002441406</ele>
        <time>2013-04-14T07:22:49Z</time>
      </trkpt>
      <trkpt lat="45.55793" lon="6.6579">
        <ele>733.59997558594</ele>
        <time>2013-04-14T07:22:51Z</time>
      </trkpt>
      <trkpt lat="45.55794" lon="6.6579">
        <ele>733.59997558594</ele>
        <time>2013-04-14T07:22:59Z</time>
      </trkpt>
      <trkpt lat="45.55795" lon="6.6579">
        <ele>734</ele>
        <time>2013-04-14T07:23:00Z</time>
      </trkpt>
      <trkpt lat="45.55796" lon="6.65789">
        <ele>734.20001220703</ele>
        <time>2013-04-14T07:23:02Z</time>
      </trkpt>
      <trkpt lat="45.55797" lon="6.65789">
        <ele>734.40002441406</ele>
        <time>2013-04-14T07:23:03Z</time>
      </trkpt>
      <trkpt lat="45.55796" lon="6.65789">
        <ele>734</ele>
        <time>2013-04-14T07:23:04Z</time>
      </trkpt>
      <trkpt lat="45.55797" lon="6.65789">
        <ele>734.59997558594</ele>
        <time>2013-04-14T07:23:06Z</time>
      </trkpt>
      <trkpt lat="45.55797" lon="6.65788">
        <ele>734.40002441406</ele>
        <time>2013-04-14T07:23:08Z</time>
      </trkpt>
      <trkpt lat="45.55796" lon="6.65789">
        <ele>734.20001220703</ele>
        <time>2013-04-14T07:23:09Z</time>
      </trkpt>
      <trkpt lat="45.55797" lon="6.65788">
        <ele>734.40002441406</ele>
        <time>2013-04-14T07:23:11Z</time>
      </trkpt>
      <trkpt lat="45.55796" lon="6.65788">
        <ele>734</ele>
        <time>2013-04-14T07:23:12Z</time>
      </trkpt>
      <trkpt lat="45.55795" lon="6.65789">
        <ele>734</ele>
        <time>2013-04-14T07:23:13Z</time>
      </trkpt>
      <trkpt lat="45.5578" lon="6.65798">
        <ele>730</ele>
        <time>2013-04-14T07:23:22Z</time>
      </trkpt>
      <trkpt lat="45.55778" lon="6.658">
        <ele>729.79998779297</ele>
        <time>2013-04-14T07:23:25Z</time>
      </trkpt>
      <trkpt lat="45.55776" lon="6.65804">
        <ele>729.79998779297</ele>
        <time>2013-04-14T07:23:28Z</time>
      </trkpt>
      <trkpt lat="45.55775" lon="6.65805">
        <ele>729.79998779297</ele>
        <time>2013-04-14T07:23:30Z</time>
      </trkpt>
      <trkpt lat="45.55776" lon="6.65801">
        <ele>729.40002441406</ele>
        <time>2013-04-14T07:23:32Z</time>
      </trkpt>
      <trkpt lat="45.55785" lon="6.65795">
        <ele>731.40002441406</ele>
        <time>2013-04-14T07:23:37Z</time>
      </trkpt>
      <trkpt lat="45.55787" lon="6.65795">
        <ele>732.20001220703</ele>
        <time>2013-04-14T07:23:38Z</time>
      </trkpt>
      <trkpt lat="45.55789" lon="6.65794">
        <ele>732.59997558594</ele>
        <time>2013-04-14T07:23:39Z</time>
      </trkpt>
      <trkpt lat="45.55792" lon="6.65792">
        <ele>733.40002441406</ele>
        <time>2013-04-14T07:23:41Z</time>
      </trkpt>
      <trkpt lat="45.55794" lon="6.65791">
        <ele>733.79998779297</ele>
        <time>2013-04-14T07:23:42Z</time>
      </trkpt>
      <trkpt lat="45.558" lon="6.65788">
        <ele>735.20001220703</ele>
        <time>2013-04-14T07:23:46Z</time>
      </trkpt>
      <trkpt lat="45.55805" lon="6.65787">
        <ele>736.79998779297</ele>
        <time>2013-04-14T07:23:50Z</time>
      </trkpt>
      <trkpt lat="45.55806" lon="6.65786">
        <ele>737</ele>
        <time>2013-04-14T07:23:51Z</time>
      </trkpt>
      <trkpt lat="45.55807" lon="6.65787">
        <ele>737.40002441406</ele>
        <time>2013-04-14T07:23:52Z</time>
      </trkpt>
      <trkpt lat="45.55808" lon="6.65787">
        <ele>737.59997558594</ele>
        <time>2013-04-14T07:23:54Z</time>
      </trkpt>
      <trkpt lat="45.55809" lon="6.65787">
        <ele>738</ele>
        <time>2013-04-14T07:23:55Z</time>
      </trkpt>
      <trkpt lat="45.55808" lon="6.65787">
        <ele>737.79998779297</ele>
        <time>2013-04-14T07:23:56Z</time>
      </trkpt>
      <trkpt lat="45.55809" lon="6.65787">
        <ele>738</ele>
        <time>2013-04-14T07:23:58Z</time>
      </trkpt>
      <trkpt lat="45.55809" lon="6.65787">
        <ele>738</ele>
        <time>2013-04-14T07:23:59Z</time>
      </trkpt>
      <trkpt lat="45.55809" lon="6.65787">
        <ele>738</ele>
        <time>2013-04-14T07:24:00Z</time>
      </trkpt>
      <trkpt lat="45.55809" lon="6.65788">
        <ele>738.20001220703</ele>
        <time>2013-04-14T07:24:02Z</time>
      </trkpt>
      <trkpt lat="45.55813" lon="6.65794">
        <ele>740.59997558594</ele>
        <time>2013-04-14T07:24:11Z</time>
      </trkpt>
      <trkpt lat="45.55819" lon="6.65802">
        <ele>744</ele>
        <time>2013-04-14T07:24:18Z</time>
      </trkpt>
      <trkpt lat="45.55819" lon="6.65803">
        <ele>744.20001220703</ele>
        <time>2013-04-14T07:24:19Z</time>
      </trkpt>
      <trkpt lat="45.5582" lon="6.65804">
        <ele>744.59997558594</ele>
        <time>2013-04-14T07:24:20Z</time>
      </trkpt>
      <trkpt lat="45.55821" lon="6.65805">
        <ele>745.40002441406</ele>
        <time>2013-04-14T07:24:22Z</time>
      </trkpt>
      <trkpt lat="45.55821" lon="6.65806">
        <ele>745.40002441406</ele>
        <time>2013-04-14T07:24:23Z</time>
      </trkpt>
      <trkpt lat="45.55821" lon="6.65808">
        <ele>746</ele>
        <time>2013-04-14T07:24:24Z</time>
      </trkpt>
      <trkpt lat="45.55822" lon="6.6581">
        <ele>746.59997558594</ele>
        <time>2013-04-14T07:24:26Z</time>
      </trkpt>
      <trkpt lat="45.55822" lon="6.65811">
        <ele>746.79998779297</ele>
        <time>2013-04-14T07:24:27Z</time>
      </trkpt>
      <trkpt lat="45.55823" lon="6.65812">
        <ele>747.20001220703</ele>
        <time>2013-04-14T07:24:28Z</time>
      </trkpt>
      <trkpt lat="45.55823" lon="6.65815">
        <ele>748</ele>
        <time>2013-04-14T07:24:30Z</time>
      </trkpt>
      <trkpt lat="45.55823" lon="6.65817">
        <ele>748.20001220703</ele>
        <time>2013-04-14T07:24:31Z</time>
      </trkpt>
      <trkpt lat="45.55823" lon="6.65819">
        <ele>748.59997558594</ele>
        <time>2013-04-14T07:24:32Z</time>
      </trkpt>
      <trkpt lat="45.55824" lon="6.65822">
        <ele>749.59997558594</ele>
        <time>2013-04-14T07:24:34Z</time>
      </trkpt>
      <trkpt lat="45.55824" lon="6.65823">
        <ele>749.59997558594</ele>
        <time>2013-04-14T07:24:35Z</time>
      </trkpt>
      <trkpt lat="45.55823" lon="6.65825">
        <ele>749.79998779297</ele>
        <time>2013-04-14T07:24:36Z</time>
      </trkpt>
      <trkpt lat="45.55825" lon="6.65833">
        <ele>752</ele>
        <time>2013-04-14T07:24:40Z</time>
      </trkpt>
      <trkpt lat="45.55826" lon="6.65834">
        <ele>752.20001220703</ele>
        <time>2013-04-14T07:24:41Z</time>
      </trkpt>
      <trkpt lat="45.55827" lon="6.65835">
        <ele>752.59997558594</ele>
        <time>2013-04-14T07:24:42Z</time>
      </trkpt>
      <trkpt lat="45.55828" lon="6.65841">
        <ele>753.40002441406</ele>
        <time>2013-04-14T07:24:45Z</time>
      </trkpt>
      <trkpt lat="45.55829" lon="6.65843">
        <ele>754.20001220703</ele>
        <time>2013-04-14T07:24:46Z</time>
      </trkpt>
      <trkpt lat="45.55829" lon="6.65847">
        <ele>754.40002441406</ele>
        <time>2013-04-14T07:24:48Z</time>
      </trkpt>
      <trkpt lat="45.5583" lon="6.65848">
        <ele>754.59997558594</ele>
        <time>2013-04-14T07:24:49Z</time>
      </trkpt>
      <trkpt lat="45.5583" lon="6.65849">
        <ele>755</ele>
        <time>2013-04-14T07:24:50Z</time>
      </trkpt>
      <trkpt lat="45.55831" lon="6.65853">
        <ele>755.59997558594</ele>
        <time>2013-04-14T07:24:54Z</time>
      </trkpt>
      <trkpt lat="45.55831" lon="6.65855">
        <ele>755.59997558594</ele>
        <time>2013-04-14T07:24:55Z</time>
      </trkpt>
      <trkpt lat="45.55831" lon="6.65856">
        <ele>755.79998779297</ele>
        <time>2013-04-14T07:24:56Z</time>
      </trkpt>
      <trkpt lat="45.55832" lon="6.6586">
        <ele>756.20001220703</ele>
        <time>2013-04-14T07:24:58Z</time>
      </trkpt>
      <trkpt lat="45.55832" lon="6.65862">
        <ele>756.40002441406</ele>
        <time>2013-04-14T07:24:59Z</time>
      </trkpt>
      <trkpt lat="45.55834" lon="6.65864">
        <ele>757.40002441406</ele>
        <time>2013-04-14T07:25:01Z</time>
      </trkpt>
      <trkpt lat="45.55836" lon="6.65867">
        <ele>758</ele>
        <time>2013-04-14T07:25:03Z</time>
      </trkpt>
      <trkpt lat="45.55837" lon="6.65868">
        <ele>758.40002441406</ele>
        <time>2013-04-14T07:25:04Z</time>
      </trkpt>
      <trkpt lat="45.55838" lon="6.65869">
        <ele>758.79998779297</ele>
        <time>2013-04-14T07:25:05Z</time>
      </trkpt>
      <trkpt lat="45.55838" lon="6.65872">
        <ele>759</ele>
        <time>2013-04-14T07:25:07Z</time>
      </trkpt>
      <trkpt lat="45.55839" lon="6.65874">
        <ele>759.40002441406</ele>
        <time>2013-04-14T07:25:08Z</time>
      </trkpt>
      <trkpt lat="45.55839" lon="6.65876">
        <ele>759.59997558594</ele>
        <time>2013-04-14T07:25:09Z</time>
      </trkpt>
      <trkpt lat="45.55838" lon="6.65878">
        <ele>759.59997558594</ele>
        <time>2013-04-14T07:25:11Z</time>
      </trkpt>
      <trkpt lat="45.55838" lon="6.6588">
        <ele>759.40002441406</ele>
        <time>2013-04-14T07:25:13Z</time>
      </trkpt>
      <trkpt lat="45.55838" lon="6.65886">
        <ele>760</ele>
        <time>2013-04-14T07:25:17Z</time>
      </trkpt>
      <trkpt lat="45.55836" lon="6.65887">
        <ele>759.59997558594</ele>
        <time>2013-04-14T07:25:18Z</time>
      </trkpt>
      <trkpt lat="45.55835" lon="6.6589">
        <ele>759.40002441406</ele>
        <time>2013-04-14T07:25:19Z</time>
      </trkpt>
      <trkpt lat="45.55835" lon="6.65895">
        <ele>760</ele>
        <time>2013-04-14T07:25:21Z</time>
      </trkpt>
      <trkpt lat="45.55835" lon="6.659">
        <ele>760</ele>
        <time>2013-04-14T07:25:23Z</time>
      </trkpt>
      <trkpt lat="45.55834" lon="6.65912">
        <ele>760.79998779297</ele>
        <time>2013-04-14T07:25:28Z</time>
      </trkpt>
      <trkpt lat="45.55833" lon="6.65922">
        <ele>761.20001220703</ele>
        <time>2013-04-14T07:25:32Z</time>
      </trkpt>
      <trkpt lat="45.55834" lon="6.65924">
        <ele>761.59997558594</ele>
        <time>2013-04-14T07:25:33Z</time>
      </trkpt>
      <trkpt lat="45.55834" lon="6.65927">
        <ele>762</ele>
        <time>2013-04-14T07:25:34Z</time>
      </trkpt>
      <trkpt lat="45.55836" lon="6.65932">
        <ele>762.59997558594</ele>
        <time>2013-04-14T07:25:36Z</time>
      </trkpt>
      <trkpt lat="45.55837" lon="6.65934">
        <ele>763</ele>
        <time>2013-04-14T07:25:37Z</time>
      </trkpt>
      <trkpt lat="45.55838" lon="6.65935">
        <ele>763.40002441406</ele>
        <time>2013-04-14T07:25:38Z</time>
      </trkpt>
      <trkpt lat="45.5584" lon="6.65938">
        <ele>764</ele>
        <time>2013-04-14T07:25:40Z</time>
      </trkpt>
      <trkpt lat="45.55841" lon="6.65939">
        <ele>764.40002441406</ele>
        <time>2013-04-14T07:25:41Z</time>
      </trkpt>
      <trkpt lat="45.55841" lon="6.6594">
        <ele>764.59997558594</ele>
        <time>2013-04-14T07:25:42Z</time>
      </trkpt>
      <trkpt lat="45.55844" lon="6.65942">
        <ele>765.40002441406</ele>
        <time>2013-04-14T07:25:44Z</time>
      </trkpt>
      <trkpt lat="45.55846" lon="6.65942">
        <ele>765.79998779297</ele>
        <time>2013-04-14T07:25:45Z</time>
      </trkpt>
      <trkpt lat="45.55848" lon="6.65943">
        <ele>766.59997558594</ele>
        <time>2013-04-14T07:25:47Z</time>
      </trkpt>
      <trkpt lat="45.55851" lon="6.65942">
        <ele>767.20001220703</ele>
        <time>2013-04-14T07:25:49Z</time>
      </trkpt>
      <trkpt lat="45.55853" lon="6.65942">
        <ele>767.59997558594</ele>
        <time>2013-04-14T07:25:51Z</time>
      </trkpt>
      <trkpt lat="45.55855" lon="6.65944">
        <ele>768.40002441406</ele>
        <time>2013-04-14T07:25:54Z</time>
      </trkpt>
      <trkpt lat="45.55856" lon="6.65947">
        <ele>768.79998779297</ele>
        <time>2013-04-14T07:25:55Z</time>
      </trkpt>
      <trkpt lat="45.55857" lon="6.6595">
        <ele>769.20001220703</ele>
        <time>2013-04-14T07:25:56Z</time>
      </trkpt>
      <trkpt lat="45.55858" lon="6.65956">
        <ele>770</ele>
        <time>2013-04-14T07:25:58Z</time>
      </trkpt>
      <trkpt lat="45.55859" lon="6.65959">
        <ele>770.20001220703</ele>
        <time>2013-04-14T07:25:59Z</time>
      </trkpt>
      <trkpt lat="45.55859" lon="6.65962">
        <ele>770.59997558594</ele>
        <time>2013-04-14T07:26:00Z</time>
      </trkpt>
      <trkpt lat="45.5586" lon="6.65967">
        <ele>771.20001220703</ele>
        <time>2013-04-14T07:26:02Z</time>
      </trkpt>
      <trkpt lat="45.55862" lon="6.65969">
        <ele>771.79998779297</ele>
        <time>2013-04-14T07:26:03Z</time>
      </trkpt>
      <trkpt lat="45.55864" lon="6.65977">
        <ele>772.79998779297</ele>
        <time>2013-04-14T07:26:06Z</time>
      </trkpt>
      <trkpt lat="45.55873" lon="6.65995">
        <ele>776</ele>
        <time>2013-04-14T07:26:13Z</time>
      </trkpt>
      <trkpt lat="45.55874" lon="6.65997">
        <ele>776.40002441406</ele>
        <time>2013-04-14T07:26:14Z</time>
      </trkpt>
      <trkpt lat="45.55875" lon="6.65999">
        <ele>776.79998779297</ele>
        <time>2013-04-14T07:26:15Z</time>
      </trkpt>
      <trkpt lat="45.55877" lon="6.66004">
        <ele>777.59997558594</ele>
        <time>2013-04-14T07:26:17Z</time>
      </trkpt>
      <trkpt lat="45.55878" lon="6.66006">
        <ele>777.79998779297</ele>
        <time>2013-04-14T07:26:18Z</time>
      </trkpt>
      <trkpt lat="45.55887" lon="6.66022">
        <ele>780.20001220703</ele>
        <time>2013-04-14T07:26:25Z</time>
      </trkpt>
      <trkpt lat="45.55889" lon="6.66027">
        <ele>780.79998779297</ele>
        <time>2013-04-14T07:26:27Z</time>
      </trkpt>
      <trkpt lat="45.5589" lon="6.6603">
        <ele>781.20001220703</ele>
        <time>2013-04-14T07:26:28Z</time>
      </trkpt>
      <trkpt lat="45.55891" lon="6.66032">
        <ele>781.40002441406</ele>
        <time>2013-04-14T07:26:29Z</time>
      </trkpt>
      <trkpt lat="45.55891" lon="6.66041">
        <ele>781.59997558594</ele>
        <time>2013-04-14T07:26:32Z</time>
      </trkpt>
      <trkpt lat="45.55892" lon="6.6605">
        <ele>782</ele>
        <time>2013-04-14T07:26:35Z</time>
      </trkpt>
      <trkpt lat="45.55893" lon="6.66054">
        <ele>782.40002441406</ele>
        <time>2013-04-14T07:26:37Z</time>
      </trkpt>
      <trkpt lat="45.55893" lon="6.66058">
        <ele>782.40002441406</ele>
        <time>2013-04-14T07:26:38Z</time>
      </trkpt>
      <trkpt lat="45.55893" lon="6.66061">
        <ele>782.40002441406</ele>
        <time>2013-04-14T07:26:39Z</time>
      </trkpt>
      <trkpt lat="45.55894" lon="6.66067">
        <ele>782.79998779297</ele>
        <time>2013-04-14T07:26:41Z</time>
      </trkpt>
      <trkpt lat="45.55895" lon="6.66081">
        <ele>783.40002441406</ele>
        <time>2013-04-14T07:26:46Z</time>
      </trkpt>
      <trkpt lat="45.55895" lon="6.66085">
        <ele>783.40002441406</ele>
        <time>2013-04-14T07:26:47Z</time>
      </trkpt>
      <trkpt lat="45.55896" lon="6.6609">
        <ele>783.59997558594</ele>
        <time>2013-04-14T07:26:49Z</time>
      </trkpt>
      <trkpt lat="45.55897" lon="6.66092">
        <ele>783.59997558594</ele>
        <time>2013-04-14T07:26:50Z</time>
      </trkpt>
      <trkpt lat="45.55897" lon="6.66095">
        <ele>783.59997558594</ele>
        <time>2013-04-14T07:26:51Z</time>
      </trkpt>
      <trkpt lat="45.55899" lon="6.6611">
        <ele>783.79998779297</ele>
        <time>2013-04-14T07:26:57Z</time>
      </trkpt>
      <trkpt lat="45.55899" lon="6.66113">
        <ele>783.79998779297</ele>
        <time>2013-04-14T07:26:58Z</time>
      </trkpt>
      <trkpt lat="45.55899" lon="6.66117">
        <ele>783.79998779297</ele>
        <time>2013-04-14T07:26:59Z</time>
      </trkpt>
      <trkpt lat="45.55901" lon="6.66122">
        <ele>784.20001220703</ele>
        <time>2013-04-14T07:27:01Z</time>
      </trkpt>
      <trkpt lat="45.55901" lon="6.66124">
        <ele>784.20001220703</ele>
        <time>2013-04-14T07:27:02Z</time>
      </trkpt>
      <trkpt lat="45.55901" lon="6.66126">
        <ele>784</ele>
        <time>2013-04-14T07:27:03Z</time>
      </trkpt>
      <trkpt lat="45.55911" lon="6.66136">
        <ele>787.20001220703</ele>
        <time>2013-04-14T07:27:09Z</time>
      </trkpt>
      <trkpt lat="45.55914" lon="6.66136">
        <ele>788</ele>
        <time>2013-04-14T07:27:10Z</time>
      </trkpt>
      <trkpt lat="45.5592" lon="6.66135">
        <ele>789.40002441406</ele>
        <time>2013-04-14T07:27:13Z</time>
      </trkpt>
      <trkpt lat="45.55923" lon="6.66135">
        <ele>790</ele>
        <time>2013-04-14T07:27:14Z</time>
      </trkpt>
      <trkpt lat="45.55925" lon="6.66134">
        <ele>790.40002441406</ele>
        <time>2013-04-14T07:27:15Z</time>
      </trkpt>
      <trkpt lat="45.55931" lon="6.6613">
        <ele>791.20001220703</ele>
        <time>2013-04-14T07:27:18Z</time>
      </trkpt>
      <trkpt lat="45.55933" lon="6.66128">
        <ele>791.79998779297</ele>
        <time>2013-04-14T07:27:19Z</time>
      </trkpt>
      <trkpt lat="45.55935" lon="6.66126">
        <ele>792</ele>
        <time>2013-04-14T07:27:20Z</time>
      </trkpt>
      <trkpt lat="45.55938" lon="6.66122">
        <ele>792.79998779297</ele>
        <time>2013-04-14T07:27:22Z</time>
      </trkpt>
      <trkpt lat="45.55941" lon="6.66121">
        <ele>793.20001220703</ele>
        <time>2013-04-14T07:27:23Z</time>
      </trkpt>
      <trkpt lat="45.55942" lon="6.66121">
        <ele>793.40002441406</ele>
        <time>2013-04-14T07:27:24Z</time>
      </trkpt>
      <trkpt lat="45.55953" lon="6.66138">
        <ele>795</ele>
        <time>2013-04-14T07:27:31Z</time>
      </trkpt>
      <trkpt lat="45.55954" lon="6.6614">
        <ele>795</ele>
        <time>2013-04-14T07:27:32Z</time>
      </trkpt>
      <trkpt lat="45.55955" lon="6.66143">
        <ele>795</ele>
        <time>2013-04-14T07:27:33Z</time>
      </trkpt>
      <trkpt lat="45.55955" lon="6.66149">
        <ele>795</ele>
        <time>2013-04-14T07:27:35Z</time>
      </trkpt>
      <trkpt lat="45.55956" lon="6.66151">
        <ele>795</ele>
        <time>2013-04-14T07:27:36Z</time>
      </trkpt>
      <trkpt lat="45.55957" lon="6.66165">
        <ele>794.79998779297</ele>
        <time>2013-04-14T07:27:40Z</time>
      </trkpt>
      <trkpt lat="45.55957" lon="6.66171">
        <ele>794.40002441406</ele>
        <time>2013-04-14T07:27:42Z</time>
      </trkpt>
      <trkpt lat="45.55953" lon="6.66178">
        <ele>793</ele>
        <time>2013-04-14T07:27:45Z</time>
      </trkpt>
      <trkpt lat="45.55952" lon="6.66181">
        <ele>792.79998779297</ele>
        <time>2013-04-14T07:27:46Z</time>
      </trkpt>
      <trkpt lat="45.55955" lon="6.66187">
        <ele>792.59997558594</ele>
        <time>2013-04-14T07:27:48Z</time>
      </trkpt>
      <trkpt lat="45.55957" lon="6.66192">
        <ele>792.59997558594</ele>
        <time>2013-04-14T07:27:50Z</time>
      </trkpt>
      <trkpt lat="45.55962" lon="6.66206">
        <ele>792.20001220703</ele>
        <time>2013-04-14T07:27:56Z</time>
      </trkpt>
      <trkpt lat="45.55964" lon="6.66212">
        <ele>792.20001220703</ele>
        <time>2013-04-14T07:27:58Z</time>
      </trkpt>
      <trkpt lat="45.55966" lon="6.66214">
        <ele>792.40002441406</ele>
        <time>2013-04-14T07:27:59Z</time>
      </trkpt>
      <trkpt lat="45.55969" lon="6.66218">
        <ele>792.40002441406</ele>
        <time>2013-04-14T07:28:01Z</time>
      </trkpt>
      <trkpt lat="45.5597" lon="6.6622">
        <ele>792.59997558594</ele>
        <time>2013-04-14T07:28:02Z</time>
      </trkpt>
      <trkpt lat="45.55972" lon="6.66222">
        <ele>792.79998779297</ele>
        <time>2013-04-14T07:28:03Z</time>
      </trkpt>
      <trkpt lat="45.55979" lon="6.66233">
        <ele>793.59997558594</ele>
        <time>2013-04-14T07:28:10Z</time>
      </trkpt>
      <trkpt lat="45.55981" lon="6.66235">
        <ele>793.59997558594</ele>
        <time>2013-04-14T07:28:11Z</time>
      </trkpt>
      <trkpt lat="45.55983" lon="6.66237">
        <ele>794</ele>
        <time>2013-04-14T07:28:12Z</time>
      </trkpt>
      <trkpt lat="45.55987" lon="6.66241">
        <ele>794.59997558594</ele>
        <time>2013-04-14T07:28:14Z</time>
      </trkpt>
      <trkpt lat="45.55988" lon="6.66243">
        <ele>794.79998779297</ele>
        <time>2013-04-14T07:28:15Z</time>
      </trkpt>
      <trkpt lat="45.55997" lon="6.66256">
        <ele>795.40002441406</ele>
        <time>2013-04-14T07:28:20Z</time>
      </trkpt>
      <trkpt lat="45.55999" lon="6.66262">
        <ele>795.20001220703</ele>
        <time>2013-04-14T07:28:22Z</time>
      </trkpt>
      <trkpt lat="45.56" lon="6.66265">
        <ele>795</ele>
        <time>2013-04-14T07:28:23Z</time>
      </trkpt>
      <trkpt lat="45.56001" lon="6.66267">
        <ele>795</ele>
        <time>2013-04-14T07:28:24Z</time>
      </trkpt>
      <trkpt lat="45.56001" lon="6.66275">
        <ele>794.40002441406</ele>
        <time>2013-04-14T07:28:26Z</time>
      </trkpt>
      <trkpt lat="45.56002" lon="6.66277">
        <ele>794</ele>
        <time>2013-04-14T07:28:27Z</time>
      </trkpt>
      <trkpt lat="45.56008" lon="6.66296">
        <ele>793.40002441406</ele>
        <time>2013-04-14T07:28:33Z</time>
      </trkpt>
      <trkpt lat="45.56024" lon="6.66323">
        <ele>794.79998779297</ele>
        <time>2013-04-14T07:28:42Z</time>
      </trkpt>
      <trkpt lat="45.56026" lon="6.66327">
        <ele>794.79998779297</ele>
        <time>2013-04-14T07:28:43Z</time>
      </trkpt>
      <trkpt lat="45.56038" lon="6.66349">
        <ele>793.79998779297</ele>
        <time>2013-04-14T07:28:50Z</time>
      </trkpt>
      <trkpt lat="45.56041" lon="6.66355">
        <ele>793.40002441406</ele>
        <time>2013-04-14T07:28:52Z</time>
      </trkpt>
      <trkpt lat="45.56046" lon="6.66359">
        <ele>794.20001220703</ele>
        <time>2013-04-14T07:28:56Z</time>
      </trkpt>
      <trkpt lat="45.56045" lon="6.66359">
        <ele>794</ele>
        <time>2013-04-14T07:28:58Z</time>
      </trkpt>
      <trkpt lat="45.56045" lon="6.66359">
        <ele>794</ele>
        <time>2013-04-14T07:28:59Z</time>
      </trkpt>
      <trkpt lat="45.56046" lon="6.66359">
        <ele>794.20001220703</ele>
        <time>2013-04-14T07:29:00Z</time>
      </trkpt>
      <trkpt lat="45.56046" lon="6.66359">
        <ele>794</ele>
        <time>2013-04-14T07:29:02Z</time>
      </trkpt>
      <trkpt lat="45.56047" lon="6.6636">
        <ele>794.20001220703</ele>
        <time>2013-04-14T07:29:04Z</time>
      </trkpt>
      <trkpt lat="45.56048" lon="6.66358">
        <ele>794.79998779297</ele>
        <time>2013-04-14T07:29:08Z</time>
      </trkpt>
      <trkpt lat="45.56047" lon="6.66361">
        <ele>794.20001220703</ele>
        <time>2013-04-14T07:29:13Z</time>
      </trkpt>
      <trkpt lat="45.56047" lon="6.66361">
        <ele>794</ele>
        <time>2013-04-14T07:29:14Z</time>
      </trkpt>
      <trkpt lat="45.56048" lon="6.66364">
        <ele>793.59997558594</ele>
        <time>2013-04-14T07:29:22Z</time>
      </trkpt>
      <trkpt lat="45.56061" lon="6.66389">
        <ele>793.20001220703</ele>
        <time>2013-04-14T07:29:31Z</time>
      </trkpt>
      <trkpt lat="45.56067" lon="6.66403">
        <ele>793</ele>
        <time>2013-04-14T07:29:36Z</time>
      </trkpt>
      <trkpt lat="45.56067" lon="6.66407">
        <ele>792.59997558594</ele>
        <time>2013-04-14T07:29:37Z</time>
      </trkpt>
      <trkpt lat="45.56081" lon="6.6643">
        <ele>793.79998779297</ele>
        <time>2013-04-14T07:29:45Z</time>
      </trkpt>
      <trkpt lat="45.56089" lon="6.66442">
        <ele>794</ele>
        <time>2013-04-14T07:29:49Z</time>
      </trkpt>
      <trkpt lat="45.56103" lon="6.66464">
        <ele>794.79998779297</ele>
        <time>2013-04-14T07:29:56Z</time>
      </trkpt>
      <trkpt lat="45.56105" lon="6.66467">
        <ele>795</ele>
        <time>2013-04-14T07:29:57Z</time>
      </trkpt>
      <trkpt lat="45.56107" lon="6.6647">
        <ele>795</ele>
        <time>2013-04-14T07:29:58Z</time>
      </trkpt>
      <trkpt lat="45.56113" lon="6.6648">
        <ele>795.40002441406</ele>
        <time>2013-04-14T07:30:01Z</time>
      </trkpt>
      <trkpt lat="45.56116" lon="6.66486">
        <ele>795.59997558594</ele>
        <time>2013-04-14T07:30:03Z</time>
      </trkpt>
      <trkpt lat="45.56122" lon="6.66497">
        <ele>795.79998779297</ele>
        <time>2013-04-14T07:30:06Z</time>
      </trkpt>
      <trkpt lat="45.56132" lon="6.66517">
        <ele>796</ele>
        <time>2013-04-14T07:30:13Z</time>
      </trkpt>
      <trkpt lat="45.56145" lon="6.66532">
        <ele>798.59997558594</ele>
        <time>2013-04-14T07:30:18Z</time>
      </trkpt>
      <trkpt lat="45.56149" lon="6.66544">
        <ele>798.40002441406</ele>
        <time>2013-04-14T07:30:22Z</time>
      </trkpt>
      <trkpt lat="45.56157" lon="6.66555">
        <ele>799.59997558594</ele>
        <time>2013-04-14T07:30:26Z</time>
      </trkpt>
      <trkpt lat="45.56159" lon="6.66572">
        <ele>797.20001220703</ele>
        <time>2013-04-14T07:30:30Z</time>
      </trkpt>
      <trkpt lat="45.56163" lon="6.66596">
        <ele>795.59997558594</ele>
        <time>2013-04-14T07:30:36Z</time>
      </trkpt>
      <trkpt lat="45.56168" lon="6.66634">
        <ele>793</ele>
        <time>2013-04-14T07:30:47Z</time>
      </trkpt>
      <trkpt lat="45.56173" lon="6.66649">
        <ele>793.40002441406</ele>
        <time>2013-04-14T07:30:52Z</time>
      </trkpt>
      <trkpt lat="45.56175" lon="6.66658">
        <ele>793.40002441406</ele>
        <time>2013-04-14T07:30:55Z</time>
      </trkpt>
      <trkpt lat="45.56178" lon="6.66664">
        <ele>794.20001220703</ele>
        <time>2013-04-14T07:30:57Z</time>
      </trkpt>
      <trkpt lat="45.56179" lon="6.66667">
        <ele>794.20001220703</ele>
        <time>2013-04-14T07:30:58Z</time>
      </trkpt>
      <trkpt lat="45.5618" lon="6.6667">
        <ele>794.40002441406</ele>
        <time>2013-04-14T07:30:59Z</time>
      </trkpt>
      <trkpt lat="45.56183" lon="6.66677">
        <ele>794.59997558594</ele>
        <time>2013-04-14T07:31:01Z</time>
      </trkpt>
      <trkpt lat="45.56184" lon="6.66692">
        <ele>793.79998779297</ele>
        <time>2013-04-14T07:31:05Z</time>
      </trkpt>
      <trkpt lat="45.56192" lon="6.66721">
        <ele>794.40002441406</ele>
        <time>2013-04-14T07:31:13Z</time>
      </trkpt>
      <trkpt lat="45.56195" lon="6.66734">
        <ele>794.59997558594</ele>
        <time>2013-04-14T07:31:17Z</time>
      </trkpt>
      <trkpt lat="45.56196" lon="6.66737">
        <ele>794.79998779297</ele>
        <time>2013-04-14T07:31:18Z</time>
      </trkpt>
      <trkpt lat="45.56197" lon="6.66744">
        <ele>794.59997558594</ele>
        <time>2013-04-14T07:31:20Z</time>
      </trkpt>
      <trkpt lat="45.56198" lon="6.66748">
        <ele>795</ele>
        <time>2013-04-14T07:31:21Z</time>
      </trkpt>
      <trkpt lat="45.562" lon="6.66751">
        <ele>795.20001220703</ele>
        <time>2013-04-14T07:31:22Z</time>
      </trkpt>
      <trkpt lat="45.56201" lon="6.66758">
        <ele>795.20001220703</ele>
        <time>2013-04-14T07:31:24Z</time>
      </trkpt>
      <trkpt lat="45.56202" lon="6.66767">
        <ele>795.20001220703</ele>
        <time>2013-04-14T07:31:27Z</time>
      </trkpt>
      <trkpt lat="45.56206" lon="6.66787">
        <ele>795.79998779297</ele>
        <time>2013-04-14T07:31:33Z</time>
      </trkpt>
      <trkpt lat="45.56214" lon="6.66819">
        <ele>797.20001220703</ele>
        <time>2013-04-14T07:31:43Z</time>
      </trkpt>
      <trkpt lat="45.56215" lon="6.66822">
        <ele>797.59997558594</ele>
        <time>2013-04-14T07:31:44Z</time>
      </trkpt>
      <trkpt lat="45.56215" lon="6.66825">
        <ele>797.40002441406</ele>
        <time>2013-04-14T07:31:45Z</time>
      </trkpt>
      <trkpt lat="45.56218" lon="6.66832">
        <ele>798.20001220703</ele>
        <time>2013-04-14T07:31:47Z</time>
      </trkpt>
      <trkpt lat="45.56219" lon="6.66835">
        <ele>798.79998779297</ele>
        <time>2013-04-14T07:31:48Z</time>
      </trkpt>
      <trkpt lat="45.56224" lon="6.66856">
        <ele>798.79998779297</ele>
        <time>2013-04-14T07:31:54Z</time>
      </trkpt>
      <trkpt lat="45.56231" lon="6.6689">
        <ele>797.59997558594</ele>
        <time>2013-04-14T07:32:03Z</time>
      </trkpt>
      <trkpt lat="45.56236" lon="6.66906">
        <ele>797.79998779297</ele>
        <time>2013-04-14T07:32:07Z</time>
      </trkpt>
      <trkpt lat="45.56239" lon="6.66914">
        <ele>797.79998779297</ele>
        <time>2013-04-14T07:32:09Z</time>
      </trkpt>
      <trkpt lat="45.56248" lon="6.66939">
        <ele>798.59997558594</ele>
        <time>2013-04-14T07:32:16Z</time>
      </trkpt>
      <trkpt lat="45.56249" lon="6.66942">
        <ele>798.40002441406</ele>
        <time>2013-04-14T07:32:17Z</time>
      </trkpt>
      <trkpt lat="45.56253" lon="6.6695">
        <ele>799.40002441406</ele>
        <time>2013-04-14T07:32:19Z</time>
      </trkpt>
      <trkpt lat="45.56255" lon="6.66953">
        <ele>799.79998779297</ele>
        <time>2013-04-14T07:32:20Z</time>
      </trkpt>
      <trkpt lat="45.56258" lon="6.66959">
        <ele>800.79998779297</ele>
        <time>2013-04-14T07:32:22Z</time>
      </trkpt>
      <trkpt lat="45.56261" lon="6.66966">
        <ele>801.40002441406</ele>
        <time>2013-04-14T07:32:24Z</time>
      </trkpt>
      <trkpt lat="45.56266" lon="6.66981">
        <ele>801.79998779297</ele>
        <time>2013-04-14T07:32:28Z</time>
      </trkpt>
      <trkpt lat="45.56267" lon="6.66988">
        <ele>801</ele>
        <time>2013-04-14T07:32:30Z</time>
      </trkpt>
      <trkpt lat="45.5627" lon="6.6702">
        <ele>799</ele>
        <time>2013-04-14T07:32:38Z</time>
      </trkpt>
      <trkpt lat="45.56271" lon="6.6704">
        <ele>797.59997558594</ele>
        <time>2013-04-14T07:32:43Z</time>
      </trkpt>
      <trkpt lat="45.56277" lon="6.67064">
        <ele>798.40002441406</ele>
        <time>2013-04-14T07:32:50Z</time>
      </trkpt>
      <trkpt lat="45.56285" lon="6.6709">
        <ele>798.79998779297</ele>
        <time>2013-04-14T07:32:58Z</time>
      </trkpt>
      <trkpt lat="45.56285" lon="6.67093">
        <ele>798.79998779297</ele>
        <time>2013-04-14T07:32:59Z</time>
      </trkpt>
      <trkpt lat="45.56286" lon="6.67097">
        <ele>798.59997558594</ele>
        <time>2013-04-14T07:33:00Z</time>
      </trkpt>
      <trkpt lat="45.56288" lon="6.67103">
        <ele>798.59997558594</ele>
        <time>2013-04-14T07:33:02Z</time>
      </trkpt>
      <trkpt lat="45.56291" lon="6.67115">
        <ele>798.79998779297</ele>
        <time>2013-04-14T07:33:06Z</time>
      </trkpt>
      <trkpt lat="45.56296" lon="6.67131">
        <ele>799</ele>
        <time>2013-04-14T07:33:11Z</time>
      </trkpt>
      <trkpt lat="45.56304" lon="6.67156">
        <ele>799</ele>
        <time>2013-04-14T07:33:19Z</time>
      </trkpt>
      <trkpt lat="45.56305" lon="6.67159">
        <ele>799.20001220703</ele>
        <time>2013-04-14T07:33:20Z</time>
      </trkpt>
      <trkpt lat="45.56309" lon="6.67169">
        <ele>799.79998779297</ele>
        <time>2013-04-14T07:33:23Z</time>
      </trkpt>
      <trkpt lat="45.5631" lon="6.67172">
        <ele>800</ele>
        <time>2013-04-14T07:33:24Z</time>
      </trkpt>
      <trkpt lat="45.56313" lon="6.67178">
        <ele>800.40002441406</ele>
        <time>2013-04-14T07:33:26Z</time>
      </trkpt>
      <trkpt lat="45.56319" lon="6.67197">
        <ele>801</ele>
        <time>2013-04-14T07:33:32Z</time>
      </trkpt>
      <trkpt lat="45.56319" lon="6.67201">
        <ele>800.79998779297</ele>
        <time>2013-04-14T07:33:33Z</time>
      </trkpt>
      <trkpt lat="45.56325" lon="6.67215">
        <ele>801.59997558594</ele>
        <time>2013-04-14T07:33:37Z</time>
      </trkpt>
      <trkpt lat="45.56341" lon="6.67262">
        <ele>800.79998779297</ele>
        <time>2013-04-14T07:33:50Z</time>
      </trkpt>
      <trkpt lat="45.5635" lon="6.67281">
        <ele>800.20001220703</ele>
        <time>2013-04-14T07:33:56Z</time>
      </trkpt>
      <trkpt lat="45.56362" lon="6.67298">
        <ele>800.79998779297</ele>
        <time>2013-04-14T07:34:02Z</time>
      </trkpt>
      <trkpt lat="45.56376" lon="6.67315">
        <ele>802.20001220703</ele>
        <time>2013-04-14T07:34:08Z</time>
      </trkpt>
      <trkpt lat="45.56378" lon="6.67319">
        <ele>802.40002441406</ele>
        <time>2013-04-14T07:34:09Z</time>
      </trkpt>
      <trkpt lat="45.56379" lon="6.67322">
        <ele>802.20001220703</ele>
        <time>2013-04-14T07:34:10Z</time>
      </trkpt>
      <trkpt lat="45.56382" lon="6.67329">
        <ele>802</ele>
        <time>2013-04-14T07:34:12Z</time>
      </trkpt>
      <trkpt lat="45.56386" lon="6.67341">
        <ele>800.79998779297</ele>
        <time>2013-04-14T07:34:15Z</time>
      </trkpt>
      <trkpt lat="45.56394" lon="6.67362">
        <ele>800</ele>
        <time>2013-04-14T07:34:21Z</time>
      </trkpt>
      <trkpt lat="45.56414" lon="6.67381">
        <ele>803.79998779297</ele>
        <time>2013-04-14T07:34:31Z</time>
      </trkpt>
      <trkpt lat="45.56424" lon="6.67394">
        <ele>805.20001220703</ele>
        <time>2013-04-14T07:34:37Z</time>
      </trkpt>
      <trkpt lat="45.56424" lon="6.67397">
        <ele>805</ele>
        <time>2013-04-14T07:34:38Z</time>
      </trkpt>
      <trkpt lat="45.56427" lon="6.67401">
        <ele>805.20001220703</ele>
        <time>2013-04-14T07:34:40Z</time>
      </trkpt>
      <trkpt lat="45.56429" lon="6.67407">
        <ele>805.20001220703</ele>
        <time>2013-04-14T07:34:42Z</time>
      </trkpt>
      <trkpt lat="45.56432" lon="6.67422">
        <ele>804.59997558594</ele>
        <time>2013-04-14T07:34:47Z</time>
      </trkpt>
      <trkpt lat="45.56433" lon="6.67428">
        <ele>805</ele>
        <time>2013-04-14T07:34:49Z</time>
      </trkpt>
      <trkpt lat="45.56433" lon="6.67432">
        <ele>805.20001220703</ele>
        <time>2013-04-14T07:34:50Z</time>
      </trkpt>
      <trkpt lat="45.56433" lon="6.67438">
        <ele>805.59997558594</ele>
        <time>2013-04-14T07:34:52Z</time>
      </trkpt>
      <trkpt lat="45.56434" lon="6.67441">
        <ele>806</ele>
        <time>2013-04-14T07:34:53Z</time>
      </trkpt>
      <trkpt lat="45.56435" lon="6.67458">
        <ele>806.79998779297</ele>
        <time>2013-04-14T07:34:59Z</time>
      </trkpt>
      <trkpt lat="45.56436" lon="6.67473">
        <ele>807.79998779297</ele>
        <time>2013-04-14T07:35:04Z</time>
      </trkpt>
      <trkpt lat="45.56436" lon="6.67476">
        <ele>807.79998779297</ele>
        <time>2013-04-14T07:35:05Z</time>
      </trkpt>
      <trkpt lat="45.56436" lon="6.67479">
        <ele>807.79998779297</ele>
        <time>2013-04-14T07:35:06Z</time>
      </trkpt>
      <trkpt lat="45.56435" lon="6.67485">
        <ele>807.59997558594</ele>
        <time>2013-04-14T07:35:08Z</time>
      </trkpt>
      <trkpt lat="45.56434" lon="6.67488">
        <ele>807.40002441406</ele>
        <time>2013-04-14T07:35:09Z</time>
      </trkpt>
      <trkpt lat="45.56432" lon="6.675">
        <ele>806.79998779297</ele>
        <time>2013-04-14T07:35:13Z</time>
      </trkpt>
      <trkpt lat="45.5643" lon="6.67511">
        <ele>805.20001220703</ele>
        <time>2013-04-14T07:35:17Z</time>
      </trkpt>
      <trkpt lat="45.5643" lon="6.67516">
        <ele>804.79998779297</ele>
        <time>2013-04-14T07:35:19Z</time>
      </trkpt>
      <trkpt lat="45.5643" lon="6.67519">
        <ele>804.79998779297</ele>
        <time>2013-04-14T07:35:20Z</time>
      </trkpt>
      <trkpt lat="45.56431" lon="6.67525">
        <ele>804.59997558594</ele>
        <time>2013-04-14T07:35:22Z</time>
      </trkpt>
      <trkpt lat="45.56431" lon="6.67527">
        <ele>804.79998779297</ele>
        <time>2013-04-14T07:35:23Z</time>
      </trkpt>
      <trkpt lat="45.56433" lon="6.6753">
        <ele>805.40002441406</ele>
        <time>2013-04-14T07:35:24Z</time>
      </trkpt>
      <trkpt lat="45.56442" lon="6.67546">
        <ele>808.79998779297</ele>
        <time>2013-04-14T07:35:31Z</time>
      </trkpt>
      <trkpt lat="45.56444" lon="6.67548">
        <ele>809.20001220703</ele>
        <time>2013-04-14T07:35:32Z</time>
      </trkpt>
      <trkpt lat="45.56447" lon="6.67551">
        <ele>810.59997558594</ele>
        <time>2013-04-14T07:35:34Z</time>
      </trkpt>
      <trkpt lat="45.5645" lon="6.67555">
        <ele>811.59997558594</ele>
        <time>2013-04-14T07:35:36Z</time>
      </trkpt>
      <trkpt lat="45.56461" lon="6.67566">
        <ele>816.20001220703</ele>
        <time>2013-04-14T07:35:42Z</time>
      </trkpt>
      <trkpt lat="45.56464" lon="6.67569">
        <ele>817.40002441406</ele>
        <time>2013-04-14T07:35:44Z</time>
      </trkpt>
      <trkpt lat="45.56466" lon="6.67571">
        <ele>818.20001220703</ele>
        <time>2013-04-14T07:35:45Z</time>
      </trkpt>
      <trkpt lat="45.56468" lon="6.67573">
        <ele>818.79998779297</ele>
        <time>2013-04-14T07:35:46Z</time>
      </trkpt>
      <trkpt lat="45.56474" lon="6.6758">
        <ele>821.40002441406</ele>
        <time>2013-04-14T07:35:50Z</time>
      </trkpt>
      <trkpt lat="45.56477" lon="6.67584">
        <ele>822.20001220703</ele>
        <time>2013-04-14T07:35:52Z</time>
      </trkpt>
      <trkpt lat="45.56478" lon="6.67587">
        <ele>822.40002441406</ele>
        <time>2013-04-14T07:35:53Z</time>
      </trkpt>
      <trkpt lat="45.56479" lon="6.67593">
        <ele>822</ele>
        <time>2013-04-14T07:35:55Z</time>
      </trkpt>
      <trkpt lat="45.5648" lon="6.67596">
        <ele>822</ele>
        <time>2013-04-14T07:35:56Z</time>
      </trkpt>
      <trkpt lat="45.56481" lon="6.67599">
        <ele>822</ele>
        <time>2013-04-14T07:35:57Z</time>
      </trkpt>
      <trkpt lat="45.56483" lon="6.67633">
        <ele>818.40002441406</ele>
        <time>2013-04-14T07:36:07Z</time>
      </trkpt>
      <trkpt lat="45.56484" lon="6.67639">
        <ele>818</ele>
        <time>2013-04-14T07:36:09Z</time>
      </trkpt>
      <trkpt lat="45.56484" lon="6.67642">
        <ele>817.79998779297</ele>
        <time>2013-04-14T07:36:10Z</time>
      </trkpt>
      <trkpt lat="45.56485" lon="6.67648">
        <ele>817.40002441406</ele>
        <time>2013-04-14T07:36:12Z</time>
      </trkpt>
      <trkpt lat="45.56486" lon="6.67652">
        <ele>817.40002441406</ele>
        <time>2013-04-14T07:36:13Z</time>
      </trkpt>
      <trkpt lat="45.56495" lon="6.67677">
        <ele>818</ele>
        <time>2013-04-14T07:36:22Z</time>
      </trkpt>
      <trkpt lat="45.56498" lon="6.67682">
        <ele>818.40002441406</ele>
        <time>2013-04-14T07:36:24Z</time>
      </trkpt>
      <trkpt lat="45.56499" lon="6.67685">
        <ele>818.40002441406</ele>
        <time>2013-04-14T07:36:25Z</time>
      </trkpt>
      <trkpt lat="45.56501" lon="6.6769">
        <ele>818.79998779297</ele>
        <time>2013-04-14T07:36:27Z</time>
      </trkpt>
      <trkpt lat="45.56502" lon="6.67692">
        <ele>819</ele>
        <time>2013-04-14T07:36:28Z</time>
      </trkpt>
      <trkpt lat="45.5651" lon="6.67703">
        <ele>820.79998779297</ele>
        <time>2013-04-14T07:36:33Z</time>
      </trkpt>
      <trkpt lat="45.56514" lon="6.67713">
        <ele>821.20001220703</ele>
        <time>2013-04-14T07:36:37Z</time>
      </trkpt>
      <trkpt lat="45.56515" lon="6.67716">
        <ele>821.20001220703</ele>
        <time>2013-04-14T07:36:38Z</time>
      </trkpt>
      <trkpt lat="45.56516" lon="6.67718">
        <ele>821.20001220703</ele>
        <time>2013-04-14T07:36:39Z</time>
      </trkpt>
      <trkpt lat="45.56518" lon="6.67723">
        <ele>821.40002441406</ele>
        <time>2013-04-14T07:36:41Z</time>
      </trkpt>
      <trkpt lat="45.56519" lon="6.67725">
        <ele>821.59997558594</ele>
        <time>2013-04-14T07:36:42Z</time>
      </trkpt>
      <trkpt lat="45.5652" lon="6.67728">
        <ele>821.59997558594</ele>
        <time>2013-04-14T07:36:43Z</time>
      </trkpt>
      <trkpt lat="45.56529" lon="6.67749">
        <ele>822.40002441406</ele>
        <time>2013-04-14T07:36:51Z</time>
      </trkpt>
      <trkpt lat="45.5653" lon="6.67755">
        <ele>821.79998779297</ele>
        <time>2013-04-14T07:36:53Z</time>
      </trkpt>
      <trkpt lat="45.56531" lon="6.67758">
        <ele>821.59997558594</ele>
        <time>2013-04-14T07:36:54Z</time>
      </trkpt>
      <trkpt lat="45.56533" lon="6.67763">
        <ele>821.40002441406</ele>
        <time>2013-04-14T07:36:56Z</time>
      </trkpt>
      <trkpt lat="45.56534" lon="6.67765">
        <ele>821.40002441406</ele>
        <time>2013-04-14T07:36:57Z</time>
      </trkpt>
      <trkpt lat="45.56535" lon="6.67768">
        <ele>821.40002441406</ele>
        <time>2013-04-14T07:36:58Z</time>
      </trkpt>
      <trkpt lat="45.56548" lon="6.67795">
        <ele>822.59997558594</ele>
        <time>2013-04-14T07:37:07Z</time>
      </trkpt>
      <trkpt lat="45.56557" lon="6.67811">
        <ele>824.59997558594</ele>
        <time>2013-04-14T07:37:13Z</time>
      </trkpt>
      <trkpt lat="45.56561" lon="6.67817">
        <ele>825.40002441406</ele>
        <time>2013-04-14T07:37:15Z</time>
      </trkpt>
      <trkpt lat="45.56563" lon="6.67819">
        <ele>826</ele>
        <time>2013-04-14T07:37:16Z</time>
      </trkpt>
      <trkpt lat="45.56564" lon="6.67821">
        <ele>826.40002441406</ele>
        <time>2013-04-14T07:37:17Z</time>
      </trkpt>
      <trkpt lat="45.56584" lon="6.67856">
        <ele>830</ele>
        <time>2013-04-14T07:37:30Z</time>
      </trkpt>
      <trkpt lat="45.56587" lon="6.67861">
        <ele>830.40002441406</ele>
        <time>2013-04-14T07:37:32Z</time>
      </trkpt>
      <trkpt lat="45.56588" lon="6.67864">
        <ele>830.20001220703</ele>
        <time>2013-04-14T07:37:33Z</time>
      </trkpt>
      <trkpt lat="45.5659" lon="6.6787">
        <ele>830</ele>
        <time>2013-04-14T07:37:35Z</time>
      </trkpt>
      <trkpt lat="45.56591" lon="6.67873">
        <ele>830</ele>
        <time>2013-04-14T07:37:36Z</time>
      </trkpt>
      <trkpt lat="45.56599" lon="6.67889">
        <ele>830</ele>
        <time>2013-04-14T07:37:42Z</time>
      </trkpt>
      <trkpt lat="45.56606" lon="6.67906">
        <ele>829.79998779297</ele>
        <time>2013-04-14T07:37:49Z</time>
      </trkpt>
      <trkpt lat="45.56606" lon="6.67908">
        <ele>829.59997558594</ele>
        <time>2013-04-14T07:37:50Z</time>
      </trkpt>
      <trkpt lat="45.56606" lon="6.67908">
        <ele>829.59997558594</ele>
        <time>2013-04-14T07:37:51Z</time>
      </trkpt>
      <trkpt lat="45.56607" lon="6.67911">
        <ele>829.40002441406</ele>
        <time>2013-04-14T07:37:56Z</time>
      </trkpt>
      <trkpt lat="45.56608" lon="6.67916">
        <ele>828.59997558594</ele>
        <time>2013-04-14T07:37:58Z</time>
      </trkpt>
      <trkpt lat="45.56613" lon="6.67927">
        <ele>830.59997558594</ele>
        <time>2013-04-14T07:38:02Z</time>
      </trkpt>
      <trkpt lat="45.56621" lon="6.67943">
        <ele>833.59997558594</ele>
        <time>2013-04-14T07:38:08Z</time>
      </trkpt>
      <trkpt lat="45.56621" lon="6.67947">
        <ele>833.79998779297</ele>
        <time>2013-04-14T07:38:09Z</time>
      </trkpt>
      <trkpt lat="45.56622" lon="6.6795">
        <ele>833.79998779297</ele>
        <time>2013-04-14T07:38:10Z</time>
      </trkpt>
      <trkpt lat="45.5662" lon="6.67972">
        <ele>832</ele>
        <time>2013-04-14T07:38:17Z</time>
      </trkpt>
      <trkpt lat="45.56619" lon="6.67985">
        <ele>830.79998779297</ele>
        <time>2013-04-14T07:38:21Z</time>
      </trkpt>
      <trkpt lat="45.5662" lon="6.67992">
        <ele>830.59997558594</ele>
        <time>2013-04-14T07:38:23Z</time>
      </trkpt>
      <trkpt lat="45.5662" lon="6.67996">
        <ele>830.40002441406</ele>
        <time>2013-04-14T07:38:24Z</time>
      </trkpt>
      <trkpt lat="45.5662" lon="6.67999">
        <ele>830.20001220703</ele>
        <time>2013-04-14T07:38:25Z</time>
      </trkpt>
      <trkpt lat="45.5662" lon="6.68005">
        <ele>829.79998779297</ele>
        <time>2013-04-14T07:38:27Z</time>
      </trkpt>
      <trkpt lat="45.5662" lon="6.68008">
        <ele>829.59997558594</ele>
        <time>2013-04-14T07:38:28Z</time>
      </trkpt>
      <trkpt lat="45.56623" lon="6.68018">
        <ele>830</ele>
        <time>2013-04-14T07:38:32Z</time>
      </trkpt>
      <trkpt lat="45.56626" lon="6.68023">
        <ele>830.79998779297</ele>
        <time>2013-04-14T07:38:34Z</time>
      </trkpt>
      <trkpt lat="45.56627" lon="6.68025">
        <ele>831.40002441406</ele>
        <time>2013-04-14T07:38:35Z</time>
      </trkpt>
      <trkpt lat="45.56628" lon="6.68026">
        <ele>831.59997558594</ele>
        <time>2013-04-14T07:38:36Z</time>
      </trkpt>
      <trkpt lat="45.56628" lon="6.68027">
        <ele>831.40002441406</ele>
        <time>2013-04-14T07:38:38Z</time>
      </trkpt>
      <trkpt lat="45.56628" lon="6.68027">
        <ele>831.40002441406</ele>
        <time>2013-04-14T07:38:39Z</time>
      </trkpt>
      <trkpt lat="45.56627" lon="6.68027">
        <ele>831.40002441406</ele>
        <time>2013-04-14T07:38:42Z</time>
      </trkpt>
      <trkpt lat="45.56631" lon="6.68031">
        <ele>833</ele>
        <time>2013-04-14T07:38:58Z</time>
      </trkpt>
      <trkpt lat="45.56633" lon="6.68032">
        <ele>833.59997558594</ele>
        <time>2013-04-14T07:39:00Z</time>
      </trkpt>
      <trkpt lat="45.56636" lon="6.68034">
        <ele>835.40002441406</ele>
        <time>2013-04-14T07:39:06Z</time>
      </trkpt>
      <trkpt lat="45.56637" lon="6.68036">
        <ele>835.59997558594</ele>
        <time>2013-04-14T07:39:11Z</time>
      </trkpt>
      <trkpt lat="45.56637" lon="6.68036">
        <ele>835.59997558594</ele>
        <time>2013-04-14T07:39:15Z</time>
      </trkpt>
      <trkpt lat="45.56647" lon="6.68049">
        <ele>839.59997558594</ele>
        <time>2013-04-14T07:39:22Z</time>
      </trkpt>
      <trkpt lat="45.56652" lon="6.68066">
        <ele>840.40002441406</ele>
        <time>2013-04-14T07:39:28Z</time>
      </trkpt>
      <trkpt lat="45.56654" lon="6.68071">
        <ele>841.20001220703</ele>
        <time>2013-04-14T07:39:30Z</time>
      </trkpt>
      <trkpt lat="45.56657" lon="6.68076">
        <ele>842</ele>
        <time>2013-04-14T07:39:32Z</time>
      </trkpt>
      <trkpt lat="45.56658" lon="6.68079">
        <ele>842.40002441406</ele>
        <time>2013-04-14T07:39:33Z</time>
      </trkpt>
      <trkpt lat="45.56659" lon="6.68082">
        <ele>842.79998779297</ele>
        <time>2013-04-14T07:39:34Z</time>
      </trkpt>
      <trkpt lat="45.56665" lon="6.68102">
        <ele>844.79998779297</ele>
        <time>2013-04-14T07:39:42Z</time>
      </trkpt>
      <trkpt lat="45.56666" lon="6.68104">
        <ele>845</ele>
        <time>2013-04-14T07:39:43Z</time>
      </trkpt>
      <trkpt lat="45.56666" lon="6.68106">
        <ele>845.20001220703</ele>
        <time>2013-04-14T07:39:44Z</time>
      </trkpt>
      <trkpt lat="45.56669" lon="6.6811">
        <ele>846</ele>
        <time>2013-04-14T07:39:46Z</time>
      </trkpt>
      <trkpt lat="45.5667" lon="6.68112">
        <ele>846.59997558594</ele>
        <time>2013-04-14T07:39:47Z</time>
      </trkpt>
      <trkpt lat="45.56673" lon="6.68117">
        <ele>847.40002441406</ele>
        <time>2013-04-14T07:39:50Z</time>
      </trkpt>
      <trkpt lat="45.56675" lon="6.68122">
        <ele>848</ele>
        <time>2013-04-14T07:39:52Z</time>
      </trkpt>
      <trkpt lat="45.56676" lon="6.68124">
        <ele>848.20001220703</ele>
        <time>2013-04-14T07:39:53Z</time>
      </trkpt>
      <trkpt lat="45.56676" lon="6.68127">
        <ele>848.20001220703</ele>
        <time>2013-04-14T07:39:54Z</time>
      </trkpt>
      <trkpt lat="45.56676" lon="6.68133">
        <ele>848</ele>
        <time>2013-04-14T07:39:57Z</time>
      </trkpt>
      <trkpt lat="45.56677" lon="6.68136">
        <ele>848</ele>
        <time>2013-04-14T07:39:58Z</time>
      </trkpt>
      <trkpt lat="45.56677" lon="6.68139">
        <ele>848.20001220703</ele>
        <time>2013-04-14T07:39:59Z</time>
      </trkpt>
      <trkpt lat="45.56677" lon="6.68144">
        <ele>847.79998779297</ele>
        <time>2013-04-14T07:40:01Z</time>
      </trkpt>
      <trkpt lat="45.56678" lon="6.68155">
        <ele>847.59997558594</ele>
        <time>2013-04-14T07:40:05Z</time>
      </trkpt>
      <trkpt lat="45.5668" lon="6.68167">
        <ele>847.79998779297</ele>
        <time>2013-04-14T07:40:09Z</time>
      </trkpt>
      <trkpt lat="45.56681" lon="6.6817">
        <ele>848</ele>
        <time>2013-04-14T07:40:10Z</time>
      </trkpt>
      <trkpt lat="45.56682" lon="6.68172">
        <ele>848</ele>
        <time>2013-04-14T07:40:11Z</time>
      </trkpt>
      <trkpt lat="45.56683" lon="6.68178">
        <ele>848.40002441406</ele>
        <time>2013-04-14T07:40:13Z</time>
      </trkpt>
      <trkpt lat="45.56683" lon="6.68188">
        <ele>847.40002441406</ele>
        <time>2013-04-14T07:40:17Z</time>
      </trkpt>
      <trkpt lat="45.56682" lon="6.68191">
        <ele>846.79998779297</ele>
        <time>2013-04-14T07:40:18Z</time>
      </trkpt>
      <trkpt lat="45.56683" lon="6.68198">
        <ele>846.79998779297</ele>
        <time>2013-04-14T07:40:21Z</time>
      </trkpt>
      <trkpt lat="45.56683" lon="6.682">
        <ele>846.79998779297</ele>
        <time>2013-04-14T07:40:22Z</time>
      </trkpt>
      <trkpt lat="45.56683" lon="6.68202">
        <ele>846.79998779297</ele>
        <time>2013-04-14T07:40:23Z</time>
      </trkpt>
      <trkpt lat="45.56684" lon="6.68206">
        <ele>847</ele>
        <time>2013-04-14T07:40:25Z</time>
      </trkpt>
      <trkpt lat="45.56686" lon="6.68207">
        <ele>847.59997558594</ele>
        <time>2013-04-14T07:40:26Z</time>
      </trkpt>
      <trkpt lat="45.56687" lon="6.68208">
        <ele>848.40002441406</ele>
        <time>2013-04-14T07:40:27Z</time>
      </trkpt>
      <trkpt lat="45.56691" lon="6.68205">
        <ele>850.59997558594</ele>
        <time>2013-04-14T07:40:30Z</time>
      </trkpt>
      <trkpt lat="45.56691" lon="6.68203">
        <ele>850.79998779297</ele>
        <time>2013-04-14T07:40:31Z</time>
      </trkpt>
      <trkpt lat="45.56691" lon="6.68201">
        <ele>850.79998779297</ele>
        <time>2013-04-14T07:40:32Z</time>
      </trkpt>
      <trkpt lat="45.5669" lon="6.68196">
        <ele>850.79998779297</ele>
        <time>2013-04-14T07:40:34Z</time>
      </trkpt>
      <trkpt lat="45.5669" lon="6.68191">
        <ele>851.20001220703</ele>
        <time>2013-04-14T07:40:36Z</time>
      </trkpt>
      <trkpt lat="45.56691" lon="6.68189">
        <ele>851.40002441406</ele>
        <time>2013-04-14T07:40:37Z</time>
      </trkpt>
      <trkpt lat="45.56693" lon="6.68182">
        <ele>853.20001220703</ele>
        <time>2013-04-14T07:40:40Z</time>
      </trkpt>
      <trkpt lat="45.56694" lon="6.6818">
        <ele>853.40002441406</ele>
        <time>2013-04-14T07:40:41Z</time>
      </trkpt>
      <trkpt lat="45.56696" lon="6.68172">
        <ele>855.20001220703</ele>
        <time>2013-04-14T07:40:45Z</time>
      </trkpt>
      <trkpt lat="45.56696" lon="6.6817">
        <ele>855.40002441406</ele>
        <time>2013-04-14T07:40:46Z</time>
      </trkpt>
      <trkpt lat="45.56696" lon="6.68168">
        <ele>855.79998779297</ele>
        <time>2013-04-14T07:40:47Z</time>
      </trkpt>
      <trkpt lat="45.56697" lon="6.68163">
        <ele>856.20001220703</ele>
        <time>2013-04-14T07:40:49Z</time>
      </trkpt>
      <trkpt lat="45.56697" lon="6.68161">
        <ele>856.40002441406</ele>
        <time>2013-04-14T07:40:50Z</time>
      </trkpt>
      <trkpt lat="45.56697" lon="6.68154">
        <ele>856.79998779297</ele>
        <time>2013-04-14T07:40:53Z</time>
      </trkpt>
      <trkpt lat="45.56698" lon="6.6815">
        <ele>857.59997558594</ele>
        <time>2013-04-14T07:40:55Z</time>
      </trkpt>
      <trkpt lat="45.56699" lon="6.68149">
        <ele>858</ele>
        <time>2013-04-14T07:40:56Z</time>
      </trkpt>
      <trkpt lat="45.56699" lon="6.68147">
        <ele>858.40002441406</ele>
        <time>2013-04-14T07:40:57Z</time>
      </trkpt>
      <trkpt lat="45.56703" lon="6.68138">
        <ele>860.40002441406</ele>
        <time>2013-04-14T07:41:01Z</time>
      </trkpt>
      <trkpt lat="45.56703" lon="6.68136">
        <ele>860.79998779297</ele>
        <time>2013-04-14T07:41:02Z</time>
      </trkpt>
      <trkpt lat="45.56704" lon="6.68133">
        <ele>861.20001220703</ele>
        <time>2013-04-14T07:41:03Z</time>
      </trkpt>
      <trkpt lat="45.56705" lon="6.68127">
        <ele>862.20001220703</ele>
        <time>2013-04-14T07:41:05Z</time>
      </trkpt>
      <trkpt lat="45.56705" lon="6.68124">
        <ele>862.59997558594</ele>
        <time>2013-04-14T07:41:06Z</time>
      </trkpt>
      <trkpt lat="45.56706" lon="6.68115">
        <ele>863.20001220703</ele>
        <time>2013-04-14T07:41:09Z</time>
      </trkpt>
      <trkpt lat="45.56706" lon="6.6811">
        <ele>863.59997558594</ele>
        <time>2013-04-14T07:41:11Z</time>
      </trkpt>
      <trkpt lat="45.56706" lon="6.68107">
        <ele>863.79998779297</ele>
        <time>2013-04-14T07:41:12Z</time>
      </trkpt>
      <trkpt lat="45.56704" lon="6.68099">
        <ele>863.40002441406</ele>
        <time>2013-04-14T07:41:15Z</time>
      </trkpt>
      <trkpt lat="45.56701" lon="6.68083">
        <ele>862.59997558594</ele>
        <time>2013-04-14T07:41:20Z</time>
      </trkpt>
      <trkpt lat="45.56696" lon="6.68068">
        <ele>861.59997558594</ele>
        <time>2013-04-14T07:41:25Z</time>
      </trkpt>
      <trkpt lat="45.56694" lon="6.68062">
        <ele>861.40002441406</ele>
        <time>2013-04-14T07:41:27Z</time>
      </trkpt>
      <trkpt lat="45.56693" lon="6.68059">
        <ele>861.40002441406</ele>
        <time>2013-04-14T07:41:28Z</time>
      </trkpt>
      <trkpt lat="45.56693" lon="6.68056">
        <ele>861.40002441406</ele>
        <time>2013-04-14T07:41:29Z</time>
      </trkpt>
      <trkpt lat="45.56695" lon="6.68035">
        <ele>864.59997558594</ele>
        <time>2013-04-14T07:41:36Z</time>
      </trkpt>
      <trkpt lat="45.56696" lon="6.68033">
        <ele>865.20001220703</ele>
        <time>2013-04-14T07:41:37Z</time>
      </trkpt>
      <trkpt lat="45.567" lon="6.68023">
        <ele>867.79998779297</ele>
        <time>2013-04-14T07:41:42Z</time>
      </trkpt>
      <trkpt lat="45.56701" lon="6.68018">
        <ele>869</ele>
        <time>2013-04-14T07:41:44Z</time>
      </trkpt>
      <trkpt lat="45.56702" lon="6.68016">
        <ele>869.59997558594</ele>
        <time>2013-04-14T07:41:45Z</time>
      </trkpt>
      <trkpt lat="45.56703" lon="6.68013">
        <ele>870.20001220703</ele>
        <time>2013-04-14T07:41:46Z</time>
      </trkpt>
      <trkpt lat="45.56704" lon="6.68005">
        <ele>871.40002441406</ele>
        <time>2013-04-14T07:41:49Z</time>
      </trkpt>
      <trkpt lat="45.56704" lon="6.68003">
        <ele>871.79998779297</ele>
        <time>2013-04-14T07:41:50Z</time>
      </trkpt>
      <trkpt lat="45.56705" lon="6.68">
        <ele>872.20001220703</ele>
        <time>2013-04-14T07:41:51Z</time>
      </trkpt>
      <trkpt lat="45.56705" lon="6.67996">
        <ele>872.59997558594</ele>
        <time>2013-04-14T07:41:53Z</time>
      </trkpt>
      <trkpt lat="45.56706" lon="6.67994">
        <ele>873.20001220703</ele>
        <time>2013-04-14T07:41:54Z</time>
      </trkpt>
      <trkpt lat="45.56706" lon="6.67989">
        <ele>873.79998779297</ele>
        <time>2013-04-14T07:41:56Z</time>
      </trkpt>
      <trkpt lat="45.56706" lon="6.67987">
        <ele>873.79998779297</ele>
        <time>2013-04-14T07:41:59Z</time>
      </trkpt>
      <trkpt lat="45.56706" lon="6.67985">
        <ele>874</ele>
        <time>2013-04-14T07:42:01Z</time>
      </trkpt>
      <trkpt lat="45.56706" lon="6.67981">
        <ele>874</ele>
        <time>2013-04-14T07:42:03Z</time>
      </trkpt>
      <trkpt lat="45.56705" lon="6.67976">
        <ele>874.20001220703</ele>
        <time>2013-04-14T07:42:05Z</time>
      </trkpt>
      <trkpt lat="45.56703" lon="6.67967">
        <ele>873.79998779297</ele>
        <time>2013-04-14T07:42:08Z</time>
      </trkpt>
      <trkpt lat="45.56704" lon="6.67945">
        <ele>875.59997558594</ele>
        <time>2013-04-14T07:42:15Z</time>
      </trkpt>
      <trkpt lat="45.56705" lon="6.67942">
        <ele>876</ele>
        <time>2013-04-14T07:42:16Z</time>
      </trkpt>
      <trkpt lat="45.56705" lon="6.67938">
        <ele>876.20001220703</ele>
        <time>2013-04-14T07:42:17Z</time>
      </trkpt>
      <trkpt lat="45.56706" lon="6.67932">
        <ele>877</ele>
        <time>2013-04-14T07:42:19Z</time>
      </trkpt>
      <trkpt lat="45.56705" lon="6.67929">
        <ele>877.20001220703</ele>
        <time>2013-04-14T07:42:20Z</time>
      </trkpt>
      <trkpt lat="45.56705" lon="6.67924">
        <ele>877.40002441406</ele>
        <time>2013-04-14T07:42:22Z</time>
      </trkpt>
      <trkpt lat="45.56705" lon="6.67911">
        <ele>878.59997558594</ele>
        <time>2013-04-14T07:42:26Z</time>
      </trkpt>
      <trkpt lat="45.56704" lon="6.67905">
        <ele>879.40002441406</ele>
        <time>2013-04-14T07:42:28Z</time>
      </trkpt>
      <trkpt lat="45.56704" lon="6.67903">
        <ele>879.79998779297</ele>
        <time>2013-04-14T07:42:29Z</time>
      </trkpt>
      <trkpt lat="45.56703" lon="6.67898">
        <ele>880.20001220703</ele>
        <time>2013-04-14T07:42:31Z</time>
      </trkpt>
      <trkpt lat="45.56702" lon="6.67895">
        <ele>880.40002441406</ele>
        <time>2013-04-14T07:42:32Z</time>
      </trkpt>
      <trkpt lat="45.56702" lon="6.67892">
        <ele>880.79998779297</ele>
        <time>2013-04-14T07:42:33Z</time>
      </trkpt>
      <trkpt lat="45.56698" lon="6.67886">
        <ele>880</ele>
        <time>2013-04-14T07:42:36Z</time>
      </trkpt>
      <trkpt lat="45.56697" lon="6.67883">
        <ele>880</ele>
        <time>2013-04-14T07:42:37Z</time>
      </trkpt>
      <trkpt lat="45.56696" lon="6.67881">
        <ele>880</ele>
        <time>2013-04-14T07:42:38Z</time>
      </trkpt>
      <trkpt lat="45.56692" lon="6.67875">
        <ele>879.20001220703</ele>
        <time>2013-04-14T07:42:41Z</time>
      </trkpt>
      <trkpt lat="45.56691" lon="6.67872">
        <ele>879</ele>
        <time>2013-04-14T07:42:42Z</time>
      </trkpt>
      <trkpt lat="45.56684" lon="6.67854">
        <ele>879.79998779297</ele>
        <time>2013-04-14T07:42:49Z</time>
      </trkpt>
      <trkpt lat="45.56683" lon="6.6785">
        <ele>880</ele>
        <time>2013-04-14T07:42:50Z</time>
      </trkpt>
      <trkpt lat="45.56683" lon="6.67848">
        <ele>880.40002441406</ele>
        <time>2013-04-14T07:42:51Z</time>
      </trkpt>
      <trkpt lat="45.56682" lon="6.67842">
        <ele>880.79998779297</ele>
        <time>2013-04-14T07:42:53Z</time>
      </trkpt>
      <trkpt lat="45.56678" lon="6.67832">
        <ele>881.20001220703</ele>
        <time>2013-04-14T07:42:57Z</time>
      </trkpt>
      <trkpt lat="45.56675" lon="6.67827">
        <ele>881</ele>
        <time>2013-04-14T07:42:59Z</time>
      </trkpt>
      <trkpt lat="45.56671" lon="6.67821">
        <ele>881.20001220703</ele>
        <time>2013-04-14T07:43:02Z</time>
      </trkpt>
      <trkpt lat="45.5667" lon="6.67819">
        <ele>881</ele>
        <time>2013-04-14T07:43:03Z</time>
      </trkpt>
      <trkpt lat="45.56669" lon="6.67816">
        <ele>881</ele>
        <time>2013-04-14T07:43:04Z</time>
      </trkpt>
      <trkpt lat="45.56666" lon="6.67812">
        <ele>880.79998779297</ele>
        <time>2013-04-14T07:43:06Z</time>
      </trkpt>
      <trkpt lat="45.56657" lon="6.67796">
        <ele>880.40002441406</ele>
        <time>2013-04-14T07:43:13Z</time>
      </trkpt>
      <trkpt lat="45.56656" lon="6.67793">
        <ele>880.59997558594</ele>
        <time>2013-04-14T07:43:14Z</time>
      </trkpt>
      <trkpt lat="45.56655" lon="6.67788">
        <ele>881.20001220703</ele>
        <time>2013-04-14T07:43:16Z</time>
      </trkpt>
      <trkpt lat="45.56654" lon="6.67786">
        <ele>881.40002441406</ele>
        <time>2013-04-14T07:43:17Z</time>
      </trkpt>
      <trkpt lat="45.56653" lon="6.67783">
        <ele>881.79998779297</ele>
        <time>2013-04-14T07:43:18Z</time>
      </trkpt>
      <trkpt lat="45.56652" lon="6.67778">
        <ele>882.40002441406</ele>
        <time>2013-04-14T07:43:20Z</time>
      </trkpt>
      <trkpt lat="45.56646" lon="6.67764">
        <ele>882.59997558594</ele>
        <time>2013-04-14T07:43:25Z</time>
      </trkpt>
      <trkpt lat="45.56641" lon="6.67755">
        <ele>882.20001220703</ele>
        <time>2013-04-14T07:43:29Z</time>
      </trkpt>
      <trkpt lat="45.5664" lon="6.67753">
        <ele>882.20001220703</ele>
        <time>2013-04-14T07:43:30Z</time>
      </trkpt>
      <trkpt lat="45.56639" lon="6.6775">
        <ele>882.20001220703</ele>
        <time>2013-04-14T07:43:31Z</time>
      </trkpt>
      <trkpt lat="45.56633" lon="6.67735">
        <ele>881</ele>
        <time>2013-04-14T07:43:37Z</time>
      </trkpt>
      <trkpt lat="45.56632" lon="6.67733">
        <ele>880.79998779297</ele>
        <time>2013-04-14T07:43:38Z</time>
      </trkpt>
      <trkpt lat="45.56631" lon="6.6773">
        <ele>880.79998779297</ele>
        <time>2013-04-14T07:43:39Z</time>
      </trkpt>
      <trkpt lat="45.56629" lon="6.67726">
        <ele>880.59997558594</ele>
        <time>2013-04-14T07:43:41Z</time>
      </trkpt>
      <trkpt lat="45.56628" lon="6.67724">
        <ele>880.40002441406</ele>
        <time>2013-04-14T07:43:42Z</time>
      </trkpt>
      <trkpt lat="45.56628" lon="6.67721">
        <ele>880.40002441406</ele>
        <time>2013-04-14T07:43:43Z</time>
      </trkpt>
      <trkpt lat="45.56623" lon="6.67704">
        <ele>880.40002441406</ele>
        <time>2013-04-14T07:43:49Z</time>
      </trkpt>
      <trkpt lat="45.56622" lon="6.67701">
        <ele>880.40002441406</ele>
        <time>2013-04-14T07:43:50Z</time>
      </trkpt>
      <trkpt lat="45.56621" lon="6.67697">
        <ele>880.79998779297</ele>
        <time>2013-04-14T07:43:51Z</time>
      </trkpt>
      <trkpt lat="45.5662" lon="6.67689">
        <ele>881.40002441406</ele>
        <time>2013-04-14T07:43:54Z</time>
      </trkpt>
      <trkpt lat="45.56619" lon="6.67671">
        <ele>883.79998779297</ele>
        <time>2013-04-14T07:44:00Z</time>
      </trkpt>
      <trkpt lat="45.56619" lon="6.67668">
        <ele>884.20001220703</ele>
        <time>2013-04-14T07:44:01Z</time>
      </trkpt>
      <trkpt lat="45.56619" lon="6.67662">
        <ele>884.59997558594</ele>
        <time>2013-04-14T07:44:03Z</time>
      </trkpt>
      <trkpt lat="45.5662" lon="6.67659">
        <ele>884.79998779297</ele>
        <time>2013-04-14T07:44:04Z</time>
      </trkpt>
      <trkpt lat="45.5662" lon="6.67656">
        <ele>884.79998779297</ele>
        <time>2013-04-14T07:44:05Z</time>
      </trkpt>
      <trkpt lat="45.56622" lon="6.67639">
        <ele>886.20001220703</ele>
        <time>2013-04-14T07:44:11Z</time>
      </trkpt>
      <trkpt lat="45.56626" lon="6.67627">
        <ele>887.79998779297</ele>
        <time>2013-04-14T07:44:15Z</time>
      </trkpt>
      <trkpt lat="45.56627" lon="6.67621">
        <ele>888.40002441406</ele>
        <time>2013-04-14T07:44:17Z</time>
      </trkpt>
      <trkpt lat="45.56628" lon="6.67619">
        <ele>889</ele>
        <time>2013-04-14T07:44:19Z</time>
      </trkpt>
      <trkpt lat="45.56629" lon="6.67616">
        <ele>889.40002441406</ele>
        <time>2013-04-14T07:44:20Z</time>
      </trkpt>
      <trkpt lat="45.56635" lon="6.67597">
        <ele>892.20001220703</ele>
        <time>2013-04-14T07:44:27Z</time>
      </trkpt>
      <trkpt lat="45.56636" lon="6.67594">
        <ele>892.79998779297</ele>
        <time>2013-04-14T07:44:28Z</time>
      </trkpt>
      <trkpt lat="45.56637" lon="6.67592">
        <ele>893.20001220703</ele>
        <time>2013-04-14T07:44:29Z</time>
      </trkpt>
      <trkpt lat="45.56639" lon="6.67587">
        <ele>894</ele>
        <time>2013-04-14T07:44:31Z</time>
      </trkpt>
      <trkpt lat="45.5664" lon="6.67585">
        <ele>894.40002441406</ele>
        <time>2013-04-14T07:44:32Z</time>
      </trkpt>
      <trkpt lat="45.56644" lon="6.67577">
        <ele>896</ele>
        <time>2013-04-14T07:44:36Z</time>
      </trkpt>
      <trkpt lat="45.56648" lon="6.67565">
        <ele>897.79998779297</ele>
        <time>2013-04-14T07:44:41Z</time>
      </trkpt>
      <trkpt lat="45.56649" lon="6.67563">
        <ele>898.20001220703</ele>
        <time>2013-04-14T07:44:42Z</time>
      </trkpt>
      <trkpt lat="45.56649" lon="6.6756">
        <ele>898.59997558594</ele>
        <time>2013-04-14T07:44:43Z</time>
      </trkpt>
      <trkpt lat="45.5665" lon="6.67555">
        <ele>899</ele>
        <time>2013-04-14T07:44:45Z</time>
      </trkpt>
      <trkpt lat="45.56651" lon="6.67552">
        <ele>899.20001220703</ele>
        <time>2013-04-14T07:44:46Z</time>
      </trkpt>
      <trkpt lat="45.56652" lon="6.67542">
        <ele>900.20001220703</ele>
        <time>2013-04-14T07:44:50Z</time>
      </trkpt>
      <trkpt lat="45.56653" lon="6.67535">
        <ele>900.79998779297</ele>
        <time>2013-04-14T07:44:53Z</time>
      </trkpt>
      <trkpt lat="45.56654" lon="6.67532">
        <ele>900.79998779297</ele>
        <time>2013-04-14T07:44:54Z</time>
      </trkpt>
      <trkpt lat="45.56654" lon="6.67529">
        <ele>901</ele>
        <time>2013-04-14T07:44:55Z</time>
      </trkpt>
      <trkpt lat="45.56653" lon="6.67522">
        <ele>901</ele>
        <time>2013-04-14T07:44:58Z</time>
      </trkpt>
      <trkpt lat="45.56651" lon="6.67511">
        <ele>900.20001220703</ele>
        <time>2013-04-14T07:45:02Z</time>
      </trkpt>
      <trkpt lat="45.56649" lon="6.67506">
        <ele>899.59997558594</ele>
        <time>2013-04-14T07:45:04Z</time>
      </trkpt>
      <trkpt lat="45.56648" lon="6.67503">
        <ele>899.40002441406</ele>
        <time>2013-04-14T07:45:05Z</time>
      </trkpt>
      <trkpt lat="45.56648" lon="6.67501">
        <ele>899.20001220703</ele>
        <time>2013-04-14T07:45:06Z</time>
      </trkpt>
      <trkpt lat="45.56649" lon="6.67496">
        <ele>899.40002441406</ele>
        <time>2013-04-14T07:45:08Z</time>
      </trkpt>
      <trkpt lat="45.56649" lon="6.67494">
        <ele>899.59997558594</ele>
        <time>2013-04-14T07:45:09Z</time>
      </trkpt>
      <trkpt lat="45.56653" lon="6.67488">
        <ele>901.20001220703</ele>
        <time>2013-04-14T07:45:13Z</time>
      </trkpt>
      <trkpt lat="45.56655" lon="6.67486">
        <ele>902</ele>
        <time>2013-04-14T07:45:15Z</time>
      </trkpt>
      <trkpt lat="45.56657" lon="6.67485">
        <ele>902.59997558594</ele>
        <time>2013-04-14T07:45:16Z</time>
      </trkpt>
      <trkpt lat="45.56658" lon="6.67484">
        <ele>903</ele>
        <time>2013-04-14T07:45:17Z</time>
      </trkpt>
      <trkpt lat="45.56659" lon="6.67481">
        <ele>903.59997558594</ele>
        <time>2013-04-14T07:45:19Z</time>
      </trkpt>
      <trkpt lat="45.56663" lon="6.67477">
        <ele>905.20001220703</ele>
        <time>2013-04-14T07:45:22Z</time>
      </trkpt>
      <trkpt lat="45.56664" lon="6.67476">
        <ele>905.59997558594</ele>
        <time>2013-04-14T07:45:23Z</time>
      </trkpt>
      <trkpt lat="45.56667" lon="6.67473">
        <ele>906.59997558594</ele>
        <time>2013-04-14T07:45:25Z</time>
      </trkpt>
      <trkpt lat="45.56669" lon="6.67471">
        <ele>907.40002441406</ele>
        <time>2013-04-14T07:45:26Z</time>
      </trkpt>
      <trkpt lat="45.5667" lon="6.6747">
        <ele>908</ele>
        <time>2013-04-14T07:45:27Z</time>
      </trkpt>
      <trkpt lat="45.56677" lon="6.67463">
        <ele>911</ele>
        <time>2013-04-14T07:45:32Z</time>
      </trkpt>
      <trkpt lat="45.56678" lon="6.67462">
        <ele>911.40002441406</ele>
        <time>2013-04-14T07:45:33Z</time>
      </trkpt>
      <trkpt lat="45.5668" lon="6.67461">
        <ele>912</ele>
        <time>2013-04-14T07:45:36Z</time>
      </trkpt>
      <trkpt lat="45.56681" lon="6.67466">
        <ele>912.40002441406</ele>
        <time>2013-04-14T07:45:39Z</time>
      </trkpt>
      <trkpt lat="45.56682" lon="6.67472">
        <ele>912.79998779297</ele>
        <time>2013-04-14T07:45:42Z</time>
      </trkpt>
      <trkpt lat="45.56682" lon="6.67476">
        <ele>912.79998779297</ele>
        <time>2013-04-14T07:45:44Z</time>
      </trkpt>
      <trkpt lat="45.56681" lon="6.67477">
        <ele>912.59997558594</ele>
        <time>2013-04-14T07:45:45Z</time>
      </trkpt>
      <trkpt lat="45.56681" lon="6.67479">
        <ele>912.59997558594</ele>
        <time>2013-04-14T07:45:46Z</time>
      </trkpt>
      <trkpt lat="45.56682" lon="6.67483">
        <ele>912.79998779297</ele>
        <time>2013-04-14T07:45:48Z</time>
      </trkpt>
      <trkpt lat="45.56683" lon="6.67485">
        <ele>913.20001220703</ele>
        <time>2013-04-14T07:45:49Z</time>
      </trkpt>
      <trkpt lat="45.56683" lon="6.67488">
        <ele>913.59997558594</ele>
        <time>2013-04-14T07:45:50Z</time>
      </trkpt>
      <trkpt lat="45.56686" lon="6.67492">
        <ele>914.59997558594</ele>
        <time>2013-04-14T07:45:52Z</time>
      </trkpt>
      <trkpt lat="45.56687" lon="6.67494">
        <ele>914.79998779297</ele>
        <time>2013-04-14T07:45:53Z</time>
      </trkpt>
      <trkpt lat="45.56687" lon="6.67497">
        <ele>914.79998779297</ele>
        <time>2013-04-14T07:45:54Z</time>
      </trkpt>
      <trkpt lat="45.56688" lon="6.67507">
        <ele>915.40002441406</ele>
        <time>2013-04-14T07:45:58Z</time>
      </trkpt>
      <trkpt lat="45.56688" lon="6.6751">
        <ele>915.20001220703</ele>
        <time>2013-04-14T07:45:59Z</time>
      </trkpt>
      <trkpt lat="45.56689" lon="6.67512">
        <ele>915.40002441406</ele>
        <time>2013-04-14T07:46:00Z</time>
      </trkpt>
      <trkpt lat="45.5669" lon="6.67521">
        <ele>916</ele>
        <time>2013-04-14T07:46:03Z</time>
      </trkpt>
      <trkpt lat="45.56691" lon="6.67529">
        <ele>916.20001220703</ele>
        <time>2013-04-14T07:46:06Z</time>
      </trkpt>
      <trkpt lat="45.56692" lon="6.67533">
        <ele>916.20001220703</ele>
        <time>2013-04-14T07:46:07Z</time>
      </trkpt>
      <trkpt lat="45.56692" lon="6.67539">
        <ele>916.40002441406</ele>
        <time>2013-04-14T07:46:09Z</time>
      </trkpt>
      <trkpt lat="45.56693" lon="6.67558">
        <ele>916.40002441406</ele>
        <time>2013-04-14T07:46:15Z</time>
      </trkpt>
      <trkpt lat="45.56691" lon="6.67586">
        <ele>915</ele>
        <time>2013-04-14T07:46:24Z</time>
      </trkpt>
      <trkpt lat="45.56691" lon="6.67589">
        <ele>915</ele>
        <time>2013-04-14T07:46:25Z</time>
      </trkpt>
      <trkpt lat="45.56694" lon="6.6761">
        <ele>916.40002441406</ele>
        <time>2013-04-14T07:46:31Z</time>
      </trkpt>
      <trkpt lat="45.56694" lon="6.67624">
        <ele>917</ele>
        <time>2013-04-14T07:46:35Z</time>
      </trkpt>
      <trkpt lat="45.56694" lon="6.67626">
        <ele>917</ele>
        <time>2013-04-14T07:46:36Z</time>
      </trkpt>
      <trkpt lat="45.56695" lon="6.6763">
        <ele>917.40002441406</ele>
        <time>2013-04-14T07:46:37Z</time>
      </trkpt>
      <trkpt lat="45.56696" lon="6.67637">
        <ele>918</ele>
        <time>2013-04-14T07:46:39Z</time>
      </trkpt>
      <trkpt lat="45.56697" lon="6.67641">
        <ele>918.20001220703</ele>
        <time>2013-04-14T07:46:40Z</time>
      </trkpt>
      <trkpt lat="45.56696" lon="6.67644">
        <ele>918</ele>
        <time>2013-04-14T07:46:41Z</time>
      </trkpt>
      <trkpt lat="45.56699" lon="6.67667">
        <ele>919.40002441406</ele>
        <time>2013-04-14T07:46:48Z</time>
      </trkpt>
      <trkpt lat="45.56699" lon="6.67674">
        <ele>918.79998779297</ele>
        <time>2013-04-14T07:46:50Z</time>
      </trkpt>
      <trkpt lat="45.56699" lon="6.67678">
        <ele>918.59997558594</ele>
        <time>2013-04-14T07:46:51Z</time>
      </trkpt>
      <trkpt lat="45.56698" lon="6.67684">
        <ele>917.59997558594</ele>
        <time>2013-04-14T07:46:53Z</time>
      </trkpt>
      <trkpt lat="45.56698" lon="6.67688">
        <ele>917.40002441406</ele>
        <time>2013-04-14T07:46:54Z</time>
      </trkpt>
      <trkpt lat="45.56698" lon="6.67706">
        <ele>916</ele>
        <time>2013-04-14T07:46:59Z</time>
      </trkpt>
      <trkpt lat="45.56696" lon="6.67723">
        <ele>913.79998779297</ele>
        <time>2013-04-14T07:47:05Z</time>
      </trkpt>
      <trkpt lat="45.56698" lon="6.67732">
        <ele>914.40002441406</ele>
        <time>2013-04-14T07:47:08Z</time>
      </trkpt>
      <trkpt lat="45.56701" lon="6.67734">
        <ele>915.40002441406</ele>
        <time>2013-04-14T07:47:09Z</time>
      </trkpt>
      <trkpt lat="45.56716" lon="6.67753">
        <ele>920.79998779297</ele>
        <time>2013-04-14T07:47:17Z</time>
      </trkpt>
      <trkpt lat="45.5672" lon="6.67757">
        <ele>921.59997558594</ele>
        <time>2013-04-14T07:47:19Z</time>
      </trkpt>
      <trkpt lat="45.56727" lon="6.67763">
        <ele>923.40002441406</ele>
        <time>2013-04-14T07:47:22Z</time>
      </trkpt>
      <trkpt lat="45.5673" lon="6.67767">
        <ele>923.59997558594</ele>
        <time>2013-04-14T07:47:24Z</time>
      </trkpt>
      <trkpt lat="45.56732" lon="6.67769">
        <ele>924</ele>
        <time>2013-04-14T07:47:25Z</time>
      </trkpt>
      <trkpt lat="45.56752" lon="6.6779">
        <ele>927</ele>
        <time>2013-04-14T07:47:35Z</time>
      </trkpt>
      <trkpt lat="45.5676" lon="6.67796">
        <ele>927.59997558594</ele>
        <time>2013-04-14T07:47:38Z</time>
      </trkpt>
      <trkpt lat="45.56765" lon="6.67803">
        <ele>926.79998779297</ele>
        <time>2013-04-14T07:47:40Z</time>
      </trkpt>
      <trkpt lat="45.5677" lon="6.67808">
        <ele>926.40002441406</ele>
        <time>2013-04-14T07:47:42Z</time>
      </trkpt>
      <trkpt lat="45.56772" lon="6.67811">
        <ele>926.20001220703</ele>
        <time>2013-04-14T07:47:43Z</time>
      </trkpt>
      <trkpt lat="45.56774" lon="6.67814">
        <ele>926</ele>
        <time>2013-04-14T07:47:44Z</time>
      </trkpt>
      <trkpt lat="45.56779" lon="6.67819">
        <ele>925.59997558594</ele>
        <time>2013-04-14T07:47:46Z</time>
      </trkpt>
      <trkpt lat="45.56782" lon="6.67824">
        <ele>925</ele>
        <time>2013-04-14T07:47:48Z</time>
      </trkpt>
      <trkpt lat="45.56793" lon="6.67843">
        <ele>924</ele>
        <time>2013-04-14T07:47:54Z</time>
      </trkpt>
      <trkpt lat="45.56796" lon="6.67855">
        <ele>923</ele>
        <time>2013-04-14T07:47:57Z</time>
      </trkpt>
      <trkpt lat="45.56797" lon="6.67858">
        <ele>922.79998779297</ele>
        <time>2013-04-14T07:47:58Z</time>
      </trkpt>
      <trkpt lat="45.56804" lon="6.67873">
        <ele>922.59997558594</ele>
        <time>2013-04-14T07:48:03Z</time>
      </trkpt>
      <trkpt lat="45.56814" lon="6.67882">
        <ele>924.20001220703</ele>
        <time>2013-04-14T07:48:07Z</time>
      </trkpt>
      <trkpt lat="45.56816" lon="6.67884">
        <ele>924.40002441406</ele>
        <time>2013-04-14T07:48:08Z</time>
      </trkpt>
      <trkpt lat="45.56821" lon="6.67896">
        <ele>924.20001220703</ele>
        <time>2013-04-14T07:48:11Z</time>
      </trkpt>
      <trkpt lat="45.56821" lon="6.67899">
        <ele>923.79998779297</ele>
        <time>2013-04-14T07:48:12Z</time>
      </trkpt>
      <trkpt lat="45.5682" lon="6.67912">
        <ele>921.59997558594</ele>
        <time>2013-04-14T07:48:15Z</time>
      </trkpt>
      <trkpt lat="45.56821" lon="6.67929">
        <ele>920.20001220703</ele>
        <time>2013-04-14T07:48:22Z</time>
      </trkpt>
      <trkpt lat="45.56821" lon="6.67928">
        <ele>920.20001220703</ele>
        <time>2013-04-14T07:48:23Z</time>
      </trkpt>
      <trkpt lat="45.56821" lon="6.67929">
        <ele>920.20001220703</ele>
        <time>2013-04-14T07:48:27Z</time>
      </trkpt>
      <trkpt lat="45.56817" lon="6.67931">
        <ele>919</ele>
        <time>2013-04-14T07:48:41Z</time>
      </trkpt>
      <trkpt lat="45.56817" lon="6.67931">
        <ele>918.79998779297</ele>
        <time>2013-04-14T07:48:44Z</time>
      </trkpt>
      <trkpt lat="45.56816" lon="6.67932">
        <ele>918.59997558594</ele>
        <time>2013-04-14T07:48:47Z</time>
      </trkpt>
      <trkpt lat="45.56819" lon="6.67932">
        <ele>919.40002441406</ele>
        <time>2013-04-14T07:48:50Z</time>
      </trkpt>
      <trkpt lat="45.56822" lon="6.67933">
        <ele>920.20001220703</ele>
        <time>2013-04-14T07:48:55Z</time>
      </trkpt>
      <trkpt lat="45.56823" lon="6.67937">
        <ele>920.40002441406</ele>
        <time>2013-04-14T07:48:58Z</time>
      </trkpt>
      <trkpt lat="45.56835" lon="6.67956">
        <ele>922.59997558594</ele>
        <time>2013-04-14T07:49:05Z</time>
      </trkpt>
      <trkpt lat="45.56838" lon="6.67961">
        <ele>923.20001220703</ele>
        <time>2013-04-14T07:49:08Z</time>
      </trkpt>
      <trkpt lat="45.56839" lon="6.67964">
        <ele>923.40002441406</ele>
        <time>2013-04-14T07:49:09Z</time>
      </trkpt>
      <trkpt lat="45.56842" lon="6.67967">
        <ele>924.20001220703</ele>
        <time>2013-04-14T07:49:11Z</time>
      </trkpt>
      <trkpt lat="45.56843" lon="6.67969">
        <ele>924.40002441406</ele>
        <time>2013-04-14T07:49:12Z</time>
      </trkpt>
      <trkpt lat="45.56845" lon="6.67972">
        <ele>924.79998779297</ele>
        <time>2013-04-14T07:49:14Z</time>
      </trkpt>
      <trkpt lat="45.56852" lon="6.6798">
        <ele>926.40002441406</ele>
        <time>2013-04-14T07:49:19Z</time>
      </trkpt>
      <trkpt lat="45.56854" lon="6.67983">
        <ele>927</ele>
        <time>2013-04-14T07:49:21Z</time>
      </trkpt>
      <trkpt lat="45.56855" lon="6.67986">
        <ele>927.20001220703</ele>
        <time>2013-04-14T07:49:23Z</time>
      </trkpt>
      <trkpt lat="45.56856" lon="6.67987">
        <ele>927.40002441406</ele>
        <time>2013-04-14T07:49:24Z</time>
      </trkpt>
      <trkpt lat="45.56858" lon="6.67989">
        <ele>927.79998779297</ele>
        <time>2013-04-14T07:49:25Z</time>
      </trkpt>
      <trkpt lat="45.5686" lon="6.67992">
        <ele>928.20001220703</ele>
        <time>2013-04-14T07:49:27Z</time>
      </trkpt>
      <trkpt lat="45.56861" lon="6.67994">
        <ele>928.40002441406</ele>
        <time>2013-04-14T07:49:28Z</time>
      </trkpt>
      <trkpt lat="45.56861" lon="6.67995">
        <ele>928.59997558594</ele>
        <time>2013-04-14T07:49:29Z</time>
      </trkpt>
      <trkpt lat="45.56863" lon="6.67997">
        <ele>929</ele>
        <time>2013-04-14T07:49:31Z</time>
      </trkpt>
      <trkpt lat="45.56863" lon="6.68">
        <ele>929</ele>
        <time>2013-04-14T07:49:32Z</time>
      </trkpt>
      <trkpt lat="45.56864" lon="6.68001">
        <ele>929</ele>
        <time>2013-04-14T07:49:33Z</time>
      </trkpt>
      <trkpt lat="45.56865" lon="6.68007">
        <ele>929</ele>
        <time>2013-04-14T07:49:35Z</time>
      </trkpt>
      <trkpt lat="45.56866" lon="6.68009">
        <ele>929</ele>
        <time>2013-04-14T07:49:36Z</time>
      </trkpt>
      <trkpt lat="45.56867" lon="6.68012">
        <ele>929.20001220703</ele>
        <time>2013-04-14T07:49:37Z</time>
      </trkpt>
      <trkpt lat="45.56869" lon="6.68017">
        <ele>929.79998779297</ele>
        <time>2013-04-14T07:49:39Z</time>
      </trkpt>
      <trkpt lat="45.56871" lon="6.6802">
        <ele>930</ele>
        <time>2013-04-14T07:49:40Z</time>
      </trkpt>
      <trkpt lat="45.56872" lon="6.68022">
        <ele>930.40002441406</ele>
        <time>2013-04-14T07:49:41Z</time>
      </trkpt>
      <trkpt lat="45.56884" lon="6.68041">
        <ele>932.79998779297</ele>
        <time>2013-04-14T07:49:49Z</time>
      </trkpt>
      <trkpt lat="45.56885" lon="6.68044">
        <ele>933.20001220703</ele>
        <time>2013-04-14T07:49:50Z</time>
      </trkpt>
      <trkpt lat="45.56887" lon="6.68046">
        <ele>933.59997558594</ele>
        <time>2013-04-14T07:49:51Z</time>
      </trkpt>
      <trkpt lat="45.56891" lon="6.68052">
        <ele>934.40002441406</ele>
        <time>2013-04-14T07:49:54Z</time>
      </trkpt>
      <trkpt lat="45.56893" lon="6.68054">
        <ele>935</ele>
        <time>2013-04-14T07:49:55Z</time>
      </trkpt>
      <trkpt lat="45.56903" lon="6.68066">
        <ele>937.40002441406</ele>
        <time>2013-04-14T07:50:01Z</time>
      </trkpt>
      <trkpt lat="45.56904" lon="6.68068">
        <ele>937.59997558594</ele>
        <time>2013-04-14T07:50:02Z</time>
      </trkpt>
      <trkpt lat="45.56905" lon="6.6807">
        <ele>938</ele>
        <time>2013-04-14T07:50:03Z</time>
      </trkpt>
      <trkpt lat="45.56908" lon="6.68074">
        <ele>938.79998779297</ele>
        <time>2013-04-14T07:50:05Z</time>
      </trkpt>
      <trkpt lat="45.5691" lon="6.68076">
        <ele>939.20001220703</ele>
        <time>2013-04-14T07:50:06Z</time>
      </trkpt>
      <trkpt lat="45.56913" lon="6.68083">
        <ele>939.59997558594</ele>
        <time>2013-04-14T07:50:09Z</time>
      </trkpt>
      <trkpt lat="45.56915" lon="6.68088">
        <ele>940</ele>
        <time>2013-04-14T07:50:11Z</time>
      </trkpt>
      <trkpt lat="45.56916" lon="6.6809">
        <ele>940</ele>
        <time>2013-04-14T07:50:12Z</time>
      </trkpt>
      <trkpt lat="45.56916" lon="6.68092">
        <ele>940</ele>
        <time>2013-04-14T07:50:13Z</time>
      </trkpt>
      <trkpt lat="45.56917" lon="6.68097">
        <ele>940</ele>
        <time>2013-04-14T07:50:15Z</time>
      </trkpt>
      <trkpt lat="45.56917" lon="6.681">
        <ele>939.79998779297</ele>
        <time>2013-04-14T07:50:16Z</time>
      </trkpt>
      <trkpt lat="45.56917" lon="6.68113">
        <ele>939</ele>
        <time>2013-04-14T07:50:21Z</time>
      </trkpt>
      <trkpt lat="45.56931" lon="6.68126">
        <ele>942.40002441406</ele>
        <time>2013-04-14T07:50:27Z</time>
      </trkpt>
      <trkpt lat="45.56936" lon="6.6813">
        <ele>943.59997558594</ele>
        <time>2013-04-14T07:50:30Z</time>
      </trkpt>
      <trkpt lat="45.56945" lon="6.68136">
        <ele>946</ele>
        <time>2013-04-14T07:50:34Z</time>
      </trkpt>
      <trkpt lat="45.56957" lon="6.68143">
        <ele>949.20001220703</ele>
        <time>2013-04-14T07:50:39Z</time>
      </trkpt>
      <trkpt lat="45.56964" lon="6.68146">
        <ele>951.20001220703</ele>
        <time>2013-04-14T07:50:43Z</time>
      </trkpt>
      <trkpt lat="45.56972" lon="6.68155">
        <ele>953.20001220703</ele>
        <time>2013-04-14T07:50:48Z</time>
      </trkpt>
      <trkpt lat="45.56967" lon="6.68163">
        <ele>951</ele>
        <time>2013-04-14T07:50:51Z</time>
      </trkpt>
      <trkpt lat="45.56964" lon="6.68168">
        <ele>949.59997558594</ele>
        <time>2013-04-14T07:50:53Z</time>
      </trkpt>
      <trkpt lat="45.56958" lon="6.68175">
        <ele>948.20001220703</ele>
        <time>2013-04-14T07:50:56Z</time>
      </trkpt>
      <trkpt lat="45.56957" lon="6.68176">
        <ele>947.79998779297</ele>
        <time>2013-04-14T07:50:57Z</time>
      </trkpt>
      <trkpt lat="45.56953" lon="6.68178">
        <ele>946.79998779297</ele>
        <time>2013-04-14T07:50:58Z</time>
      </trkpt>
      <trkpt lat="45.56948" lon="6.68183">
        <ele>945.59997558594</ele>
        <time>2013-04-14T07:51:00Z</time>
      </trkpt>
      <trkpt lat="45.56945" lon="6.68184">
        <ele>944.79998779297</ele>
        <time>2013-04-14T07:51:01Z</time>
      </trkpt>
      <trkpt lat="45.56941" lon="6.68185">
        <ele>943.59997558594</ele>
        <time>2013-04-14T07:51:03Z</time>
      </trkpt>
      <trkpt lat="45.56919" lon="6.68195">
        <ele>937.20001220703</ele>
        <time>2013-04-14T07:51:13Z</time>
      </trkpt>
      <trkpt lat="45.56915" lon="6.682">
        <ele>936.20001220703</ele>
        <time>2013-04-14T07:51:15Z</time>
      </trkpt>
      <trkpt lat="45.56911" lon="6.68209">
        <ele>935.40002441406</ele>
        <time>2013-04-14T07:51:18Z</time>
      </trkpt>
      <trkpt lat="45.56908" lon="6.68223">
        <ele>934.79998779297</ele>
        <time>2013-04-14T07:51:22Z</time>
      </trkpt>
      <trkpt lat="45.56907" lon="6.68227">
        <ele>934.40002441406</ele>
        <time>2013-04-14T07:51:23Z</time>
      </trkpt>
      <trkpt lat="45.56903" lon="6.68246">
        <ele>934</ele>
        <time>2013-04-14T07:51:28Z</time>
      </trkpt>
      <trkpt lat="45.56898" lon="6.68262">
        <ele>932.20001220703</ele>
        <time>2013-04-14T07:51:32Z</time>
      </trkpt>
      <trkpt lat="45.56895" lon="6.68278">
        <ele>931.59997558594</ele>
        <time>2013-04-14T07:51:36Z</time>
      </trkpt>
      <trkpt lat="45.56892" lon="6.68289">
        <ele>930.59997558594</ele>
        <time>2013-04-14T07:51:39Z</time>
      </trkpt>
      <trkpt lat="45.56892" lon="6.68296">
        <ele>930.79998779297</ele>
        <time>2013-04-14T07:51:41Z</time>
      </trkpt>
      <trkpt lat="45.56893" lon="6.68303">
        <ele>931.20001220703</ele>
        <time>2013-04-14T07:51:43Z</time>
      </trkpt>
      <trkpt lat="45.56901" lon="6.68316">
        <ele>934.40002441406</ele>
        <time>2013-04-14T07:51:48Z</time>
      </trkpt>
      <trkpt lat="45.56905" lon="6.68329">
        <ele>936</ele>
        <time>2013-04-14T07:51:52Z</time>
      </trkpt>
      <trkpt lat="45.56907" lon="6.68341">
        <ele>936.20001220703</ele>
        <time>2013-04-14T07:51:57Z</time>
      </trkpt>
      <trkpt lat="45.56909" lon="6.68346">
        <ele>936.20001220703</ele>
        <time>2013-04-14T07:52:02Z</time>
      </trkpt>
      <trkpt lat="45.56909" lon="6.68347">
        <ele>936.20001220703</ele>
        <time>2013-04-14T07:52:05Z</time>
      </trkpt>
      <trkpt lat="45.56914" lon="6.68349">
        <ele>937.40002441406</ele>
        <time>2013-04-14T07:52:08Z</time>
      </trkpt>
      <trkpt lat="45.56916" lon="6.68355">
        <ele>937.79998779297</ele>
        <time>2013-04-14T07:52:12Z</time>
      </trkpt>
      <trkpt lat="45.56917" lon="6.68356">
        <ele>937.79998779297</ele>
        <time>2013-04-14T07:52:13Z</time>
      </trkpt>
      <trkpt lat="45.56918" lon="6.68356">
        <ele>938</ele>
        <time>2013-04-14T07:52:14Z</time>
      </trkpt>
      <trkpt lat="45.56917" lon="6.68356">
        <ele>938</ele>
        <time>2013-04-14T07:52:16Z</time>
      </trkpt>
      <trkpt lat="45.56922" lon="6.6836">
        <ele>939</ele>
        <time>2013-04-14T07:52:20Z</time>
      </trkpt>
      <trkpt lat="45.5693" lon="6.68366">
        <ele>941</ele>
        <time>2013-04-14T07:52:24Z</time>
      </trkpt>
      <trkpt lat="45.56934" lon="6.68372">
        <ele>941.79998779297</ele>
        <time>2013-04-14T07:52:28Z</time>
      </trkpt>
      <trkpt lat="45.56936" lon="6.68374">
        <ele>942.20001220703</ele>
        <time>2013-04-14T07:52:29Z</time>
      </trkpt>
      <trkpt lat="45.56938" lon="6.68375">
        <ele>942.79998779297</ele>
        <time>2013-04-14T07:52:30Z</time>
      </trkpt>
      <trkpt lat="45.5694" lon="6.68379">
        <ele>943.20001220703</ele>
        <time>2013-04-14T07:52:32Z</time>
      </trkpt>
      <trkpt lat="45.56943" lon="6.68386">
        <ele>943.59997558594</ele>
        <time>2013-04-14T07:52:35Z</time>
      </trkpt>
      <trkpt lat="45.56944" lon="6.68388">
        <ele>943.59997558594</ele>
        <time>2013-04-14T07:52:36Z</time>
      </trkpt>
      <trkpt lat="45.56944" lon="6.68396">
        <ele>943.20001220703</ele>
        <time>2013-04-14T07:52:39Z</time>
      </trkpt>
      <trkpt lat="45.56944" lon="6.68399">
        <ele>942.79998779297</ele>
        <time>2013-04-14T07:52:40Z</time>
      </trkpt>
      <trkpt lat="45.56946" lon="6.68414">
        <ele>942</ele>
        <time>2013-04-14T07:52:46Z</time>
      </trkpt>
      <trkpt lat="45.56946" lon="6.68416">
        <ele>942</ele>
        <time>2013-04-14T07:52:47Z</time>
      </trkpt>
      <trkpt lat="45.56947" lon="6.68418">
        <ele>942.20001220703</ele>
        <time>2013-04-14T07:52:48Z</time>
      </trkpt>
      <trkpt lat="45.56949" lon="6.68423">
        <ele>942.20001220703</ele>
        <time>2013-04-14T07:52:50Z</time>
      </trkpt>
      <trkpt lat="45.5695" lon="6.68425">
        <ele>942.40002441406</ele>
        <time>2013-04-14T07:52:51Z</time>
      </trkpt>
      <trkpt lat="45.56951" lon="6.68427">
        <ele>942.59997558594</ele>
        <time>2013-04-14T07:52:52Z</time>
      </trkpt>
      <trkpt lat="45.56955" lon="6.68428">
        <ele>943.59997558594</ele>
        <time>2013-04-14T07:52:54Z</time>
      </trkpt>
      <trkpt lat="45.56956" lon="6.68429">
        <ele>944</ele>
        <time>2013-04-14T07:52:55Z</time>
      </trkpt>
      <trkpt lat="45.56958" lon="6.68428">
        <ele>944.79998779297</ele>
        <time>2013-04-14T07:52:56Z</time>
      </trkpt>
      <trkpt lat="45.56961" lon="6.68426">
        <ele>946</ele>
        <time>2013-04-14T07:52:58Z</time>
      </trkpt>
      <trkpt lat="45.56963" lon="6.68416">
        <ele>947.59997558594</ele>
        <time>2013-04-14T07:53:02Z</time>
      </trkpt>
      <trkpt lat="45.56963" lon="6.6841">
        <ele>948.20001220703</ele>
        <time>2013-04-14T07:53:04Z</time>
      </trkpt>
      <trkpt lat="45.56963" lon="6.68404">
        <ele>948.59997558594</ele>
        <time>2013-04-14T07:53:06Z</time>
      </trkpt>
      <trkpt lat="45.56964" lon="6.68401">
        <ele>949.20001220703</ele>
        <time>2013-04-14T07:53:07Z</time>
      </trkpt>
      <trkpt lat="45.56964" lon="6.68399">
        <ele>949.40002441406</ele>
        <time>2013-04-14T07:53:08Z</time>
      </trkpt>
      <trkpt lat="45.56966" lon="6.68393">
        <ele>950.59997558594</ele>
        <time>2013-04-14T07:53:10Z</time>
      </trkpt>
      <trkpt lat="45.56969" lon="6.68382">
        <ele>952.59997558594</ele>
        <time>2013-04-14T07:53:14Z</time>
      </trkpt>
      <trkpt lat="45.56972" lon="6.68364">
        <ele>955.20001220703</ele>
        <time>2013-04-14T07:53:20Z</time>
      </trkpt>
      <trkpt lat="45.56972" lon="6.68361">
        <ele>955.40002441406</ele>
        <time>2013-04-14T07:53:21Z</time>
      </trkpt>
      <trkpt lat="45.56972" lon="6.68358">
        <ele>955.59997558594</ele>
        <time>2013-04-14T07:53:22Z</time>
      </trkpt>
      <trkpt lat="45.56974" lon="6.68354">
        <ele>956.40002441406</ele>
        <time>2013-04-14T07:53:26Z</time>
      </trkpt>
      <trkpt lat="45.56975" lon="6.68355">
        <ele>956.79998779297</ele>
        <time>2013-04-14T07:53:27Z</time>
      </trkpt>
      <trkpt lat="45.56974" lon="6.68355">
        <ele>956.59997558594</ele>
        <time>2013-04-14T07:53:30Z</time>
      </trkpt>
      <trkpt lat="45.5698" lon="6.68358">
        <ele>958.20001220703</ele>
        <time>2013-04-14T07:53:35Z</time>
      </trkpt>
      <trkpt lat="45.5698" lon="6.68358">
        <ele>958.40002441406</ele>
        <time>2013-04-14T07:53:36Z</time>
      </trkpt>
      <trkpt lat="45.56981" lon="6.68359">
        <ele>958.59997558594</ele>
        <time>2013-04-14T07:53:37Z</time>
      </trkpt>
      <trkpt lat="45.56982" lon="6.68359">
        <ele>958.79998779297</ele>
        <time>2013-04-14T07:53:39Z</time>
      </trkpt>
      <trkpt lat="45.56983" lon="6.6836">
        <ele>959</ele>
        <time>2013-04-14T07:53:41Z</time>
      </trkpt>
      <trkpt lat="45.56983" lon="6.6836">
        <ele>959.20001220703</ele>
        <time>2013-04-14T07:53:42Z</time>
      </trkpt>
      <trkpt lat="45.56983" lon="6.68361">
        <ele>959.20001220703</ele>
        <time>2013-04-14T07:53:44Z</time>
      </trkpt>
      <trkpt lat="45.56985" lon="6.68363">
        <ele>959.59997558594</ele>
        <time>2013-04-14T07:53:45Z</time>
      </trkpt>
      <trkpt lat="45.56986" lon="6.68363">
        <ele>959.79998779297</ele>
        <time>2013-04-14T07:53:46Z</time>
      </trkpt>
      <trkpt lat="45.56988" lon="6.68364">
        <ele>960.20001220703</ele>
        <time>2013-04-14T07:53:49Z</time>
      </trkpt>
      <trkpt lat="45.56988" lon="6.68364">
        <ele>960.40002441406</ele>
        <time>2013-04-14T07:53:50Z</time>
      </trkpt>
      <trkpt lat="45.56989" lon="6.68365">
        <ele>960.79998779297</ele>
        <time>2013-04-14T07:53:51Z</time>
      </trkpt>
      <trkpt lat="45.56992" lon="6.68366">
        <ele>961.59997558594</ele>
        <time>2013-04-14T07:53:53Z</time>
      </trkpt>
      <trkpt lat="45.56992" lon="6.68366">
        <ele>961.59997558594</ele>
        <time>2013-04-14T07:53:55Z</time>
      </trkpt>
      <trkpt lat="45.56995" lon="6.68368">
        <ele>962.40002441406</ele>
        <time>2013-04-14T07:53:57Z</time>
      </trkpt>
      <trkpt lat="45.56997" lon="6.68368">
        <ele>962.79998779297</ele>
        <time>2013-04-14T07:53:58Z</time>
      </trkpt>
      <trkpt lat="45.56998" lon="6.68369">
        <ele>963.20001220703</ele>
        <time>2013-04-14T07:53:59Z</time>
      </trkpt>
      <trkpt lat="45.57001" lon="6.68371">
        <ele>964</ele>
        <time>2013-04-14T07:54:02Z</time>
      </trkpt>
      <trkpt lat="45.57002" lon="6.68373">
        <ele>964.20001220703</ele>
        <time>2013-04-14T07:54:03Z</time>
      </trkpt>
      <trkpt lat="45.57003" lon="6.68374">
        <ele>964.40002441406</ele>
        <time>2013-04-14T07:54:04Z</time>
      </trkpt>
      <trkpt lat="45.57007" lon="6.68377">
        <ele>965.40002441406</ele>
        <time>2013-04-14T07:54:08Z</time>
      </trkpt>
      <trkpt lat="45.57008" lon="6.68378">
        <ele>965.59997558594</ele>
        <time>2013-04-14T07:54:09Z</time>
      </trkpt>
      <trkpt lat="45.57009" lon="6.68379">
        <ele>965.79998779297</ele>
        <time>2013-04-14T07:54:10Z</time>
      </trkpt>
      <trkpt lat="45.57009" lon="6.68379">
        <ele>965.79998779297</ele>
        <time>2013-04-14T07:54:12Z</time>
      </trkpt>
      <trkpt lat="45.57009" lon="6.68379">
        <ele>965.79998779297</ele>
        <time>2013-04-14T07:54:13Z</time>
      </trkpt>
      <trkpt lat="45.5701" lon="6.6838">
        <ele>966</ele>
        <time>2013-04-14T07:54:14Z</time>
      </trkpt>
      <trkpt lat="45.57011" lon="6.68379">
        <ele>966.40002441406</ele>
        <time>2013-04-14T07:54:16Z</time>
      </trkpt>
      <trkpt lat="45.57013" lon="6.68379">
        <ele>967</ele>
        <time>2013-04-14T07:54:17Z</time>
      </trkpt>
      <trkpt lat="45.57014" lon="6.68378">
        <ele>967.40002441406</ele>
        <time>2013-04-14T07:54:18Z</time>
      </trkpt>
      <trkpt lat="45.57016" lon="6.68377">
        <ele>968.20001220703</ele>
        <time>2013-04-14T07:54:20Z</time>
      </trkpt>
      <trkpt lat="45.57016" lon="6.68377">
        <ele>968.20001220703</ele>
        <time>2013-04-14T07:54:21Z</time>
      </trkpt>
      <trkpt lat="45.57017" lon="6.68376">
        <ele>968.59997558594</ele>
        <time>2013-04-14T07:54:22Z</time>
      </trkpt>
      <trkpt lat="45.5702" lon="6.68375">
        <ele>969.59997558594</ele>
        <time>2013-04-14T07:54:25Z</time>
      </trkpt>
      <trkpt lat="45.57021" lon="6.68375">
        <ele>969.79998779297</ele>
        <time>2013-04-14T07:54:26Z</time>
      </trkpt>
      <trkpt lat="45.57025" lon="6.68377">
        <ele>970.79998779297</ele>
        <time>2013-04-14T07:54:29Z</time>
      </trkpt>
      <trkpt lat="45.57026" lon="6.68378">
        <ele>971.20001220703</ele>
        <time>2013-04-14T07:54:30Z</time>
      </trkpt>
      <trkpt lat="45.57028" lon="6.68378">
        <ele>971.79998779297</ele>
        <time>2013-04-14T07:54:31Z</time>
      </trkpt>
      <trkpt lat="45.57031" lon="6.68379">
        <ele>972.59997558594</ele>
        <time>2013-04-14T07:54:35Z</time>
      </trkpt>
      <trkpt lat="45.57031" lon="6.68379">
        <ele>972.59997558594</ele>
        <time>2013-04-14T07:54:36Z</time>
      </trkpt>
      <trkpt lat="45.57035" lon="6.6838">
        <ele>973.59997558594</ele>
        <time>2013-04-14T07:54:39Z</time>
      </trkpt>
      <trkpt lat="45.57038" lon="6.6838">
        <ele>974.59997558594</ele>
        <time>2013-04-14T07:54:41Z</time>
      </trkpt>
      <trkpt lat="45.57038" lon="6.6838">
        <ele>974.59997558594</ele>
        <time>2013-04-14T07:54:42Z</time>
      </trkpt>
      <trkpt lat="45.57039" lon="6.68381">
        <ele>975</ele>
        <time>2013-04-14T07:54:43Z</time>
      </trkpt>
      <trkpt lat="45.57039" lon="6.6838">
        <ele>975</ele>
        <time>2013-04-14T07:54:45Z</time>
      </trkpt>
      <trkpt lat="45.57039" lon="6.6838">
        <ele>975</ele>
        <time>2013-04-14T07:54:46Z</time>
      </trkpt>
      <trkpt lat="45.5704" lon="6.68381">
        <ele>975.20001220703</ele>
        <time>2013-04-14T07:54:47Z</time>
      </trkpt>
      <trkpt lat="45.5704" lon="6.68382">
        <ele>975.20001220703</ele>
        <time>2013-04-14T07:54:49Z</time>
      </trkpt>
      <trkpt lat="45.5704" lon="6.68381">
        <ele>975.20001220703</ele>
        <time>2013-04-14T07:54:50Z</time>
      </trkpt>
      <trkpt lat="45.57047" lon="6.68382">
        <ele>977.20001220703</ele>
        <time>2013-04-14T07:54:55Z</time>
      </trkpt>
      <trkpt lat="45.57049" lon="6.68382">
        <ele>977.79998779297</ele>
        <time>2013-04-14T07:54:57Z</time>
      </trkpt>
      <trkpt lat="45.5705" lon="6.68382">
        <ele>978.20001220703</ele>
        <time>2013-04-14T07:54:58Z</time>
      </trkpt>
      <trkpt lat="45.57051" lon="6.68382">
        <ele>978.59997558594</ele>
        <time>2013-04-14T07:55:01Z</time>
      </trkpt>
      <trkpt lat="45.57052" lon="6.68381">
        <ele>979</ele>
        <time>2013-04-14T07:55:02Z</time>
      </trkpt>
      <trkpt lat="45.57052" lon="6.68381">
        <ele>979</ele>
        <time>2013-04-14T07:55:04Z</time>
      </trkpt>
      <trkpt lat="45.57053" lon="6.68377">
        <ele>979.59997558594</ele>
        <time>2013-04-14T07:55:06Z</time>
      </trkpt>
      <trkpt lat="45.57054" lon="6.68376">
        <ele>979.79998779297</ele>
        <time>2013-04-14T07:55:07Z</time>
      </trkpt>
      <trkpt lat="45.57054" lon="6.68375">
        <ele>979.79998779297</ele>
        <time>2013-04-14T07:55:08Z</time>
      </trkpt>
      <trkpt lat="45.57054" lon="6.68371">
        <ele>980</ele>
        <time>2013-04-14T07:55:11Z</time>
      </trkpt>
      <trkpt lat="45.57054" lon="6.68369">
        <ele>980.20001220703</ele>
        <time>2013-04-14T07:55:12Z</time>
      </trkpt>
      <trkpt lat="45.57054" lon="6.68367">
        <ele>980.40002441406</ele>
        <time>2013-04-14T07:55:13Z</time>
      </trkpt>
      <trkpt lat="45.57054" lon="6.68362">
        <ele>980.79998779297</ele>
        <time>2013-04-14T07:55:15Z</time>
      </trkpt>
      <trkpt lat="45.57054" lon="6.6836">
        <ele>981</ele>
        <time>2013-04-14T07:55:16Z</time>
      </trkpt>
      <trkpt lat="45.57054" lon="6.68357">
        <ele>981.40002441406</ele>
        <time>2013-04-14T07:55:18Z</time>
      </trkpt>
      <trkpt lat="45.57055" lon="6.68353">
        <ele>981.79998779297</ele>
        <time>2013-04-14T07:55:20Z</time>
      </trkpt>
      <trkpt lat="45.57055" lon="6.68352">
        <ele>982</ele>
        <time>2013-04-14T07:55:21Z</time>
      </trkpt>
      <trkpt lat="45.57056" lon="6.68351">
        <ele>982.20001220703</ele>
        <time>2013-04-14T07:55:22Z</time>
      </trkpt>
      <trkpt lat="45.57058" lon="6.68349">
        <ele>983</ele>
        <time>2013-04-14T07:55:25Z</time>
      </trkpt>
      <trkpt lat="45.57059" lon="6.6835">
        <ele>983.20001220703</ele>
        <time>2013-04-14T07:55:27Z</time>
      </trkpt>
      <trkpt lat="45.57059" lon="6.6835">
        <ele>983.20001220703</ele>
        <time>2013-04-14T07:55:28Z</time>
      </trkpt>
      <trkpt lat="45.57059" lon="6.68351">
        <ele>983.40002441406</ele>
        <time>2013-04-14T07:55:30Z</time>
      </trkpt>
      <trkpt lat="45.5706" lon="6.68351">
        <ele>983.59997558594</ele>
        <time>2013-04-14T07:55:32Z</time>
      </trkpt>
      <trkpt lat="45.57063" lon="6.68352">
        <ele>984.40002441406</ele>
        <time>2013-04-14T07:55:35Z</time>
      </trkpt>
      <trkpt lat="45.57064" lon="6.68352">
        <ele>984.59997558594</ele>
        <time>2013-04-14T07:55:36Z</time>
      </trkpt>
      <trkpt lat="45.57065" lon="6.68352">
        <ele>984.79998779297</ele>
        <time>2013-04-14T07:55:37Z</time>
      </trkpt>
      <trkpt lat="45.57065" lon="6.68352">
        <ele>985</ele>
        <time>2013-04-14T07:55:39Z</time>
      </trkpt>
      <trkpt lat="45.57066" lon="6.68353">
        <ele>985.40002441406</ele>
        <time>2013-04-14T07:55:40Z</time>
      </trkpt>
      <trkpt lat="45.57069" lon="6.68355">
        <ele>986</ele>
        <time>2013-04-14T07:55:45Z</time>
      </trkpt>
      <trkpt lat="45.5707" lon="6.68355">
        <ele>986.40002441406</ele>
        <time>2013-04-14T07:55:47Z</time>
      </trkpt>
      <trkpt lat="45.57071" lon="6.68354">
        <ele>986.79998779297</ele>
        <time>2013-04-14T07:55:48Z</time>
      </trkpt>
      <trkpt lat="45.57072" lon="6.68354">
        <ele>987</ele>
        <time>2013-04-14T07:55:49Z</time>
      </trkpt>
      <trkpt lat="45.57075" lon="6.68353">
        <ele>987.79998779297</ele>
        <time>2013-04-14T07:55:53Z</time>
      </trkpt>
      <trkpt lat="45.57076" lon="6.68353">
        <ele>988.40002441406</ele>
        <time>2013-04-14T07:55:54Z</time>
      </trkpt>
      <trkpt lat="45.57078" lon="6.68353">
        <ele>988.79998779297</ele>
        <time>2013-04-14T07:55:55Z</time>
      </trkpt>
      <trkpt lat="45.57079" lon="6.68353">
        <ele>989.20001220703</ele>
        <time>2013-04-14T07:55:57Z</time>
      </trkpt>
      <trkpt lat="45.57083" lon="6.68353">
        <ele>990.40002441406</ele>
        <time>2013-04-14T07:56:00Z</time>
      </trkpt>
      <trkpt lat="45.57084" lon="6.68353">
        <ele>990.59997558594</ele>
        <time>2013-04-14T07:56:01Z</time>
      </trkpt>
      <trkpt lat="45.57085" lon="6.68355">
        <ele>991</ele>
        <time>2013-04-14T07:56:03Z</time>
      </trkpt>
      <trkpt lat="45.57085" lon="6.68354">
        <ele>991.20001220703</ele>
        <time>2013-04-14T07:56:04Z</time>
      </trkpt>
      <trkpt lat="45.57087" lon="6.68355">
        <ele>991.79998779297</ele>
        <time>2013-04-14T07:56:05Z</time>
      </trkpt>
      <trkpt lat="45.57091" lon="6.68354">
        <ele>993.40002441406</ele>
        <time>2013-04-14T07:56:08Z</time>
      </trkpt>
      <trkpt lat="45.57093" lon="6.68355">
        <ele>994.20001220703</ele>
        <time>2013-04-14T07:56:09Z</time>
      </trkpt>
      <trkpt lat="45.57095" lon="6.68357">
        <ele>994.59997558594</ele>
        <time>2013-04-14T07:56:11Z</time>
      </trkpt>
      <trkpt lat="45.57096" lon="6.68357">
        <ele>995</ele>
        <time>2013-04-14T07:56:12Z</time>
      </trkpt>
      <trkpt lat="45.57096" lon="6.68358">
        <ele>995.20001220703</ele>
        <time>2013-04-14T07:56:13Z</time>
      </trkpt>
      <trkpt lat="45.57099" lon="6.68358">
        <ele>996.40002441406</ele>
        <time>2013-04-14T07:56:16Z</time>
      </trkpt>
      <trkpt lat="45.571" lon="6.68358">
        <ele>996.79998779297</ele>
        <time>2013-04-14T07:56:17Z</time>
      </trkpt>
      <trkpt lat="45.57102" lon="6.68358">
        <ele>997.20001220703</ele>
        <time>2013-04-14T07:56:18Z</time>
      </trkpt>
      <trkpt lat="45.57102" lon="6.68356">
        <ele>997.79998779297</ele>
        <time>2013-04-14T07:56:20Z</time>
      </trkpt>
      <trkpt lat="45.57103" lon="6.68355">
        <ele>998.20001220703</ele>
        <time>2013-04-14T07:56:21Z</time>
      </trkpt>
      <trkpt lat="45.57105" lon="6.68354">
        <ele>999</ele>
        <time>2013-04-14T07:56:22Z</time>
      </trkpt>
      <trkpt lat="45.57107" lon="6.68351">
        <ele>1000</ele>
        <time>2013-04-14T07:56:24Z</time>
      </trkpt>
      <trkpt lat="45.57108" lon="6.6835">
        <ele>1000.200012207</ele>
        <time>2013-04-14T07:56:25Z</time>
      </trkpt>
      <trkpt lat="45.57108" lon="6.68348">
        <ele>1000.5999755859</ele>
        <time>2013-04-14T07:56:26Z</time>
      </trkpt>
      <trkpt lat="45.57112" lon="6.68338">
        <ele>1002.5999755859</ele>
        <time>2013-04-14T07:56:32Z</time>
      </trkpt>
      <trkpt lat="45.57113" lon="6.68336">
        <ele>1003</ele>
        <time>2013-04-14T07:56:33Z</time>
      </trkpt>
      <trkpt lat="45.57113" lon="6.68334">
        <ele>1003.200012207</ele>
        <time>2013-04-14T07:56:34Z</time>
      </trkpt>
      <trkpt lat="45.57115" lon="6.68329">
        <ele>1004.200012207</ele>
        <time>2013-04-14T07:56:36Z</time>
      </trkpt>
      <trkpt lat="45.57116" lon="6.68326">
        <ele>1004.5999755859</ele>
        <time>2013-04-14T07:56:37Z</time>
      </trkpt>
      <trkpt lat="45.57124" lon="6.68321">
        <ele>1008.200012207</ele>
        <time>2013-04-14T07:56:47Z</time>
      </trkpt>
      <trkpt lat="45.57124" lon="6.68322">
        <ele>1008.200012207</ele>
        <time>2013-04-14T07:56:48Z</time>
      </trkpt>
      <trkpt lat="45.57125" lon="6.68323">
        <ele>1008.4000244141</ele>
        <time>2013-04-14T07:56:49Z</time>
      </trkpt>
      <trkpt lat="45.57126" lon="6.68326">
        <ele>1008.5999755859</ele>
        <time>2013-04-14T07:56:51Z</time>
      </trkpt>
      <trkpt lat="45.57126" lon="6.68327">
        <ele>1008.5999755859</ele>
        <time>2013-04-14T07:56:52Z</time>
      </trkpt>
      <trkpt lat="45.57127" lon="6.68329">
        <ele>1009</ele>
        <time>2013-04-14T07:56:53Z</time>
      </trkpt>
      <trkpt lat="45.57128" lon="6.68332">
        <ele>1009.200012207</ele>
        <time>2013-04-14T07:56:55Z</time>
      </trkpt>
      <trkpt lat="45.57129" lon="6.68333">
        <ele>1009.200012207</ele>
        <time>2013-04-14T07:56:56Z</time>
      </trkpt>
      <trkpt lat="45.57129" lon="6.68334">
        <ele>1009.4000244141</ele>
        <time>2013-04-14T07:56:57Z</time>
      </trkpt>
      <trkpt lat="45.57129" lon="6.68338">
        <ele>1009.200012207</ele>
        <time>2013-04-14T07:57:00Z</time>
      </trkpt>
      <trkpt lat="45.57129" lon="6.6834">
        <ele>1009</ele>
        <time>2013-04-14T07:57:02Z</time>
      </trkpt>
      <trkpt lat="45.5713" lon="6.68341">
        <ele>1009.200012207</ele>
        <time>2013-04-14T07:57:03Z</time>
      </trkpt>
      <trkpt lat="45.57131" lon="6.68344">
        <ele>1009.4000244141</ele>
        <time>2013-04-14T07:57:05Z</time>
      </trkpt>
      <trkpt lat="45.57131" lon="6.68345">
        <ele>1009.5999755859</ele>
        <time>2013-04-14T07:57:06Z</time>
      </trkpt>
      <trkpt lat="45.57132" lon="6.68346">
        <ele>1009.5999755859</ele>
        <time>2013-04-14T07:57:07Z</time>
      </trkpt>
      <trkpt lat="45.57131" lon="6.68349">
        <ele>1009.200012207</ele>
        <time>2013-04-14T07:57:09Z</time>
      </trkpt>
      <trkpt lat="45.57131" lon="6.6835">
        <ele>1009.200012207</ele>
        <time>2013-04-14T07:57:10Z</time>
      </trkpt>
      <trkpt lat="45.57132" lon="6.68352">
        <ele>1009.5999755859</ele>
        <time>2013-04-14T07:57:11Z</time>
      </trkpt>
      <trkpt lat="45.57133" lon="6.68354">
        <ele>1009.5999755859</ele>
        <time>2013-04-14T07:57:13Z</time>
      </trkpt>
      <trkpt lat="45.57134" lon="6.68356">
        <ele>1010.200012207</ele>
        <time>2013-04-14T07:57:16Z</time>
      </trkpt>
      <trkpt lat="45.57135" lon="6.68359">
        <ele>1010.4000244141</ele>
        <time>2013-04-14T07:57:18Z</time>
      </trkpt>
      <trkpt lat="45.57136" lon="6.6836">
        <ele>1010.799987793</ele>
        <time>2013-04-14T07:57:19Z</time>
      </trkpt>
      <trkpt lat="45.57136" lon="6.68361">
        <ele>1010.799987793</ele>
        <time>2013-04-14T07:57:20Z</time>
      </trkpt>
      <trkpt lat="45.57137" lon="6.68365">
        <ele>1010.5999755859</ele>
        <time>2013-04-14T07:57:22Z</time>
      </trkpt>
      <trkpt lat="45.57137" lon="6.68366">
        <ele>1010.5999755859</ele>
        <time>2013-04-14T07:57:23Z</time>
      </trkpt>
      <trkpt lat="45.57138" lon="6.68369">
        <ele>1011</ele>
        <time>2013-04-14T07:57:25Z</time>
      </trkpt>
      <trkpt lat="45.57139" lon="6.68372">
        <ele>1011.200012207</ele>
        <time>2013-04-14T07:57:27Z</time>
      </trkpt>
      <trkpt lat="45.57139" lon="6.68374">
        <ele>1011.200012207</ele>
        <time>2013-04-14T07:57:28Z</time>
      </trkpt>
      <trkpt lat="45.5714" lon="6.68375">
        <ele>1011.200012207</ele>
        <time>2013-04-14T07:57:29Z</time>
      </trkpt>
      <trkpt lat="45.57141" lon="6.68378">
        <ele>1011.5999755859</ele>
        <time>2013-04-14T07:57:31Z</time>
      </trkpt>
      <trkpt lat="45.57142" lon="6.6838">
        <ele>1012</ele>
        <time>2013-04-14T07:57:32Z</time>
      </trkpt>
      <trkpt lat="45.57146" lon="6.68386">
        <ele>1013</ele>
        <time>2013-04-14T07:57:36Z</time>
      </trkpt>
      <trkpt lat="45.57147" lon="6.68388">
        <ele>1013.4000244141</ele>
        <time>2013-04-14T07:57:38Z</time>
      </trkpt>
      <trkpt lat="45.57148" lon="6.68389">
        <ele>1013.5999755859</ele>
        <time>2013-04-14T07:57:39Z</time>
      </trkpt>
      <trkpt lat="45.57148" lon="6.6839">
        <ele>1013.799987793</ele>
        <time>2013-04-14T07:57:40Z</time>
      </trkpt>
      <trkpt lat="45.57149" lon="6.68392">
        <ele>1014</ele>
        <time>2013-04-14T07:57:42Z</time>
      </trkpt>
      <trkpt lat="45.57149" lon="6.68393">
        <ele>1014</ele>
        <time>2013-04-14T07:57:43Z</time>
      </trkpt>
      <trkpt lat="45.5715" lon="6.68395">
        <ele>1014.4000244141</ele>
        <time>2013-04-14T07:57:44Z</time>
      </trkpt>
      <trkpt lat="45.57154" lon="6.68402">
        <ele>1015.4000244141</ele>
        <time>2013-04-14T07:57:50Z</time>
      </trkpt>
      <trkpt lat="45.57155" lon="6.68403">
        <ele>1015.799987793</ele>
        <time>2013-04-14T07:57:51Z</time>
      </trkpt>
      <trkpt lat="45.57156" lon="6.68405">
        <ele>1016.200012207</ele>
        <time>2013-04-14T07:57:53Z</time>
      </trkpt>
      <trkpt lat="45.57157" lon="6.68406">
        <ele>1016.5999755859</ele>
        <time>2013-04-14T07:57:54Z</time>
      </trkpt>
      <trkpt lat="45.57158" lon="6.68407">
        <ele>1017</ele>
        <time>2013-04-14T07:57:55Z</time>
      </trkpt>
      <trkpt lat="45.57162" lon="6.68412">
        <ele>1018.200012207</ele>
        <time>2013-04-14T07:57:59Z</time>
      </trkpt>
      <trkpt lat="45.57162" lon="6.68412">
        <ele>1018.4000244141</ele>
        <time>2013-04-14T07:58:00Z</time>
      </trkpt>
      <trkpt lat="45.57162" lon="6.68411">
        <ele>1018.200012207</ele>
        <time>2013-04-14T07:58:01Z</time>
      </trkpt>
      <trkpt lat="45.57162" lon="6.68412">
        <ele>1018.4000244141</ele>
        <time>2013-04-14T07:58:03Z</time>
      </trkpt>
      <trkpt lat="45.57162" lon="6.68412">
        <ele>1018.200012207</ele>
        <time>2013-04-14T07:58:04Z</time>
      </trkpt>
      <trkpt lat="45.57164" lon="6.68414">
        <ele>1019</ele>
        <time>2013-04-14T07:58:05Z</time>
      </trkpt>
      <trkpt lat="45.57165" lon="6.68417">
        <ele>1019.4000244141</ele>
        <time>2013-04-14T07:58:09Z</time>
      </trkpt>
      <trkpt lat="45.57166" lon="6.68419">
        <ele>1019.799987793</ele>
        <time>2013-04-14T07:58:11Z</time>
      </trkpt>
      <trkpt lat="45.57166" lon="6.6842">
        <ele>1020</ele>
        <time>2013-04-14T07:58:12Z</time>
      </trkpt>
      <trkpt lat="45.57167" lon="6.68422">
        <ele>1020.200012207</ele>
        <time>2013-04-14T07:58:14Z</time>
      </trkpt>
      <trkpt lat="45.57167" lon="6.68424">
        <ele>1020.200012207</ele>
        <time>2013-04-14T07:58:15Z</time>
      </trkpt>
      <trkpt lat="45.57167" lon="6.68425">
        <ele>1020.4000244141</ele>
        <time>2013-04-14T07:58:16Z</time>
      </trkpt>
      <trkpt lat="45.57168" lon="6.68428">
        <ele>1020.5999755859</ele>
        <time>2013-04-14T07:58:18Z</time>
      </trkpt>
      <trkpt lat="45.57168" lon="6.68429">
        <ele>1020.5999755859</ele>
        <time>2013-04-14T07:58:19Z</time>
      </trkpt>
      <trkpt lat="45.57168" lon="6.68434">
        <ele>1020.799987793</ele>
        <time>2013-04-14T07:58:22Z</time>
      </trkpt>
      <trkpt lat="45.57169" lon="6.68436">
        <ele>1021.200012207</ele>
        <time>2013-04-14T07:58:23Z</time>
      </trkpt>
      <trkpt lat="45.5717" lon="6.68441">
        <ele>1022</ele>
        <time>2013-04-14T07:58:26Z</time>
      </trkpt>
      <trkpt lat="45.57171" lon="6.68443">
        <ele>1022.4000244141</ele>
        <time>2013-04-14T07:58:28Z</time>
      </trkpt>
      <trkpt lat="45.57172" lon="6.68445">
        <ele>1022.799987793</ele>
        <time>2013-04-14T07:58:29Z</time>
      </trkpt>
      <trkpt lat="45.57173" lon="6.68446">
        <ele>1023.200012207</ele>
        <time>2013-04-14T07:58:30Z</time>
      </trkpt>
      <trkpt lat="45.57173" lon="6.68448">
        <ele>1023.5999755859</ele>
        <time>2013-04-14T07:58:32Z</time>
      </trkpt>
      <trkpt lat="45.57175" lon="6.68455">
        <ele>1024.5999755859</ele>
        <time>2013-04-14T07:58:35Z</time>
      </trkpt>
      <trkpt lat="45.57176" lon="6.68456">
        <ele>1025</ele>
        <time>2013-04-14T07:58:36Z</time>
      </trkpt>
      <trkpt lat="45.57177" lon="6.68459">
        <ele>1025.4000244141</ele>
        <time>2013-04-14T07:58:38Z</time>
      </trkpt>
      <trkpt lat="45.57177" lon="6.68461">
        <ele>1025.5999755859</ele>
        <time>2013-04-14T07:58:39Z</time>
      </trkpt>
      <trkpt lat="45.57178" lon="6.68462">
        <ele>1026</ele>
        <time>2013-04-14T07:58:40Z</time>
      </trkpt>
      <trkpt lat="45.57179" lon="6.68468">
        <ele>1026.5999755859</ele>
        <time>2013-04-14T07:58:44Z</time>
      </trkpt>
      <trkpt lat="45.57179" lon="6.68469">
        <ele>1026.8000488281</ele>
        <time>2013-04-14T07:58:45Z</time>
      </trkpt>
      <trkpt lat="45.57179" lon="6.6847">
        <ele>1026.8000488281</ele>
        <time>2013-04-14T07:58:46Z</time>
      </trkpt>
      <trkpt lat="45.57179" lon="6.68472">
        <ele>1027</ele>
        <time>2013-04-14T07:58:48Z</time>
      </trkpt>
      <trkpt lat="45.57179" lon="6.68474">
        <ele>1027</ele>
        <time>2013-04-14T07:58:49Z</time>
      </trkpt>
      <trkpt lat="45.5718" lon="6.68475">
        <ele>1027.4000244141</ele>
        <time>2013-04-14T07:58:50Z</time>
      </trkpt>
      <trkpt lat="45.57179" lon="6.68474">
        <ele>1027.1999511719</ele>
        <time>2013-04-14T07:58:52Z</time>
      </trkpt>
      <trkpt lat="45.5718" lon="6.68474">
        <ele>1027.5999755859</ele>
        <time>2013-04-14T07:58:54Z</time>
      </trkpt>
      <trkpt lat="45.57182" lon="6.68478">
        <ele>1028.4000244141</ele>
        <time>2013-04-14T07:58:58Z</time>
      </trkpt>
      <trkpt lat="45.57183" lon="6.68482">
        <ele>1029</ele>
        <time>2013-04-14T07:59:04Z</time>
      </trkpt>
      <trkpt lat="45.57183" lon="6.68484">
        <ele>1029.1999511719</ele>
        <time>2013-04-14T07:59:05Z</time>
      </trkpt>
      <trkpt lat="45.57184" lon="6.68487">
        <ele>1029.8000488281</ele>
        <time>2013-04-14T07:59:07Z</time>
      </trkpt>
      <trkpt lat="45.57185" lon="6.68489">
        <ele>1030.4000244141</ele>
        <time>2013-04-14T07:59:08Z</time>
      </trkpt>
      <trkpt lat="45.57186" lon="6.68492">
        <ele>1031.1999511719</ele>
        <time>2013-04-14T07:59:09Z</time>
      </trkpt>
      <trkpt lat="45.57188" lon="6.68498">
        <ele>1032.1999511719</ele>
        <time>2013-04-14T07:59:11Z</time>
      </trkpt>
      <trkpt lat="45.57189" lon="6.685">
        <ele>1032.5999755859</ele>
        <time>2013-04-14T07:59:12Z</time>
      </trkpt>
      <trkpt lat="45.57189" lon="6.68503">
        <ele>1032.5999755859</ele>
        <time>2013-04-14T07:59:13Z</time>
      </trkpt>
      <trkpt lat="45.57192" lon="6.68516">
        <ele>1033.5999755859</ele>
        <time>2013-04-14T07:59:18Z</time>
      </trkpt>
      <trkpt lat="45.57193" lon="6.68519">
        <ele>1033.8000488281</ele>
        <time>2013-04-14T07:59:19Z</time>
      </trkpt>
      <trkpt lat="45.57193" lon="6.68522">
        <ele>1034</ele>
        <time>2013-04-14T07:59:20Z</time>
      </trkpt>
      <trkpt lat="45.57196" lon="6.68528">
        <ele>1035</ele>
        <time>2013-04-14T07:59:22Z</time>
      </trkpt>
      <trkpt lat="45.57196" lon="6.6853">
        <ele>1035</ele>
        <time>2013-04-14T07:59:23Z</time>
      </trkpt>
      <trkpt lat="45.57196" lon="6.68533">
        <ele>1035.1999511719</ele>
        <time>2013-04-14T07:59:24Z</time>
      </trkpt>
      <trkpt lat="45.572" lon="6.6854">
        <ele>1036.8000488281</ele>
        <time>2013-04-14T07:59:29Z</time>
      </trkpt>
      <trkpt lat="45.57203" lon="6.68536">
        <ele>1038.1999511719</ele>
        <time>2013-04-14T07:59:32Z</time>
      </trkpt>
      <trkpt lat="45.57203" lon="6.68535">
        <ele>1038.1999511719</ele>
        <time>2013-04-14T07:59:33Z</time>
      </trkpt>
      <trkpt lat="45.57202" lon="6.68528">
        <ele>1038</ele>
        <time>2013-04-14T07:59:36Z</time>
      </trkpt>
      <trkpt lat="45.57202" lon="6.68526">
        <ele>1037.8000488281</ele>
        <time>2013-04-14T07:59:37Z</time>
      </trkpt>
      <trkpt lat="45.57201" lon="6.68519">
        <ele>1037.8000488281</ele>
        <time>2013-04-14T07:59:40Z</time>
      </trkpt>
      <trkpt lat="45.57201" lon="6.68513">
        <ele>1038</ele>
        <time>2013-04-14T07:59:42Z</time>
      </trkpt>
      <trkpt lat="45.57201" lon="6.6851">
        <ele>1038</ele>
        <time>2013-04-14T07:59:43Z</time>
      </trkpt>
      <trkpt lat="45.57201" lon="6.68505">
        <ele>1038.4000244141</ele>
        <time>2013-04-14T07:59:45Z</time>
      </trkpt>
      <trkpt lat="45.57202" lon="6.68503">
        <ele>1038.8000488281</ele>
        <time>2013-04-14T07:59:46Z</time>
      </trkpt>
      <trkpt lat="45.57203" lon="6.68501">
        <ele>1039.1999511719</ele>
        <time>2013-04-14T07:59:47Z</time>
      </trkpt>
      <trkpt lat="45.57205" lon="6.68498">
        <ele>1040.4000244141</ele>
        <time>2013-04-14T07:59:51Z</time>
      </trkpt>
      <trkpt lat="45.57209" lon="6.68491">
        <ele>1041.8000488281</ele>
        <time>2013-04-14T07:59:55Z</time>
      </trkpt>
      <trkpt lat="45.57212" lon="6.68486">
        <ele>1042.8000488281</ele>
        <time>2013-04-14T07:59:57Z</time>
      </trkpt>
      <trkpt lat="45.57214" lon="6.68482">
        <ele>1043.5999755859</ele>
        <time>2013-04-14T07:59:59Z</time>
      </trkpt>
      <trkpt lat="45.57216" lon="6.6848">
        <ele>1044.1999511719</ele>
        <time>2013-04-14T08:00:00Z</time>
      </trkpt>
      <trkpt lat="45.57217" lon="6.68477">
        <ele>1044.5999755859</ele>
        <time>2013-04-14T08:00:01Z</time>
      </trkpt>
      <trkpt lat="45.57225" lon="6.68461">
        <ele>1047.1999511719</ele>
        <time>2013-04-14T08:00:08Z</time>
      </trkpt>
      <trkpt lat="45.57226" lon="6.68458">
        <ele>1047.4000244141</ele>
        <time>2013-04-14T08:00:09Z</time>
      </trkpt>
      <trkpt lat="45.57227" lon="6.68455">
        <ele>1047.5999755859</ele>
        <time>2013-04-14T08:00:10Z</time>
      </trkpt>
      <trkpt lat="45.57229" lon="6.6845">
        <ele>1048.1999511719</ele>
        <time>2013-04-14T08:00:12Z</time>
      </trkpt>
      <trkpt lat="45.57229" lon="6.68447">
        <ele>1048.4000244141</ele>
        <time>2013-04-14T08:00:13Z</time>
      </trkpt>
      <trkpt lat="45.57237" lon="6.68427">
        <ele>1050</ele>
        <time>2013-04-14T08:00:21Z</time>
      </trkpt>
      <trkpt lat="45.57237" lon="6.68424">
        <ele>1050.1999511719</ele>
        <time>2013-04-14T08:00:22Z</time>
      </trkpt>
      <trkpt lat="45.57238" lon="6.68421">
        <ele>1050.1999511719</ele>
        <time>2013-04-14T08:00:23Z</time>
      </trkpt>
      <trkpt lat="45.57239" lon="6.68415">
        <ele>1050.4000244141</ele>
        <time>2013-04-14T08:00:25Z</time>
      </trkpt>
      <trkpt lat="45.5724" lon="6.68412">
        <ele>1050.8000488281</ele>
        <time>2013-04-14T08:00:26Z</time>
      </trkpt>
      <trkpt lat="45.5724" lon="6.6841">
        <ele>1051.1999511719</ele>
        <time>2013-04-14T08:00:27Z</time>
      </trkpt>
      <trkpt lat="45.57243" lon="6.68395">
        <ele>1052.5999755859</ele>
        <time>2013-04-14T08:00:32Z</time>
      </trkpt>
      <trkpt lat="45.57244" lon="6.68392">
        <ele>1053.1999511719</ele>
        <time>2013-04-14T08:00:33Z</time>
      </trkpt>
      <trkpt lat="45.57244" lon="6.6839">
        <ele>1053.5999755859</ele>
        <time>2013-04-14T08:00:34Z</time>
      </trkpt>
      <trkpt lat="45.57244" lon="6.68382">
        <ele>1053.5999755859</ele>
        <time>2013-04-14T08:00:37Z</time>
      </trkpt>
      <trkpt lat="45.57244" lon="6.68376">
        <ele>1054</ele>
        <time>2013-04-14T08:00:39Z</time>
      </trkpt>
      <trkpt lat="45.57248" lon="6.68368">
        <ele>1055.5999755859</ele>
        <time>2013-04-14T08:00:43Z</time>
      </trkpt>
      <trkpt lat="45.5725" lon="6.68367">
        <ele>1056.8000488281</ele>
        <time>2013-04-14T08:00:45Z</time>
      </trkpt>
      <trkpt lat="45.57252" lon="6.68367">
        <ele>1057.5999755859</ele>
        <time>2013-04-14T08:00:46Z</time>
      </trkpt>
      <trkpt lat="45.57253" lon="6.68368">
        <ele>1058.1999511719</ele>
        <time>2013-04-14T08:00:47Z</time>
      </trkpt>
      <trkpt lat="45.57255" lon="6.6837">
        <ele>1058.8000488281</ele>
        <time>2013-04-14T08:00:49Z</time>
      </trkpt>
      <trkpt lat="45.57256" lon="6.68372">
        <ele>1059.4000244141</ele>
        <time>2013-04-14T08:00:50Z</time>
      </trkpt>
      <trkpt lat="45.57258" lon="6.68376">
        <ele>1060.1999511719</ele>
        <time>2013-04-14T08:00:52Z</time>
      </trkpt>
      <trkpt lat="45.5726" lon="6.6838">
        <ele>1061</ele>
        <time>2013-04-14T08:00:54Z</time>
      </trkpt>
      <trkpt lat="45.57261" lon="6.68385">
        <ele>1061.1999511719</ele>
        <time>2013-04-14T08:00:56Z</time>
      </trkpt>
      <trkpt lat="45.57263" lon="6.68388">
        <ele>1061.8000488281</ele>
        <time>2013-04-14T08:00:58Z</time>
      </trkpt>
      <trkpt lat="45.57264" lon="6.68391">
        <ele>1062.1999511719</ele>
        <time>2013-04-14T08:00:59Z</time>
      </trkpt>
      <trkpt lat="45.57264" lon="6.68394">
        <ele>1062</ele>
        <time>2013-04-14T08:01:00Z</time>
      </trkpt>
      <trkpt lat="45.57264" lon="6.68399">
        <ele>1062</ele>
        <time>2013-04-14T08:01:02Z</time>
      </trkpt>
      <trkpt lat="45.57264" lon="6.68402">
        <ele>1062</ele>
        <time>2013-04-14T08:01:03Z</time>
      </trkpt>
      <trkpt lat="45.57264" lon="6.68405">
        <ele>1061.8000488281</ele>
        <time>2013-04-14T08:01:04Z</time>
      </trkpt>
      <trkpt lat="45.57264" lon="6.68413">
        <ele>1061.5999755859</ele>
        <time>2013-04-14T08:01:07Z</time>
      </trkpt>
      <trkpt lat="45.57264" lon="6.68416">
        <ele>1061.5999755859</ele>
        <time>2013-04-14T08:01:08Z</time>
      </trkpt>
      <trkpt lat="45.57264" lon="6.68419">
        <ele>1061.5999755859</ele>
        <time>2013-04-14T08:01:09Z</time>
      </trkpt>
      <trkpt lat="45.57264" lon="6.68424">
        <ele>1062</ele>
        <time>2013-04-14T08:01:11Z</time>
      </trkpt>
      <trkpt lat="45.57264" lon="6.68427">
        <ele>1062.1999511719</ele>
        <time>2013-04-14T08:01:12Z</time>
      </trkpt>
      <trkpt lat="45.57264" lon="6.68433">
        <ele>1062.4000244141</ele>
        <time>2013-04-14T08:01:14Z</time>
      </trkpt>
      <trkpt lat="45.57266" lon="6.68442">
        <ele>1064</ele>
        <time>2013-04-14T08:01:17Z</time>
      </trkpt>
      <trkpt lat="45.57265" lon="6.68452">
        <ele>1064.5999755859</ele>
        <time>2013-04-14T08:01:20Z</time>
      </trkpt>
      <trkpt lat="45.57265" lon="6.68454">
        <ele>1064.4000244141</ele>
        <time>2013-04-14T08:01:21Z</time>
      </trkpt>
      <trkpt lat="45.57265" lon="6.6846">
        <ele>1064.8000488281</ele>
        <time>2013-04-14T08:01:23Z</time>
      </trkpt>
      <trkpt lat="45.57264" lon="6.68462">
        <ele>1064.8000488281</ele>
        <time>2013-04-14T08:01:24Z</time>
      </trkpt>
      <trkpt lat="45.57264" lon="6.68465">
        <ele>1064.8000488281</ele>
        <time>2013-04-14T08:01:25Z</time>
      </trkpt>
      <trkpt lat="45.5726" lon="6.68481">
        <ele>1064.4000244141</ele>
        <time>2013-04-14T08:01:31Z</time>
      </trkpt>
      <trkpt lat="45.5726" lon="6.68483">
        <ele>1064.5999755859</ele>
        <time>2013-04-14T08:01:32Z</time>
      </trkpt>
      <trkpt lat="45.57259" lon="6.68488">
        <ele>1064.4000244141</ele>
        <time>2013-04-14T08:01:34Z</time>
      </trkpt>
      <trkpt lat="45.57258" lon="6.68491">
        <ele>1064.5999755859</ele>
        <time>2013-04-14T08:01:35Z</time>
      </trkpt>
      <trkpt lat="45.57256" lon="6.68498">
        <ele>1064.1999511719</ele>
        <time>2013-04-14T08:01:38Z</time>
      </trkpt>
      <trkpt lat="45.57255" lon="6.68502">
        <ele>1064</ele>
        <time>2013-04-14T08:01:40Z</time>
      </trkpt>
      <trkpt lat="45.57255" lon="6.68505">
        <ele>1063.5999755859</ele>
        <time>2013-04-14T08:01:41Z</time>
      </trkpt>
      <trkpt lat="45.57255" lon="6.68507">
        <ele>1063.4000244141</ele>
        <time>2013-04-14T08:01:42Z</time>
      </trkpt>
      <trkpt lat="45.57253" lon="6.68515">
        <ele>1062.4000244141</ele>
        <time>2013-04-14T08:01:45Z</time>
      </trkpt>
      <trkpt lat="45.57253" lon="6.68516">
        <ele>1062.1999511719</ele>
        <time>2013-04-14T08:01:46Z</time>
      </trkpt>
      <trkpt lat="45.57253" lon="6.68517">
        <ele>1062.1999511719</ele>
        <time>2013-04-14T08:01:47Z</time>
      </trkpt>
      <trkpt lat="45.57253" lon="6.68516">
        <ele>1062.4000244141</ele>
        <time>2013-04-14T08:01:49Z</time>
      </trkpt>
      <trkpt lat="45.57253" lon="6.68516">
        <ele>1062.1999511719</ele>
        <time>2013-04-14T08:01:50Z</time>
      </trkpt>
      <trkpt lat="45.57253" lon="6.68516">
        <ele>1062.4000244141</ele>
        <time>2013-04-14T08:01:53Z</time>
      </trkpt>
      <trkpt lat="45.57251" lon="6.6852">
        <ele>1061.4000244141</ele>
        <time>2013-04-14T08:02:07Z</time>
      </trkpt>
      <trkpt lat="45.57251" lon="6.68521">
        <ele>1061.4000244141</ele>
        <time>2013-04-14T08:02:11Z</time>
      </trkpt>
      <trkpt lat="45.57252" lon="6.68524">
        <ele>1061.4000244141</ele>
        <time>2013-04-14T08:02:15Z</time>
      </trkpt>
      <trkpt lat="45.57259" lon="6.68546">
        <ele>1063</ele>
        <time>2013-04-14T08:02:25Z</time>
      </trkpt>
      <trkpt lat="45.5726" lon="6.68548">
        <ele>1063.1999511719</ele>
        <time>2013-04-14T08:02:26Z</time>
      </trkpt>
      <trkpt lat="45.57264" lon="6.68555">
        <ele>1064.4000244141</ele>
        <time>2013-04-14T08:02:29Z</time>
      </trkpt>
      <trkpt lat="45.57264" lon="6.68555">
        <ele>1064.5999755859</ele>
        <time>2013-04-14T08:02:30Z</time>
      </trkpt>
      <trkpt lat="45.57264" lon="6.68555">
        <ele>1064.5999755859</ele>
        <time>2013-04-14T08:02:31Z</time>
      </trkpt>
      <trkpt lat="45.57266" lon="6.68554">
        <ele>1065.4000244141</ele>
        <time>2013-04-14T08:02:36Z</time>
      </trkpt>
      <trkpt lat="45.57267" lon="6.68553">
        <ele>1065.8000488281</ele>
        <time>2013-04-14T08:02:38Z</time>
      </trkpt>
      <trkpt lat="45.57271" lon="6.6855">
        <ele>1067.4000244141</ele>
        <time>2013-04-14T08:02:43Z</time>
      </trkpt>
      <trkpt lat="45.57273" lon="6.68549">
        <ele>1068.1999511719</ele>
        <time>2013-04-14T08:02:45Z</time>
      </trkpt>
      <trkpt lat="45.57274" lon="6.68548">
        <ele>1068.4000244141</ele>
        <time>2013-04-14T08:02:46Z</time>
      </trkpt>
      <trkpt lat="45.57274" lon="6.68547">
        <ele>1068.5999755859</ele>
        <time>2013-04-14T08:02:47Z</time>
      </trkpt>
      <trkpt lat="45.57276" lon="6.68546">
        <ele>1069.4000244141</ele>
        <time>2013-04-14T08:02:49Z</time>
      </trkpt>
      <trkpt lat="45.57277" lon="6.68546">
        <ele>1069.8000488281</ele>
        <time>2013-04-14T08:02:50Z</time>
      </trkpt>
      <trkpt lat="45.57278" lon="6.68546">
        <ele>1070</ele>
        <time>2013-04-14T08:02:51Z</time>
      </trkpt>
      <trkpt lat="45.57279" lon="6.68545">
        <ele>1070.5999755859</ele>
        <time>2013-04-14T08:02:53Z</time>
      </trkpt>
      <trkpt lat="45.57279" lon="6.68543">
        <ele>1071</ele>
        <time>2013-04-14T08:02:54Z</time>
      </trkpt>
      <trkpt lat="45.5728" lon="6.68542">
        <ele>1071.1999511719</ele>
        <time>2013-04-14T08:02:55Z</time>
      </trkpt>
      <trkpt lat="45.57281" lon="6.6854">
        <ele>1071.8000488281</ele>
        <time>2013-04-14T08:02:57Z</time>
      </trkpt>
      <trkpt lat="45.57282" lon="6.6854">
        <ele>1072</ele>
        <time>2013-04-14T08:02:58Z</time>
      </trkpt>
      <trkpt lat="45.57283" lon="6.6854">
        <ele>1072.4000244141</ele>
        <time>2013-04-14T08:02:59Z</time>
      </trkpt>
      <trkpt lat="45.57285" lon="6.68539">
        <ele>1073.1999511719</ele>
        <time>2013-04-14T08:03:01Z</time>
      </trkpt>
      <trkpt lat="45.57286" lon="6.68537">
        <ele>1073.8000488281</ele>
        <time>2013-04-14T08:03:03Z</time>
      </trkpt>
      <trkpt lat="45.57287" lon="6.68534">
        <ele>1074.1999511719</ele>
        <time>2013-04-14T08:03:05Z</time>
      </trkpt>
      <trkpt lat="45.57287" lon="6.68533">
        <ele>1074.4000244141</ele>
        <time>2013-04-14T08:03:06Z</time>
      </trkpt>
      <trkpt lat="45.57288" lon="6.68533">
        <ele>1074.8000488281</ele>
        <time>2013-04-14T08:03:07Z</time>
      </trkpt>
      <trkpt lat="45.57289" lon="6.68531">
        <ele>1075.1999511719</ele>
        <time>2013-04-14T08:03:09Z</time>
      </trkpt>
      <trkpt lat="45.5729" lon="6.6853">
        <ele>1075.5999755859</ele>
        <time>2013-04-14T08:03:10Z</time>
      </trkpt>
      <trkpt lat="45.57292" lon="6.68528">
        <ele>1076.5999755859</ele>
        <time>2013-04-14T08:03:13Z</time>
      </trkpt>
      <trkpt lat="45.57293" lon="6.68526">
        <ele>1077.4000244141</ele>
        <time>2013-04-14T08:03:15Z</time>
      </trkpt>
      <trkpt lat="45.57294" lon="6.68526">
        <ele>1077.5999755859</ele>
        <time>2013-04-14T08:03:16Z</time>
      </trkpt>
      <trkpt lat="45.57295" lon="6.68526">
        <ele>1078</ele>
        <time>2013-04-14T08:03:17Z</time>
      </trkpt>
      <trkpt lat="45.57296" lon="6.68524">
        <ele>1078.5999755859</ele>
        <time>2013-04-14T08:03:19Z</time>
      </trkpt>
      <trkpt lat="45.57297" lon="6.68524">
        <ele>1078.8000488281</ele>
        <time>2013-04-14T08:03:20Z</time>
      </trkpt>
      <trkpt lat="45.57298" lon="6.68523">
        <ele>1079.1999511719</ele>
        <time>2013-04-14T08:03:21Z</time>
      </trkpt>
      <trkpt lat="45.57299" lon="6.68522">
        <ele>1079.5999755859</ele>
        <time>2013-04-14T08:03:23Z</time>
      </trkpt>
      <trkpt lat="45.57298" lon="6.68522">
        <ele>1079.1999511719</ele>
        <time>2013-04-14T08:03:24Z</time>
      </trkpt>
      <trkpt lat="45.57299" lon="6.68523">
        <ele>1079.8000488281</ele>
        <time>2013-04-14T08:03:25Z</time>
      </trkpt>
      <trkpt lat="45.57299" lon="6.68523">
        <ele>1079.5999755859</ele>
        <time>2013-04-14T08:03:27Z</time>
      </trkpt>
      <trkpt lat="45.57298" lon="6.68522">
        <ele>1079.4000244141</ele>
        <time>2013-04-14T08:03:28Z</time>
      </trkpt>
      <trkpt lat="45.57298" lon="6.68522">
        <ele>1079.4000244141</ele>
        <time>2013-04-14T08:03:29Z</time>
      </trkpt>
      <trkpt lat="45.57307" lon="6.68515">
        <ele>1083.4000244141</ele>
        <time>2013-04-14T08:03:40Z</time>
      </trkpt>
      <trkpt lat="45.57307" lon="6.68514">
        <ele>1083.5999755859</ele>
        <time>2013-04-14T08:03:41Z</time>
      </trkpt>
      <trkpt lat="45.57309" lon="6.68512">
        <ele>1084.4000244141</ele>
        <time>2013-04-14T08:03:43Z</time>
      </trkpt>
      <trkpt lat="45.57309" lon="6.6851">
        <ele>1084.5999755859</ele>
        <time>2013-04-14T08:03:44Z</time>
      </trkpt>
      <trkpt lat="45.5731" lon="6.68509">
        <ele>1084.8000488281</ele>
        <time>2013-04-14T08:03:45Z</time>
      </trkpt>
      <trkpt lat="45.57311" lon="6.68506">
        <ele>1085.4000244141</ele>
        <time>2013-04-14T08:03:48Z</time>
      </trkpt>
      <trkpt lat="45.57311" lon="6.68505">
        <ele>1085.8000488281</ele>
        <time>2013-04-14T08:03:49Z</time>
      </trkpt>
      <trkpt lat="45.57312" lon="6.68505">
        <ele>1086</ele>
        <time>2013-04-14T08:03:50Z</time>
      </trkpt>
      <trkpt lat="45.57314" lon="6.68503">
        <ele>1086.8000488281</ele>
        <time>2013-04-14T08:03:52Z</time>
      </trkpt>
      <trkpt lat="45.57314" lon="6.68502">
        <ele>1087.1999511719</ele>
        <time>2013-04-14T08:03:54Z</time>
      </trkpt>
      <trkpt lat="45.57318" lon="6.68503">
        <ele>1088.4000244141</ele>
        <time>2013-04-14T08:03:58Z</time>
      </trkpt>
      <trkpt lat="45.57319" lon="6.68503">
        <ele>1089</ele>
        <time>2013-04-14T08:04:00Z</time>
      </trkpt>
      <trkpt lat="45.5732" lon="6.68504">
        <ele>1089.1999511719</ele>
        <time>2013-04-14T08:04:01Z</time>
      </trkpt>
      <trkpt lat="45.5732" lon="6.68505">
        <ele>1089.4000244141</ele>
        <time>2013-04-14T08:04:02Z</time>
      </trkpt>
      <trkpt lat="45.57322" lon="6.68506">
        <ele>1089.8000488281</ele>
        <time>2013-04-14T08:04:05Z</time>
      </trkpt>
      <trkpt lat="45.57322" lon="6.68507">
        <ele>1090</ele>
        <time>2013-04-14T08:04:06Z</time>
      </trkpt>
      <trkpt lat="45.57324" lon="6.68509">
        <ele>1090.5999755859</ele>
        <time>2013-04-14T08:04:07Z</time>
      </trkpt>
      <trkpt lat="45.57327" lon="6.68511">
        <ele>1091.4000244141</ele>
        <time>2013-04-14T08:04:09Z</time>
      </trkpt>
      <trkpt lat="45.57328" lon="6.68513">
        <ele>1091.8000488281</ele>
        <time>2013-04-14T08:04:10Z</time>
      </trkpt>
      <trkpt lat="45.57337" lon="6.6852">
        <ele>1094</ele>
        <time>2013-04-14T08:04:16Z</time>
      </trkpt>
      <trkpt lat="45.57338" lon="6.68522">
        <ele>1094.4000244141</ele>
        <time>2013-04-14T08:04:17Z</time>
      </trkpt>
      <trkpt lat="45.5734" lon="6.68523">
        <ele>1094.8000488281</ele>
        <time>2013-04-14T08:04:18Z</time>
      </trkpt>
      <trkpt lat="45.57349" lon="6.6853">
        <ele>1096.5999755859</ele>
        <time>2013-04-14T08:04:24Z</time>
      </trkpt>
      <trkpt lat="45.5735" lon="6.68531">
        <ele>1097</ele>
        <time>2013-04-14T08:04:25Z</time>
      </trkpt>
      <trkpt lat="45.57352" lon="6.68532">
        <ele>1097.4000244141</ele>
        <time>2013-04-14T08:04:26Z</time>
      </trkpt>
      <trkpt lat="45.57356" lon="6.68535">
        <ele>1098.1999511719</ele>
        <time>2013-04-14T08:04:28Z</time>
      </trkpt>
      <trkpt lat="45.57358" lon="6.68536">
        <ele>1098.5999755859</ele>
        <time>2013-04-14T08:04:29Z</time>
      </trkpt>
      <trkpt lat="45.57362" lon="6.68539">
        <ele>1099.5999755859</ele>
        <time>2013-04-14T08:04:31Z</time>
      </trkpt>
      <trkpt lat="45.57368" lon="6.68544">
        <ele>1101.1999511719</ele>
        <time>2013-04-14T08:04:35Z</time>
      </trkpt>
      <trkpt lat="45.57371" lon="6.68545">
        <ele>1101.8000488281</ele>
        <time>2013-04-14T08:04:36Z</time>
      </trkpt>
      <trkpt lat="45.57373" lon="6.68547">
        <ele>1102.4000244141</ele>
        <time>2013-04-14T08:04:37Z</time>
      </trkpt>
      <trkpt lat="45.57387" lon="6.68556">
        <ele>1105.8000488281</ele>
        <time>2013-04-14T08:04:44Z</time>
      </trkpt>
      <trkpt lat="45.57388" lon="6.68557">
        <ele>1106.1999511719</ele>
        <time>2013-04-14T08:04:45Z</time>
      </trkpt>
      <trkpt lat="45.5739" lon="6.68559">
        <ele>1106.8000488281</ele>
        <time>2013-04-14T08:04:46Z</time>
      </trkpt>
      <trkpt lat="45.57393" lon="6.68561">
        <ele>1107.1999511719</ele>
        <time>2013-04-14T08:04:48Z</time>
      </trkpt>
      <trkpt lat="45.57394" lon="6.68562">
        <ele>1107.5999755859</ele>
        <time>2013-04-14T08:04:49Z</time>
      </trkpt>
      <trkpt lat="45.57394" lon="6.68563">
        <ele>1107.8000488281</ele>
        <time>2013-04-14T08:04:50Z</time>
      </trkpt>
      <trkpt lat="45.57401" lon="6.68567">
        <ele>1109.4000244141</ele>
        <time>2013-04-14T08:04:55Z</time>
      </trkpt>
      <trkpt lat="45.57403" lon="6.68568">
        <ele>1110.1999511719</ele>
        <time>2013-04-14T08:04:57Z</time>
      </trkpt>
      <trkpt lat="45.57413" lon="6.68568">
        <ele>1113</ele>
        <time>2013-04-14T08:05:04Z</time>
      </trkpt>
      <trkpt lat="45.57414" lon="6.68568">
        <ele>1113.4000244141</ele>
        <time>2013-04-14T08:05:05Z</time>
      </trkpt>
      <trkpt lat="45.57415" lon="6.68568">
        <ele>1113.8000488281</ele>
        <time>2013-04-14T08:05:06Z</time>
      </trkpt>
      <trkpt lat="45.57417" lon="6.68568">
        <ele>1114.4000244141</ele>
        <time>2013-04-14T08:05:08Z</time>
      </trkpt>
      <trkpt lat="45.57418" lon="6.68568">
        <ele>1114.5999755859</ele>
        <time>2013-04-14T08:05:09Z</time>
      </trkpt>
      <trkpt lat="45.5742" lon="6.68568">
        <ele>1115.1999511719</ele>
        <time>2013-04-14T08:05:12Z</time>
      </trkpt>
      <trkpt lat="45.57421" lon="6.68566">
        <ele>1115.5999755859</ele>
        <time>2013-04-14T08:05:14Z</time>
      </trkpt>
      <trkpt lat="45.57422" lon="6.68566">
        <ele>1115.8000488281</ele>
        <time>2013-04-14T08:05:15Z</time>
      </trkpt>
      <trkpt lat="45.57423" lon="6.68565">
        <ele>1116.1999511719</ele>
        <time>2013-04-14T08:05:16Z</time>
      </trkpt>
      <trkpt lat="45.57426" lon="6.68565">
        <ele>1116.8000488281</ele>
        <time>2013-04-14T08:05:18Z</time>
      </trkpt>
      <trkpt lat="45.57427" lon="6.68565">
        <ele>1117</ele>
        <time>2013-04-14T08:05:19Z</time>
      </trkpt>
      <trkpt lat="45.57428" lon="6.68564">
        <ele>1117.1999511719</ele>
        <time>2013-04-14T08:05:20Z</time>
      </trkpt>
      <trkpt lat="45.57429" lon="6.68563">
        <ele>1117.8000488281</ele>
        <time>2013-04-14T08:05:22Z</time>
      </trkpt>
      <trkpt lat="45.57432" lon="6.68562">
        <ele>1118.4000244141</ele>
        <time>2013-04-14T08:05:24Z</time>
      </trkpt>
      <trkpt lat="45.57433" lon="6.68561">
        <ele>1118.5999755859</ele>
        <time>2013-04-14T08:05:25Z</time>
      </trkpt>
      <trkpt lat="45.57434" lon="6.68558">
        <ele>1119.1999511719</ele>
        <time>2013-04-14T08:05:27Z</time>
      </trkpt>
      <trkpt lat="45.57436" lon="6.68557">
        <ele>1119.5999755859</ele>
        <time>2013-04-14T08:05:28Z</time>
      </trkpt>
      <trkpt lat="45.57438" lon="6.68555">
        <ele>1120.1999511719</ele>
        <time>2013-04-14T08:05:30Z</time>
      </trkpt>
      <trkpt lat="45.5744" lon="6.68552">
        <ele>1121</ele>
        <time>2013-04-14T08:05:33Z</time>
      </trkpt>
      <trkpt lat="45.57441" lon="6.6855">
        <ele>1121.1999511719</ele>
        <time>2013-04-14T08:05:34Z</time>
      </trkpt>
      <trkpt lat="45.57443" lon="6.68547">
        <ele>1121.5999755859</ele>
        <time>2013-04-14T08:05:36Z</time>
      </trkpt>
      <trkpt lat="45.57447" lon="6.68539">
        <ele>1122.8000488281</ele>
        <time>2013-04-14T08:05:40Z</time>
      </trkpt>
      <trkpt lat="45.57448" lon="6.68537">
        <ele>1123.1999511719</ele>
        <time>2013-04-14T08:05:41Z</time>
      </trkpt>
      <trkpt lat="45.57449" lon="6.68533">
        <ele>1123.8000488281</ele>
        <time>2013-04-14T08:05:43Z</time>
      </trkpt>
      <trkpt lat="45.57451" lon="6.68531">
        <ele>1124.1999511719</ele>
        <time>2013-04-14T08:05:44Z</time>
      </trkpt>
      <trkpt lat="45.57452" lon="6.68529">
        <ele>1124.4000244141</ele>
        <time>2013-04-14T08:05:45Z</time>
      </trkpt>
      <trkpt lat="45.57454" lon="6.68525">
        <ele>1125.1999511719</ele>
        <time>2013-04-14T08:05:47Z</time>
      </trkpt>
      <trkpt lat="45.57456" lon="6.68524">
        <ele>1125.8000488281</ele>
        <time>2013-04-14T08:05:48Z</time>
      </trkpt>
      <trkpt lat="45.57457" lon="6.68522">
        <ele>1126</ele>
        <time>2013-04-14T08:05:49Z</time>
      </trkpt>
      <trkpt lat="45.5746" lon="6.68519">
        <ele>1127</ele>
        <time>2013-04-14T08:05:51Z</time>
      </trkpt>
      <trkpt lat="45.57466" lon="6.68517">
        <ele>1128.4000244141</ele>
        <time>2013-04-14T08:05:54Z</time>
      </trkpt>
      <trkpt lat="45.57467" lon="6.68517">
        <ele>1128.8000488281</ele>
        <time>2013-04-14T08:05:55Z</time>
      </trkpt>
      <trkpt lat="45.57469" lon="6.68515">
        <ele>1129.4000244141</ele>
        <time>2013-04-14T08:05:57Z</time>
      </trkpt>
      <trkpt lat="45.57469" lon="6.68516">
        <ele>1129.4000244141</ele>
        <time>2013-04-14T08:05:58Z</time>
      </trkpt>
      <trkpt lat="45.57472" lon="6.68514">
        <ele>1130.1999511719</ele>
        <time>2013-04-14T08:05:59Z</time>
      </trkpt>
      <trkpt lat="45.57476" lon="6.68515">
        <ele>1131</ele>
        <time>2013-04-14T08:06:01Z</time>
      </trkpt>
      <trkpt lat="45.57477" lon="6.68514">
        <ele>1131.4000244141</ele>
        <time>2013-04-14T08:06:02Z</time>
      </trkpt>
      <trkpt lat="45.57479" lon="6.6851">
        <ele>1132.1999511719</ele>
        <time>2013-04-14T08:06:05Z</time>
      </trkpt>
      <trkpt lat="45.5748" lon="6.68508">
        <ele>1132.4000244141</ele>
        <time>2013-04-14T08:06:06Z</time>
      </trkpt>
      <trkpt lat="45.5748" lon="6.68507">
        <ele>1132.4000244141</ele>
        <time>2013-04-14T08:06:07Z</time>
      </trkpt>
      <trkpt lat="45.57481" lon="6.68503">
        <ele>1133</ele>
        <time>2013-04-14T08:06:09Z</time>
      </trkpt>
      <trkpt lat="45.57481" lon="6.68502">
        <ele>1132.8000488281</ele>
        <time>2013-04-14T08:06:10Z</time>
      </trkpt>
      <trkpt lat="45.57481" lon="6.685">
        <ele>1133</ele>
        <time>2013-04-14T08:06:11Z</time>
      </trkpt>
      <trkpt lat="45.5748" lon="6.68495">
        <ele>1133.4000244141</ele>
        <time>2013-04-14T08:06:15Z</time>
      </trkpt>
      <trkpt lat="45.57481" lon="6.68493">
        <ele>1133.8000488281</ele>
        <time>2013-04-14T08:06:16Z</time>
      </trkpt>
      <trkpt lat="45.57483" lon="6.68493">
        <ele>1134.1999511719</ele>
        <time>2013-04-14T08:06:17Z</time>
      </trkpt>
      <trkpt lat="45.57485" lon="6.68496">
        <ele>1134.4000244141</ele>
        <time>2013-04-14T08:06:19Z</time>
      </trkpt>
      <trkpt lat="45.57487" lon="6.68497">
        <ele>1134.8000488281</ele>
        <time>2013-04-14T08:06:20Z</time>
      </trkpt>
      <trkpt lat="45.57488" lon="6.68498">
        <ele>1135</ele>
        <time>2013-04-14T08:06:21Z</time>
      </trkpt>
      <trkpt lat="45.57491" lon="6.68499">
        <ele>1135.4000244141</ele>
        <time>2013-04-14T08:06:23Z</time>
      </trkpt>
      <trkpt lat="45.57492" lon="6.68501">
        <ele>1135.8000488281</ele>
        <time>2013-04-14T08:06:24Z</time>
      </trkpt>
      <trkpt lat="45.57495" lon="6.68504">
        <ele>1136.4000244141</ele>
        <time>2013-04-14T08:06:25Z</time>
      </trkpt>
      <trkpt lat="45.57497" lon="6.6851">
        <ele>1136.8000488281</ele>
        <time>2013-04-14T08:06:27Z</time>
      </trkpt>
      <trkpt lat="45.57499" lon="6.68518">
        <ele>1137</ele>
        <time>2013-04-14T08:06:30Z</time>
      </trkpt>
      <trkpt lat="45.57499" lon="6.68522">
        <ele>1137.1999511719</ele>
        <time>2013-04-14T08:06:31Z</time>
      </trkpt>
      <trkpt lat="45.57501" lon="6.68528">
        <ele>1137.4000244141</ele>
        <time>2013-04-14T08:06:33Z</time>
      </trkpt>
      <trkpt lat="45.57502" lon="6.68536">
        <ele>1137.8000488281</ele>
        <time>2013-04-14T08:06:37Z</time>
      </trkpt>
      <trkpt lat="45.57502" lon="6.68535">
        <ele>1137.5999755859</ele>
        <time>2013-04-14T08:06:47Z</time>
      </trkpt>
      <trkpt lat="45.57507" lon="6.6853">
        <ele>1139.4000244141</ele>
        <time>2013-04-14T08:06:54Z</time>
      </trkpt>
      <trkpt lat="45.57508" lon="6.68529">
        <ele>1139.5999755859</ele>
        <time>2013-04-14T08:06:55Z</time>
      </trkpt>
      <trkpt lat="45.57511" lon="6.68527">
        <ele>1140.4000244141</ele>
        <time>2013-04-14T08:06:57Z</time>
      </trkpt>
      <trkpt lat="45.57511" lon="6.68526">
        <ele>1140.5999755859</ele>
        <time>2013-04-14T08:06:58Z</time>
      </trkpt>
      <trkpt lat="45.57512" lon="6.68526">
        <ele>1141</ele>
        <time>2013-04-14T08:06:59Z</time>
      </trkpt>
      <trkpt lat="45.57515" lon="6.68522">
        <ele>1141.8000488281</ele>
        <time>2013-04-14T08:07:02Z</time>
      </trkpt>
      <trkpt lat="45.57516" lon="6.68522">
        <ele>1142.1999511719</ele>
        <time>2013-04-14T08:07:03Z</time>
      </trkpt>
      <trkpt lat="45.57517" lon="6.68521">
        <ele>1142.4000244141</ele>
        <time>2013-04-14T08:07:04Z</time>
      </trkpt>
      <trkpt lat="45.57518" lon="6.68518">
        <ele>1143</ele>
        <time>2013-04-14T08:07:06Z</time>
      </trkpt>
      <trkpt lat="45.57519" lon="6.68514">
        <ele>1143.4000244141</ele>
        <time>2013-04-14T08:07:08Z</time>
      </trkpt>
      <trkpt lat="45.57519" lon="6.68511">
        <ele>1143.5999755859</ele>
        <time>2013-04-14T08:07:10Z</time>
      </trkpt>
      <trkpt lat="45.5752" lon="6.68508">
        <ele>1143.8000488281</ele>
        <time>2013-04-14T08:07:12Z</time>
      </trkpt>
      <trkpt lat="45.57521" lon="6.68508">
        <ele>1144.1999511719</ele>
        <time>2013-04-14T08:07:13Z</time>
      </trkpt>
      <trkpt lat="45.57521" lon="6.68507">
        <ele>1144.4000244141</ele>
        <time>2013-04-14T08:07:14Z</time>
      </trkpt>
      <trkpt lat="45.57523" lon="6.68505">
        <ele>1145</ele>
        <time>2013-04-14T08:07:16Z</time>
      </trkpt>
      <trkpt lat="45.57523" lon="6.68503">
        <ele>1145.4000244141</ele>
        <time>2013-04-14T08:07:17Z</time>
      </trkpt>
      <trkpt lat="45.57524" lon="6.68501">
        <ele>1145.5999755859</ele>
        <time>2013-04-14T08:07:18Z</time>
      </trkpt>
      <trkpt lat="45.57525" lon="6.68487">
        <ele>1147.4000244141</ele>
        <time>2013-04-14T08:07:22Z</time>
      </trkpt>
      <trkpt lat="45.57525" lon="6.68481">
        <ele>1148</ele>
        <time>2013-04-14T08:07:24Z</time>
      </trkpt>
      <trkpt lat="45.57523" lon="6.68471">
        <ele>1148.8000488281</ele>
        <time>2013-04-14T08:07:28Z</time>
      </trkpt>
      <trkpt lat="45.57521" lon="6.68456">
        <ele>1149.5999755859</ele>
        <time>2013-04-14T08:07:33Z</time>
      </trkpt>
      <trkpt lat="45.5752" lon="6.68454">
        <ele>1149.5999755859</ele>
        <time>2013-04-14T08:07:34Z</time>
      </trkpt>
      <trkpt lat="45.57517" lon="6.68441">
        <ele>1149.8000488281</ele>
        <time>2013-04-14T08:07:42Z</time>
      </trkpt>
      <trkpt lat="45.57517" lon="6.6844">
        <ele>1150</ele>
        <time>2013-04-14T08:07:43Z</time>
      </trkpt>
      <trkpt lat="45.57516" lon="6.68438">
        <ele>1150</ele>
        <time>2013-04-14T08:07:44Z</time>
      </trkpt>
      <trkpt lat="45.57516" lon="6.68435">
        <ele>1150.1999511719</ele>
        <time>2013-04-14T08:07:46Z</time>
      </trkpt>
      <trkpt lat="45.57516" lon="6.68433">
        <ele>1150.1999511719</ele>
        <time>2013-04-14T08:07:47Z</time>
      </trkpt>
      <trkpt lat="45.57515" lon="6.68432">
        <ele>1150.4000244141</ele>
        <time>2013-04-14T08:07:48Z</time>
      </trkpt>
      <trkpt lat="45.57515" lon="6.68429">
        <ele>1150.5999755859</ele>
        <time>2013-04-14T08:07:50Z</time>
      </trkpt>
      <trkpt lat="45.57514" lon="6.68427">
        <ele>1150.5999755859</ele>
        <time>2013-04-14T08:07:51Z</time>
      </trkpt>
      <trkpt lat="45.57514" lon="6.68425">
        <ele>1150.8000488281</ele>
        <time>2013-04-14T08:07:52Z</time>
      </trkpt>
      <trkpt lat="45.57514" lon="6.68422">
        <ele>1151</ele>
        <time>2013-04-14T08:07:54Z</time>
      </trkpt>
      <trkpt lat="45.57514" lon="6.68421">
        <ele>1151.1999511719</ele>
        <time>2013-04-14T08:07:55Z</time>
      </trkpt>
      <trkpt lat="45.57513" lon="6.68416">
        <ele>1151.5999755859</ele>
        <time>2013-04-14T08:07:58Z</time>
      </trkpt>
      <trkpt lat="45.57511" lon="6.68409">
        <ele>1152</ele>
        <time>2013-04-14T08:08:01Z</time>
      </trkpt>
      <trkpt lat="45.5751" lon="6.68406">
        <ele>1152.4000244141</ele>
        <time>2013-04-14T08:08:03Z</time>
      </trkpt>
      <trkpt lat="45.57509" lon="6.68401">
        <ele>1152.8000488281</ele>
        <time>2013-04-14T08:08:06Z</time>
      </trkpt>
      <trkpt lat="45.57508" lon="6.68399">
        <ele>1152.8000488281</ele>
        <time>2013-04-14T08:08:07Z</time>
      </trkpt>
      <trkpt lat="45.57507" lon="6.68398">
        <ele>1152.8000488281</ele>
        <time>2013-04-14T08:08:08Z</time>
      </trkpt>
      <trkpt lat="45.57504" lon="6.6839">
        <ele>1153</ele>
        <time>2013-04-14T08:08:14Z</time>
      </trkpt>
      <trkpt lat="45.57504" lon="6.68388">
        <ele>1153.1999511719</ele>
        <time>2013-04-14T08:08:15Z</time>
      </trkpt>
      <trkpt lat="45.57504" lon="6.68387">
        <ele>1153.5999755859</ele>
        <time>2013-04-14T08:08:16Z</time>
      </trkpt>
      <trkpt lat="45.57506" lon="6.68387">
        <ele>1154.1999511719</ele>
        <time>2013-04-14T08:08:18Z</time>
      </trkpt>
      <trkpt lat="45.57509" lon="6.68392">
        <ele>1154.4000244141</ele>
        <time>2013-04-14T08:08:22Z</time>
      </trkpt>
      <trkpt lat="45.57509" lon="6.68392">
        <ele>1154.4000244141</ele>
        <time>2013-04-14T08:08:23Z</time>
      </trkpt>
      <trkpt lat="45.57509" lon="6.6839">
        <ele>1154.5999755859</ele>
        <time>2013-04-14T08:08:25Z</time>
      </trkpt>
      <trkpt lat="45.57509" lon="6.68393">
        <ele>1154.1999511719</ele>
        <time>2013-04-14T08:08:26Z</time>
      </trkpt>
      <trkpt lat="45.57509" lon="6.68393">
        <ele>1154.1999511719</ele>
        <time>2013-04-14T08:08:27Z</time>
      </trkpt>
      <trkpt lat="45.57513" lon="6.68399">
        <ele>1154.5999755859</ele>
        <time>2013-04-14T08:08:31Z</time>
      </trkpt>
      <trkpt lat="45.57519" lon="6.68407">
        <ele>1155.1999511719</ele>
        <time>2013-04-14T08:08:35Z</time>
      </trkpt>
      <trkpt lat="45.57522" lon="6.68409">
        <ele>1155.5999755859</ele>
        <time>2013-04-14T08:08:36Z</time>
      </trkpt>
      <trkpt lat="45.57526" lon="6.68412">
        <ele>1156.4000244141</ele>
        <time>2013-04-14T08:08:38Z</time>
      </trkpt>
      <trkpt lat="45.57528" lon="6.68414">
        <ele>1156.8000488281</ele>
        <time>2013-04-14T08:08:39Z</time>
      </trkpt>
      <trkpt lat="45.5753" lon="6.68416">
        <ele>1157</ele>
        <time>2013-04-14T08:08:40Z</time>
      </trkpt>
      <trkpt lat="45.57536" lon="6.68423">
        <ele>1158.4000244141</ele>
        <time>2013-04-14T08:08:44Z</time>
      </trkpt>
      <trkpt lat="45.57549" lon="6.68433">
        <ele>1161.4000244141</ele>
        <time>2013-04-14T08:08:51Z</time>
      </trkpt>
      <trkpt lat="45.5755" lon="6.68437">
        <ele>1161.1999511719</ele>
        <time>2013-04-14T08:08:53Z</time>
      </trkpt>
      <trkpt lat="45.57551" lon="6.68438">
        <ele>1161.5999755859</ele>
        <time>2013-04-14T08:08:54Z</time>
      </trkpt>
      <trkpt lat="45.57552" lon="6.6844">
        <ele>1161.8000488281</ele>
        <time>2013-04-14T08:08:55Z</time>
      </trkpt>
      <trkpt lat="45.57556" lon="6.68447">
        <ele>1162.1999511719</ele>
        <time>2013-04-14T08:08:58Z</time>
      </trkpt>
      <trkpt lat="45.57557" lon="6.68449">
        <ele>1162.4000244141</ele>
        <time>2013-04-14T08:08:59Z</time>
      </trkpt>
      <trkpt lat="45.57564" lon="6.68459">
        <ele>1163.4000244141</ele>
        <time>2013-04-14T08:09:03Z</time>
      </trkpt>
      <trkpt lat="45.57567" lon="6.68467">
        <ele>1163.4000244141</ele>
        <time>2013-04-14T08:09:06Z</time>
      </trkpt>
      <trkpt lat="45.57568" lon="6.68469">
        <ele>1163.8000488281</ele>
        <time>2013-04-14T08:09:07Z</time>
      </trkpt>
      <trkpt lat="45.57569" lon="6.68472">
        <ele>1163.5999755859</ele>
        <time>2013-04-14T08:09:08Z</time>
      </trkpt>
      <trkpt lat="45.5757" lon="6.68477">
        <ele>1163.4000244141</ele>
        <time>2013-04-14T08:09:10Z</time>
      </trkpt>
      <trkpt lat="45.5757" lon="6.68478">
        <ele>1163.1999511719</ele>
        <time>2013-04-14T08:09:11Z</time>
      </trkpt>
      <trkpt lat="45.57568" lon="6.68489">
        <ele>1161.4000244141</ele>
        <time>2013-04-14T08:09:15Z</time>
      </trkpt>
      <trkpt lat="45.57567" lon="6.68494">
        <ele>1160.4000244141</ele>
        <time>2013-04-14T08:09:17Z</time>
      </trkpt>
      <trkpt lat="45.57566" lon="6.68496">
        <ele>1159.8000488281</ele>
        <time>2013-04-14T08:09:18Z</time>
      </trkpt>
      <trkpt lat="45.57566" lon="6.68499">
        <ele>1159.4000244141</ele>
        <time>2013-04-14T08:09:19Z</time>
      </trkpt>
      <trkpt lat="45.57564" lon="6.68506">
        <ele>1158</ele>
        <time>2013-04-14T08:09:22Z</time>
      </trkpt>
      <trkpt lat="45.57563" lon="6.68514">
        <ele>1156.8000488281</ele>
        <time>2013-04-14T08:09:25Z</time>
      </trkpt>
      <trkpt lat="45.57563" lon="6.68517">
        <ele>1156.5999755859</ele>
        <time>2013-04-14T08:09:26Z</time>
      </trkpt>
      <trkpt lat="45.57563" lon="6.68524">
        <ele>1156</ele>
        <time>2013-04-14T08:09:29Z</time>
      </trkpt>
      <trkpt lat="45.57566" lon="6.68527">
        <ele>1156.4000244141</ele>
        <time>2013-04-14T08:09:30Z</time>
      </trkpt>
      <trkpt lat="45.57572" lon="6.68531">
        <ele>1157.8000488281</ele>
        <time>2013-04-14T08:09:35Z</time>
      </trkpt>
      <trkpt lat="45.57574" lon="6.68532">
        <ele>1158.4000244141</ele>
        <time>2013-04-14T08:09:36Z</time>
      </trkpt>
      <trkpt lat="45.57576" lon="6.68532">
        <ele>1158.8000488281</ele>
        <time>2013-04-14T08:09:37Z</time>
      </trkpt>
      <trkpt lat="45.5758" lon="6.68532">
        <ele>1160</ele>
        <time>2013-04-14T08:09:39Z</time>
      </trkpt>
      <trkpt lat="45.57581" lon="6.68532">
        <ele>1160.4000244141</ele>
        <time>2013-04-14T08:09:40Z</time>
      </trkpt>
      <trkpt lat="45.57587" lon="6.68533">
        <ele>1161.8000488281</ele>
        <time>2013-04-14T08:09:43Z</time>
      </trkpt>
      <trkpt lat="45.57595" lon="6.68535">
        <ele>1163.4000244141</ele>
        <time>2013-04-14T08:09:47Z</time>
      </trkpt>
      <trkpt lat="45.57597" lon="6.68536">
        <ele>1163.8000488281</ele>
        <time>2013-04-14T08:09:48Z</time>
      </trkpt>
      <trkpt lat="45.57599" lon="6.68536">
        <ele>1164.1999511719</ele>
        <time>2013-04-14T08:09:49Z</time>
      </trkpt>
      <trkpt lat="45.57602" lon="6.68537">
        <ele>1164.8000488281</ele>
        <time>2013-04-14T08:09:51Z</time>
      </trkpt>
      <trkpt lat="45.57611" lon="6.68538">
        <ele>1166.8000488281</ele>
        <time>2013-04-14T08:09:56Z</time>
      </trkpt>
      <trkpt lat="45.57614" lon="6.68539">
        <ele>1167.4000244141</ele>
        <time>2013-04-14T08:09:58Z</time>
      </trkpt>
      <trkpt lat="45.57617" lon="6.6854">
        <ele>1167.8000488281</ele>
        <time>2013-04-14T08:10:00Z</time>
      </trkpt>
      <trkpt lat="45.57618" lon="6.6854">
        <ele>1168</ele>
        <time>2013-04-14T08:10:01Z</time>
      </trkpt>
      <trkpt lat="45.57619" lon="6.6854">
        <ele>1168.1999511719</ele>
        <time>2013-04-14T08:10:02Z</time>
      </trkpt>
      <trkpt lat="45.57622" lon="6.68539">
        <ele>1169.1999511719</ele>
        <time>2013-04-14T08:10:10Z</time>
      </trkpt>
      <trkpt lat="45.57625" lon="6.68536">
        <ele>1170.1999511719</ele>
        <time>2013-04-14T08:10:17Z</time>
      </trkpt>
      <trkpt lat="45.57627" lon="6.68533">
        <ele>1171.1999511719</ele>
        <time>2013-04-14T08:10:22Z</time>
      </trkpt>
      <trkpt lat="45.57627" lon="6.68533">
        <ele>1171.1999511719</ele>
        <time>2013-04-14T08:10:23Z</time>
      </trkpt>
      <trkpt lat="45.57627" lon="6.68532">
        <ele>1171.1999511719</ele>
        <time>2013-04-14T08:10:24Z</time>
      </trkpt>
      <trkpt lat="45.57633" lon="6.68525">
        <ele>1173.5999755859</ele>
        <time>2013-04-14T08:10:33Z</time>
      </trkpt>
      <trkpt lat="45.57633" lon="6.68524">
        <ele>1173.8000488281</ele>
        <time>2013-04-14T08:10:34Z</time>
      </trkpt>
      <trkpt lat="45.57632" lon="6.68525">
        <ele>1173.5999755859</ele>
        <time>2013-04-14T08:10:35Z</time>
      </trkpt>
      <trkpt lat="45.57632" lon="6.68525">
        <ele>1173.5999755859</ele>
        <time>2013-04-14T08:10:37Z</time>
      </trkpt>
      <trkpt lat="45.57632" lon="6.68525">
        <ele>1173.5999755859</ele>
        <time>2013-04-14T08:10:38Z</time>
      </trkpt>
      <trkpt lat="45.57633" lon="6.68525">
        <ele>1173.5999755859</ele>
        <time>2013-04-14T08:10:39Z</time>
      </trkpt>
      <trkpt lat="45.57632" lon="6.68521">
        <ele>1174</ele>
        <time>2013-04-14T08:10:42Z</time>
      </trkpt>
      <trkpt lat="45.57636" lon="6.68517">
        <ele>1175.5999755859</ele>
        <time>2013-04-14T08:10:49Z</time>
      </trkpt>
      <trkpt lat="45.57637" lon="6.68515">
        <ele>1176.1999511719</ele>
        <time>2013-04-14T08:10:51Z</time>
      </trkpt>
      <trkpt lat="45.57639" lon="6.68514">
        <ele>1176.8000488281</ele>
        <time>2013-04-14T08:10:53Z</time>
      </trkpt>
      <trkpt lat="45.5764" lon="6.68513">
        <ele>1177</ele>
        <time>2013-04-14T08:10:54Z</time>
      </trkpt>
      <trkpt lat="45.5764" lon="6.68513">
        <ele>1177.1999511719</ele>
        <time>2013-04-14T08:10:55Z</time>
      </trkpt>
      <trkpt lat="45.57642" lon="6.68511">
        <ele>1178</ele>
        <time>2013-04-14T08:10:58Z</time>
      </trkpt>
      <trkpt lat="45.57642" lon="6.6851">
        <ele>1178.1999511719</ele>
        <time>2013-04-14T08:10:59Z</time>
      </trkpt>
      <trkpt lat="45.57644" lon="6.6851">
        <ele>1178.5999755859</ele>
        <time>2013-04-14T08:11:00Z</time>
      </trkpt>
      <trkpt lat="45.57645" lon="6.68508">
        <ele>1179</ele>
        <time>2013-04-14T08:11:02Z</time>
      </trkpt>
      <trkpt lat="45.5765" lon="6.68504">
        <ele>1181</ele>
        <time>2013-04-14T08:11:11Z</time>
      </trkpt>
      <trkpt lat="45.57651" lon="6.68503">
        <ele>1181.4000244141</ele>
        <time>2013-04-14T08:11:13Z</time>
      </trkpt>
      <trkpt lat="45.57651" lon="6.68503">
        <ele>1181.4000244141</ele>
        <time>2013-04-14T08:11:14Z</time>
      </trkpt>
      <trkpt lat="45.57652" lon="6.68502">
        <ele>1181.8000488281</ele>
        <time>2013-04-14T08:11:15Z</time>
      </trkpt>
      <trkpt lat="45.57652" lon="6.68501">
        <ele>1182.1999511719</ele>
        <time>2013-04-14T08:11:17Z</time>
      </trkpt>
      <trkpt lat="45.57653" lon="6.685">
        <ele>1182.4000244141</ele>
        <time>2013-04-14T08:11:19Z</time>
      </trkpt>
      <trkpt lat="45.57653" lon="6.68498">
        <ele>1182.8000488281</ele>
        <time>2013-04-14T08:11:20Z</time>
      </trkpt>
      <trkpt lat="45.57655" lon="6.68499">
        <ele>1183.1999511719</ele>
        <time>2013-04-14T08:11:22Z</time>
      </trkpt>
      <trkpt lat="45.57656" lon="6.68499">
        <ele>1183.4000244141</ele>
        <time>2013-04-14T08:11:23Z</time>
      </trkpt>
      <trkpt lat="45.57657" lon="6.685">
        <ele>1183.4000244141</ele>
        <time>2013-04-14T08:11:24Z</time>
      </trkpt>
      <trkpt lat="45.57656" lon="6.685">
        <ele>1183.4000244141</ele>
        <time>2013-04-14T08:11:26Z</time>
      </trkpt>
      <trkpt lat="45.57656" lon="6.685">
        <ele>1183.1999511719</ele>
        <time>2013-04-14T08:11:27Z</time>
      </trkpt>
      <trkpt lat="45.57656" lon="6.68499">
        <ele>1183.4000244141</ele>
        <time>2013-04-14T08:11:28Z</time>
      </trkpt>
      <trkpt lat="45.57657" lon="6.685">
        <ele>1183.4000244141</ele>
        <time>2013-04-14T08:11:30Z</time>
      </trkpt>
      <trkpt lat="45.57657" lon="6.68495">
        <ele>1184.1999511719</ele>
        <time>2013-04-14T08:11:31Z</time>
      </trkpt>
      <trkpt lat="45.57659" lon="6.68497">
        <ele>1184.4000244141</ele>
        <time>2013-04-14T08:11:32Z</time>
      </trkpt>
      <trkpt lat="45.57663" lon="6.68496">
        <ele>1185.4000244141</ele>
        <time>2013-04-14T08:11:40Z</time>
      </trkpt>
      <trkpt lat="45.57662" lon="6.68496">
        <ele>1185.4000244141</ele>
        <time>2013-04-14T08:11:41Z</time>
      </trkpt>
      <trkpt lat="45.57665" lon="6.68495">
        <ele>1186.4000244141</ele>
        <time>2013-04-14T08:11:42Z</time>
      </trkpt>
      <trkpt lat="45.5767" lon="6.68493">
        <ele>1188</ele>
        <time>2013-04-14T08:11:47Z</time>
      </trkpt>
      <trkpt lat="45.57676" lon="6.68491">
        <ele>1190.1999511719</ele>
        <time>2013-04-14T08:11:54Z</time>
      </trkpt>
      <trkpt lat="45.57678" lon="6.6849">
        <ele>1190.8000488281</ele>
        <time>2013-04-14T08:11:56Z</time>
      </trkpt>
      <trkpt lat="45.57679" lon="6.6849">
        <ele>1191</ele>
        <time>2013-04-14T08:11:57Z</time>
      </trkpt>
      <trkpt lat="45.5768" lon="6.6849">
        <ele>1191.4000244141</ele>
        <time>2013-04-14T08:11:58Z</time>
      </trkpt>
      <trkpt lat="45.57682" lon="6.68488">
        <ele>1192</ele>
        <time>2013-04-14T08:12:00Z</time>
      </trkpt>
      <trkpt lat="45.57682" lon="6.68488">
        <ele>1192.4000244141</ele>
        <time>2013-04-14T08:12:01Z</time>
      </trkpt>
      <trkpt lat="45.57683" lon="6.68488">
        <ele>1192.4000244141</ele>
        <time>2013-04-14T08:12:02Z</time>
      </trkpt>
      <trkpt lat="45.57684" lon="6.68487">
        <ele>1193</ele>
        <time>2013-04-14T08:12:04Z</time>
      </trkpt>
      <trkpt lat="45.57684" lon="6.68486">
        <ele>1193.1999511719</ele>
        <time>2013-04-14T08:12:05Z</time>
      </trkpt>
      <trkpt lat="45.57685" lon="6.68485">
        <ele>1193.5999755859</ele>
        <time>2013-04-14T08:12:06Z</time>
      </trkpt>
      <trkpt lat="45.57686" lon="6.68484">
        <ele>1194</ele>
        <time>2013-04-14T08:12:08Z</time>
      </trkpt>
      <trkpt lat="45.57686" lon="6.68482">
        <ele>1194.4000244141</ele>
        <time>2013-04-14T08:12:09Z</time>
      </trkpt>
      <trkpt lat="45.57686" lon="6.68482">
        <ele>1194.4000244141</ele>
        <time>2013-04-14T08:12:10Z</time>
      </trkpt>
      <trkpt lat="45.57687" lon="6.68483">
        <ele>1194.4000244141</ele>
        <time>2013-04-14T08:12:12Z</time>
      </trkpt>
      <trkpt lat="45.57686" lon="6.68483">
        <ele>1194.4000244141</ele>
        <time>2013-04-14T08:12:13Z</time>
      </trkpt>
      <trkpt lat="45.57686" lon="6.6848">
        <ele>1194.8000488281</ele>
        <time>2013-04-14T08:12:14Z</time>
      </trkpt>
      <trkpt lat="45.57688" lon="6.68467">
        <ele>1197.1999511719</ele>
        <time>2013-04-14T08:12:22Z</time>
      </trkpt>
      <trkpt lat="45.57687" lon="6.68462">
        <ele>1197.8000488281</ele>
        <time>2013-04-14T08:12:25Z</time>
      </trkpt>
      <trkpt lat="45.57687" lon="6.68453">
        <ele>1199.1999511719</ele>
        <time>2013-04-14T08:12:30Z</time>
      </trkpt>
      <trkpt lat="45.57687" lon="6.68452">
        <ele>1199.4000244141</ele>
        <time>2013-04-14T08:12:31Z</time>
      </trkpt>
      <trkpt lat="45.57687" lon="6.6845">
        <ele>1199.8000488281</ele>
        <time>2013-04-14T08:12:32Z</time>
      </trkpt>
      <trkpt lat="45.57686" lon="6.6844">
        <ele>1201.1999511719</ele>
        <time>2013-04-14T08:12:39Z</time>
      </trkpt>
      <trkpt lat="45.57687" lon="6.68436">
        <ele>1201.8000488281</ele>
        <time>2013-04-14T08:12:41Z</time>
      </trkpt>
      <trkpt lat="45.57689" lon="6.68434">
        <ele>1202.5999755859</ele>
        <time>2013-04-14T08:12:44Z</time>
      </trkpt>
      <trkpt lat="45.57688" lon="6.68435">
        <ele>1202.5999755859</ele>
        <time>2013-04-14T08:12:46Z</time>
      </trkpt>
      <trkpt lat="45.57688" lon="6.68435">
        <ele>1202.5999755859</ele>
        <time>2013-04-14T08:12:47Z</time>
      </trkpt>
      <trkpt lat="45.57688" lon="6.68435">
        <ele>1202.4000244141</ele>
        <time>2013-04-14T08:12:48Z</time>
      </trkpt>
      <trkpt lat="45.57688" lon="6.68434">
        <ele>1202.5999755859</ele>
        <time>2013-04-14T08:12:50Z</time>
      </trkpt>
      <trkpt lat="45.57688" lon="6.68435">
        <ele>1202.5999755859</ele>
        <time>2013-04-14T08:12:51Z</time>
      </trkpt>
      <trkpt lat="45.57689" lon="6.68435">
        <ele>1202.5999755859</ele>
        <time>2013-04-14T08:12:52Z</time>
      </trkpt>
      <trkpt lat="45.57685" lon="6.6843">
        <ele>1202.4000244141</ele>
        <time>2013-04-14T08:12:56Z</time>
      </trkpt>
      <trkpt lat="45.57683" lon="6.68427">
        <ele>1202</ele>
        <time>2013-04-14T08:12:58Z</time>
      </trkpt>
      <trkpt lat="45.57671" lon="6.68417">
        <ele>1200.1999511719</ele>
        <time>2013-04-14T08:13:09Z</time>
      </trkpt>
      <trkpt lat="45.57669" lon="6.68415">
        <ele>1200</ele>
        <time>2013-04-14T08:13:11Z</time>
      </trkpt>
      <trkpt lat="45.57668" lon="6.68413">
        <ele>1200</ele>
        <time>2013-04-14T08:13:12Z</time>
      </trkpt>
      <trkpt lat="45.57667" lon="6.68412">
        <ele>1199.8000488281</ele>
        <time>2013-04-14T08:13:13Z</time>
      </trkpt>
      <trkpt lat="45.5766" lon="6.68403">
        <ele>1199.4000244141</ele>
        <time>2013-04-14T08:13:21Z</time>
      </trkpt>
      <trkpt lat="45.57658" lon="6.68401">
        <ele>1199.1999511719</ele>
        <time>2013-04-14T08:13:23Z</time>
      </trkpt>
      <trkpt lat="45.57656" lon="6.68398">
        <ele>1199</ele>
        <time>2013-04-14T08:13:25Z</time>
      </trkpt>
      <trkpt lat="45.57655" lon="6.68397">
        <ele>1199</ele>
        <time>2013-04-14T08:13:26Z</time>
      </trkpt>
      <trkpt lat="45.57652" lon="6.68389">
        <ele>1199.5999755859</ele>
        <time>2013-04-14T08:13:31Z</time>
      </trkpt>
      <trkpt lat="45.57652" lon="6.68387">
        <ele>1199.5999755859</ele>
        <time>2013-04-14T08:13:37Z</time>
      </trkpt>
      <trkpt lat="45.57651" lon="6.68387">
        <ele>1199.5999755859</ele>
        <time>2013-04-14T08:13:38Z</time>
      </trkpt>
      <trkpt lat="45.57651" lon="6.68385">
        <ele>1199.8000488281</ele>
        <time>2013-04-14T08:13:39Z</time>
      </trkpt>
      <trkpt lat="45.57649" lon="6.6838">
        <ele>1200.1999511719</ele>
        <time>2013-04-14T08:13:42Z</time>
      </trkpt>
      <trkpt lat="45.57643" lon="6.68366">
        <ele>1201.1999511719</ele>
        <time>2013-04-14T08:13:48Z</time>
      </trkpt>
      <trkpt lat="45.57639" lon="6.68357">
        <ele>1201.8000488281</ele>
        <time>2013-04-14T08:13:52Z</time>
      </trkpt>
      <trkpt lat="45.57637" lon="6.68353">
        <ele>1202</ele>
        <time>2013-04-14T08:13:54Z</time>
      </trkpt>
      <trkpt lat="45.57636" lon="6.6835">
        <ele>1202.1999511719</ele>
        <time>2013-04-14T08:13:55Z</time>
      </trkpt>
      <trkpt lat="45.57635" lon="6.68348">
        <ele>1202.4000244141</ele>
        <time>2013-04-14T08:13:56Z</time>
      </trkpt>
      <trkpt lat="45.57631" lon="6.68335">
        <ele>1203.8000488281</ele>
        <time>2013-04-14T08:14:01Z</time>
      </trkpt>
      <trkpt lat="45.57631" lon="6.68332">
        <ele>1203.8000488281</ele>
        <time>2013-04-14T08:14:02Z</time>
      </trkpt>
      <trkpt lat="45.5763" lon="6.6833">
        <ele>1203.8000488281</ele>
        <time>2013-04-14T08:14:03Z</time>
      </trkpt>
      <trkpt lat="45.57629" lon="6.68325">
        <ele>1203.8000488281</ele>
        <time>2013-04-14T08:14:05Z</time>
      </trkpt>
      <trkpt lat="45.57628" lon="6.68313">
        <ele>1204.4000244141</ele>
        <time>2013-04-14T08:14:09Z</time>
      </trkpt>
      <trkpt lat="45.57628" lon="6.6831">
        <ele>1204.4000244141</ele>
        <time>2013-04-14T08:14:10Z</time>
      </trkpt>
      <trkpt lat="45.57629" lon="6.68301">
        <ele>1205.1999511719</ele>
        <time>2013-04-14T08:14:13Z</time>
      </trkpt>
      <trkpt lat="45.5763" lon="6.68298">
        <ele>1205.5999755859</ele>
        <time>2013-04-14T08:14:14Z</time>
      </trkpt>
      <trkpt lat="45.57635" lon="6.6829">
        <ele>1207.1999511719</ele>
        <time>2013-04-14T08:14:19Z</time>
      </trkpt>
      <trkpt lat="45.57635" lon="6.68287">
        <ele>1207.5999755859</ele>
        <time>2013-04-14T08:14:20Z</time>
      </trkpt>
      <trkpt lat="45.57636" lon="6.68286">
        <ele>1207.8000488281</ele>
        <time>2013-04-14T08:14:21Z</time>
      </trkpt>
      <trkpt lat="45.57638" lon="6.68282">
        <ele>1208.4000244141</ele>
        <time>2013-04-14T08:14:23Z</time>
      </trkpt>
      <trkpt lat="45.57638" lon="6.68279">
        <ele>1208.8000488281</ele>
        <time>2013-04-14T08:14:24Z</time>
      </trkpt>
      <trkpt lat="45.57639" lon="6.68277">
        <ele>1209.1999511719</ele>
        <time>2013-04-14T08:14:25Z</time>
      </trkpt>
      <trkpt lat="45.57639" lon="6.68272">
        <ele>1209.4000244141</ele>
        <time>2013-04-14T08:14:27Z</time>
      </trkpt>
      <trkpt lat="45.57639" lon="6.68271">
        <ele>1209.4000244141</ele>
        <time>2013-04-14T08:14:28Z</time>
      </trkpt>
      <trkpt lat="45.57638" lon="6.68269">
        <ele>1209.4000244141</ele>
        <time>2013-04-14T08:14:29Z</time>
      </trkpt>
      <trkpt lat="45.57637" lon="6.68263">
        <ele>1209.1999511719</ele>
        <time>2013-04-14T08:14:35Z</time>
      </trkpt>
      <trkpt lat="45.57642" lon="6.68257">
        <ele>1211</ele>
        <time>2013-04-14T08:14:40Z</time>
      </trkpt>
      <trkpt lat="45.57644" lon="6.68252">
        <ele>1211.8000488281</ele>
        <time>2013-04-14T08:14:42Z</time>
      </trkpt>
      <trkpt lat="45.57646" lon="6.68248">
        <ele>1212.4000244141</ele>
        <time>2013-04-14T08:14:44Z</time>
      </trkpt>
      <trkpt lat="45.57647" lon="6.68246">
        <ele>1212.5999755859</ele>
        <time>2013-04-14T08:14:45Z</time>
      </trkpt>
      <trkpt lat="45.57649" lon="6.68244">
        <ele>1212.8000488281</ele>
        <time>2013-04-14T08:14:46Z</time>
      </trkpt>
      <trkpt lat="45.57658" lon="6.68233">
        <ele>1214.4000244141</ele>
        <time>2013-04-14T08:14:52Z</time>
      </trkpt>
      <trkpt lat="45.57659" lon="6.68232">
        <ele>1214.5999755859</ele>
        <time>2013-04-14T08:14:53Z</time>
      </trkpt>
      <trkpt lat="45.57665" lon="6.68227">
        <ele>1215.8000488281</ele>
        <time>2013-04-14T08:14:56Z</time>
      </trkpt>
      <trkpt lat="45.57667" lon="6.68226">
        <ele>1216.1999511719</ele>
        <time>2013-04-14T08:14:57Z</time>
      </trkpt>
      <trkpt lat="45.57669" lon="6.68225">
        <ele>1216.4000244141</ele>
        <time>2013-04-14T08:14:58Z</time>
      </trkpt>
      <trkpt lat="45.57686" lon="6.68209">
        <ele>1217.8000488281</ele>
        <time>2013-04-14T08:15:07Z</time>
      </trkpt>
      <trkpt lat="45.57687" lon="6.68207">
        <ele>1217.8000488281</ele>
        <time>2013-04-14T08:15:08Z</time>
      </trkpt>
      <trkpt lat="45.57689" lon="6.68205">
        <ele>1217.8000488281</ele>
        <time>2013-04-14T08:15:09Z</time>
      </trkpt>
      <trkpt lat="45.57692" lon="6.682">
        <ele>1218</ele>
        <time>2013-04-14T08:15:11Z</time>
      </trkpt>
      <trkpt lat="45.57693" lon="6.68197">
        <ele>1217.8000488281</ele>
        <time>2013-04-14T08:15:12Z</time>
      </trkpt>
      <trkpt lat="45.57695" lon="6.68196">
        <ele>1218</ele>
        <time>2013-04-14T08:15:13Z</time>
      </trkpt>
      <trkpt lat="45.57702" lon="6.68189">
        <ele>1218.4000244141</ele>
        <time>2013-04-14T08:15:18Z</time>
      </trkpt>
      <trkpt lat="45.57706" lon="6.68191">
        <ele>1219.1999511719</ele>
        <time>2013-04-14T08:15:20Z</time>
      </trkpt>
      <trkpt lat="45.57708" lon="6.68193">
        <ele>1219.5999755859</ele>
        <time>2013-04-14T08:15:21Z</time>
      </trkpt>
      <trkpt lat="45.57709" lon="6.68197">
        <ele>1220</ele>
        <time>2013-04-14T08:15:23Z</time>
      </trkpt>
      <trkpt lat="45.57709" lon="6.68201">
        <ele>1220.4000244141</ele>
        <time>2013-04-14T08:15:24Z</time>
      </trkpt>
      <trkpt lat="45.5771" lon="6.68204">
        <ele>1220.5999755859</ele>
        <time>2013-04-14T08:15:25Z</time>
      </trkpt>
      <trkpt lat="45.5771" lon="6.68209">
        <ele>1221.1999511719</ele>
        <time>2013-04-14T08:15:27Z</time>
      </trkpt>
      <trkpt lat="45.57709" lon="6.68218">
        <ele>1221.8000488281</ele>
        <time>2013-04-14T08:15:30Z</time>
      </trkpt>
      <trkpt lat="45.57709" lon="6.68221">
        <ele>1222.1999511719</ele>
        <time>2013-04-14T08:15:31Z</time>
      </trkpt>
      <trkpt lat="45.5771" lon="6.68227">
        <ele>1222.5999755859</ele>
        <time>2013-04-14T08:15:33Z</time>
      </trkpt>
      <trkpt lat="45.5771" lon="6.68233">
        <ele>1223.1999511719</ele>
        <time>2013-04-14T08:15:35Z</time>
      </trkpt>
      <trkpt lat="45.57709" lon="6.68253">
        <ele>1224.4000244141</ele>
        <time>2013-04-14T08:15:42Z</time>
      </trkpt>
      <trkpt lat="45.57708" lon="6.68256">
        <ele>1224.1999511719</ele>
        <time>2013-04-14T08:15:43Z</time>
      </trkpt>
      <trkpt lat="45.57708" lon="6.68258">
        <ele>1224.1999511719</ele>
        <time>2013-04-14T08:15:44Z</time>
      </trkpt>
      <trkpt lat="45.57708" lon="6.68263">
        <ele>1224</ele>
        <time>2013-04-14T08:15:46Z</time>
      </trkpt>
      <trkpt lat="45.57708" lon="6.68266">
        <ele>1224</ele>
        <time>2013-04-14T08:15:47Z</time>
      </trkpt>
      <trkpt lat="45.57708" lon="6.68276">
        <ele>1224</ele>
        <time>2013-04-14T08:15:51Z</time>
      </trkpt>
      <trkpt lat="45.5771" lon="6.6828">
        <ele>1224.1999511719</ele>
        <time>2013-04-14T08:15:53Z</time>
      </trkpt>
      <trkpt lat="45.57711" lon="6.68282">
        <ele>1224.4000244141</ele>
        <time>2013-04-14T08:15:54Z</time>
      </trkpt>
      <trkpt lat="45.57715" lon="6.68285">
        <ele>1225</ele>
        <time>2013-04-14T08:15:57Z</time>
      </trkpt>
      <trkpt lat="45.57717" lon="6.68288">
        <ele>1225.4000244141</ele>
        <time>2013-04-14T08:15:59Z</time>
      </trkpt>
      <trkpt lat="45.5772" lon="6.68291">
        <ele>1226</ele>
        <time>2013-04-14T08:16:01Z</time>
      </trkpt>
      <trkpt lat="45.57722" lon="6.68292">
        <ele>1226.4000244141</ele>
        <time>2013-04-14T08:16:02Z</time>
      </trkpt>
      <trkpt lat="45.57725" lon="6.68294">
        <ele>1227</ele>
        <time>2013-04-14T08:16:04Z</time>
      </trkpt>
      <trkpt lat="45.57726" lon="6.68296">
        <ele>1227.1999511719</ele>
        <time>2013-04-14T08:16:05Z</time>
      </trkpt>
      <trkpt lat="45.57728" lon="6.68298">
        <ele>1227.5999755859</ele>
        <time>2013-04-14T08:16:06Z</time>
      </trkpt>
      <trkpt lat="45.57739" lon="6.68305">
        <ele>1230</ele>
        <time>2013-04-14T08:16:13Z</time>
      </trkpt>
      <trkpt lat="45.57742" lon="6.68306">
        <ele>1230.5999755859</ele>
        <time>2013-04-14T08:16:15Z</time>
      </trkpt>
      <trkpt lat="45.57744" lon="6.68306">
        <ele>1231</ele>
        <time>2013-04-14T08:16:16Z</time>
      </trkpt>
      <trkpt lat="45.57748" lon="6.68307">
        <ele>1232</ele>
        <time>2013-04-14T08:16:19Z</time>
      </trkpt>
      <trkpt lat="45.5775" lon="6.68307">
        <ele>1232.4000244141</ele>
        <time>2013-04-14T08:16:20Z</time>
      </trkpt>
      <trkpt lat="45.57759" lon="6.68304">
        <ele>1234</ele>
        <time>2013-04-14T08:16:26Z</time>
      </trkpt>
      <trkpt lat="45.57761" lon="6.68302">
        <ele>1234.1999511719</ele>
        <time>2013-04-14T08:16:28Z</time>
      </trkpt>
      <trkpt lat="45.57762" lon="6.68301">
        <ele>1234.4000244141</ele>
        <time>2013-04-14T08:16:29Z</time>
      </trkpt>
      <trkpt lat="45.57765" lon="6.68299">
        <ele>1235</ele>
        <time>2013-04-14T08:16:31Z</time>
      </trkpt>
      <trkpt lat="45.57767" lon="6.68299">
        <ele>1235.4000244141</ele>
        <time>2013-04-14T08:16:32Z</time>
      </trkpt>
      <trkpt lat="45.57768" lon="6.68298">
        <ele>1235.5999755859</ele>
        <time>2013-04-14T08:16:33Z</time>
      </trkpt>
      <trkpt lat="45.57774" lon="6.68298">
        <ele>1236.5999755859</ele>
        <time>2013-04-14T08:16:36Z</time>
      </trkpt>
      <trkpt lat="45.57775" lon="6.68297">
        <ele>1236.8000488281</ele>
        <time>2013-04-14T08:16:37Z</time>
      </trkpt>
      <trkpt lat="45.57777" lon="6.68296">
        <ele>1237.1999511719</ele>
        <time>2013-04-14T08:16:38Z</time>
      </trkpt>
      <trkpt lat="45.57781" lon="6.68294">
        <ele>1238</ele>
        <time>2013-04-14T08:16:40Z</time>
      </trkpt>
      <trkpt lat="45.57782" lon="6.68294">
        <ele>1238.1999511719</ele>
        <time>2013-04-14T08:16:41Z</time>
      </trkpt>
      <trkpt lat="45.5779" lon="6.6829">
        <ele>1239.5999755859</ele>
        <time>2013-04-14T08:16:45Z</time>
      </trkpt>
      <trkpt lat="45.57794" lon="6.68287">
        <ele>1240.1999511719</ele>
        <time>2013-04-14T08:16:47Z</time>
      </trkpt>
      <trkpt lat="45.57796" lon="6.68286">
        <ele>1240.4000244141</ele>
        <time>2013-04-14T08:16:48Z</time>
      </trkpt>
      <trkpt lat="45.57798" lon="6.68284">
        <ele>1240.8000488281</ele>
        <time>2013-04-14T08:16:49Z</time>
      </trkpt>
      <trkpt lat="45.57804" lon="6.68281">
        <ele>1241.5999755859</ele>
        <time>2013-04-14T08:16:52Z</time>
      </trkpt>
      <trkpt lat="45.5781" lon="6.68277">
        <ele>1242.5999755859</ele>
        <time>2013-04-14T08:16:55Z</time>
      </trkpt>
      <trkpt lat="45.57816" lon="6.68273">
        <ele>1243.4000244141</ele>
        <time>2013-04-14T08:16:58Z</time>
      </trkpt>
      <trkpt lat="45.57818" lon="6.68271">
        <ele>1243.5999755859</ele>
        <time>2013-04-14T08:16:59Z</time>
      </trkpt>
      <trkpt lat="45.5782" lon="6.68269">
        <ele>1243.8000488281</ele>
        <time>2013-04-14T08:17:00Z</time>
      </trkpt>
      <trkpt lat="45.57831" lon="6.68261">
        <ele>1245.1999511719</ele>
        <time>2013-04-14T08:17:07Z</time>
      </trkpt>
      <trkpt lat="45.57832" lon="6.68259">
        <ele>1245.1999511719</ele>
        <time>2013-04-14T08:17:08Z</time>
      </trkpt>
      <trkpt lat="45.57833" lon="6.68258">
        <ele>1245.4000244141</ele>
        <time>2013-04-14T08:17:09Z</time>
      </trkpt>
      <trkpt lat="45.57837" lon="6.68255">
        <ele>1245.8000488281</ele>
        <time>2013-04-14T08:17:11Z</time>
      </trkpt>
      <trkpt lat="45.57839" lon="6.68254">
        <ele>1246.1999511719</ele>
        <time>2013-04-14T08:17:12Z</time>
      </trkpt>
      <trkpt lat="45.57841" lon="6.68253">
        <ele>1246.4000244141</ele>
        <time>2013-04-14T08:17:13Z</time>
      </trkpt>
      <trkpt lat="45.57852" lon="6.68243">
        <ele>1247.1999511719</ele>
        <time>2013-04-14T08:17:19Z</time>
      </trkpt>
      <trkpt lat="45.57854" lon="6.68241">
        <ele>1247.1999511719</ele>
        <time>2013-04-14T08:17:20Z</time>
      </trkpt>
      <trkpt lat="45.57856" lon="6.68238">
        <ele>1247.4000244141</ele>
        <time>2013-04-14T08:17:21Z</time>
      </trkpt>
      <trkpt lat="45.57859" lon="6.68234">
        <ele>1247.4000244141</ele>
        <time>2013-04-14T08:17:23Z</time>
      </trkpt>
      <trkpt lat="45.57861" lon="6.68233">
        <ele>1247.5999755859</ele>
        <time>2013-04-14T08:17:24Z</time>
      </trkpt>
      <trkpt lat="45.57862" lon="6.68231">
        <ele>1247.8000488281</ele>
        <time>2013-04-14T08:17:25Z</time>
      </trkpt>
      <trkpt lat="45.5787" lon="6.68224">
        <ele>1248.4000244141</ele>
        <time>2013-04-14T08:17:30Z</time>
      </trkpt>
      <trkpt lat="45.57872" lon="6.68223">
        <ele>1248.5999755859</ele>
        <time>2013-04-14T08:17:31Z</time>
      </trkpt>
      <trkpt lat="45.57873" lon="6.68222">
        <ele>1248.8000488281</ele>
        <time>2013-04-14T08:17:35Z</time>
      </trkpt>
      <trkpt lat="45.57877" lon="6.68215">
        <ele>1248.8000488281</ele>
        <time>2013-04-14T08:17:51Z</time>
      </trkpt>
      <trkpt lat="45.57878" lon="6.68214">
        <ele>1248.8000488281</ele>
        <time>2013-04-14T08:17:54Z</time>
      </trkpt>
      <trkpt lat="45.57879" lon="6.68213">
        <ele>1249</ele>
        <time>2013-04-14T08:17:56Z</time>
      </trkpt>
      <trkpt lat="45.57879" lon="6.68213">
        <ele>1249</ele>
        <time>2013-04-14T08:17:57Z</time>
      </trkpt>
      <trkpt lat="45.57879" lon="6.68213">
        <ele>1249</ele>
        <time>2013-04-14T08:17:58Z</time>
      </trkpt>
      <trkpt lat="45.5788" lon="6.68212">
        <ele>1249.1999511719</ele>
        <time>2013-04-14T08:18:00Z</time>
      </trkpt>
      <trkpt lat="45.57886" lon="6.68208">
        <ele>1249.8000488281</ele>
        <time>2013-04-14T08:18:04Z</time>
      </trkpt>
      <trkpt lat="45.5789" lon="6.68203">
        <ele>1250.1999511719</ele>
        <time>2013-04-14T08:18:07Z</time>
      </trkpt>
      <trkpt lat="45.57901" lon="6.68198">
        <ele>1251.8000488281</ele>
        <time>2013-04-14T08:18:13Z</time>
      </trkpt>
      <trkpt lat="45.57903" lon="6.68198">
        <ele>1252.1999511719</ele>
        <time>2013-04-14T08:18:14Z</time>
      </trkpt>
      <trkpt lat="45.57904" lon="6.68198">
        <ele>1252.4000244141</ele>
        <time>2013-04-14T08:18:15Z</time>
      </trkpt>
      <trkpt lat="45.57907" lon="6.68198">
        <ele>1253</ele>
        <time>2013-04-14T08:18:17Z</time>
      </trkpt>
      <trkpt lat="45.57909" lon="6.68199">
        <ele>1253.4000244141</ele>
        <time>2013-04-14T08:18:18Z</time>
      </trkpt>
      <trkpt lat="45.57911" lon="6.68199">
        <ele>1253.8000488281</ele>
        <time>2013-04-14T08:18:19Z</time>
      </trkpt>
      <trkpt lat="45.57926" lon="6.68198">
        <ele>1256.8000488281</ele>
        <time>2013-04-14T08:18:26Z</time>
      </trkpt>
      <trkpt lat="45.57927" lon="6.68198">
        <ele>1257.1999511719</ele>
        <time>2013-04-14T08:18:27Z</time>
      </trkpt>
      <trkpt lat="45.57929" lon="6.68198">
        <ele>1257.8000488281</ele>
        <time>2013-04-14T08:18:29Z</time>
      </trkpt>
      <trkpt lat="45.57932" lon="6.68198">
        <ele>1258.1999511719</ele>
        <time>2013-04-14T08:18:31Z</time>
      </trkpt>
      <trkpt lat="45.57933" lon="6.68198">
        <ele>1258.5999755859</ele>
        <time>2013-04-14T08:18:32Z</time>
      </trkpt>
      <trkpt lat="45.57934" lon="6.68199">
        <ele>1258.8000488281</ele>
        <time>2013-04-14T08:18:33Z</time>
      </trkpt>
      <trkpt lat="45.57938" lon="6.68198">
        <ele>1259.8000488281</ele>
        <time>2013-04-14T08:18:38Z</time>
      </trkpt>
      <trkpt lat="45.57938" lon="6.68199">
        <ele>1259.8000488281</ele>
        <time>2013-04-14T08:18:39Z</time>
      </trkpt>
      <trkpt lat="45.57941" lon="6.68195">
        <ele>1260.1999511719</ele>
        <time>2013-04-14T08:18:41Z</time>
      </trkpt>
      <trkpt lat="45.57942" lon="6.68193">
        <ele>1260.5999755859</ele>
        <time>2013-04-14T08:18:42Z</time>
      </trkpt>
      <trkpt lat="45.57944" lon="6.68191">
        <ele>1260.8000488281</ele>
        <time>2013-04-14T08:18:43Z</time>
      </trkpt>
      <trkpt lat="45.57948" lon="6.68179">
        <ele>1261.1999511719</ele>
        <time>2013-04-14T08:18:48Z</time>
      </trkpt>
      <trkpt lat="45.57948" lon="6.68174">
        <ele>1261</ele>
        <time>2013-04-14T08:18:50Z</time>
      </trkpt>
      <trkpt lat="45.57948" lon="6.68171">
        <ele>1261</ele>
        <time>2013-04-14T08:18:51Z</time>
      </trkpt>
      <trkpt lat="45.57948" lon="6.68166">
        <ele>1260.8000488281</ele>
        <time>2013-04-14T08:18:53Z</time>
      </trkpt>
      <trkpt lat="45.57948" lon="6.68164">
        <ele>1261</ele>
        <time>2013-04-14T08:18:54Z</time>
      </trkpt>
      <trkpt lat="45.57948" lon="6.68162">
        <ele>1261</ele>
        <time>2013-04-14T08:18:55Z</time>
      </trkpt>
      <trkpt lat="45.57948" lon="6.68146">
        <ele>1261.5999755859</ele>
        <time>2013-04-14T08:19:00Z</time>
      </trkpt>
      <trkpt lat="45.57948" lon="6.68144">
        <ele>1261.5999755859</ele>
        <time>2013-04-14T08:19:01Z</time>
      </trkpt>
      <trkpt lat="45.57948" lon="6.6814">
        <ele>1261.8000488281</ele>
        <time>2013-04-14T08:19:02Z</time>
      </trkpt>
      <trkpt lat="45.57948" lon="6.68134">
        <ele>1262</ele>
        <time>2013-04-14T08:19:04Z</time>
      </trkpt>
      <trkpt lat="45.57948" lon="6.68128">
        <ele>1262.4000244141</ele>
        <time>2013-04-14T08:19:06Z</time>
      </trkpt>
      <trkpt lat="45.57949" lon="6.68115">
        <ele>1263</ele>
        <time>2013-04-14T08:19:10Z</time>
      </trkpt>
      <trkpt lat="45.57949" lon="6.68109">
        <ele>1263.4000244141</ele>
        <time>2013-04-14T08:19:12Z</time>
      </trkpt>
      <trkpt lat="45.5795" lon="6.68106">
        <ele>1263.4000244141</ele>
        <time>2013-04-14T08:19:13Z</time>
      </trkpt>
      <trkpt lat="45.57951" lon="6.68093">
        <ele>1264.5999755859</ele>
        <time>2013-04-14T08:19:17Z</time>
      </trkpt>
      <trkpt lat="45.57952" lon="6.68091">
        <ele>1264.8000488281</ele>
        <time>2013-04-14T08:19:18Z</time>
      </trkpt>
      <trkpt lat="45.57954" lon="6.68088">
        <ele>1265.4000244141</ele>
        <time>2013-04-14T08:19:19Z</time>
      </trkpt>
      <trkpt lat="45.57956" lon="6.68083">
        <ele>1266.4000244141</ele>
        <time>2013-04-14T08:19:21Z</time>
      </trkpt>
      <trkpt lat="45.57958" lon="6.68081">
        <ele>1266.8000488281</ele>
        <time>2013-04-14T08:19:22Z</time>
      </trkpt>
      <trkpt lat="45.57962" lon="6.68074">
        <ele>1267.8000488281</ele>
        <time>2013-04-14T08:19:25Z</time>
      </trkpt>
      <trkpt lat="45.57966" lon="6.68059">
        <ele>1269</ele>
        <time>2013-04-14T08:19:31Z</time>
      </trkpt>
      <trkpt lat="45.57966" lon="6.68056">
        <ele>1269.1999511719</ele>
        <time>2013-04-14T08:19:32Z</time>
      </trkpt>
      <trkpt lat="45.57967" lon="6.68054">
        <ele>1269.1999511719</ele>
        <time>2013-04-14T08:19:33Z</time>
      </trkpt>
      <trkpt lat="45.57968" lon="6.68049">
        <ele>1269.4000244141</ele>
        <time>2013-04-14T08:19:35Z</time>
      </trkpt>
      <trkpt lat="45.57968" lon="6.68047">
        <ele>1269.4000244141</ele>
        <time>2013-04-14T08:19:36Z</time>
      </trkpt>
      <trkpt lat="45.57968" lon="6.68042">
        <ele>1269.4000244141</ele>
        <time>2013-04-14T08:19:38Z</time>
      </trkpt>
      <trkpt lat="45.57971" lon="6.68031">
        <ele>1270.1999511719</ele>
        <time>2013-04-14T08:19:43Z</time>
      </trkpt>
      <trkpt lat="45.57973" lon="6.68028">
        <ele>1270.5999755859</ele>
        <time>2013-04-14T08:19:44Z</time>
      </trkpt>
      <trkpt lat="45.57974" lon="6.68027">
        <ele>1270.8000488281</ele>
        <time>2013-04-14T08:19:45Z</time>
      </trkpt>
      <trkpt lat="45.57976" lon="6.68023">
        <ele>1271.4000244141</ele>
        <time>2013-04-14T08:19:47Z</time>
      </trkpt>
      <trkpt lat="45.57978" lon="6.68018">
        <ele>1271.8000488281</ele>
        <time>2013-04-14T08:19:49Z</time>
      </trkpt>
      <trkpt lat="45.5798" lon="6.68013">
        <ele>1272.1999511719</ele>
        <time>2013-04-14T08:19:51Z</time>
      </trkpt>
      <trkpt lat="45.57982" lon="6.68003">
        <ele>1272.5999755859</ele>
        <time>2013-04-14T08:19:55Z</time>
      </trkpt>
      <trkpt lat="45.57983" lon="6.67999">
        <ele>1272.8000488281</ele>
        <time>2013-04-14T08:19:57Z</time>
      </trkpt>
      <trkpt lat="45.57986" lon="6.67994">
        <ele>1273.1999511719</ele>
        <time>2013-04-14T08:19:59Z</time>
      </trkpt>
      <trkpt lat="45.57987" lon="6.67992">
        <ele>1273.1999511719</ele>
        <time>2013-04-14T08:20:00Z</time>
      </trkpt>
      <trkpt lat="45.57993" lon="6.6798">
        <ele>1274</ele>
        <time>2013-04-14T08:20:05Z</time>
      </trkpt>
      <trkpt lat="45.58002" lon="6.6797">
        <ele>1275.4000244141</ele>
        <time>2013-04-14T08:20:10Z</time>
      </trkpt>
      <trkpt lat="45.58003" lon="6.67967">
        <ele>1275.5999755859</ele>
        <time>2013-04-14T08:20:11Z</time>
      </trkpt>
      <trkpt lat="45.58004" lon="6.67965">
        <ele>1275.8000488281</ele>
        <time>2013-04-14T08:20:12Z</time>
      </trkpt>
      <trkpt lat="45.58007" lon="6.67961">
        <ele>1276.1999511719</ele>
        <time>2013-04-14T08:20:14Z</time>
      </trkpt>
      <trkpt lat="45.58011" lon="6.67954">
        <ele>1276.5999755859</ele>
        <time>2013-04-14T08:20:17Z</time>
      </trkpt>
      <trkpt lat="45.58012" lon="6.67951">
        <ele>1276.5999755859</ele>
        <time>2013-04-14T08:20:18Z</time>
      </trkpt>
      <trkpt lat="45.58018" lon="6.67939">
        <ele>1277.1999511719</ele>
        <time>2013-04-14T08:20:23Z</time>
      </trkpt>
      <trkpt lat="45.5802" lon="6.67933">
        <ele>1277.4000244141</ele>
        <time>2013-04-14T08:20:25Z</time>
      </trkpt>
      <trkpt lat="45.58023" lon="6.67927">
        <ele>1277.5999755859</ele>
        <time>2013-04-14T08:20:27Z</time>
      </trkpt>
      <trkpt lat="45.58026" lon="6.67921">
        <ele>1277.8000488281</ele>
        <time>2013-04-14T08:20:29Z</time>
      </trkpt>
      <trkpt lat="45.58027" lon="6.67919">
        <ele>1278</ele>
        <time>2013-04-14T08:20:30Z</time>
      </trkpt>
      <trkpt lat="45.58029" lon="6.67916">
        <ele>1278.1999511719</ele>
        <time>2013-04-14T08:20:31Z</time>
      </trkpt>
      <trkpt lat="45.58038" lon="6.679">
        <ele>1279.8000488281</ele>
        <time>2013-04-14T08:20:37Z</time>
      </trkpt>
      <trkpt lat="45.58039" lon="6.67898">
        <ele>1280</ele>
        <time>2013-04-14T08:20:38Z</time>
      </trkpt>
      <trkpt lat="45.58041" lon="6.67895">
        <ele>1280.4000244141</ele>
        <time>2013-04-14T08:20:39Z</time>
      </trkpt>
      <trkpt lat="45.58044" lon="6.67886">
        <ele>1281</ele>
        <time>2013-04-14T08:20:42Z</time>
      </trkpt>
      <trkpt lat="45.58047" lon="6.67871">
        <ele>1281.5999755859</ele>
        <time>2013-04-14T08:20:47Z</time>
      </trkpt>
      <trkpt lat="45.58044" lon="6.67856">
        <ele>1280.5999755859</ele>
        <time>2013-04-14T08:20:52Z</time>
      </trkpt>
      <trkpt lat="45.58043" lon="6.67853">
        <ele>1280.4000244141</ele>
        <time>2013-04-14T08:20:53Z</time>
      </trkpt>
      <trkpt lat="45.58042" lon="6.6785">
        <ele>1280.1999511719</ele>
        <time>2013-04-14T08:20:54Z</time>
      </trkpt>
      <trkpt lat="45.5804" lon="6.67844">
        <ele>1279.8000488281</ele>
        <time>2013-04-14T08:20:56Z</time>
      </trkpt>
      <trkpt lat="45.5804" lon="6.67841">
        <ele>1279.5999755859</ele>
        <time>2013-04-14T08:20:57Z</time>
      </trkpt>
      <trkpt lat="45.58036" lon="6.67819">
        <ele>1280</ele>
        <time>2013-04-14T08:21:04Z</time>
      </trkpt>
      <trkpt lat="45.58028" lon="6.67797">
        <ele>1280.1999511719</ele>
        <time>2013-04-14T08:21:13Z</time>
      </trkpt>
      <trkpt lat="45.58026" lon="6.67795">
        <ele>1280.1999511719</ele>
        <time>2013-04-14T08:21:14Z</time>
      </trkpt>
      <trkpt lat="45.58025" lon="6.67793">
        <ele>1280</ele>
        <time>2013-04-14T08:21:15Z</time>
      </trkpt>
      <trkpt lat="45.58022" lon="6.6779">
        <ele>1279.8000488281</ele>
        <time>2013-04-14T08:21:17Z</time>
      </trkpt>
      <trkpt lat="45.5802" lon="6.67787">
        <ele>1279.5999755859</ele>
        <time>2013-04-14T08:21:18Z</time>
      </trkpt>
      <trkpt lat="45.58013" lon="6.67777">
        <ele>1279</ele>
        <time>2013-04-14T08:21:22Z</time>
      </trkpt>
      <trkpt lat="45.58" lon="6.67746">
        <ele>1279.4000244141</ele>
        <time>2013-04-14T08:21:33Z</time>
      </trkpt>
      <trkpt lat="45.57997" lon="6.67738">
        <ele>1279</ele>
        <time>2013-04-14T08:21:36Z</time>
      </trkpt>
      <trkpt lat="45.57996" lon="6.67735">
        <ele>1278.8000488281</ele>
        <time>2013-04-14T08:21:37Z</time>
      </trkpt>
      <trkpt lat="45.57994" lon="6.67729">
        <ele>1278.5999755859</ele>
        <time>2013-04-14T08:21:39Z</time>
      </trkpt>
      <trkpt lat="45.57993" lon="6.67727">
        <ele>1278.5999755859</ele>
        <time>2013-04-14T08:21:40Z</time>
      </trkpt>
      <trkpt lat="45.57987" lon="6.67712">
        <ele>1278</ele>
        <time>2013-04-14T08:21:58Z</time>
      </trkpt>
      <trkpt lat="45.57986" lon="6.67709">
        <ele>1277.8000488281</ele>
        <time>2013-04-14T08:22:03Z</time>
      </trkpt>
      <trkpt lat="45.57986" lon="6.67705">
        <ele>1278</ele>
        <time>2013-04-14T08:22:09Z</time>
      </trkpt>
      <trkpt lat="45.57984" lon="6.67699">
        <ele>1277.8000488281</ele>
        <time>2013-04-14T08:22:14Z</time>
      </trkpt>
      <trkpt lat="45.57983" lon="6.67697">
        <ele>1277.5999755859</ele>
        <time>2013-04-14T08:22:16Z</time>
      </trkpt>
      <trkpt lat="45.57981" lon="6.67693">
        <ele>1277.4000244141</ele>
        <time>2013-04-14T08:22:19Z</time>
      </trkpt>
      <trkpt lat="45.57979" lon="6.67688">
        <ele>1277.1999511719</ele>
        <time>2013-04-14T08:22:23Z</time>
      </trkpt>
      <trkpt lat="45.57979" lon="6.67687">
        <ele>1277.1999511719</ele>
        <time>2013-04-14T08:22:24Z</time>
      </trkpt>
      <trkpt lat="45.57979" lon="6.67685">
        <ele>1277.1999511719</ele>
        <time>2013-04-14T08:22:25Z</time>
      </trkpt>
      <trkpt lat="45.57977" lon="6.67677">
        <ele>1277.1999511719</ele>
        <time>2013-04-14T08:22:30Z</time>
      </trkpt>
      <trkpt lat="45.57978" lon="6.67665">
        <ele>1278.1999511719</ele>
        <time>2013-04-14T08:22:38Z</time>
      </trkpt>
      <trkpt lat="45.57979" lon="6.67663">
        <ele>1278.4000244141</ele>
        <time>2013-04-14T08:22:40Z</time>
      </trkpt>
      <trkpt lat="45.57981" lon="6.67658">
        <ele>1279.1999511719</ele>
        <time>2013-04-14T08:22:49Z</time>
      </trkpt>
      <trkpt lat="45.57981" lon="6.67657">
        <ele>1279.1999511719</ele>
        <time>2013-04-14T08:22:50Z</time>
      </trkpt>
      <trkpt lat="45.57982" lon="6.67656">
        <ele>1279.4000244141</ele>
        <time>2013-04-14T08:22:51Z</time>
      </trkpt>
      <trkpt lat="45.57983" lon="6.67654">
        <ele>1279.8000488281</ele>
        <time>2013-04-14T08:22:53Z</time>
      </trkpt>
      <trkpt lat="45.57986" lon="6.6765">
        <ele>1280.5999755859</ele>
        <time>2013-04-14T08:22:57Z</time>
      </trkpt>
      <trkpt lat="45.57991" lon="6.67643">
        <ele>1282.4000244141</ele>
        <time>2013-04-14T08:23:04Z</time>
      </trkpt>
      <trkpt lat="45.57996" lon="6.67635">
        <ele>1283.8000488281</ele>
        <time>2013-04-14T08:23:11Z</time>
      </trkpt>
      <trkpt lat="45.57999" lon="6.67631">
        <ele>1284.5999755859</ele>
        <time>2013-04-14T08:23:14Z</time>
      </trkpt>
      <trkpt lat="45.58001" lon="6.67626">
        <ele>1285</ele>
        <time>2013-04-14T08:23:17Z</time>
      </trkpt>
      <trkpt lat="45.58001" lon="6.67625">
        <ele>1285.1999511719</ele>
        <time>2013-04-14T08:23:18Z</time>
      </trkpt>
      <trkpt lat="45.58002" lon="6.67623">
        <ele>1285.4000244141</ele>
        <time>2013-04-14T08:23:20Z</time>
      </trkpt>
      <trkpt lat="45.58003" lon="6.6762">
        <ele>1285.5999755859</ele>
        <time>2013-04-14T08:23:22Z</time>
      </trkpt>
      <trkpt lat="45.58004" lon="6.67619">
        <ele>1285.5999755859</ele>
        <time>2013-04-14T08:23:23Z</time>
      </trkpt>
      <trkpt lat="45.58004" lon="6.67618">
        <ele>1285.8000488281</ele>
        <time>2013-04-14T08:23:24Z</time>
      </trkpt>
      <trkpt lat="45.58003" lon="6.67617">
        <ele>1285.5999755859</ele>
        <time>2013-04-14T08:23:27Z</time>
      </trkpt>
      <trkpt lat="45.58003" lon="6.67616">
        <ele>1285.5999755859</ele>
        <time>2013-04-14T08:23:30Z</time>
      </trkpt>
      <trkpt lat="45.58003" lon="6.67616">
        <ele>1285.5999755859</ele>
        <time>2013-04-14T08:23:31Z</time>
      </trkpt>
      <trkpt lat="45.58004" lon="6.67615">
        <ele>1285.8000488281</ele>
        <time>2013-04-14T08:23:34Z</time>
      </trkpt>
      <trkpt lat="45.58005" lon="6.67614">
        <ele>1285.8000488281</ele>
        <time>2013-04-14T08:23:36Z</time>
      </trkpt>
      <trkpt lat="45.58005" lon="6.67614">
        <ele>1285.8000488281</ele>
        <time>2013-04-14T08:23:37Z</time>
      </trkpt>
      <trkpt lat="45.58005" lon="6.67614">
        <ele>1285.8000488281</ele>
        <time>2013-04-14T08:23:39Z</time>
      </trkpt>
      <trkpt lat="45.58005" lon="6.67613">
        <ele>1285.8000488281</ele>
        <time>2013-04-14T08:23:40Z</time>
      </trkpt>
      <trkpt lat="45.58005" lon="6.67612">
        <ele>1286</ele>
        <time>2013-04-14T08:23:41Z</time>
      </trkpt>
      <trkpt lat="45.58014" lon="6.67597">
        <ele>1287.8000488281</ele>
        <time>2013-04-14T08:23:52Z</time>
      </trkpt>
      <trkpt lat="45.58022" lon="6.67585">
        <ele>1289.5999755859</ele>
        <time>2013-04-14T08:23:58Z</time>
      </trkpt>
      <trkpt lat="45.5803" lon="6.67576">
        <ele>1291.4000244141</ele>
        <time>2013-04-14T08:24:03Z</time>
      </trkpt>
      <trkpt lat="45.58035" lon="6.67571">
        <ele>1292.5999755859</ele>
        <time>2013-04-14T08:24:06Z</time>
      </trkpt>
      <trkpt lat="45.58037" lon="6.6757">
        <ele>1293</ele>
        <time>2013-04-14T08:24:07Z</time>
      </trkpt>
      <trkpt lat="45.58043" lon="6.67565">
        <ele>1294.8000488281</ele>
        <time>2013-04-14T08:24:11Z</time>
      </trkpt>
      <trkpt lat="45.58046" lon="6.67562">
        <ele>1295.5999755859</ele>
        <time>2013-04-14T08:24:13Z</time>
      </trkpt>
      <trkpt lat="45.58048" lon="6.6756">
        <ele>1296</ele>
        <time>2013-04-14T08:24:14Z</time>
      </trkpt>
      <trkpt lat="45.58051" lon="6.67557">
        <ele>1297</ele>
        <time>2013-04-14T08:24:16Z</time>
      </trkpt>
      <trkpt lat="45.58052" lon="6.67555">
        <ele>1297.1999511719</ele>
        <time>2013-04-14T08:24:17Z</time>
      </trkpt>
      <trkpt lat="45.58059" lon="6.67545">
        <ele>1299</ele>
        <time>2013-04-14T08:24:22Z</time>
      </trkpt>
      <trkpt lat="45.58063" lon="6.67537">
        <ele>1300.1999511719</ele>
        <time>2013-04-14T08:24:26Z</time>
      </trkpt>
      <trkpt lat="45.58063" lon="6.67537">
        <ele>1300.1999511719</ele>
        <time>2013-04-14T08:24:27Z</time>
      </trkpt>
      <trkpt lat="45.58063" lon="6.67537">
        <ele>1300.1999511719</ele>
        <time>2013-04-14T08:24:28Z</time>
      </trkpt>
      <trkpt lat="45.58063" lon="6.67536">
        <ele>1300.4000244141</ele>
        <time>2013-04-14T08:24:30Z</time>
      </trkpt>
      <trkpt lat="45.58064" lon="6.67534">
        <ele>1300.5999755859</ele>
        <time>2013-04-14T08:24:49Z</time>
      </trkpt>
      <trkpt lat="45.58064" lon="6.67533">
        <ele>1300.5999755859</ele>
        <time>2013-04-14T08:24:55Z</time>
      </trkpt>
      <trkpt lat="45.58065" lon="6.67532">
        <ele>1301</ele>
        <time>2013-04-14T08:24:59Z</time>
      </trkpt>
      <trkpt lat="45.58067" lon="6.67525">
        <ele>1301.5999755859</ele>
        <time>2013-04-14T08:25:02Z</time>
      </trkpt>
      <trkpt lat="45.58069" lon="6.67515">
        <ele>1302.4000244141</ele>
        <time>2013-04-14T08:25:06Z</time>
      </trkpt>
      <trkpt lat="45.58071" lon="6.6751">
        <ele>1303</ele>
        <time>2013-04-14T08:25:08Z</time>
      </trkpt>
      <trkpt lat="45.58071" lon="6.67507">
        <ele>1303.1999511719</ele>
        <time>2013-04-14T08:25:09Z</time>
      </trkpt>
      <trkpt lat="45.58073" lon="6.67494">
        <ele>1304</ele>
        <time>2013-04-14T08:25:13Z</time>
      </trkpt>
      <trkpt lat="45.58073" lon="6.67491">
        <ele>1304</ele>
        <time>2013-04-14T08:25:14Z</time>
      </trkpt>
      <trkpt lat="45.58073" lon="6.67485">
        <ele>1304.1999511719</ele>
        <time>2013-04-14T08:25:16Z</time>
      </trkpt>
      <trkpt lat="45.58072" lon="6.67471">
        <ele>1304</ele>
        <time>2013-04-14T08:25:21Z</time>
      </trkpt>
      <trkpt lat="45.58071" lon="6.67468">
        <ele>1304</ele>
        <time>2013-04-14T08:25:22Z</time>
      </trkpt>
      <trkpt lat="45.58071" lon="6.67466">
        <ele>1303.8000488281</ele>
        <time>2013-04-14T08:25:23Z</time>
      </trkpt>
      <trkpt lat="45.58069" lon="6.67461">
        <ele>1303.5999755859</ele>
        <time>2013-04-14T08:25:25Z</time>
      </trkpt>
      <trkpt lat="45.58068" lon="6.67458">
        <ele>1303.4000244141</ele>
        <time>2013-04-14T08:25:26Z</time>
      </trkpt>
      <trkpt lat="45.58066" lon="6.67452">
        <ele>1303</ele>
        <time>2013-04-14T08:25:29Z</time>
      </trkpt>
      <trkpt lat="45.58066" lon="6.67451">
        <ele>1302.8000488281</ele>
        <time>2013-04-14T08:25:33Z</time>
      </trkpt>
      <trkpt lat="45.58066" lon="6.67451">
        <ele>1302.8000488281</ele>
        <time>2013-04-14T08:25:34Z</time>
      </trkpt>
      <trkpt lat="45.58066" lon="6.67451">
        <ele>1302.8000488281</ele>
        <time>2013-04-14T08:25:35Z</time>
      </trkpt>
      <trkpt lat="45.58066" lon="6.67451">
        <ele>1302.8000488281</ele>
        <time>2013-04-14T08:25:37Z</time>
      </trkpt>
      <trkpt lat="45.58058" lon="6.6744">
        <ele>1300.8000488281</ele>
        <time>2013-04-14T08:26:15Z</time>
      </trkpt>
      <trkpt lat="45.58058" lon="6.67437">
        <ele>1300.8000488281</ele>
        <time>2013-04-14T08:26:16Z</time>
      </trkpt>
      <trkpt lat="45.58059" lon="6.67423">
        <ele>1301.4000244141</ele>
        <time>2013-04-14T08:26:21Z</time>
      </trkpt>
      <trkpt lat="45.58059" lon="6.6742">
        <ele>1301.5999755859</ele>
        <time>2013-04-14T08:26:22Z</time>
      </trkpt>
      <trkpt lat="45.5806" lon="6.67418">
        <ele>1301.8000488281</ele>
        <time>2013-04-14T08:26:23Z</time>
      </trkpt>
      <trkpt lat="45.58064" lon="6.67408">
        <ele>1303.4000244141</ele>
        <time>2013-04-14T08:26:27Z</time>
      </trkpt>
      <trkpt lat="45.58066" lon="6.67404">
        <ele>1304.1999511719</ele>
        <time>2013-04-14T08:26:29Z</time>
      </trkpt>
      <trkpt lat="45.58069" lon="6.67401">
        <ele>1305.4000244141</ele>
        <time>2013-04-14T08:26:31Z</time>
      </trkpt>
      <trkpt lat="45.58071" lon="6.67399">
        <ele>1305.8000488281</ele>
        <time>2013-04-14T08:26:32Z</time>
      </trkpt>
      <trkpt lat="45.58076" lon="6.67396">
        <ele>1307.4000244141</ele>
        <time>2013-04-14T08:26:35Z</time>
      </trkpt>
      <trkpt lat="45.58079" lon="6.67394">
        <ele>1308.4000244141</ele>
        <time>2013-04-14T08:26:37Z</time>
      </trkpt>
      <trkpt lat="45.5808" lon="6.67393">
        <ele>1308.8000488281</ele>
        <time>2013-04-14T08:26:38Z</time>
      </trkpt>
      <trkpt lat="45.58082" lon="6.67391">
        <ele>1309.4000244141</ele>
        <time>2013-04-14T08:26:39Z</time>
      </trkpt>
      <trkpt lat="45.58085" lon="6.67389">
        <ele>1310.5999755859</ele>
        <time>2013-04-14T08:26:41Z</time>
      </trkpt>
      <trkpt lat="45.58091" lon="6.67386">
        <ele>1312.4000244141</ele>
        <time>2013-04-14T08:26:44Z</time>
      </trkpt>
      <trkpt lat="45.58093" lon="6.67385">
        <ele>1313.1999511719</ele>
        <time>2013-04-14T08:26:45Z</time>
      </trkpt>
      <trkpt lat="45.58097" lon="6.67385">
        <ele>1314.4000244141</ele>
        <time>2013-04-14T08:26:47Z</time>
      </trkpt>
      <trkpt lat="45.58098" lon="6.67385">
        <ele>1314.8000488281</ele>
        <time>2013-04-14T08:26:48Z</time>
      </trkpt>
      <trkpt lat="45.581" lon="6.67384">
        <ele>1315.5999755859</ele>
        <time>2013-04-14T08:26:49Z</time>
      </trkpt>
      <trkpt lat="45.58106" lon="6.67383">
        <ele>1317.5999755859</ele>
        <time>2013-04-14T08:26:52Z</time>
      </trkpt>
      <trkpt lat="45.58108" lon="6.67382">
        <ele>1318.1999511719</ele>
        <time>2013-04-14T08:26:53Z</time>
      </trkpt>
      <trkpt lat="45.5811" lon="6.6738">
        <ele>1319</ele>
        <time>2013-04-14T08:26:54Z</time>
      </trkpt>
      <trkpt lat="45.58112" lon="6.67372">
        <ele>1319.8000488281</ele>
        <time>2013-04-14T08:26:57Z</time>
      </trkpt>
      <trkpt lat="45.58114" lon="6.67363">
        <ele>1321</ele>
        <time>2013-04-14T08:27:01Z</time>
      </trkpt>
      <trkpt lat="45.58115" lon="6.6736">
        <ele>1321.4000244141</ele>
        <time>2013-04-14T08:27:02Z</time>
      </trkpt>
      <trkpt lat="45.58117" lon="6.67353">
        <ele>1322.5999755859</ele>
        <time>2013-04-14T08:27:05Z</time>
      </trkpt>
      <trkpt lat="45.58118" lon="6.67351">
        <ele>1322.8000488281</ele>
        <time>2013-04-14T08:27:06Z</time>
      </trkpt>
      <trkpt lat="45.5812" lon="6.67345">
        <ele>1323.8000488281</ele>
        <time>2013-04-14T08:27:09Z</time>
      </trkpt>
      <trkpt lat="45.5812" lon="6.67339">
        <ele>1324</ele>
        <time>2013-04-14T08:27:14Z</time>
      </trkpt>
      <trkpt lat="45.5812" lon="6.67338">
        <ele>1324.1999511719</ele>
        <time>2013-04-14T08:27:15Z</time>
      </trkpt>
      <trkpt lat="45.58121" lon="6.67335">
        <ele>1324.4000244141</ele>
        <time>2013-04-14T08:27:17Z</time>
      </trkpt>
      <trkpt lat="45.58121" lon="6.67335">
        <ele>1324.4000244141</ele>
        <time>2013-04-14T08:27:18Z</time>
      </trkpt>
      <trkpt lat="45.5812" lon="6.67333">
        <ele>1324.4000244141</ele>
        <time>2013-04-14T08:27:19Z</time>
      </trkpt>
      <trkpt lat="45.5812" lon="6.6733">
        <ele>1324.5999755859</ele>
        <time>2013-04-14T08:27:21Z</time>
      </trkpt>
      <trkpt lat="45.58119" lon="6.67329">
        <ele>1324.5999755859</ele>
        <time>2013-04-14T08:27:22Z</time>
      </trkpt>
      <trkpt lat="45.58118" lon="6.67327">
        <ele>1324.4000244141</ele>
        <time>2013-04-14T08:27:23Z</time>
      </trkpt>
      <trkpt lat="45.58116" lon="6.67324">
        <ele>1324.1999511719</ele>
        <time>2013-04-14T08:27:25Z</time>
      </trkpt>
      <trkpt lat="45.58115" lon="6.67323">
        <ele>1324.1999511719</ele>
        <time>2013-04-14T08:27:26Z</time>
      </trkpt>
      <trkpt lat="45.58114" lon="6.67322">
        <ele>1324.1999511719</ele>
        <time>2013-04-14T08:27:27Z</time>
      </trkpt>
      <trkpt lat="45.58113" lon="6.6732">
        <ele>1324</ele>
        <time>2013-04-14T08:27:29Z</time>
      </trkpt>
      <trkpt lat="45.58112" lon="6.67319">
        <ele>1323.5999755859</ele>
        <time>2013-04-14T08:27:30Z</time>
      </trkpt>
      <trkpt lat="45.58111" lon="6.67319">
        <ele>1323.4000244141</ele>
        <time>2013-04-14T08:27:31Z</time>
      </trkpt>
      <trkpt lat="45.58109" lon="6.67318">
        <ele>1323</ele>
        <time>2013-04-14T08:27:33Z</time>
      </trkpt>
      <trkpt lat="45.58108" lon="6.67317">
        <ele>1322.8000488281</ele>
        <time>2013-04-14T08:27:34Z</time>
      </trkpt>
      <trkpt lat="45.58105" lon="6.67314">
        <ele>1322</ele>
        <time>2013-04-14T08:27:37Z</time>
      </trkpt>
      <trkpt lat="45.58103" lon="6.67313">
        <ele>1321.8000488281</ele>
        <time>2013-04-14T08:27:38Z</time>
      </trkpt>
      <trkpt lat="45.58101" lon="6.67311">
        <ele>1321.4000244141</ele>
        <time>2013-04-14T08:27:40Z</time>
      </trkpt>
      <trkpt lat="45.58099" lon="6.67309">
        <ele>1321</ele>
        <time>2013-04-14T08:27:42Z</time>
      </trkpt>
      <trkpt lat="45.58097" lon="6.67307">
        <ele>1320.8000488281</ele>
        <time>2013-04-14T08:27:44Z</time>
      </trkpt>
      <trkpt lat="45.58096" lon="6.67306">
        <ele>1320.5999755859</ele>
        <time>2013-04-14T08:27:45Z</time>
      </trkpt>
      <trkpt lat="45.58089" lon="6.673">
        <ele>1319.4000244141</ele>
        <time>2013-04-14T08:27:52Z</time>
      </trkpt>
      <trkpt lat="45.58087" lon="6.67299">
        <ele>1318.8000488281</ele>
        <time>2013-04-14T08:27:54Z</time>
      </trkpt>
      <trkpt lat="45.58082" lon="6.67295">
        <ele>1318</ele>
        <time>2013-04-14T08:27:59Z</time>
      </trkpt>
      <trkpt lat="45.58074" lon="6.6729">
        <ele>1316.5999755859</ele>
        <time>2013-04-14T08:28:07Z</time>
      </trkpt>
      <trkpt lat="45.58066" lon="6.6728">
        <ele>1316</ele>
        <time>2013-04-14T08:28:16Z</time>
      </trkpt>
      <trkpt lat="45.58061" lon="6.6727">
        <ele>1316.4000244141</ele>
        <time>2013-04-14T08:28:25Z</time>
      </trkpt>
      <trkpt lat="45.58062" lon="6.67253">
        <ele>1319.5999755859</ele>
        <time>2013-04-14T08:28:30Z</time>
      </trkpt>
      <trkpt lat="45.58064" lon="6.67227">
        <ele>1321.4000244141</ele>
        <time>2013-04-14T08:28:37Z</time>
      </trkpt>
      <trkpt lat="45.58063" lon="6.67208">
        <ele>1322</ele>
        <time>2013-04-14T08:28:42Z</time>
      </trkpt>
      <trkpt lat="45.58063" lon="6.67201">
        <ele>1322.1999511719</ele>
        <time>2013-04-14T08:28:44Z</time>
      </trkpt>
      <trkpt lat="45.58063" lon="6.67197">
        <ele>1322.4000244141</ele>
        <time>2013-04-14T08:28:45Z</time>
      </trkpt>
      <trkpt lat="45.58063" lon="6.67193">
        <ele>1322.5999755859</ele>
        <time>2013-04-14T08:28:46Z</time>
      </trkpt>
      <trkpt lat="45.58061" lon="6.67182">
        <ele>1322.8000488281</ele>
        <time>2013-04-14T08:28:49Z</time>
      </trkpt>
      <trkpt lat="45.58062" lon="6.67174">
        <ele>1323.1999511719</ele>
        <time>2013-04-14T08:28:51Z</time>
      </trkpt>
      <trkpt lat="45.5806" lon="6.67168">
        <ele>1323.1999511719</ele>
        <time>2013-04-14T08:28:53Z</time>
      </trkpt>
      <trkpt lat="45.5806" lon="6.67164">
        <ele>1323</ele>
        <time>2013-04-14T08:28:54Z</time>
      </trkpt>
      <trkpt lat="45.5806" lon="6.67157">
        <ele>1322.8000488281</ele>
        <time>2013-04-14T08:28:56Z</time>
      </trkpt>
      <trkpt lat="45.58059" lon="6.67135">
        <ele>1322.4000244141</ele>
        <time>2013-04-14T08:29:02Z</time>
      </trkpt>
      <trkpt lat="45.58058" lon="6.67131">
        <ele>1322.1999511719</ele>
        <time>2013-04-14T08:29:03Z</time>
      </trkpt>
      <trkpt lat="45.58058" lon="6.67127">
        <ele>1322</ele>
        <time>2013-04-14T08:29:04Z</time>
      </trkpt>
      <trkpt lat="45.58056" lon="6.6712">
        <ele>1321.5999755859</ele>
        <time>2013-04-14T08:29:06Z</time>
      </trkpt>
      <trkpt lat="45.58056" lon="6.67117">
        <ele>1321.4000244141</ele>
        <time>2013-04-14T08:29:07Z</time>
      </trkpt>
      <trkpt lat="45.58055" lon="6.67114">
        <ele>1321.1999511719</ele>
        <time>2013-04-14T08:29:08Z</time>
      </trkpt>
      <trkpt lat="45.58053" lon="6.67107">
        <ele>1320.8000488281</ele>
        <time>2013-04-14T08:29:10Z</time>
      </trkpt>
      <trkpt lat="45.58052" lon="6.67104">
        <ele>1320.5999755859</ele>
        <time>2013-04-14T08:29:11Z</time>
      </trkpt>
      <trkpt lat="45.58051" lon="6.671">
        <ele>1320.1999511719</ele>
        <time>2013-04-14T08:29:12Z</time>
      </trkpt>
      <trkpt lat="45.58044" lon="6.67084">
        <ele>1318.8000488281</ele>
        <time>2013-04-14T08:29:17Z</time>
      </trkpt>
      <trkpt lat="45.58043" lon="6.6708">
        <ele>1318</ele>
        <time>2013-04-14T08:29:18Z</time>
      </trkpt>
      <trkpt lat="45.58041" lon="6.67077">
        <ele>1317</ele>
        <time>2013-04-14T08:29:19Z</time>
      </trkpt>
      <trkpt lat="45.58038" lon="6.67071">
        <ele>1315.4000244141</ele>
        <time>2013-04-14T08:29:21Z</time>
      </trkpt>
      <trkpt lat="45.58037" lon="6.67068">
        <ele>1314.5999755859</ele>
        <time>2013-04-14T08:29:22Z</time>
      </trkpt>
      <trkpt lat="45.58035" lon="6.67065">
        <ele>1314</ele>
        <time>2013-04-14T08:29:23Z</time>
      </trkpt>
      <trkpt lat="45.58026" lon="6.6705">
        <ele>1310</ele>
        <time>2013-04-14T08:29:28Z</time>
      </trkpt>
      <trkpt lat="45.58024" lon="6.67048">
        <ele>1309.4000244141</ele>
        <time>2013-04-14T08:29:29Z</time>
      </trkpt>
      <trkpt lat="45.58019" lon="6.67046">
        <ele>1308.4000244141</ele>
        <time>2013-04-14T08:29:31Z</time>
      </trkpt>
      <trkpt lat="45.58017" lon="6.67045">
        <ele>1308</ele>
        <time>2013-04-14T08:29:32Z</time>
      </trkpt>
      <trkpt lat="45.58015" lon="6.67046">
        <ele>1307.8000488281</ele>
        <time>2013-04-14T08:29:33Z</time>
      </trkpt>
      <trkpt lat="45.58007" lon="6.6705">
        <ele>1307.4000244141</ele>
        <time>2013-04-14T08:29:36Z</time>
      </trkpt>
      <trkpt lat="45.58005" lon="6.67051">
        <ele>1307.1999511719</ele>
        <time>2013-04-14T08:29:37Z</time>
      </trkpt>
      <trkpt lat="45.58003" lon="6.67052">
        <ele>1307.1999511719</ele>
        <time>2013-04-14T08:29:38Z</time>
      </trkpt>
      <trkpt lat="45.57999" lon="6.67054">
        <ele>1307</ele>
        <time>2013-04-14T08:29:40Z</time>
      </trkpt>
      <trkpt lat="45.57997" lon="6.67055">
        <ele>1306.8000488281</ele>
        <time>2013-04-14T08:29:41Z</time>
      </trkpt>
      <trkpt lat="45.57995" lon="6.67057">
        <ele>1306.5999755859</ele>
        <time>2013-04-14T08:29:42Z</time>
      </trkpt>
      <trkpt lat="45.57991" lon="6.6706">
        <ele>1306.1999511719</ele>
        <time>2013-04-14T08:29:44Z</time>
      </trkpt>
      <trkpt lat="45.57989" lon="6.6706">
        <ele>1305.8000488281</ele>
        <time>2013-04-14T08:29:45Z</time>
      </trkpt>
      <trkpt lat="45.57986" lon="6.67057">
        <ele>1305</ele>
        <time>2013-04-14T08:29:46Z</time>
      </trkpt>
      <trkpt lat="45.57985" lon="6.6705">
        <ele>1304</ele>
        <time>2013-04-14T08:29:48Z</time>
      </trkpt>
      <trkpt lat="45.57985" lon="6.67046">
        <ele>1303.4000244141</ele>
        <time>2013-04-14T08:29:49Z</time>
      </trkpt>
      <trkpt lat="45.57987" lon="6.67032">
        <ele>1302</ele>
        <time>2013-04-14T08:29:53Z</time>
      </trkpt>
      <trkpt lat="45.57995" lon="6.67003">
        <ele>1299.5999755859</ele>
        <time>2013-04-14T08:30:01Z</time>
      </trkpt>
      <trkpt lat="45.57999" lon="6.67">
        <ele>1299.8000488281</ele>
        <time>2013-04-14T08:30:03Z</time>
      </trkpt>
      <trkpt lat="45.5802" lon="6.66999">
        <ele>1300.8000488281</ele>
        <time>2013-04-14T08:30:12Z</time>
      </trkpt>
      <trkpt lat="45.58022" lon="6.66999">
        <ele>1301</ele>
        <time>2013-04-14T08:30:13Z</time>
      </trkpt>
      <trkpt lat="45.58024" lon="6.66999">
        <ele>1301.1999511719</ele>
        <time>2013-04-14T08:30:14Z</time>
      </trkpt>
      <trkpt lat="45.58031" lon="6.67">
        <ele>1301.8000488281</ele>
        <time>2013-04-14T08:30:17Z</time>
      </trkpt>
      <trkpt lat="45.58034" lon="6.67">
        <ele>1302</ele>
        <time>2013-04-14T08:30:18Z</time>
      </trkpt>
      <trkpt lat="45.58036" lon="6.67">
        <ele>1302</ele>
        <time>2013-04-14T08:30:19Z</time>
      </trkpt>
      <trkpt lat="45.58041" lon="6.66999">
        <ele>1302.1999511719</ele>
        <time>2013-04-14T08:30:21Z</time>
      </trkpt>
      <trkpt lat="45.58044" lon="6.66999">
        <ele>1302.1999511719</ele>
        <time>2013-04-14T08:30:22Z</time>
      </trkpt>
      <trkpt lat="45.58054" lon="6.66996">
        <ele>1302.1999511719</ele>
        <time>2013-04-14T08:30:26Z</time>
      </trkpt>
      <trkpt lat="45.58058" lon="6.66995">
        <ele>1302</ele>
        <time>2013-04-14T08:30:28Z</time>
      </trkpt>
      <trkpt lat="45.5806" lon="6.66993">
        <ele>1301.8000488281</ele>
        <time>2013-04-14T08:30:29Z</time>
      </trkpt>
      <trkpt lat="45.58063" lon="6.66992">
        <ele>1301.5999755859</ele>
        <time>2013-04-14T08:30:30Z</time>
      </trkpt>
      <trkpt lat="45.58067" lon="6.66989">
        <ele>1301.1999511719</ele>
        <time>2013-04-14T08:30:32Z</time>
      </trkpt>
      <trkpt lat="45.58069" lon="6.66988">
        <ele>1301</ele>
        <time>2013-04-14T08:30:33Z</time>
      </trkpt>
      <trkpt lat="45.58074" lon="6.66985">
        <ele>1300.5999755859</ele>
        <time>2013-04-14T08:30:35Z</time>
      </trkpt>
      <trkpt lat="45.58078" lon="6.6698">
        <ele>1299.8000488281</ele>
        <time>2013-04-14T08:30:37Z</time>
      </trkpt>
      <trkpt lat="45.5808" lon="6.66978">
        <ele>1299.4000244141</ele>
        <time>2013-04-14T08:30:38Z</time>
      </trkpt>
      <trkpt lat="45.58082" lon="6.66976">
        <ele>1299</ele>
        <time>2013-04-14T08:30:39Z</time>
      </trkpt>
      <trkpt lat="45.58087" lon="6.66966">
        <ele>1297.8000488281</ele>
        <time>2013-04-14T08:30:43Z</time>
      </trkpt>
      <trkpt lat="45.5809" lon="6.6696">
        <ele>1297.1999511719</ele>
        <time>2013-04-14T08:30:45Z</time>
      </trkpt>
      <trkpt lat="45.58093" lon="6.66954">
        <ele>1296.5999755859</ele>
        <time>2013-04-14T08:30:48Z</time>
      </trkpt>
      <trkpt lat="45.58099" lon="6.6694">
        <ele>1294.8000488281</ele>
        <time>2013-04-14T08:31:04Z</time>
      </trkpt>
      <trkpt lat="45.581" lon="6.66938">
        <ele>1294.5999755859</ele>
        <time>2013-04-14T08:31:05Z</time>
      </trkpt>
      <trkpt lat="45.58102" lon="6.66921">
        <ele>1291.4000244141</ele>
        <time>2013-04-14T08:31:11Z</time>
      </trkpt>
      <trkpt lat="45.58102" lon="6.66918">
        <ele>1290.8000488281</ele>
        <time>2013-04-14T08:31:12Z</time>
      </trkpt>
      <trkpt lat="45.58102" lon="6.66917">
        <ele>1290.4000244141</ele>
        <time>2013-04-14T08:31:13Z</time>
      </trkpt>
      <trkpt lat="45.58102" lon="6.66913">
        <ele>1290</ele>
        <time>2013-04-14T08:31:15Z</time>
      </trkpt>
      <trkpt lat="45.58102" lon="6.66912">
        <ele>1289.8000488281</ele>
        <time>2013-04-14T08:31:16Z</time>
      </trkpt>
      <trkpt lat="45.58102" lon="6.66913">
        <ele>1290</ele>
        <time>2013-04-14T08:31:22Z</time>
      </trkpt>
      <trkpt lat="45.58098" lon="6.66916">
        <ele>1289</ele>
        <time>2013-04-14T08:31:39Z</time>
      </trkpt>
      <trkpt lat="45.58089" lon="6.66923">
        <ele>1288.1999511719</ele>
        <time>2013-04-14T08:31:43Z</time>
      </trkpt>
      <trkpt lat="45.58088" lon="6.66925">
        <ele>1288.4000244141</ele>
        <time>2013-04-14T08:31:44Z</time>
      </trkpt>
      <trkpt lat="45.58085" lon="6.66931">
        <ele>1288.5999755859</ele>
        <time>2013-04-14T08:31:46Z</time>
      </trkpt>
      <trkpt lat="45.58083" lon="6.66933">
        <ele>1288.8000488281</ele>
        <time>2013-04-14T08:31:47Z</time>
      </trkpt>
      <trkpt lat="45.58081" lon="6.66936">
        <ele>1289.4000244141</ele>
        <time>2013-04-14T08:31:48Z</time>
      </trkpt>
      <trkpt lat="45.58071" lon="6.66944">
        <ele>1290.1999511719</ele>
        <time>2013-04-14T08:31:53Z</time>
      </trkpt>
      <trkpt lat="45.58066" lon="6.66946">
        <ele>1290</ele>
        <time>2013-04-14T08:31:55Z</time>
      </trkpt>
      <trkpt lat="45.58063" lon="6.66947">
        <ele>1290</ele>
        <time>2013-04-14T08:31:56Z</time>
      </trkpt>
      <trkpt lat="45.58055" lon="6.66948">
        <ele>1289.5999755859</ele>
        <time>2013-04-14T08:31:59Z</time>
      </trkpt>
      <trkpt lat="45.58052" lon="6.66948">
        <ele>1289.4000244141</ele>
        <time>2013-04-14T08:32:00Z</time>
      </trkpt>
      <trkpt lat="45.58038" lon="6.66949">
        <ele>1288.1999511719</ele>
        <time>2013-04-14T08:32:05Z</time>
      </trkpt>
      <trkpt lat="45.58035" lon="6.66948">
        <ele>1287.5999755859</ele>
        <time>2013-04-14T08:32:06Z</time>
      </trkpt>
      <trkpt lat="45.58032" lon="6.66947">
        <ele>1287</ele>
        <time>2013-04-14T08:32:07Z</time>
      </trkpt>
      <trkpt lat="45.58015" lon="6.66942">
        <ele>1284.1999511719</ele>
        <time>2013-04-14T08:32:13Z</time>
      </trkpt>
      <trkpt lat="45.58013" lon="6.66942">
        <ele>1283.5999755859</ele>
        <time>2013-04-14T08:32:14Z</time>
      </trkpt>
      <trkpt lat="45.5801" lon="6.66941">
        <ele>1283.1999511719</ele>
        <time>2013-04-14T08:32:15Z</time>
      </trkpt>
      <trkpt lat="45.58005" lon="6.66939">
        <ele>1282.1999511719</ele>
        <time>2013-04-14T08:32:17Z</time>
      </trkpt>
      <trkpt lat="45.58003" lon="6.66938">
        <ele>1281.4000244141</ele>
        <time>2013-04-14T08:32:18Z</time>
      </trkpt>
      <trkpt lat="45.57997" lon="6.66936">
        <ele>1280.1999511719</ele>
        <time>2013-04-14T08:32:20Z</time>
      </trkpt>
      <trkpt lat="45.57978" lon="6.66929">
        <ele>1276</ele>
        <time>2013-04-14T08:32:27Z</time>
      </trkpt>
      <trkpt lat="45.57976" lon="6.66929">
        <ele>1275.5999755859</ele>
        <time>2013-04-14T08:32:28Z</time>
      </trkpt>
      <trkpt lat="45.57973" lon="6.66928">
        <ele>1275</ele>
        <time>2013-04-14T08:32:29Z</time>
      </trkpt>
      <trkpt lat="45.57968" lon="6.66927">
        <ele>1274</ele>
        <time>2013-04-14T08:32:31Z</time>
      </trkpt>
      <trkpt lat="45.57963" lon="6.66925">
        <ele>1273</ele>
        <time>2013-04-14T08:32:33Z</time>
      </trkpt>
      <trkpt lat="45.57949" lon="6.66928">
        <ele>1272.1999511719</ele>
        <time>2013-04-14T08:32:38Z</time>
      </trkpt>
      <trkpt lat="45.57934" lon="6.66936">
        <ele>1272.4000244141</ele>
        <time>2013-04-14T08:32:44Z</time>
      </trkpt>
      <trkpt lat="45.57931" lon="6.66938">
        <ele>1272.5999755859</ele>
        <time>2013-04-14T08:32:45Z</time>
      </trkpt>
      <trkpt lat="45.57924" lon="6.66942">
        <ele>1272.5999755859</ele>
        <time>2013-04-14T08:32:48Z</time>
      </trkpt>
      <trkpt lat="45.57921" lon="6.66943">
        <ele>1272.5999755859</ele>
        <time>2013-04-14T08:32:49Z</time>
      </trkpt>
      <trkpt lat="45.57918" lon="6.66944">
        <ele>1272.5999755859</ele>
        <time>2013-04-14T08:32:50Z</time>
      </trkpt>
      <trkpt lat="45.57904" lon="6.66956">
        <ele>1271.4000244141</ele>
        <time>2013-04-14T08:32:56Z</time>
      </trkpt>
      <trkpt lat="45.57902" lon="6.6696">
        <ele>1271.5999755859</ele>
        <time>2013-04-14T08:32:57Z</time>
      </trkpt>
      <trkpt lat="45.57901" lon="6.66962">
        <ele>1271.5999755859</ele>
        <time>2013-04-14T08:32:58Z</time>
      </trkpt>
      <trkpt lat="45.57896" lon="6.66969">
        <ele>1272</ele>
        <time>2013-04-14T08:33:00Z</time>
      </trkpt>
      <trkpt lat="45.57894" lon="6.66972">
        <ele>1272.1999511719</ele>
        <time>2013-04-14T08:33:01Z</time>
      </trkpt>
      <trkpt lat="45.57891" lon="6.66979">
        <ele>1272.4000244141</ele>
        <time>2013-04-14T08:33:03Z</time>
      </trkpt>
      <trkpt lat="45.57886" lon="6.66985">
        <ele>1272.4000244141</ele>
        <time>2013-04-14T08:33:05Z</time>
      </trkpt>
      <trkpt lat="45.57884" lon="6.66988">
        <ele>1272.1999511719</ele>
        <time>2013-04-14T08:33:06Z</time>
      </trkpt>
      <trkpt lat="45.57881" lon="6.6699">
        <ele>1271.8000488281</ele>
        <time>2013-04-14T08:33:07Z</time>
      </trkpt>
      <trkpt lat="45.57877" lon="6.66996">
        <ele>1271.5999755859</ele>
        <time>2013-04-14T08:33:09Z</time>
      </trkpt>
      <trkpt lat="45.57875" lon="6.66998">
        <ele>1271.1999511719</ele>
        <time>2013-04-14T08:33:10Z</time>
      </trkpt>
      <trkpt lat="45.57872" lon="6.67">
        <ele>1270.8000488281</ele>
        <time>2013-04-14T08:33:11Z</time>
      </trkpt>
      <trkpt lat="45.57868" lon="6.67006">
        <ele>1269.8000488281</ele>
        <time>2013-04-14T08:33:13Z</time>
      </trkpt>
      <trkpt lat="45.57866" lon="6.67009">
        <ele>1269.4000244141</ele>
        <time>2013-04-14T08:33:14Z</time>
      </trkpt>
      <trkpt lat="45.57864" lon="6.67011">
        <ele>1269</ele>
        <time>2013-04-14T08:33:15Z</time>
      </trkpt>
      <trkpt lat="45.57858" lon="6.67019">
        <ele>1267.5999755859</ele>
        <time>2013-04-14T08:33:18Z</time>
      </trkpt>
      <trkpt lat="45.57855" lon="6.67025">
        <ele>1266.8000488281</ele>
        <time>2013-04-14T08:33:20Z</time>
      </trkpt>
      <trkpt lat="45.57851" lon="6.67032">
        <ele>1266.4000244141</ele>
        <time>2013-04-14T08:33:22Z</time>
      </trkpt>
      <trkpt lat="45.57848" lon="6.67039">
        <ele>1265.8000488281</ele>
        <time>2013-04-14T08:33:24Z</time>
      </trkpt>
      <trkpt lat="45.57847" lon="6.67042">
        <ele>1265.8000488281</ele>
        <time>2013-04-14T08:33:25Z</time>
      </trkpt>
      <trkpt lat="45.57845" lon="6.6705">
        <ele>1266</ele>
        <time>2013-04-14T08:33:27Z</time>
      </trkpt>
      <trkpt lat="45.57844" lon="6.67053">
        <ele>1266</ele>
        <time>2013-04-14T08:33:28Z</time>
      </trkpt>
      <trkpt lat="45.5784" lon="6.67066">
        <ele>1266.1999511719</ele>
        <time>2013-04-14T08:33:31Z</time>
      </trkpt>
      <trkpt lat="45.57838" lon="6.67073">
        <ele>1266.4000244141</ele>
        <time>2013-04-14T08:33:33Z</time>
      </trkpt>
      <trkpt lat="45.57837" lon="6.67077">
        <ele>1266.1999511719</ele>
        <time>2013-04-14T08:33:34Z</time>
      </trkpt>
      <trkpt lat="45.57835" lon="6.6708">
        <ele>1266.1999511719</ele>
        <time>2013-04-14T08:33:35Z</time>
      </trkpt>
      <trkpt lat="45.57833" lon="6.67086">
        <ele>1265.5999755859</ele>
        <time>2013-04-14T08:33:37Z</time>
      </trkpt>
      <trkpt lat="45.57833" lon="6.67086">
        <ele>1265.5999755859</ele>
        <time>2013-04-14T08:33:39Z</time>
      </trkpt>
      <trkpt lat="45.57833" lon="6.67086">
        <ele>1265.5999755859</ele>
        <time>2013-04-14T08:33:40Z</time>
      </trkpt>
      <trkpt lat="45.57832" lon="6.67086">
        <ele>1265.4000244141</ele>
        <time>2013-04-14T08:33:42Z</time>
      </trkpt>
      <trkpt lat="45.57832" lon="6.67086">
        <ele>1265.4000244141</ele>
        <time>2013-04-14T08:33:43Z</time>
      </trkpt>
      <trkpt lat="45.57832" lon="6.67086">
        <ele>1265.4000244141</ele>
        <time>2013-04-14T08:33:44Z</time>
      </trkpt>
      <trkpt lat="45.57824" lon="6.67105">
        <ele>1261.4000244141</ele>
        <time>2013-04-14T08:33:58Z</time>
      </trkpt>
      <trkpt lat="45.57821" lon="6.67111">
        <ele>1259.8000488281</ele>
        <time>2013-04-14T08:34:00Z</time>
      </trkpt>
      <trkpt lat="45.57819" lon="6.67114">
        <ele>1259</ele>
        <time>2013-04-14T08:34:01Z</time>
      </trkpt>
      <trkpt lat="45.57814" lon="6.67119">
        <ele>1256.8000488281</ele>
        <time>2013-04-14T08:34:04Z</time>
      </trkpt>
      <trkpt lat="45.57812" lon="6.67121">
        <ele>1256</ele>
        <time>2013-04-14T08:34:05Z</time>
      </trkpt>
      <trkpt lat="45.57809" lon="6.67127">
        <ele>1254.5999755859</ele>
        <time>2013-04-14T08:34:07Z</time>
      </trkpt>
      <trkpt lat="45.57807" lon="6.6713">
        <ele>1253.8000488281</ele>
        <time>2013-04-14T08:34:08Z</time>
      </trkpt>
      <trkpt lat="45.57805" lon="6.67134">
        <ele>1252.8000488281</ele>
        <time>2013-04-14T08:34:09Z</time>
      </trkpt>
      <trkpt lat="45.57802" lon="6.67142">
        <ele>1251.1999511719</ele>
        <time>2013-04-14T08:34:11Z</time>
      </trkpt>
      <trkpt lat="45.57801" lon="6.67145">
        <ele>1250.5999755859</ele>
        <time>2013-04-14T08:34:12Z</time>
      </trkpt>
      <trkpt lat="45.57799" lon="6.67148">
        <ele>1250</ele>
        <time>2013-04-14T08:34:13Z</time>
      </trkpt>
      <trkpt lat="45.57797" lon="6.67156">
        <ele>1249</ele>
        <time>2013-04-14T08:34:15Z</time>
      </trkpt>
      <trkpt lat="45.57796" lon="6.67161">
        <ele>1248.4000244141</ele>
        <time>2013-04-14T08:34:16Z</time>
      </trkpt>
      <trkpt lat="45.57797" lon="6.67164">
        <ele>1248.4000244141</ele>
        <time>2013-04-14T08:34:17Z</time>
      </trkpt>
      <trkpt lat="45.57796" lon="6.67171">
        <ele>1247.8000488281</ele>
        <time>2013-04-14T08:34:19Z</time>
      </trkpt>
      <trkpt lat="45.57797" lon="6.67175">
        <ele>1247.5999755859</ele>
        <time>2013-04-14T08:34:20Z</time>
      </trkpt>
      <trkpt lat="45.57797" lon="6.67178">
        <ele>1247.4000244141</ele>
        <time>2013-04-14T08:34:21Z</time>
      </trkpt>
      <trkpt lat="45.57798" lon="6.67185">
        <ele>1247</ele>
        <time>2013-04-14T08:34:23Z</time>
      </trkpt>
      <trkpt lat="45.57797" lon="6.67188">
        <ele>1246.5999755859</ele>
        <time>2013-04-14T08:34:24Z</time>
      </trkpt>
      <trkpt lat="45.57797" lon="6.6719">
        <ele>1246.4000244141</ele>
        <time>2013-04-14T08:34:25Z</time>
      </trkpt>
      <trkpt lat="45.57798" lon="6.67198">
        <ele>1246</ele>
        <time>2013-04-14T08:34:27Z</time>
      </trkpt>
      <trkpt lat="45.57798" lon="6.672">
        <ele>1245.8000488281</ele>
        <time>2013-04-14T08:34:28Z</time>
      </trkpt>
      <trkpt lat="45.57797" lon="6.67215">
        <ele>1244.1999511719</ele>
        <time>2013-04-14T08:34:32Z</time>
      </trkpt>
      <trkpt lat="45.57797" lon="6.67217">
        <ele>1244</ele>
        <time>2013-04-14T08:34:33Z</time>
      </trkpt>
      <trkpt lat="45.57797" lon="6.6722">
        <ele>1243.8000488281</ele>
        <time>2013-04-14T08:34:34Z</time>
      </trkpt>
      <trkpt lat="45.57799" lon="6.67229">
        <ele>1243.5999755859</ele>
        <time>2013-04-14T08:34:37Z</time>
      </trkpt>
      <trkpt lat="45.57799" lon="6.67231">
        <ele>1243.5999755859</ele>
        <time>2013-04-14T08:34:38Z</time>
      </trkpt>
      <trkpt lat="45.57798" lon="6.67235">
        <ele>1243</ele>
        <time>2013-04-14T08:34:39Z</time>
      </trkpt>
      <trkpt lat="45.57797" lon="6.67238">
        <ele>1242.1999511719</ele>
        <time>2013-04-14T08:34:41Z</time>
      </trkpt>
      <trkpt lat="45.57796" lon="6.67238">
        <ele>1241.8000488281</ele>
        <time>2013-04-14T08:34:42Z</time>
      </trkpt>
      <trkpt lat="45.57795" lon="6.6724">
        <ele>1241.1999511719</ele>
        <time>2013-04-14T08:34:43Z</time>
      </trkpt>
      <trkpt lat="45.57792" lon="6.67241">
        <ele>1240.4000244141</ele>
        <time>2013-04-14T08:34:45Z</time>
      </trkpt>
      <trkpt lat="45.57791" lon="6.67243">
        <ele>1239.8000488281</ele>
        <time>2013-04-14T08:34:46Z</time>
      </trkpt>
      <trkpt lat="45.5779" lon="6.67245">
        <ele>1239.4000244141</ele>
        <time>2013-04-14T08:34:47Z</time>
      </trkpt>
      <trkpt lat="45.57787" lon="6.67247">
        <ele>1238</ele>
        <time>2013-04-14T08:34:49Z</time>
      </trkpt>
      <trkpt lat="45.57785" lon="6.67247">
        <ele>1237.4000244141</ele>
        <time>2013-04-14T08:34:50Z</time>
      </trkpt>
      <trkpt lat="45.57783" lon="6.67249">
        <ele>1236.8000488281</ele>
        <time>2013-04-14T08:34:51Z</time>
      </trkpt>
      <trkpt lat="45.57781" lon="6.67252">
        <ele>1236</ele>
        <time>2013-04-14T08:34:53Z</time>
      </trkpt>
      <trkpt lat="45.5778" lon="6.67254">
        <ele>1235.8000488281</ele>
        <time>2013-04-14T08:34:54Z</time>
      </trkpt>
      <trkpt lat="45.57779" lon="6.67257">
        <ele>1235.5999755859</ele>
        <time>2013-04-14T08:34:55Z</time>
      </trkpt>
      <trkpt lat="45.57777" lon="6.67258">
        <ele>1234.8000488281</ele>
        <time>2013-04-14T08:34:57Z</time>
      </trkpt>
      <trkpt lat="45.57773" lon="6.67258">
        <ele>1233.5999755859</ele>
        <time>2013-04-14T08:34:59Z</time>
      </trkpt>
      <trkpt lat="45.5777" lon="6.67263">
        <ele>1232.8000488281</ele>
        <time>2013-04-14T08:35:01Z</time>
      </trkpt>
      <trkpt lat="45.57768" lon="6.67269">
        <ele>1232.5999755859</ele>
        <time>2013-04-14T08:35:03Z</time>
      </trkpt>
      <trkpt lat="45.57767" lon="6.67273">
        <ele>1232.5999755859</ele>
        <time>2013-04-14T08:35:04Z</time>
      </trkpt>
      <trkpt lat="45.57765" lon="6.67278">
        <ele>1232</ele>
        <time>2013-04-14T08:35:06Z</time>
      </trkpt>
      <trkpt lat="45.57764" lon="6.6728">
        <ele>1231.8000488281</ele>
        <time>2013-04-14T08:35:07Z</time>
      </trkpt>
      <trkpt lat="45.57763" lon="6.67283">
        <ele>1231.8000488281</ele>
        <time>2013-04-14T08:35:08Z</time>
      </trkpt>
      <trkpt lat="45.57759" lon="6.67292">
        <ele>1231.4000244141</ele>
        <time>2013-04-14T08:35:11Z</time>
      </trkpt>
      <trkpt lat="45.57752" lon="6.67306">
        <ele>1230.4000244141</ele>
        <time>2013-04-14T08:35:16Z</time>
      </trkpt>
      <trkpt lat="45.57745" lon="6.6732">
        <ele>1229.5999755859</ele>
        <time>2013-04-14T08:35:20Z</time>
      </trkpt>
      <trkpt lat="45.5774" lon="6.67324">
        <ele>1228.5999755859</ele>
        <time>2013-04-14T08:35:22Z</time>
      </trkpt>
      <trkpt lat="45.57738" lon="6.67326">
        <ele>1228.1999511719</ele>
        <time>2013-04-14T08:35:23Z</time>
      </trkpt>
      <trkpt lat="45.57735" lon="6.67329">
        <ele>1227.5999755859</ele>
        <time>2013-04-14T08:35:24Z</time>
      </trkpt>
      <trkpt lat="45.5773" lon="6.67333">
        <ele>1226.5999755859</ele>
        <time>2013-04-14T08:35:26Z</time>
      </trkpt>
      <trkpt lat="45.57726" lon="6.67336">
        <ele>1225.8000488281</ele>
        <time>2013-04-14T08:35:27Z</time>
      </trkpt>
      <trkpt lat="45.57724" lon="6.67338">
        <ele>1225.1999511719</ele>
        <time>2013-04-14T08:35:28Z</time>
      </trkpt>
      <trkpt lat="45.57718" lon="6.67344">
        <ele>1224.1999511719</ele>
        <time>2013-04-14T08:35:30Z</time>
      </trkpt>
      <trkpt lat="45.57716" lon="6.67348">
        <ele>1223.8000488281</ele>
        <time>2013-04-14T08:35:31Z</time>
      </trkpt>
      <trkpt lat="45.57714" lon="6.67349">
        <ele>1223.4000244141</ele>
        <time>2013-04-14T08:35:32Z</time>
      </trkpt>
      <trkpt lat="45.57707" lon="6.67355">
        <ele>1221.8000488281</ele>
        <time>2013-04-14T08:35:35Z</time>
      </trkpt>
      <trkpt lat="45.57705" lon="6.67358">
        <ele>1221.1999511719</ele>
        <time>2013-04-14T08:35:36Z</time>
      </trkpt>
      <trkpt lat="45.577" lon="6.67364">
        <ele>1220.1999511719</ele>
        <time>2013-04-14T08:35:38Z</time>
      </trkpt>
      <trkpt lat="45.57697" lon="6.67368">
        <ele>1219.5999755859</ele>
        <time>2013-04-14T08:35:39Z</time>
      </trkpt>
      <trkpt lat="45.57695" lon="6.67372">
        <ele>1219.1999511719</ele>
        <time>2013-04-14T08:35:40Z</time>
      </trkpt>
      <trkpt lat="45.57691" lon="6.67378">
        <ele>1218.1999511719</ele>
        <time>2013-04-14T08:35:42Z</time>
      </trkpt>
      <trkpt lat="45.57689" lon="6.67381">
        <ele>1217.8000488281</ele>
        <time>2013-04-14T08:35:43Z</time>
      </trkpt>
      <trkpt lat="45.57687" lon="6.67384">
        <ele>1217.1999511719</ele>
        <time>2013-04-14T08:35:44Z</time>
      </trkpt>
      <trkpt lat="45.57683" lon="6.67391">
        <ele>1216.1999511719</ele>
        <time>2013-04-14T08:35:46Z</time>
      </trkpt>
      <trkpt lat="45.5768" lon="6.67395">
        <ele>1215.5999755859</ele>
        <time>2013-04-14T08:35:47Z</time>
      </trkpt>
      <trkpt lat="45.57678" lon="6.67399">
        <ele>1215.1999511719</ele>
        <time>2013-04-14T08:35:48Z</time>
      </trkpt>
      <trkpt lat="45.57675" lon="6.67406">
        <ele>1214.4000244141</ele>
        <time>2013-04-14T08:35:50Z</time>
      </trkpt>
      <trkpt lat="45.57674" lon="6.6741">
        <ele>1214</ele>
        <time>2013-04-14T08:35:51Z</time>
      </trkpt>
      <trkpt lat="45.57673" lon="6.67414">
        <ele>1213.8000488281</ele>
        <time>2013-04-14T08:35:52Z</time>
      </trkpt>
      <trkpt lat="45.5767" lon="6.6742">
        <ele>1212.8000488281</ele>
        <time>2013-04-14T08:35:54Z</time>
      </trkpt>
      <trkpt lat="45.57669" lon="6.67422">
        <ele>1212.4000244141</ele>
        <time>2013-04-14T08:35:55Z</time>
      </trkpt>
      <trkpt lat="45.57666" lon="6.67428">
        <ele>1211.1999511719</ele>
        <time>2013-04-14T08:35:57Z</time>
      </trkpt>
      <trkpt lat="45.57655" lon="6.67429">
        <ele>1209</ele>
        <time>2013-04-14T08:36:01Z</time>
      </trkpt>
      <trkpt lat="45.57653" lon="6.67429">
        <ele>1208.5999755859</ele>
        <time>2013-04-14T08:36:02Z</time>
      </trkpt>
      <trkpt lat="45.57646" lon="6.67425">
        <ele>1207.4000244141</ele>
        <time>2013-04-14T08:36:05Z</time>
      </trkpt>
      <trkpt lat="45.57643" lon="6.67423">
        <ele>1206.8000488281</ele>
        <time>2013-04-14T08:36:06Z</time>
      </trkpt>
      <trkpt lat="45.5764" lon="6.67422">
        <ele>1206.1999511719</ele>
        <time>2013-04-14T08:36:07Z</time>
      </trkpt>
      <trkpt lat="45.57635" lon="6.67421">
        <ele>1205.1999511719</ele>
        <time>2013-04-14T08:36:09Z</time>
      </trkpt>
      <trkpt lat="45.57633" lon="6.6742">
        <ele>1204.8000488281</ele>
        <time>2013-04-14T08:36:10Z</time>
      </trkpt>
      <trkpt lat="45.57631" lon="6.67419">
        <ele>1204.4000244141</ele>
        <time>2013-04-14T08:36:11Z</time>
      </trkpt>
      <trkpt lat="45.57626" lon="6.67418">
        <ele>1203.5999755859</ele>
        <time>2013-04-14T08:36:13Z</time>
      </trkpt>
      <trkpt lat="45.57624" lon="6.67417">
        <ele>1203</ele>
        <time>2013-04-14T08:36:14Z</time>
      </trkpt>
      <trkpt lat="45.5762" lon="6.67417">
        <ele>1202.4000244141</ele>
        <time>2013-04-14T08:36:15Z</time>
      </trkpt>
      <trkpt lat="45.57615" lon="6.67418">
        <ele>1201.4000244141</ele>
        <time>2013-04-14T08:36:17Z</time>
      </trkpt>
      <trkpt lat="45.57612" lon="6.67418">
        <ele>1200.8000488281</ele>
        <time>2013-04-14T08:36:18Z</time>
      </trkpt>
      <trkpt lat="45.57609" lon="6.67417">
        <ele>1200.1999511719</ele>
        <time>2013-04-14T08:36:19Z</time>
      </trkpt>
      <trkpt lat="45.57604" lon="6.67418">
        <ele>1199</ele>
        <time>2013-04-14T08:36:21Z</time>
      </trkpt>
      <trkpt lat="45.57601" lon="6.67419">
        <ele>1198.4000244141</ele>
        <time>2013-04-14T08:36:22Z</time>
      </trkpt>
      <trkpt lat="45.57599" lon="6.67419">
        <ele>1198</ele>
        <time>2013-04-14T08:36:23Z</time>
      </trkpt>
      <trkpt lat="45.57592" lon="6.6742">
        <ele>1196.5999755859</ele>
        <time>2013-04-14T08:36:25Z</time>
      </trkpt>
      <trkpt lat="45.57589" lon="6.6742">
        <ele>1196</ele>
        <time>2013-04-14T08:36:26Z</time>
      </trkpt>
      <trkpt lat="45.57586" lon="6.67419">
        <ele>1195.4000244141</ele>
        <time>2013-04-14T08:36:27Z</time>
      </trkpt>
      <trkpt lat="45.5758" lon="6.67419">
        <ele>1194.5999755859</ele>
        <time>2013-04-14T08:36:29Z</time>
      </trkpt>
      <trkpt lat="45.57574" lon="6.67417">
        <ele>1193.8000488281</ele>
        <time>2013-04-14T08:36:31Z</time>
      </trkpt>
      <trkpt lat="45.57568" lon="6.67416">
        <ele>1193.1999511719</ele>
        <time>2013-04-14T08:36:33Z</time>
      </trkpt>
      <trkpt lat="45.57565" lon="6.67416">
        <ele>1192.8000488281</ele>
        <time>2013-04-14T08:36:34Z</time>
      </trkpt>
      <trkpt lat="45.57563" lon="6.67417">
        <ele>1192.5999755859</ele>
        <time>2013-04-14T08:36:35Z</time>
      </trkpt>
      <trkpt lat="45.57556" lon="6.67418">
        <ele>1192</ele>
        <time>2013-04-14T08:36:37Z</time>
      </trkpt>
      <trkpt lat="45.57554" lon="6.67418">
        <ele>1191.8000488281</ele>
        <time>2013-04-14T08:36:38Z</time>
      </trkpt>
      <trkpt lat="45.57551" lon="6.67419">
        <ele>1191.4000244141</ele>
        <time>2013-04-14T08:36:39Z</time>
      </trkpt>
      <trkpt lat="45.57545" lon="6.6742">
        <ele>1190.8000488281</ele>
        <time>2013-04-14T08:36:41Z</time>
      </trkpt>
      <trkpt lat="45.57543" lon="6.67421">
        <ele>1190.5999755859</ele>
        <time>2013-04-14T08:36:42Z</time>
      </trkpt>
      <trkpt lat="45.5754" lon="6.67421">
        <ele>1190.4000244141</ele>
        <time>2013-04-14T08:36:43Z</time>
      </trkpt>
      <trkpt lat="45.57535" lon="6.67425">
        <ele>1189.8000488281</ele>
        <time>2013-04-14T08:36:45Z</time>
      </trkpt>
      <trkpt lat="45.57533" lon="6.67427">
        <ele>1189.5999755859</ele>
        <time>2013-04-14T08:36:46Z</time>
      </trkpt>
      <trkpt lat="45.5753" lon="6.67429">
        <ele>1189.4000244141</ele>
        <time>2013-04-14T08:36:47Z</time>
      </trkpt>
      <trkpt lat="45.57525" lon="6.67433">
        <ele>1189</ele>
        <time>2013-04-14T08:36:49Z</time>
      </trkpt>
      <trkpt lat="45.57524" lon="6.67434">
        <ele>1189</ele>
        <time>2013-04-14T08:36:50Z</time>
      </trkpt>
      <trkpt lat="45.57519" lon="6.67439">
        <ele>1188.5999755859</ele>
        <time>2013-04-14T08:36:52Z</time>
      </trkpt>
      <trkpt lat="45.57508" lon="6.67451">
        <ele>1187.8000488281</ele>
        <time>2013-04-14T08:36:58Z</time>
      </trkpt>
      <trkpt lat="45.57505" lon="6.67453">
        <ele>1187.5999755859</ele>
        <time>2013-04-14T08:36:59Z</time>
      </trkpt>
      <trkpt lat="45.57503" lon="6.67455">
        <ele>1187.5999755859</ele>
        <time>2013-04-14T08:37:00Z</time>
      </trkpt>
      <trkpt lat="45.57485" lon="6.6747">
        <ele>1184</ele>
        <time>2013-04-14T08:37:07Z</time>
      </trkpt>
      <trkpt lat="45.57475" lon="6.6749">
        <ele>1182.5999755859</ele>
        <time>2013-04-14T08:37:13Z</time>
      </trkpt>
      <trkpt lat="45.57471" lon="6.67498">
        <ele>1181.8000488281</ele>
        <time>2013-04-14T08:37:15Z</time>
      </trkpt>
      <trkpt lat="45.57469" lon="6.67501">
        <ele>1181.5999755859</ele>
        <time>2013-04-14T08:37:16Z</time>
      </trkpt>
      <trkpt lat="45.57468" lon="6.67504">
        <ele>1181</ele>
        <time>2013-04-14T08:37:17Z</time>
      </trkpt>
      <trkpt lat="45.57464" lon="6.67509">
        <ele>1179.8000488281</ele>
        <time>2013-04-14T08:37:19Z</time>
      </trkpt>
      <trkpt lat="45.57462" lon="6.67513">
        <ele>1179.4000244141</ele>
        <time>2013-04-14T08:37:20Z</time>
      </trkpt>
      <trkpt lat="45.57461" lon="6.67516">
        <ele>1178.8000488281</ele>
        <time>2013-04-14T08:37:21Z</time>
      </trkpt>
      <trkpt lat="45.57457" lon="6.6752">
        <ele>1178</ele>
        <time>2013-04-14T08:37:23Z</time>
      </trkpt>
      <trkpt lat="45.57456" lon="6.67523">
        <ele>1177.5999755859</ele>
        <time>2013-04-14T08:37:24Z</time>
      </trkpt>
      <trkpt lat="45.57452" lon="6.67526">
        <ele>1176.5999755859</ele>
        <time>2013-04-14T08:37:26Z</time>
      </trkpt>
      <trkpt lat="45.57441" lon="6.67513">
        <ele>1174.4000244141</ele>
        <time>2013-04-14T08:37:31Z</time>
      </trkpt>
      <trkpt lat="45.5744" lon="6.6751">
        <ele>1174.1999511719</ele>
        <time>2013-04-14T08:37:32Z</time>
      </trkpt>
      <trkpt lat="45.57439" lon="6.67507">
        <ele>1174.1999511719</ele>
        <time>2013-04-14T08:37:33Z</time>
      </trkpt>
      <trkpt lat="45.57438" lon="6.67498">
        <ele>1174</ele>
        <time>2013-04-14T08:37:35Z</time>
      </trkpt>
      <trkpt lat="45.57437" lon="6.67494">
        <ele>1173.5999755859</ele>
        <time>2013-04-14T08:37:36Z</time>
      </trkpt>
      <trkpt lat="45.57437" lon="6.67478">
        <ele>1172.8000488281</ele>
        <time>2013-04-14T08:37:40Z</time>
      </trkpt>
      <trkpt lat="45.57438" lon="6.6747">
        <ele>1172.5999755859</ele>
        <time>2013-04-14T08:37:42Z</time>
      </trkpt>
      <trkpt lat="45.57438" lon="6.67466">
        <ele>1172.5999755859</ele>
        <time>2013-04-14T08:37:43Z</time>
      </trkpt>
      <trkpt lat="45.5744" lon="6.67455">
        <ele>1172.4000244141</ele>
        <time>2013-04-14T08:37:46Z</time>
      </trkpt>
      <trkpt lat="45.57439" lon="6.67452">
        <ele>1172.1999511719</ele>
        <time>2013-04-14T08:37:47Z</time>
      </trkpt>
      <trkpt lat="45.57437" lon="6.6745">
        <ele>1171.5999755859</ele>
        <time>2013-04-14T08:37:48Z</time>
      </trkpt>
      <trkpt lat="45.57432" lon="6.67451">
        <ele>1170.4000244141</ele>
        <time>2013-04-14T08:37:50Z</time>
      </trkpt>
      <trkpt lat="45.57431" lon="6.67454">
        <ele>1170.1999511719</ele>
        <time>2013-04-14T08:37:51Z</time>
      </trkpt>
      <trkpt lat="45.57429" lon="6.67457">
        <ele>1169.8000488281</ele>
        <time>2013-04-14T08:37:52Z</time>
      </trkpt>
      <trkpt lat="45.57426" lon="6.67464">
        <ele>1169.5999755859</ele>
        <time>2013-04-14T08:37:54Z</time>
      </trkpt>
      <trkpt lat="45.57425" lon="6.67467">
        <ele>1169.4000244141</ele>
        <time>2013-04-14T08:37:55Z</time>
      </trkpt>
      <trkpt lat="45.57424" lon="6.67471">
        <ele>1169.1999511719</ele>
        <time>2013-04-14T08:37:56Z</time>
      </trkpt>
      <trkpt lat="45.57421" lon="6.67478">
        <ele>1169</ele>
        <time>2013-04-14T08:37:58Z</time>
      </trkpt>
      <trkpt lat="45.5742" lon="6.67481">
        <ele>1168.8000488281</ele>
        <time>2013-04-14T08:37:59Z</time>
      </trkpt>
      <trkpt lat="45.57419" lon="6.67485">
        <ele>1168.8000488281</ele>
        <time>2013-04-14T08:38:00Z</time>
      </trkpt>
      <trkpt lat="45.57414" lon="6.67501">
        <ele>1168.4000244141</ele>
        <time>2013-04-14T08:38:05Z</time>
      </trkpt>
      <trkpt lat="45.57413" lon="6.67505">
        <ele>1168.4000244141</ele>
        <time>2013-04-14T08:38:06Z</time>
      </trkpt>
      <trkpt lat="45.57412" lon="6.67523">
        <ele>1168</ele>
        <time>2013-04-14T08:38:11Z</time>
      </trkpt>
      <trkpt lat="45.57416" lon="6.6756">
        <ele>1168.5999755859</ele>
        <time>2013-04-14T08:38:21Z</time>
      </trkpt>
      <trkpt lat="45.57415" lon="6.67564">
        <ele>1168.5999755859</ele>
        <time>2013-04-14T08:38:22Z</time>
      </trkpt>
      <trkpt lat="45.57415" lon="6.67567">
        <ele>1168.4000244141</ele>
        <time>2013-04-14T08:38:23Z</time>
      </trkpt>
      <trkpt lat="45.57413" lon="6.67574">
        <ele>1168</ele>
        <time>2013-04-14T08:38:25Z</time>
      </trkpt>
      <trkpt lat="45.57409" lon="6.67592">
        <ele>1166.1999511719</ele>
        <time>2013-04-14T08:38:30Z</time>
      </trkpt>
      <trkpt lat="45.57407" lon="6.67618">
        <ele>1163.4000244141</ele>
        <time>2013-04-14T08:38:37Z</time>
      </trkpt>
      <trkpt lat="45.57407" lon="6.67622">
        <ele>1163.1999511719</ele>
        <time>2013-04-14T08:38:38Z</time>
      </trkpt>
      <trkpt lat="45.57407" lon="6.67626">
        <ele>1163</ele>
        <time>2013-04-14T08:38:39Z</time>
      </trkpt>
      <trkpt lat="45.57407" lon="6.67634">
        <ele>1162.4000244141</ele>
        <time>2013-04-14T08:38:41Z</time>
      </trkpt>
      <trkpt lat="45.5741" lon="6.67652">
        <ele>1161.8000488281</ele>
        <time>2013-04-14T08:38:46Z</time>
      </trkpt>
      <trkpt lat="45.57412" lon="6.67655">
        <ele>1162.1999511719</ele>
        <time>2013-04-14T08:38:47Z</time>
      </trkpt>
      <trkpt lat="45.57425" lon="6.67678">
        <ele>1162.8000488281</ele>
        <time>2013-04-14T08:38:56Z</time>
      </trkpt>
      <trkpt lat="45.57427" lon="6.6768">
        <ele>1162.8000488281</ele>
        <time>2013-04-14T08:38:57Z</time>
      </trkpt>
      <trkpt lat="45.57428" lon="6.67682">
        <ele>1162.8000488281</ele>
        <time>2013-04-14T08:38:58Z</time>
      </trkpt>
      <trkpt lat="45.57433" lon="6.67688">
        <ele>1162.8000488281</ele>
        <time>2013-04-14T08:39:00Z</time>
      </trkpt>
      <trkpt lat="45.57435" lon="6.6769">
        <ele>1162.8000488281</ele>
        <time>2013-04-14T08:39:01Z</time>
      </trkpt>
      <trkpt lat="45.57437" lon="6.67693">
        <ele>1162.8000488281</ele>
        <time>2013-04-14T08:39:02Z</time>
      </trkpt>
      <trkpt lat="45.57444" lon="6.67707">
        <ele>1162.5999755859</ele>
        <time>2013-04-14T08:39:07Z</time>
      </trkpt>
      <trkpt lat="45.57446" lon="6.6771">
        <ele>1162.4000244141</ele>
        <time>2013-04-14T08:39:08Z</time>
      </trkpt>
      <trkpt lat="45.57447" lon="6.67713">
        <ele>1162.4000244141</ele>
        <time>2013-04-14T08:39:09Z</time>
      </trkpt>
      <trkpt lat="45.57443" lon="6.67715">
        <ele>1161.4000244141</ele>
        <time>2013-04-14T08:39:12Z</time>
      </trkpt>
      <trkpt lat="45.57444" lon="6.67717">
        <ele>1161.1999511719</ele>
        <time>2013-04-14T08:39:14Z</time>
      </trkpt>
      <trkpt lat="45.57443" lon="6.67719">
        <ele>1161</ele>
        <time>2013-04-14T08:39:15Z</time>
      </trkpt>
      <trkpt lat="45.5744" lon="6.6772">
        <ele>1160</ele>
        <time>2013-04-14T08:39:18Z</time>
      </trkpt>
      <trkpt lat="45.57439" lon="6.67719">
        <ele>1159.8000488281</ele>
        <time>2013-04-14T08:39:19Z</time>
      </trkpt>
      <trkpt lat="45.57435" lon="6.67719">
        <ele>1159.1999511719</ele>
        <time>2013-04-14T08:39:21Z</time>
      </trkpt>
      <trkpt lat="45.57433" lon="6.67718">
        <ele>1159</ele>
        <time>2013-04-14T08:39:22Z</time>
      </trkpt>
      <trkpt lat="45.57432" lon="6.67718">
        <ele>1158.8000488281</ele>
        <time>2013-04-14T08:39:23Z</time>
      </trkpt>
      <trkpt lat="45.57429" lon="6.67717">
        <ele>1158.1999511719</ele>
        <time>2013-04-14T08:39:25Z</time>
      </trkpt>
      <trkpt lat="45.57428" lon="6.67718">
        <ele>1157.8000488281</ele>
        <time>2013-04-14T08:39:26Z</time>
      </trkpt>
      <trkpt lat="45.57426" lon="6.67719">
        <ele>1157.1999511719</ele>
        <time>2013-04-14T08:39:27Z</time>
      </trkpt>
      <trkpt lat="45.57422" lon="6.6772">
        <ele>1156.1999511719</ele>
        <time>2013-04-14T08:39:29Z</time>
      </trkpt>
      <trkpt lat="45.57421" lon="6.6772">
        <ele>1156</ele>
        <time>2013-04-14T08:39:30Z</time>
      </trkpt>
      <trkpt lat="45.57419" lon="6.6772">
        <ele>1155.5999755859</ele>
        <time>2013-04-14T08:39:31Z</time>
      </trkpt>
      <trkpt lat="45.57417" lon="6.6772">
        <ele>1155.1999511719</ele>
        <time>2013-04-14T08:39:33Z</time>
      </trkpt>
      <trkpt lat="45.57416" lon="6.67721">
        <ele>1154.8000488281</ele>
        <time>2013-04-14T08:39:34Z</time>
      </trkpt>
      <trkpt lat="45.57415" lon="6.67721">
        <ele>1154.4000244141</ele>
        <time>2013-04-14T08:39:35Z</time>
      </trkpt>
      <trkpt lat="45.57414" lon="6.67723">
        <ele>1154</ele>
        <time>2013-04-14T08:39:37Z</time>
      </trkpt>
      <trkpt lat="45.57413" lon="6.67724">
        <ele>1153.4000244141</ele>
        <time>2013-04-14T08:39:38Z</time>
      </trkpt>
      <trkpt lat="45.57411" lon="6.67726">
        <ele>1152.5999755859</ele>
        <time>2013-04-14T08:39:39Z</time>
      </trkpt>
      <trkpt lat="45.57408" lon="6.67727">
        <ele>1151.5999755859</ele>
        <time>2013-04-14T08:39:41Z</time>
      </trkpt>
      <trkpt lat="45.57406" lon="6.67729">
        <ele>1150.5999755859</ele>
        <time>2013-04-14T08:39:42Z</time>
      </trkpt>
      <trkpt lat="45.57402" lon="6.67733">
        <ele>1148.8000488281</ele>
        <time>2013-04-14T08:39:45Z</time>
      </trkpt>
      <trkpt lat="45.57398" lon="6.67736">
        <ele>1147.1999511719</ele>
        <time>2013-04-14T08:39:48Z</time>
      </trkpt>
      <trkpt lat="45.57398" lon="6.67737">
        <ele>1146.8000488281</ele>
        <time>2013-04-14T08:39:49Z</time>
      </trkpt>
      <trkpt lat="45.57395" lon="6.67737">
        <ele>1146.1999511719</ele>
        <time>2013-04-14T08:39:51Z</time>
      </trkpt>
      <trkpt lat="45.57393" lon="6.67739">
        <ele>1145.1999511719</ele>
        <time>2013-04-14T08:39:53Z</time>
      </trkpt>
      <trkpt lat="45.57392" lon="6.6774">
        <ele>1144.4000244141</ele>
        <time>2013-04-14T08:39:54Z</time>
      </trkpt>
      <trkpt lat="45.57385" lon="6.67745">
        <ele>1141.8000488281</ele>
        <time>2013-04-14T08:39:59Z</time>
      </trkpt>
      <trkpt lat="45.57387" lon="6.67744">
        <ele>1142.4000244141</ele>
        <time>2013-04-14T08:40:00Z</time>
      </trkpt>
      <trkpt lat="45.57387" lon="6.67745">
        <ele>1142.4000244141</ele>
        <time>2013-04-14T08:40:01Z</time>
      </trkpt>
      <trkpt lat="45.57387" lon="6.67744">
        <ele>1142.4000244141</ele>
        <time>2013-04-14T08:40:03Z</time>
      </trkpt>
      <trkpt lat="45.57387" lon="6.67744">
        <ele>1142.4000244141</ele>
        <time>2013-04-14T08:40:04Z</time>
      </trkpt>
      <trkpt lat="45.57387" lon="6.67745">
        <ele>1142.4000244141</ele>
        <time>2013-04-14T08:40:05Z</time>
      </trkpt>
      <trkpt lat="45.57382" lon="6.67749">
        <ele>1140.1999511719</ele>
        <time>2013-04-14T08:40:07Z</time>
      </trkpt>
      <trkpt lat="45.57381" lon="6.67749">
        <ele>1139.8000488281</ele>
        <time>2013-04-14T08:40:08Z</time>
      </trkpt>
      <trkpt lat="45.57375" lon="6.67749">
        <ele>1138.1999511719</ele>
        <time>2013-04-14T08:40:10Z</time>
      </trkpt>
      <trkpt lat="45.57369" lon="6.67748">
        <ele>1136.1999511719</ele>
        <time>2013-04-14T08:40:14Z</time>
      </trkpt>
      <trkpt lat="45.57367" lon="6.67749">
        <ele>1135.5999755859</ele>
        <time>2013-04-14T08:40:15Z</time>
      </trkpt>
      <trkpt lat="45.57365" lon="6.67748">
        <ele>1135</ele>
        <time>2013-04-14T08:40:16Z</time>
      </trkpt>
      <trkpt lat="45.57361" lon="6.67748">
        <ele>1134</ele>
        <time>2013-04-14T08:40:18Z</time>
      </trkpt>
      <trkpt lat="45.57355" lon="6.67748">
        <ele>1132</ele>
        <time>2013-04-14T08:40:20Z</time>
      </trkpt>
      <trkpt lat="45.57348" lon="6.67747">
        <ele>1130</ele>
        <time>2013-04-14T08:40:22Z</time>
      </trkpt>
      <trkpt lat="45.57346" lon="6.67747">
        <ele>1129.4000244141</ele>
        <time>2013-04-14T08:40:23Z</time>
      </trkpt>
      <trkpt lat="45.57343" lon="6.67747">
        <ele>1128.1999511719</ele>
        <time>2013-04-14T08:40:24Z</time>
      </trkpt>
      <trkpt lat="45.57337" lon="6.67746">
        <ele>1126.5999755859</ele>
        <time>2013-04-14T08:40:26Z</time>
      </trkpt>
      <trkpt lat="45.57334" lon="6.67745">
        <ele>1125.8000488281</ele>
        <time>2013-04-14T08:40:27Z</time>
      </trkpt>
      <trkpt lat="45.57331" lon="6.67744">
        <ele>1125</ele>
        <time>2013-04-14T08:40:28Z</time>
      </trkpt>
      <trkpt lat="45.57325" lon="6.67742">
        <ele>1123</ele>
        <time>2013-04-14T08:40:30Z</time>
      </trkpt>
      <trkpt lat="45.57323" lon="6.67741">
        <ele>1122.1999511719</ele>
        <time>2013-04-14T08:40:31Z</time>
      </trkpt>
      <trkpt lat="45.5732" lon="6.67741">
        <ele>1121.1999511719</ele>
        <time>2013-04-14T08:40:32Z</time>
      </trkpt>
      <trkpt lat="45.57314" lon="6.67739">
        <ele>1119.1999511719</ele>
        <time>2013-04-14T08:40:34Z</time>
      </trkpt>
      <trkpt lat="45.57312" lon="6.67738">
        <ele>1118.5999755859</ele>
        <time>2013-04-14T08:40:35Z</time>
      </trkpt>
      <trkpt lat="45.57309" lon="6.67737">
        <ele>1117.5999755859</ele>
        <time>2013-04-14T08:40:36Z</time>
      </trkpt>
      <trkpt lat="45.57304" lon="6.67735">
        <ele>1116</ele>
        <time>2013-04-14T08:40:38Z</time>
      </trkpt>
      <trkpt lat="45.57301" lon="6.67733">
        <ele>1115.1999511719</ele>
        <time>2013-04-14T08:40:39Z</time>
      </trkpt>
      <trkpt lat="45.57299" lon="6.67732">
        <ele>1114.4000244141</ele>
        <time>2013-04-14T08:40:40Z</time>
      </trkpt>
      <trkpt lat="45.57294" lon="6.67729">
        <ele>1113.1999511719</ele>
        <time>2013-04-14T08:40:42Z</time>
      </trkpt>
      <trkpt lat="45.57292" lon="6.67728">
        <ele>1112.5999755859</ele>
        <time>2013-04-14T08:40:43Z</time>
      </trkpt>
      <trkpt lat="45.5729" lon="6.67727">
        <ele>1112</ele>
        <time>2013-04-14T08:40:44Z</time>
      </trkpt>
      <trkpt lat="45.57285" lon="6.67724">
        <ele>1110.5999755859</ele>
        <time>2013-04-14T08:40:47Z</time>
      </trkpt>
      <trkpt lat="45.57283" lon="6.67722">
        <ele>1110.4000244141</ele>
        <time>2013-04-14T08:40:48Z</time>
      </trkpt>
      <trkpt lat="45.57282" lon="6.67716">
        <ele>1110.4000244141</ele>
        <time>2013-04-14T08:40:50Z</time>
      </trkpt>
      <trkpt lat="45.57281" lon="6.67713">
        <ele>1110.5999755859</ele>
        <time>2013-04-14T08:40:51Z</time>
      </trkpt>
      <trkpt lat="45.5728" lon="6.67711">
        <ele>1110.5999755859</ele>
        <time>2013-04-14T08:40:52Z</time>
      </trkpt>
      <trkpt lat="45.57281" lon="6.6771">
        <ele>1111</ele>
        <time>2013-04-14T08:40:54Z</time>
      </trkpt>
      <trkpt lat="45.5728" lon="6.6771">
        <ele>1110.8000488281</ele>
        <time>2013-04-14T08:40:55Z</time>
      </trkpt>
      <trkpt lat="45.5728" lon="6.6771">
        <ele>1110.5999755859</ele>
        <time>2013-04-14T08:40:56Z</time>
      </trkpt>
      <trkpt lat="45.5728" lon="6.6771">
        <ele>1110.8000488281</ele>
        <time>2013-04-14T08:40:58Z</time>
      </trkpt>
      <trkpt lat="45.5728" lon="6.6771">
        <ele>1110.5999755859</ele>
        <time>2013-04-14T08:41:04Z</time>
      </trkpt>
      <trkpt lat="45.5728" lon="6.6771">
        <ele>1110.5999755859</ele>
        <time>2013-04-14T08:41:05Z</time>
      </trkpt>
      <trkpt lat="45.57276" lon="6.67716">
        <ele>1108.4000244141</ele>
        <time>2013-04-14T08:41:16Z</time>
      </trkpt>
      <trkpt lat="45.57276" lon="6.67717">
        <ele>1108</ele>
        <time>2013-04-14T08:41:19Z</time>
      </trkpt>
      <trkpt lat="45.57276" lon="6.67717">
        <ele>1108</ele>
        <time>2013-04-14T08:41:20Z</time>
      </trkpt>
      <trkpt lat="45.57276" lon="6.67718">
        <ele>1108</ele>
        <time>2013-04-14T08:41:22Z</time>
      </trkpt>
      <trkpt lat="45.57275" lon="6.67718">
        <ele>1108</ele>
        <time>2013-04-14T08:41:23Z</time>
      </trkpt>
      <trkpt lat="45.57275" lon="6.67717">
        <ele>1107.8000488281</ele>
        <time>2013-04-14T08:41:24Z</time>
      </trkpt>
      <trkpt lat="45.57275" lon="6.67716">
        <ele>1107.8000488281</ele>
        <time>2013-04-14T08:41:31Z</time>
      </trkpt>
      <trkpt lat="45.57275" lon="6.67717">
        <ele>1108</ele>
        <time>2013-04-14T08:41:32Z</time>
      </trkpt>
      <trkpt lat="45.57261" lon="6.67693">
        <ele>1106.4000244141</ele>
        <time>2013-04-14T08:41:44Z</time>
      </trkpt>
      <trkpt lat="45.57259" lon="6.67683">
        <ele>1107</ele>
        <time>2013-04-14T08:41:48Z</time>
      </trkpt>
      <trkpt lat="45.57259" lon="6.67683">
        <ele>1106.8000488281</ele>
        <time>2013-04-14T08:41:49Z</time>
      </trkpt>
      <trkpt lat="45.57256" lon="6.67683">
        <ele>1105.8000488281</ele>
        <time>2013-04-14T08:41:51Z</time>
      </trkpt>
      <trkpt lat="45.57253" lon="6.67685">
        <ele>1104.4000244141</ele>
        <time>2013-04-14T08:41:52Z</time>
      </trkpt>
      <trkpt lat="45.57253" lon="6.67689">
        <ele>1104</ele>
        <time>2013-04-14T08:41:53Z</time>
      </trkpt>
      <trkpt lat="45.57253" lon="6.67697">
        <ele>1102.8000488281</ele>
        <time>2013-04-14T08:41:55Z</time>
      </trkpt>
      <trkpt lat="45.57251" lon="6.677">
        <ele>1101.5999755859</ele>
        <time>2013-04-14T08:41:56Z</time>
      </trkpt>
      <trkpt lat="45.5725" lon="6.67704">
        <ele>1100.5999755859</ele>
        <time>2013-04-14T08:41:57Z</time>
      </trkpt>
      <trkpt lat="45.57247" lon="6.67712">
        <ele>1098.4000244141</ele>
        <time>2013-04-14T08:41:59Z</time>
      </trkpt>
      <trkpt lat="45.57246" lon="6.67716">
        <ele>1097.4000244141</ele>
        <time>2013-04-14T08:42:00Z</time>
      </trkpt>
      <trkpt lat="45.57245" lon="6.6772">
        <ele>1096.5999755859</ele>
        <time>2013-04-14T08:42:01Z</time>
      </trkpt>
      <trkpt lat="45.57244" lon="6.67724">
        <ele>1095.8000488281</ele>
        <time>2013-04-14T08:42:03Z</time>
      </trkpt>
      <trkpt lat="45.57244" lon="6.67722">
        <ele>1096</ele>
        <time>2013-04-14T08:42:04Z</time>
      </trkpt>
      <trkpt lat="45.57243" lon="6.67722">
        <ele>1095.8000488281</ele>
        <time>2013-04-14T08:42:05Z</time>
      </trkpt>
      <trkpt lat="45.57243" lon="6.67723">
        <ele>1095.8000488281</ele>
        <time>2013-04-14T08:42:07Z</time>
      </trkpt>
      <trkpt lat="45.57243" lon="6.67722">
        <ele>1095.8000488281</ele>
        <time>2013-04-14T08:42:08Z</time>
      </trkpt>
      <trkpt lat="45.57243" lon="6.67722">
        <ele>1095.8000488281</ele>
        <time>2013-04-14T08:42:09Z</time>
      </trkpt>
      <trkpt lat="45.57243" lon="6.67722">
        <ele>1096</ele>
        <time>2013-04-14T08:42:11Z</time>
      </trkpt>
      <trkpt lat="45.57243" lon="6.67722">
        <ele>1095.8000488281</ele>
        <time>2013-04-14T08:42:13Z</time>
      </trkpt>
      <trkpt lat="45.57243" lon="6.67721">
        <ele>1096</ele>
        <time>2013-04-14T08:42:17Z</time>
      </trkpt>
      <trkpt lat="45.57243" lon="6.6772">
        <ele>1096</ele>
        <time>2013-04-14T08:42:22Z</time>
      </trkpt>
      <trkpt lat="45.57243" lon="6.67724">
        <ele>1095.5999755859</ele>
        <time>2013-04-14T08:42:29Z</time>
      </trkpt>
      <trkpt lat="45.57244" lon="6.67756">
        <ele>1091.4000244141</ele>
        <time>2013-04-14T08:42:37Z</time>
      </trkpt>
      <trkpt lat="45.57251" lon="6.6777">
        <ele>1092.4000244141</ele>
        <time>2013-04-14T08:42:41Z</time>
      </trkpt>
      <trkpt lat="45.57253" lon="6.67775">
        <ele>1092.5999755859</ele>
        <time>2013-04-14T08:42:42Z</time>
      </trkpt>
      <trkpt lat="45.57256" lon="6.67782">
        <ele>1092.8000488281</ele>
        <time>2013-04-14T08:42:44Z</time>
      </trkpt>
      <trkpt lat="45.57257" lon="6.67786">
        <ele>1092.8000488281</ele>
        <time>2013-04-14T08:42:45Z</time>
      </trkpt>
      <trkpt lat="45.5726" lon="6.67794">
        <ele>1093.1999511719</ele>
        <time>2013-04-14T08:42:47Z</time>
      </trkpt>
      <trkpt lat="45.57262" lon="6.67802">
        <ele>1093</ele>
        <time>2013-04-14T08:42:49Z</time>
      </trkpt>
      <trkpt lat="45.57263" lon="6.67807">
        <ele>1093</ele>
        <time>2013-04-14T08:42:50Z</time>
      </trkpt>
      <trkpt lat="45.57264" lon="6.67811">
        <ele>1092.5999755859</ele>
        <time>2013-04-14T08:42:51Z</time>
      </trkpt>
      <trkpt lat="45.57263" lon="6.67819">
        <ele>1091.5999755859</ele>
        <time>2013-04-14T08:42:53Z</time>
      </trkpt>
      <trkpt lat="45.57263" lon="6.67824">
        <ele>1090.8000488281</ele>
        <time>2013-04-14T08:42:54Z</time>
      </trkpt>
      <trkpt lat="45.57263" lon="6.67828">
        <ele>1090.4000244141</ele>
        <time>2013-04-14T08:42:55Z</time>
      </trkpt>
      <trkpt lat="45.57263" lon="6.67837">
        <ele>1089.5999755859</ele>
        <time>2013-04-14T08:42:57Z</time>
      </trkpt>
      <trkpt lat="45.57265" lon="6.67841">
        <ele>1089.8000488281</ele>
        <time>2013-04-14T08:42:58Z</time>
      </trkpt>
      <trkpt lat="45.57265" lon="6.67844">
        <ele>1089.8000488281</ele>
        <time>2013-04-14T08:42:59Z</time>
      </trkpt>
      <trkpt lat="45.57268" lon="6.67861">
        <ele>1089</ele>
        <time>2013-04-14T08:43:03Z</time>
      </trkpt>
      <trkpt lat="45.5727" lon="6.67864">
        <ele>1089</ele>
        <time>2013-04-14T08:43:04Z</time>
      </trkpt>
      <trkpt lat="45.57273" lon="6.67872">
        <ele>1089.4000244141</ele>
        <time>2013-04-14T08:43:06Z</time>
      </trkpt>
      <trkpt lat="45.57274" lon="6.67878">
        <ele>1089.1999511719</ele>
        <time>2013-04-14T08:43:08Z</time>
      </trkpt>
      <trkpt lat="45.57275" lon="6.67882">
        <ele>1089.1999511719</ele>
        <time>2013-04-14T08:43:09Z</time>
      </trkpt>
      <trkpt lat="45.57276" lon="6.67889">
        <ele>1089</ele>
        <time>2013-04-14T08:43:11Z</time>
      </trkpt>
      <trkpt lat="45.57277" lon="6.67892">
        <ele>1088.8000488281</ele>
        <time>2013-04-14T08:43:12Z</time>
      </trkpt>
      <trkpt lat="45.57277" lon="6.67897">
        <ele>1088.5999755859</ele>
        <time>2013-04-14T08:43:13Z</time>
      </trkpt>
      <trkpt lat="45.57278" lon="6.67921">
        <ele>1086.4000244141</ele>
        <time>2013-04-14T08:43:19Z</time>
      </trkpt>
      <trkpt lat="45.57277" lon="6.67928">
        <ele>1085.4000244141</ele>
        <time>2013-04-14T08:43:21Z</time>
      </trkpt>
      <trkpt lat="45.57275" lon="6.6793">
        <ele>1084.5999755859</ele>
        <time>2013-04-14T08:43:22Z</time>
      </trkpt>
      <trkpt lat="45.57274" lon="6.67932">
        <ele>1084</ele>
        <time>2013-04-14T08:43:24Z</time>
      </trkpt>
      <trkpt lat="45.57274" lon="6.67932">
        <ele>1084</ele>
        <time>2013-04-14T08:43:25Z</time>
      </trkpt>
      <trkpt lat="45.57274" lon="6.67932">
        <ele>1084.1999511719</ele>
        <time>2013-04-14T08:43:26Z</time>
      </trkpt>
      <trkpt lat="45.57274" lon="6.67932">
        <ele>1084.1999511719</ele>
        <time>2013-04-14T08:43:28Z</time>
      </trkpt>
      <trkpt lat="45.57274" lon="6.67932">
        <ele>1084.1999511719</ele>
        <time>2013-04-14T08:43:29Z</time>
      </trkpt>
      <trkpt lat="45.57274" lon="6.67932">
        <ele>1084.1999511719</ele>
        <time>2013-04-14T08:43:30Z</time>
      </trkpt>
      <trkpt lat="45.5727" lon="6.67925">
        <ele>1083.4000244141</ele>
        <time>2013-04-14T08:43:35Z</time>
      </trkpt>
      <trkpt lat="45.57264" lon="6.6791">
        <ele>1083</ele>
        <time>2013-04-14T08:43:39Z</time>
      </trkpt>
      <trkpt lat="45.5726" lon="6.679">
        <ele>1082.8000488281</ele>
        <time>2013-04-14T08:43:42Z</time>
      </trkpt>
      <trkpt lat="45.57259" lon="6.67898">
        <ele>1082.5999755859</ele>
        <time>2013-04-14T08:43:43Z</time>
      </trkpt>
      <trkpt lat="45.57257" lon="6.67895">
        <ele>1082</ele>
        <time>2013-04-14T08:43:44Z</time>
      </trkpt>
      <trkpt lat="45.57249" lon="6.6789">
        <ele>1080.1999511719</ele>
        <time>2013-04-14T08:43:47Z</time>
      </trkpt>
      <trkpt lat="45.57237" lon="6.67888">
        <ele>1077</ele>
        <time>2013-04-14T08:43:52Z</time>
      </trkpt>
      <trkpt lat="45.57238" lon="6.67888">
        <ele>1077</ele>
        <time>2013-04-14T08:43:54Z</time>
      </trkpt>
      <trkpt lat="45.57238" lon="6.67888">
        <ele>1077.1999511719</ele>
        <time>2013-04-14T08:43:56Z</time>
      </trkpt>
      <trkpt lat="45.57238" lon="6.67888">
        <ele>1077</ele>
        <time>2013-04-14T08:43:57Z</time>
      </trkpt>
      <trkpt lat="45.57238" lon="6.67888">
        <ele>1077</ele>
        <time>2013-04-14T08:43:58Z</time>
      </trkpt>
      <trkpt lat="45.57238" lon="6.67888">
        <ele>1077</ele>
        <time>2013-04-14T08:44:01Z</time>
      </trkpt>
      <trkpt lat="45.5723" lon="6.67888">
        <ele>1074.8000488281</ele>
        <time>2013-04-14T08:44:05Z</time>
      </trkpt>
      <trkpt lat="45.57231" lon="6.67888">
        <ele>1075</ele>
        <time>2013-04-14T08:44:09Z</time>
      </trkpt>
      <trkpt lat="45.57231" lon="6.67888">
        <ele>1075</ele>
        <time>2013-04-14T08:44:11Z</time>
      </trkpt>
      <trkpt lat="45.57232" lon="6.67889">
        <ele>1075.1999511719</ele>
        <time>2013-04-14T08:44:12Z</time>
      </trkpt>
      <trkpt lat="45.57231" lon="6.67888">
        <ele>1075</ele>
        <time>2013-04-14T08:44:13Z</time>
      </trkpt>
      <trkpt lat="45.57226" lon="6.67887">
        <ele>1073.5999755859</ele>
        <time>2013-04-14T08:44:20Z</time>
      </trkpt>
      <trkpt lat="45.57221" lon="6.67883">
        <ele>1072.5999755859</ele>
        <time>2013-04-14T08:44:23Z</time>
      </trkpt>
      <trkpt lat="45.57217" lon="6.67877">
        <ele>1072</ele>
        <time>2013-04-14T08:44:25Z</time>
      </trkpt>
      <trkpt lat="45.57209" lon="6.67861">
        <ele>1071.1999511719</ele>
        <time>2013-04-14T08:44:29Z</time>
      </trkpt>
      <trkpt lat="45.57203" lon="6.67855">
        <ele>1070.1999511719</ele>
        <time>2013-04-14T08:44:31Z</time>
      </trkpt>
      <trkpt lat="45.57198" lon="6.67849">
        <ele>1069.4000244141</ele>
        <time>2013-04-14T08:44:33Z</time>
      </trkpt>
      <trkpt lat="45.57195" lon="6.67845">
        <ele>1068.8000488281</ele>
        <time>2013-04-14T08:44:34Z</time>
      </trkpt>
      <trkpt lat="45.57193" lon="6.67842">
        <ele>1068.4000244141</ele>
        <time>2013-04-14T08:44:35Z</time>
      </trkpt>
      <trkpt lat="45.57186" lon="6.67838">
        <ele>1067.1999511719</ele>
        <time>2013-04-14T08:44:37Z</time>
      </trkpt>
      <trkpt lat="45.5717" lon="6.67833">
        <ele>1063</ele>
        <time>2013-04-14T08:44:42Z</time>
      </trkpt>
      <trkpt lat="45.57162" lon="6.67829">
        <ele>1060.1999511719</ele>
        <time>2013-04-14T08:44:45Z</time>
      </trkpt>
      <trkpt lat="45.57158" lon="6.67824">
        <ele>1058.8000488281</ele>
        <time>2013-04-14T08:44:47Z</time>
      </trkpt>
      <trkpt lat="45.57156" lon="6.67821">
        <ele>1058.4000244141</ele>
        <time>2013-04-14T08:44:48Z</time>
      </trkpt>
      <trkpt lat="45.57155" lon="6.67807">
        <ele>1059</ele>
        <time>2013-04-14T08:44:51Z</time>
      </trkpt>
      <trkpt lat="45.57156" lon="6.67793">
        <ele>1060.4000244141</ele>
        <time>2013-04-14T08:44:54Z</time>
      </trkpt>
      <trkpt lat="45.57157" lon="6.67788">
        <ele>1061</ele>
        <time>2013-04-14T08:44:55Z</time>
      </trkpt>
      <trkpt lat="45.57158" lon="6.67784">
        <ele>1061.5999755859</ele>
        <time>2013-04-14T08:44:56Z</time>
      </trkpt>
      <trkpt lat="45.5716" lon="6.67776">
        <ele>1063</ele>
        <time>2013-04-14T08:44:58Z</time>
      </trkpt>
      <trkpt lat="45.57161" lon="6.67771">
        <ele>1063.5999755859</ele>
        <time>2013-04-14T08:44:59Z</time>
      </trkpt>
      <trkpt lat="45.57162" lon="6.67766">
        <ele>1064.4000244141</ele>
        <time>2013-04-14T08:45:00Z</time>
      </trkpt>
      <trkpt lat="45.57162" lon="6.67757">
        <ele>1065</ele>
        <time>2013-04-14T08:45:02Z</time>
      </trkpt>
      <trkpt lat="45.57161" lon="6.67754">
        <ele>1064.8000488281</ele>
        <time>2013-04-14T08:45:03Z</time>
      </trkpt>
      <trkpt lat="45.57159" lon="6.67746">
        <ele>1065</ele>
        <time>2013-04-14T08:45:05Z</time>
      </trkpt>
      <trkpt lat="45.57142" lon="6.67699">
        <ele>1069</ele>
        <time>2013-04-14T08:45:20Z</time>
      </trkpt>
      <trkpt lat="45.5714" lon="6.67696">
        <ele>1068.8000488281</ele>
        <time>2013-04-14T08:45:21Z</time>
      </trkpt>
      <trkpt lat="45.57114" lon="6.67686">
        <ele>1063</ele>
        <time>2013-04-14T08:45:32Z</time>
      </trkpt>
      <trkpt lat="45.57101" lon="6.67679">
        <ele>1060.4000244141</ele>
        <time>2013-04-14T08:45:37Z</time>
      </trkpt>
      <trkpt lat="45.57087" lon="6.67676">
        <ele>1057</ele>
        <time>2013-04-14T08:45:42Z</time>
      </trkpt>
      <trkpt lat="45.57083" lon="6.67673">
        <ele>1056.1999511719</ele>
        <time>2013-04-14T08:45:44Z</time>
      </trkpt>
      <trkpt lat="45.57078" lon="6.67664">
        <ele>1056</ele>
        <time>2013-04-14T08:45:47Z</time>
      </trkpt>
      <trkpt lat="45.57072" lon="6.67646">
        <ele>1054.5999755859</ele>
        <time>2013-04-14T08:45:52Z</time>
      </trkpt>
      <trkpt lat="45.57077" lon="6.67623">
        <ele>1057.5999755859</ele>
        <time>2013-04-14T08:45:58Z</time>
      </trkpt>
      <trkpt lat="45.57084" lon="6.67599">
        <ele>1061.4000244141</ele>
        <time>2013-04-14T08:46:04Z</time>
      </trkpt>
      <trkpt lat="45.57088" lon="6.67574">
        <ele>1063.4000244141</ele>
        <time>2013-04-14T08:46:10Z</time>
      </trkpt>
      <trkpt lat="45.57089" lon="6.67566">
        <ele>1063.5999755859</ele>
        <time>2013-04-14T08:46:12Z</time>
      </trkpt>
      <trkpt lat="45.57089" lon="6.67562">
        <ele>1063.4000244141</ele>
        <time>2013-04-14T08:46:13Z</time>
      </trkpt>
      <trkpt lat="45.57088" lon="6.67557">
        <ele>1063</ele>
        <time>2013-04-14T08:46:14Z</time>
      </trkpt>
      <trkpt lat="45.57086" lon="6.67549">
        <ele>1062</ele>
        <time>2013-04-14T08:46:16Z</time>
      </trkpt>
      <trkpt lat="45.57086" lon="6.67544">
        <ele>1062</ele>
        <time>2013-04-14T08:46:17Z</time>
      </trkpt>
      <trkpt lat="45.57086" lon="6.6754">
        <ele>1061.8000488281</ele>
        <time>2013-04-14T08:46:18Z</time>
      </trkpt>
      <trkpt lat="45.57087" lon="6.67531">
        <ele>1062</ele>
        <time>2013-04-14T08:46:20Z</time>
      </trkpt>
      <trkpt lat="45.57087" lon="6.67527">
        <ele>1062</ele>
        <time>2013-04-14T08:46:21Z</time>
      </trkpt>
      <trkpt lat="45.57083" lon="6.67506">
        <ele>1060</ele>
        <time>2013-04-14T08:46:26Z</time>
      </trkpt>
      <trkpt lat="45.57081" lon="6.67503">
        <ele>1059.4000244141</ele>
        <time>2013-04-14T08:46:27Z</time>
      </trkpt>
      <trkpt lat="45.57079" lon="6.67501">
        <ele>1059</ele>
        <time>2013-04-14T08:46:28Z</time>
      </trkpt>
      <trkpt lat="45.57074" lon="6.67496">
        <ele>1057.5999755859</ele>
        <time>2013-04-14T08:46:30Z</time>
      </trkpt>
      <trkpt lat="45.57072" lon="6.67493">
        <ele>1057.1999511719</ele>
        <time>2013-04-14T08:46:31Z</time>
      </trkpt>
      <trkpt lat="45.57069" lon="6.6749">
        <ele>1056.5999755859</ele>
        <time>2013-04-14T08:46:32Z</time>
      </trkpt>
      <trkpt lat="45.57065" lon="6.67484">
        <ele>1055.5999755859</ele>
        <time>2013-04-14T08:46:34Z</time>
      </trkpt>
      <trkpt lat="45.57063" lon="6.67482">
        <ele>1055.1999511719</ele>
        <time>2013-04-14T08:46:35Z</time>
      </trkpt>
      <trkpt lat="45.57061" lon="6.67479">
        <ele>1054.8000488281</ele>
        <time>2013-04-14T08:46:36Z</time>
      </trkpt>
      <trkpt lat="45.57053" lon="6.67466">
        <ele>1053</ele>
        <time>2013-04-14T08:46:40Z</time>
      </trkpt>
      <trkpt lat="45.57052" lon="6.67463">
        <ele>1052.5999755859</ele>
        <time>2013-04-14T08:46:41Z</time>
      </trkpt>
      <trkpt lat="45.5705" lon="6.67459">
        <ele>1052.1999511719</ele>
        <time>2013-04-14T08:46:42Z</time>
      </trkpt>
      <trkpt lat="45.57046" lon="6.67454">
        <ele>1051.4000244141</ele>
        <time>2013-04-14T08:46:44Z</time>
      </trkpt>
      <trkpt lat="45.57044" lon="6.67452">
        <ele>1050.8000488281</ele>
        <time>2013-04-14T08:46:45Z</time>
      </trkpt>
      <trkpt lat="45.57041" lon="6.67449">
        <ele>1050.1999511719</ele>
        <time>2013-04-14T08:46:46Z</time>
      </trkpt>
      <trkpt lat="45.57037" lon="6.67444">
        <ele>1049.1999511719</ele>
        <time>2013-04-14T08:46:48Z</time>
      </trkpt>
      <trkpt lat="45.57034" lon="6.67441">
        <ele>1048.5999755859</ele>
        <time>2013-04-14T08:46:49Z</time>
      </trkpt>
      <trkpt lat="45.57032" lon="6.67439">
        <ele>1048</ele>
        <time>2013-04-14T08:46:50Z</time>
      </trkpt>
      <trkpt lat="45.57026" lon="6.67432">
        <ele>1046.5999755859</ele>
        <time>2013-04-14T08:46:53Z</time>
      </trkpt>
      <trkpt lat="45.57022" lon="6.67427">
        <ele>1045.4000244141</ele>
        <time>2013-04-14T08:46:55Z</time>
      </trkpt>
      <trkpt lat="45.57018" lon="6.67423">
        <ele>1044.4000244141</ele>
        <time>2013-04-14T08:46:57Z</time>
      </trkpt>
      <trkpt lat="45.57016" lon="6.67421">
        <ele>1044</ele>
        <time>2013-04-14T08:46:58Z</time>
      </trkpt>
      <trkpt lat="45.57006" lon="6.67409">
        <ele>1041.8000488281</ele>
        <time>2013-04-14T08:47:03Z</time>
      </trkpt>
      <trkpt lat="45.57002" lon="6.67404">
        <ele>1041</ele>
        <time>2013-04-14T08:47:05Z</time>
      </trkpt>
      <trkpt lat="45.57" lon="6.67402">
        <ele>1040.5999755859</ele>
        <time>2013-04-14T08:47:06Z</time>
      </trkpt>
      <trkpt lat="45.56998" lon="6.67399">
        <ele>1040</ele>
        <time>2013-04-14T08:47:07Z</time>
      </trkpt>
      <trkpt lat="45.56994" lon="6.67393">
        <ele>1039.4000244141</ele>
        <time>2013-04-14T08:47:09Z</time>
      </trkpt>
      <trkpt lat="45.56992" lon="6.67391">
        <ele>1038.8000488281</ele>
        <time>2013-04-14T08:47:10Z</time>
      </trkpt>
      <trkpt lat="45.5699" lon="6.67389">
        <ele>1038.1999511719</ele>
        <time>2013-04-14T08:47:11Z</time>
      </trkpt>
      <trkpt lat="45.56986" lon="6.67385">
        <ele>1037.1999511719</ele>
        <time>2013-04-14T08:47:13Z</time>
      </trkpt>
      <trkpt lat="45.56983" lon="6.67382">
        <ele>1036.5999755859</ele>
        <time>2013-04-14T08:47:14Z</time>
      </trkpt>
      <trkpt lat="45.56982" lon="6.6738">
        <ele>1036.1999511719</ele>
        <time>2013-04-14T08:47:15Z</time>
      </trkpt>
      <trkpt lat="45.56978" lon="6.67376">
        <ele>1035.4000244141</ele>
        <time>2013-04-14T08:47:17Z</time>
      </trkpt>
      <trkpt lat="45.56973" lon="6.67372">
        <ele>1033.8000488281</ele>
        <time>2013-04-14T08:47:19Z</time>
      </trkpt>
      <trkpt lat="45.56968" lon="6.6737">
        <ele>1032.4000244141</ele>
        <time>2013-04-14T08:47:21Z</time>
      </trkpt>
      <trkpt lat="45.56963" lon="6.67367">
        <ele>1030.8000488281</ele>
        <time>2013-04-14T08:47:23Z</time>
      </trkpt>
      <trkpt lat="45.5696" lon="6.67366">
        <ele>1030.1999511719</ele>
        <time>2013-04-14T08:47:24Z</time>
      </trkpt>
      <trkpt lat="45.56957" lon="6.67364">
        <ele>1029.4000244141</ele>
        <time>2013-04-14T08:47:25Z</time>
      </trkpt>
      <trkpt lat="45.56951" lon="6.6736">
        <ele>1027.5999755859</ele>
        <time>2013-04-14T08:47:28Z</time>
      </trkpt>
      <trkpt lat="45.5695" lon="6.67359">
        <ele>1027.1999511719</ele>
        <time>2013-04-14T08:47:29Z</time>
      </trkpt>
      <trkpt lat="45.56946" lon="6.67358">
        <ele>1026</ele>
        <time>2013-04-14T08:47:31Z</time>
      </trkpt>
      <trkpt lat="45.56944" lon="6.67357">
        <ele>1025.4000244141</ele>
        <time>2013-04-14T08:47:32Z</time>
      </trkpt>
      <trkpt lat="45.56942" lon="6.67356">
        <ele>1024.8000488281</ele>
        <time>2013-04-14T08:47:33Z</time>
      </trkpt>
      <trkpt lat="45.56938" lon="6.67356">
        <ele>1023.5999755859</ele>
        <time>2013-04-14T08:47:35Z</time>
      </trkpt>
      <trkpt lat="45.56936" lon="6.67356">
        <ele>1022.799987793</ele>
        <time>2013-04-14T08:47:36Z</time>
      </trkpt>
      <trkpt lat="45.56934" lon="6.67356">
        <ele>1022.200012207</ele>
        <time>2013-04-14T08:47:37Z</time>
      </trkpt>
      <trkpt lat="45.56929" lon="6.67354">
        <ele>1020.799987793</ele>
        <time>2013-04-14T08:47:39Z</time>
      </trkpt>
      <trkpt lat="45.56928" lon="6.67352">
        <ele>1020.4000244141</ele>
        <time>2013-04-14T08:47:40Z</time>
      </trkpt>
      <trkpt lat="45.56926" lon="6.6735">
        <ele>1019.799987793</ele>
        <time>2013-04-14T08:47:41Z</time>
      </trkpt>
      <trkpt lat="45.56923" lon="6.67345">
        <ele>1019</ele>
        <time>2013-04-14T08:47:43Z</time>
      </trkpt>
      <trkpt lat="45.56922" lon="6.67342">
        <ele>1018.5999755859</ele>
        <time>2013-04-14T08:47:44Z</time>
      </trkpt>
      <trkpt lat="45.56921" lon="6.67339">
        <ele>1018.200012207</ele>
        <time>2013-04-14T08:47:45Z</time>
      </trkpt>
      <trkpt lat="45.56918" lon="6.67334">
        <ele>1017.4000244141</ele>
        <time>2013-04-14T08:47:47Z</time>
      </trkpt>
      <trkpt lat="45.56917" lon="6.67331">
        <ele>1017</ele>
        <time>2013-04-14T08:47:48Z</time>
      </trkpt>
      <trkpt lat="45.56915" lon="6.67328">
        <ele>1016.4000244141</ele>
        <time>2013-04-14T08:47:49Z</time>
      </trkpt>
      <trkpt lat="45.56911" lon="6.67322">
        <ele>1015.4000244141</ele>
        <time>2013-04-14T08:47:51Z</time>
      </trkpt>
      <trkpt lat="45.5691" lon="6.67319">
        <ele>1015</ele>
        <time>2013-04-14T08:47:52Z</time>
      </trkpt>
      <trkpt lat="45.56904" lon="6.6731">
        <ele>1013.200012207</ele>
        <time>2013-04-14T08:47:55Z</time>
      </trkpt>
      <trkpt lat="45.56901" lon="6.67307">
        <ele>1012.4000244141</ele>
        <time>2013-04-14T08:47:56Z</time>
      </trkpt>
      <trkpt lat="45.56899" lon="6.67304">
        <ele>1011.799987793</ele>
        <time>2013-04-14T08:47:57Z</time>
      </trkpt>
      <trkpt lat="45.56895" lon="6.67299">
        <ele>1010.5999755859</ele>
        <time>2013-04-14T08:47:59Z</time>
      </trkpt>
      <trkpt lat="45.56891" lon="6.67293">
        <ele>1009.5999755859</ele>
        <time>2013-04-14T08:48:01Z</time>
      </trkpt>
      <trkpt lat="45.56889" lon="6.6729">
        <ele>1009</ele>
        <time>2013-04-14T08:48:02Z</time>
      </trkpt>
      <trkpt lat="45.56884" lon="6.67285">
        <ele>1007.5999755859</ele>
        <time>2013-04-14T08:48:04Z</time>
      </trkpt>
      <trkpt lat="45.56882" lon="6.67283">
        <ele>1007.200012207</ele>
        <time>2013-04-14T08:48:05Z</time>
      </trkpt>
      <trkpt lat="45.5688" lon="6.6728">
        <ele>1006.5999755859</ele>
        <time>2013-04-14T08:48:06Z</time>
      </trkpt>
      <trkpt lat="45.56872" lon="6.67267">
        <ele>1004.4000244141</ele>
        <time>2013-04-14T08:48:11Z</time>
      </trkpt>
      <trkpt lat="45.5687" lon="6.67265">
        <ele>1004</ele>
        <time>2013-04-14T08:48:12Z</time>
      </trkpt>
      <trkpt lat="45.56869" lon="6.67263">
        <ele>1003.5999755859</ele>
        <time>2013-04-14T08:48:13Z</time>
      </trkpt>
      <trkpt lat="45.56865" lon="6.67259">
        <ele>1002.799987793</ele>
        <time>2013-04-14T08:48:15Z</time>
      </trkpt>
      <trkpt lat="45.5686" lon="6.67246">
        <ele>1001.4000244141</ele>
        <time>2013-04-14T08:48:19Z</time>
      </trkpt>
      <trkpt lat="45.56859" lon="6.67242">
        <ele>1001</ele>
        <time>2013-04-14T08:48:20Z</time>
      </trkpt>
      <trkpt lat="45.56856" lon="6.67234">
        <ele>1000.4000244141</ele>
        <time>2013-04-14T08:48:22Z</time>
      </trkpt>
      <trkpt lat="45.56856" lon="6.6723">
        <ele>1000.200012207</ele>
        <time>2013-04-14T08:48:23Z</time>
      </trkpt>
      <trkpt lat="45.56856" lon="6.67225">
        <ele>1000.200012207</ele>
        <time>2013-04-14T08:48:24Z</time>
      </trkpt>
      <trkpt lat="45.56855" lon="6.67216">
        <ele>1000</ele>
        <time>2013-04-14T08:48:26Z</time>
      </trkpt>
      <trkpt lat="45.56855" lon="6.67208">
        <ele>1000</ele>
        <time>2013-04-14T08:48:28Z</time>
      </trkpt>
      <trkpt lat="45.56855" lon="6.67199">
        <ele>1000</ele>
        <time>2013-04-14T08:48:30Z</time>
      </trkpt>
      <trkpt lat="45.56855" lon="6.67194">
        <ele>1000</ele>
        <time>2013-04-14T08:48:31Z</time>
      </trkpt>
      <trkpt lat="45.56855" lon="6.6719">
        <ele>999.79998779297</ele>
        <time>2013-04-14T08:48:32Z</time>
      </trkpt>
      <trkpt lat="45.56855" lon="6.67173">
        <ele>1000</ele>
        <time>2013-04-14T08:48:36Z</time>
      </trkpt>
      <trkpt lat="45.56856" lon="6.67169">
        <ele>1000.200012207</ele>
        <time>2013-04-14T08:48:37Z</time>
      </trkpt>
      <trkpt lat="45.56856" lon="6.67166">
        <ele>1000.200012207</ele>
        <time>2013-04-14T08:48:38Z</time>
      </trkpt>
      <trkpt lat="45.56855" lon="6.67158">
        <ele>999.59997558594</ele>
        <time>2013-04-14T08:48:40Z</time>
      </trkpt>
      <trkpt lat="45.56855" lon="6.67155">
        <ele>999.40002441406</ele>
        <time>2013-04-14T08:48:41Z</time>
      </trkpt>
      <trkpt lat="45.56852" lon="6.67129">
        <ele>997.20001220703</ele>
        <time>2013-04-14T08:48:48Z</time>
      </trkpt>
      <trkpt lat="45.56852" lon="6.67122">
        <ele>996.59997558594</ele>
        <time>2013-04-14T08:48:50Z</time>
      </trkpt>
      <trkpt lat="45.56852" lon="6.67117">
        <ele>996.59997558594</ele>
        <time>2013-04-14T08:48:51Z</time>
      </trkpt>
      <trkpt lat="45.56852" lon="6.67114">
        <ele>996.40002441406</ele>
        <time>2013-04-14T08:48:52Z</time>
      </trkpt>
      <trkpt lat="45.56852" lon="6.67106">
        <ele>996</ele>
        <time>2013-04-14T08:48:54Z</time>
      </trkpt>
      <trkpt lat="45.56852" lon="6.67103">
        <ele>995.59997558594</ele>
        <time>2013-04-14T08:48:55Z</time>
      </trkpt>
      <trkpt lat="45.56851" lon="6.67099">
        <ele>995.20001220703</ele>
        <time>2013-04-14T08:48:56Z</time>
      </trkpt>
      <trkpt lat="45.5685" lon="6.67092">
        <ele>994.59997558594</ele>
        <time>2013-04-14T08:48:58Z</time>
      </trkpt>
      <trkpt lat="45.5685" lon="6.67088">
        <ele>994.59997558594</ele>
        <time>2013-04-14T08:48:59Z</time>
      </trkpt>
      <trkpt lat="45.5685" lon="6.67084">
        <ele>994.20001220703</ele>
        <time>2013-04-14T08:49:00Z</time>
      </trkpt>
      <trkpt lat="45.56851" lon="6.67071">
        <ele>994.20001220703</ele>
        <time>2013-04-14T08:49:03Z</time>
      </trkpt>
      <trkpt lat="45.56851" lon="6.67066">
        <ele>994</ele>
        <time>2013-04-14T08:49:04Z</time>
      </trkpt>
      <trkpt lat="45.5685" lon="6.67057">
        <ele>993.40002441406</ele>
        <time>2013-04-14T08:49:06Z</time>
      </trkpt>
      <trkpt lat="45.56849" lon="6.67053">
        <ele>993.20001220703</ele>
        <time>2013-04-14T08:49:07Z</time>
      </trkpt>
      <trkpt lat="45.56849" lon="6.6705">
        <ele>993.20001220703</ele>
        <time>2013-04-14T08:49:08Z</time>
      </trkpt>
      <trkpt lat="45.56847" lon="6.67038">
        <ele>992.40002441406</ele>
        <time>2013-04-14T08:49:11Z</time>
      </trkpt>
      <trkpt lat="45.56846" lon="6.67035">
        <ele>992</ele>
        <time>2013-04-14T08:49:12Z</time>
      </trkpt>
      <trkpt lat="45.56844" lon="6.67031">
        <ele>991.59997558594</ele>
        <time>2013-04-14T08:49:13Z</time>
      </trkpt>
      <trkpt lat="45.56842" lon="6.67024">
        <ele>991</ele>
        <time>2013-04-14T08:49:15Z</time>
      </trkpt>
      <trkpt lat="45.56837" lon="6.67015">
        <ele>989.79998779297</ele>
        <time>2013-04-14T08:49:18Z</time>
      </trkpt>
      <trkpt lat="45.56834" lon="6.67008">
        <ele>989.20001220703</ele>
        <time>2013-04-14T08:49:20Z</time>
      </trkpt>
      <trkpt lat="45.56831" lon="6.67003">
        <ele>988.59997558594</ele>
        <time>2013-04-14T08:49:22Z</time>
      </trkpt>
      <trkpt lat="45.5683" lon="6.67">
        <ele>988.20001220703</ele>
        <time>2013-04-14T08:49:23Z</time>
      </trkpt>
      <trkpt lat="45.56829" lon="6.66997">
        <ele>987.79998779297</ele>
        <time>2013-04-14T08:49:24Z</time>
      </trkpt>
      <trkpt lat="45.56821" lon="6.66982">
        <ele>986.20001220703</ele>
        <time>2013-04-14T08:49:29Z</time>
      </trkpt>
      <trkpt lat="45.5682" lon="6.66978">
        <ele>986</ele>
        <time>2013-04-14T08:49:30Z</time>
      </trkpt>
      <trkpt lat="45.56819" lon="6.66975">
        <ele>985.79998779297</ele>
        <time>2013-04-14T08:49:31Z</time>
      </trkpt>
      <trkpt lat="45.56816" lon="6.66969">
        <ele>985.20001220703</ele>
        <time>2013-04-14T08:49:33Z</time>
      </trkpt>
      <trkpt lat="45.56811" lon="6.66957">
        <ele>984.40002441406</ele>
        <time>2013-04-14T08:49:37Z</time>
      </trkpt>
      <trkpt lat="45.56805" lon="6.66944">
        <ele>983.59997558594</ele>
        <time>2013-04-14T08:49:41Z</time>
      </trkpt>
      <trkpt lat="45.56803" lon="6.66941">
        <ele>983.40002441406</ele>
        <time>2013-04-14T08:49:42Z</time>
      </trkpt>
      <trkpt lat="45.56801" lon="6.66938">
        <ele>983.20001220703</ele>
        <time>2013-04-14T08:49:43Z</time>
      </trkpt>
      <trkpt lat="45.56797" lon="6.66934">
        <ele>982.59997558594</ele>
        <time>2013-04-14T08:49:45Z</time>
      </trkpt>
      <trkpt lat="45.56793" lon="6.66929">
        <ele>982.20001220703</ele>
        <time>2013-04-14T08:49:47Z</time>
      </trkpt>
      <trkpt lat="45.56791" lon="6.66927">
        <ele>982.20001220703</ele>
        <time>2013-04-14T08:49:48Z</time>
      </trkpt>
      <trkpt lat="45.56787" lon="6.66922">
        <ele>981.79998779297</ele>
        <time>2013-04-14T08:49:50Z</time>
      </trkpt>
      <trkpt lat="45.56785" lon="6.66919">
        <ele>981.59997558594</ele>
        <time>2013-04-14T08:49:51Z</time>
      </trkpt>
      <trkpt lat="45.56783" lon="6.66917">
        <ele>981.40002441406</ele>
        <time>2013-04-14T08:49:52Z</time>
      </trkpt>
      <trkpt lat="45.56775" lon="6.66907">
        <ele>980.20001220703</ele>
        <time>2013-04-14T08:49:56Z</time>
      </trkpt>
      <trkpt lat="45.56773" lon="6.66905">
        <ele>979.79998779297</ele>
        <time>2013-04-14T08:49:57Z</time>
      </trkpt>
      <trkpt lat="45.56771" lon="6.66903">
        <ele>979.59997558594</ele>
        <time>2013-04-14T08:49:58Z</time>
      </trkpt>
      <trkpt lat="45.56767" lon="6.66897">
        <ele>979</ele>
        <time>2013-04-14T08:50:00Z</time>
      </trkpt>
      <trkpt lat="45.56758" lon="6.66885">
        <ele>977.59997558594</ele>
        <time>2013-04-14T08:50:04Z</time>
      </trkpt>
      <trkpt lat="45.56756" lon="6.66883">
        <ele>977.20001220703</ele>
        <time>2013-04-14T08:50:05Z</time>
      </trkpt>
      <trkpt lat="45.56752" lon="6.66876">
        <ele>976.59997558594</ele>
        <time>2013-04-14T08:50:07Z</time>
      </trkpt>
      <trkpt lat="45.5675" lon="6.66874">
        <ele>976.40002441406</ele>
        <time>2013-04-14T08:50:08Z</time>
      </trkpt>
      <trkpt lat="45.56748" lon="6.66871">
        <ele>976</ele>
        <time>2013-04-14T08:50:09Z</time>
      </trkpt>
      <trkpt lat="45.56742" lon="6.66863">
        <ele>974.79998779297</ele>
        <time>2013-04-14T08:50:12Z</time>
      </trkpt>
      <trkpt lat="45.56737" lon="6.66856">
        <ele>974</ele>
        <time>2013-04-14T08:50:14Z</time>
      </trkpt>
      <trkpt lat="45.56734" lon="6.6685">
        <ele>973.20001220703</ele>
        <time>2013-04-14T08:50:16Z</time>
      </trkpt>
      <trkpt lat="45.56724" lon="6.66837">
        <ele>971.79998779297</ele>
        <time>2013-04-14T08:50:21Z</time>
      </trkpt>
      <trkpt lat="45.56722" lon="6.66834">
        <ele>971.59997558594</ele>
        <time>2013-04-14T08:50:22Z</time>
      </trkpt>
      <trkpt lat="45.56717" lon="6.6683">
        <ele>970.79998779297</ele>
        <time>2013-04-14T08:50:24Z</time>
      </trkpt>
      <trkpt lat="45.56715" lon="6.6683">
        <ele>970.59997558594</ele>
        <time>2013-04-14T08:50:25Z</time>
      </trkpt>
      <trkpt lat="45.56712" lon="6.6683">
        <ele>970.20001220703</ele>
        <time>2013-04-14T08:50:26Z</time>
      </trkpt>
      <trkpt lat="45.56703" lon="6.66832">
        <ele>969.20001220703</ele>
        <time>2013-04-14T08:50:30Z</time>
      </trkpt>
      <trkpt lat="45.56701" lon="6.66833">
        <ele>969</ele>
        <time>2013-04-14T08:50:31Z</time>
      </trkpt>
      <trkpt lat="45.567" lon="6.66835">
        <ele>968.79998779297</ele>
        <time>2013-04-14T08:50:32Z</time>
      </trkpt>
      <trkpt lat="45.56694" lon="6.66838">
        <ele>968</ele>
        <time>2013-04-14T08:50:34Z</time>
      </trkpt>
      <trkpt lat="45.56692" lon="6.66841">
        <ele>967.79998779297</ele>
        <time>2013-04-14T08:50:35Z</time>
      </trkpt>
      <trkpt lat="45.56688" lon="6.66847">
        <ele>967.20001220703</ele>
        <time>2013-04-14T08:50:37Z</time>
      </trkpt>
      <trkpt lat="45.56686" lon="6.66854">
        <ele>966.59997558594</ele>
        <time>2013-04-14T08:50:39Z</time>
      </trkpt>
      <trkpt lat="45.56685" lon="6.66858">
        <ele>966.40002441406</ele>
        <time>2013-04-14T08:50:40Z</time>
      </trkpt>
      <trkpt lat="45.56684" lon="6.66862">
        <ele>966</ele>
        <time>2013-04-14T08:50:41Z</time>
      </trkpt>
      <trkpt lat="45.56682" lon="6.66879">
        <ele>965.20001220703</ele>
        <time>2013-04-14T08:50:45Z</time>
      </trkpt>
      <trkpt lat="45.56681" lon="6.66883">
        <ele>965</ele>
        <time>2013-04-14T08:50:46Z</time>
      </trkpt>
      <trkpt lat="45.56681" lon="6.66887">
        <ele>964.79998779297</ele>
        <time>2013-04-14T08:50:47Z</time>
      </trkpt>
      <trkpt lat="45.56682" lon="6.66899">
        <ele>964.59997558594</ele>
        <time>2013-04-14T08:50:50Z</time>
      </trkpt>
      <trkpt lat="45.56683" lon="6.6691">
        <ele>964.40002441406</ele>
        <time>2013-04-14T08:50:53Z</time>
      </trkpt>
      <trkpt lat="45.56683" lon="6.66918">
        <ele>964.20001220703</ele>
        <time>2013-04-14T08:50:55Z</time>
      </trkpt>
      <trkpt lat="45.56684" lon="6.66921">
        <ele>964</ele>
        <time>2013-04-14T08:50:56Z</time>
      </trkpt>
      <trkpt lat="45.56684" lon="6.66925">
        <ele>963.59997558594</ele>
        <time>2013-04-14T08:50:57Z</time>
      </trkpt>
      <trkpt lat="45.56685" lon="6.6694">
        <ele>962.59997558594</ele>
        <time>2013-04-14T08:51:01Z</time>
      </trkpt>
      <trkpt lat="45.56686" lon="6.66944">
        <ele>962.20001220703</ele>
        <time>2013-04-14T08:51:02Z</time>
      </trkpt>
      <trkpt lat="45.56686" lon="6.66948">
        <ele>962</ele>
        <time>2013-04-14T08:51:03Z</time>
      </trkpt>
      <trkpt lat="45.56688" lon="6.66955">
        <ele>961.59997558594</ele>
        <time>2013-04-14T08:51:05Z</time>
      </trkpt>
      <trkpt lat="45.56689" lon="6.66959">
        <ele>961.59997558594</ele>
        <time>2013-04-14T08:51:06Z</time>
      </trkpt>
      <trkpt lat="45.56691" lon="6.66971">
        <ele>961</ele>
        <time>2013-04-14T08:51:09Z</time>
      </trkpt>
      <trkpt lat="45.56698" lon="6.66992">
        <ele>960.59997558594</ele>
        <time>2013-04-14T08:51:15Z</time>
      </trkpt>
      <trkpt lat="45.567" lon="6.66996">
        <ele>960.79998779297</ele>
        <time>2013-04-14T08:51:16Z</time>
      </trkpt>
      <trkpt lat="45.56701" lon="6.67">
        <ele>960.59997558594</ele>
        <time>2013-04-14T08:51:17Z</time>
      </trkpt>
      <trkpt lat="45.56703" lon="6.67006">
        <ele>960.59997558594</ele>
        <time>2013-04-14T08:51:19Z</time>
      </trkpt>
      <trkpt lat="45.56713" lon="6.67029">
        <ele>960.59997558594</ele>
        <time>2013-04-14T08:51:26Z</time>
      </trkpt>
      <trkpt lat="45.56715" lon="6.67033">
        <ele>960.59997558594</ele>
        <time>2013-04-14T08:51:27Z</time>
      </trkpt>
      <trkpt lat="45.56718" lon="6.67042">
        <ele>960.40002441406</ele>
        <time>2013-04-14T08:51:30Z</time>
      </trkpt>
      <trkpt lat="45.56719" lon="6.67046">
        <ele>960.40002441406</ele>
        <time>2013-04-14T08:51:31Z</time>
      </trkpt>
      <trkpt lat="45.56714" lon="6.67058">
        <ele>958</ele>
        <time>2013-04-14T08:51:35Z</time>
      </trkpt>
      <trkpt lat="45.56711" lon="6.67058">
        <ele>957.20001220703</ele>
        <time>2013-04-14T08:51:36Z</time>
      </trkpt>
      <trkpt lat="45.56708" lon="6.67058">
        <ele>956.40002441406</ele>
        <time>2013-04-14T08:51:37Z</time>
      </trkpt>
      <trkpt lat="45.56703" lon="6.67055">
        <ele>955.59997558594</ele>
        <time>2013-04-14T08:51:39Z</time>
      </trkpt>
      <trkpt lat="45.56697" lon="6.67045">
        <ele>955</ele>
        <time>2013-04-14T08:51:43Z</time>
      </trkpt>
      <trkpt lat="45.56695" lon="6.67042">
        <ele>954.79998779297</ele>
        <time>2013-04-14T08:51:44Z</time>
      </trkpt>
      <trkpt lat="45.56689" lon="6.67029">
        <ele>954.79998779297</ele>
        <time>2013-04-14T08:51:48Z</time>
      </trkpt>
      <trkpt lat="45.56687" lon="6.67026">
        <ele>954.59997558594</ele>
        <time>2013-04-14T08:51:49Z</time>
      </trkpt>
      <trkpt lat="45.56685" lon="6.67023">
        <ele>954.59997558594</ele>
        <time>2013-04-14T08:51:50Z</time>
      </trkpt>
      <trkpt lat="45.56682" lon="6.67017">
        <ele>954.59997558594</ele>
        <time>2013-04-14T08:51:52Z</time>
      </trkpt>
      <trkpt lat="45.56675" lon="6.67002">
        <ele>954.59997558594</ele>
        <time>2013-04-14T08:51:57Z</time>
      </trkpt>
      <trkpt lat="45.56673" lon="6.66999">
        <ele>954.59997558594</ele>
        <time>2013-04-14T08:51:58Z</time>
      </trkpt>
      <trkpt lat="45.5667" lon="6.66993">
        <ele>954.40002441406</ele>
        <time>2013-04-14T08:52:00Z</time>
      </trkpt>
      <trkpt lat="45.56668" lon="6.66989">
        <ele>954.40002441406</ele>
        <time>2013-04-14T08:52:01Z</time>
      </trkpt>
      <trkpt lat="45.56659" lon="6.66972">
        <ele>953.59997558594</ele>
        <time>2013-04-14T08:52:07Z</time>
      </trkpt>
      <trkpt lat="45.56652" lon="6.66956">
        <ele>953.20001220703</ele>
        <time>2013-04-14T08:52:12Z</time>
      </trkpt>
      <trkpt lat="45.56651" lon="6.66954">
        <ele>953.20001220703</ele>
        <time>2013-04-14T08:52:13Z</time>
      </trkpt>
      <trkpt lat="45.56649" lon="6.6695">
        <ele>953</ele>
        <time>2013-04-14T08:52:14Z</time>
      </trkpt>
      <trkpt lat="45.56646" lon="6.66943">
        <ele>952.79998779297</ele>
        <time>2013-04-14T08:52:16Z</time>
      </trkpt>
      <trkpt lat="45.56637" lon="6.66924">
        <ele>952.20001220703</ele>
        <time>2013-04-14T08:52:22Z</time>
      </trkpt>
      <trkpt lat="45.56634" lon="6.66919">
        <ele>951.79998779297</ele>
        <time>2013-04-14T08:52:24Z</time>
      </trkpt>
      <trkpt lat="45.56633" lon="6.66916">
        <ele>951.59997558594</ele>
        <time>2013-04-14T08:52:25Z</time>
      </trkpt>
      <trkpt lat="45.56631" lon="6.66912">
        <ele>951.20001220703</ele>
        <time>2013-04-14T08:52:26Z</time>
      </trkpt>
      <trkpt lat="45.5662" lon="6.66896">
        <ele>949.40002441406</ele>
        <time>2013-04-14T08:52:32Z</time>
      </trkpt>
      <trkpt lat="45.56619" lon="6.66894">
        <ele>949.20001220703</ele>
        <time>2013-04-14T08:52:33Z</time>
      </trkpt>
      <trkpt lat="45.56617" lon="6.66891">
        <ele>948.79998779297</ele>
        <time>2013-04-14T08:52:34Z</time>
      </trkpt>
      <trkpt lat="45.56613" lon="6.66886">
        <ele>948</ele>
        <time>2013-04-14T08:52:36Z</time>
      </trkpt>
      <trkpt lat="45.56611" lon="6.66883">
        <ele>947.79998779297</ele>
        <time>2013-04-14T08:52:37Z</time>
      </trkpt>
      <trkpt lat="45.5661" lon="6.66881">
        <ele>947.40002441406</ele>
        <time>2013-04-14T08:52:38Z</time>
      </trkpt>
      <trkpt lat="45.56597" lon="6.66867">
        <ele>945.20001220703</ele>
        <time>2013-04-14T08:52:44Z</time>
      </trkpt>
      <trkpt lat="45.56595" lon="6.66865">
        <ele>944.79998779297</ele>
        <time>2013-04-14T08:52:45Z</time>
      </trkpt>
      <trkpt lat="45.56593" lon="6.66863">
        <ele>944.40002441406</ele>
        <time>2013-04-14T08:52:46Z</time>
      </trkpt>
      <trkpt lat="45.56588" lon="6.66857">
        <ele>943.40002441406</ele>
        <time>2013-04-14T08:52:49Z</time>
      </trkpt>
      <trkpt lat="45.56585" lon="6.66855">
        <ele>942.79998779297</ele>
        <time>2013-04-14T08:52:50Z</time>
      </trkpt>
      <trkpt lat="45.5658" lon="6.66852">
        <ele>941.79998779297</ele>
        <time>2013-04-14T08:52:52Z</time>
      </trkpt>
      <trkpt lat="45.56575" lon="6.66849">
        <ele>940.79998779297</ele>
        <time>2013-04-14T08:52:54Z</time>
      </trkpt>
      <trkpt lat="45.56573" lon="6.66847">
        <ele>940.40002441406</ele>
        <time>2013-04-14T08:52:55Z</time>
      </trkpt>
      <trkpt lat="45.5657" lon="6.66845">
        <ele>940</ele>
        <time>2013-04-14T08:52:56Z</time>
      </trkpt>
      <trkpt lat="45.56556" lon="6.66835">
        <ele>937.59997558594</ele>
        <time>2013-04-14T08:53:02Z</time>
      </trkpt>
      <trkpt lat="45.56554" lon="6.66833">
        <ele>937.20001220703</ele>
        <time>2013-04-14T08:53:03Z</time>
      </trkpt>
      <trkpt lat="45.56549" lon="6.6683">
        <ele>936.20001220703</ele>
        <time>2013-04-14T08:53:05Z</time>
      </trkpt>
      <trkpt lat="45.56547" lon="6.66828">
        <ele>935.79998779297</ele>
        <time>2013-04-14T08:53:06Z</time>
      </trkpt>
      <trkpt lat="45.56542" lon="6.66825">
        <ele>934.79998779297</ele>
        <time>2013-04-14T08:53:08Z</time>
      </trkpt>
      <trkpt lat="45.56538" lon="6.66821">
        <ele>934</ele>
        <time>2013-04-14T08:53:10Z</time>
      </trkpt>
      <trkpt lat="45.56535" lon="6.66819">
        <ele>933.59997558594</ele>
        <time>2013-04-14T08:53:11Z</time>
      </trkpt>
      <trkpt lat="45.56533" lon="6.66816">
        <ele>933.40002441406</ele>
        <time>2013-04-14T08:53:12Z</time>
      </trkpt>
      <trkpt lat="45.56529" lon="6.66812">
        <ele>932.59997558594</ele>
        <time>2013-04-14T08:53:14Z</time>
      </trkpt>
      <trkpt lat="45.56527" lon="6.66809">
        <ele>932.20001220703</ele>
        <time>2013-04-14T08:53:15Z</time>
      </trkpt>
      <trkpt lat="45.56518" lon="6.668">
        <ele>930.79998779297</ele>
        <time>2013-04-14T08:53:19Z</time>
      </trkpt>
      <trkpt lat="45.56514" lon="6.66795">
        <ele>930.20001220703</ele>
        <time>2013-04-14T08:53:21Z</time>
      </trkpt>
      <trkpt lat="45.56512" lon="6.66793">
        <ele>930</ele>
        <time>2013-04-14T08:53:22Z</time>
      </trkpt>
      <trkpt lat="45.56511" lon="6.6679">
        <ele>929.79998779297</ele>
        <time>2013-04-14T08:53:23Z</time>
      </trkpt>
      <trkpt lat="45.56505" lon="6.66778">
        <ele>929.40002441406</ele>
        <time>2013-04-14T08:53:27Z</time>
      </trkpt>
      <trkpt lat="45.56504" lon="6.66774">
        <ele>929.20001220703</ele>
        <time>2013-04-14T08:53:28Z</time>
      </trkpt>
      <trkpt lat="45.56502" lon="6.66771">
        <ele>929.20001220703</ele>
        <time>2013-04-14T08:53:29Z</time>
      </trkpt>
      <trkpt lat="45.565" lon="6.66764">
        <ele>928.79998779297</ele>
        <time>2013-04-14T08:53:31Z</time>
      </trkpt>
      <trkpt lat="45.56498" lon="6.6676">
        <ele>928.59997558594</ele>
        <time>2013-04-14T08:53:32Z</time>
      </trkpt>
      <trkpt lat="45.56493" lon="6.66735">
        <ele>926.40002441406</ele>
        <time>2013-04-14T08:53:39Z</time>
      </trkpt>
      <trkpt lat="45.56492" lon="6.66727">
        <ele>926</ele>
        <time>2013-04-14T08:53:41Z</time>
      </trkpt>
      <trkpt lat="45.56491" lon="6.66723">
        <ele>925.59997558594</ele>
        <time>2013-04-14T08:53:42Z</time>
      </trkpt>
      <trkpt lat="45.5649" lon="6.66715">
        <ele>925</ele>
        <time>2013-04-14T08:53:44Z</time>
      </trkpt>
      <trkpt lat="45.56489" lon="6.66711">
        <ele>924.79998779297</ele>
        <time>2013-04-14T08:53:45Z</time>
      </trkpt>
      <trkpt lat="45.56489" lon="6.66708">
        <ele>924.40002441406</ele>
        <time>2013-04-14T08:53:46Z</time>
      </trkpt>
      <trkpt lat="45.56488" lon="6.667">
        <ele>923.79998779297</ele>
        <time>2013-04-14T08:53:48Z</time>
      </trkpt>
      <trkpt lat="45.56487" lon="6.66697">
        <ele>923.59997558594</ele>
        <time>2013-04-14T08:53:49Z</time>
      </trkpt>
      <trkpt lat="45.56486" lon="6.66693">
        <ele>923.20001220703</ele>
        <time>2013-04-14T08:53:50Z</time>
      </trkpt>
      <trkpt lat="45.56485" lon="6.66685">
        <ele>922.59997558594</ele>
        <time>2013-04-14T08:53:52Z</time>
      </trkpt>
      <trkpt lat="45.56485" lon="6.66681">
        <ele>922.40002441406</ele>
        <time>2013-04-14T08:53:53Z</time>
      </trkpt>
      <trkpt lat="45.56484" lon="6.66678">
        <ele>922.20001220703</ele>
        <time>2013-04-14T08:53:54Z</time>
      </trkpt>
      <trkpt lat="45.56483" lon="6.6667">
        <ele>921.59997558594</ele>
        <time>2013-04-14T08:53:56Z</time>
      </trkpt>
      <trkpt lat="45.56482" lon="6.66666">
        <ele>921.20001220703</ele>
        <time>2013-04-14T08:53:57Z</time>
      </trkpt>
      <trkpt lat="45.56481" lon="6.66662">
        <ele>921</ele>
        <time>2013-04-14T08:53:58Z</time>
      </trkpt>
      <trkpt lat="45.5648" lon="6.66654">
        <ele>920.59997558594</ele>
        <time>2013-04-14T08:54:00Z</time>
      </trkpt>
      <trkpt lat="45.56479" lon="6.6665">
        <ele>920.20001220703</ele>
        <time>2013-04-14T08:54:01Z</time>
      </trkpt>
      <trkpt lat="45.56478" lon="6.66646">
        <ele>920</ele>
        <time>2013-04-14T08:54:02Z</time>
      </trkpt>
      <trkpt lat="45.56477" lon="6.66639">
        <ele>919.59997558594</ele>
        <time>2013-04-14T08:54:04Z</time>
      </trkpt>
      <trkpt lat="45.56476" lon="6.66632">
        <ele>919.20001220703</ele>
        <time>2013-04-14T08:54:06Z</time>
      </trkpt>
      <trkpt lat="45.56474" lon="6.66625">
        <ele>918.79998779297</ele>
        <time>2013-04-14T08:54:08Z</time>
      </trkpt>
      <trkpt lat="45.56474" lon="6.6662">
        <ele>918.59997558594</ele>
        <time>2013-04-14T08:54:09Z</time>
      </trkpt>
      <trkpt lat="45.56473" lon="6.66616">
        <ele>918.40002441406</ele>
        <time>2013-04-14T08:54:10Z</time>
      </trkpt>
      <trkpt lat="45.56472" lon="6.66609">
        <ele>918.20001220703</ele>
        <time>2013-04-14T08:54:12Z</time>
      </trkpt>
      <trkpt lat="45.56471" lon="6.66605">
        <ele>918</ele>
        <time>2013-04-14T08:54:13Z</time>
      </trkpt>
      <trkpt lat="45.56468" lon="6.66586">
        <ele>917.20001220703</ele>
        <time>2013-04-14T08:54:18Z</time>
      </trkpt>
      <trkpt lat="45.56466" lon="6.66575">
        <ele>916.59997558594</ele>
        <time>2013-04-14T08:54:21Z</time>
      </trkpt>
      <trkpt lat="45.56465" lon="6.66571">
        <ele>916.40002441406</ele>
        <time>2013-04-14T08:54:22Z</time>
      </trkpt>
      <trkpt lat="45.56465" lon="6.66568">
        <ele>916.20001220703</ele>
        <time>2013-04-14T08:54:23Z</time>
      </trkpt>
      <trkpt lat="45.56464" lon="6.6656">
        <ele>916</ele>
        <time>2013-04-14T08:54:25Z</time>
      </trkpt>
      <trkpt lat="45.56461" lon="6.66545">
        <ele>915.20001220703</ele>
        <time>2013-04-14T08:54:29Z</time>
      </trkpt>
      <trkpt lat="45.56461" lon="6.66541">
        <ele>915.20001220703</ele>
        <time>2013-04-14T08:54:30Z</time>
      </trkpt>
      <trkpt lat="45.5646" lon="6.66533">
        <ele>915</ele>
        <time>2013-04-14T08:54:32Z</time>
      </trkpt>
      <trkpt lat="45.56459" lon="6.6653">
        <ele>914.79998779297</ele>
        <time>2013-04-14T08:54:33Z</time>
      </trkpt>
      <trkpt lat="45.56459" lon="6.66526">
        <ele>914.59997558594</ele>
        <time>2013-04-14T08:54:34Z</time>
      </trkpt>
      <trkpt lat="45.56458" lon="6.66514">
        <ele>914.40002441406</ele>
        <time>2013-04-14T08:54:37Z</time>
      </trkpt>
      <trkpt lat="45.56457" lon="6.6651">
        <ele>914.40002441406</ele>
        <time>2013-04-14T08:54:38Z</time>
      </trkpt>
      <trkpt lat="45.56457" lon="6.66507">
        <ele>914.20001220703</ele>
        <time>2013-04-14T08:54:39Z</time>
      </trkpt>
      <trkpt lat="45.56455" lon="6.66495">
        <ele>913.79998779297</ele>
        <time>2013-04-14T08:54:42Z</time>
      </trkpt>
      <trkpt lat="45.56455" lon="6.66491">
        <ele>913.20001220703</ele>
        <time>2013-04-14T08:54:43Z</time>
      </trkpt>
      <trkpt lat="45.56449" lon="6.66465">
        <ele>910.20001220703</ele>
        <time>2013-04-14T08:54:50Z</time>
      </trkpt>
      <trkpt lat="45.56442" lon="6.66444">
        <ele>907.79998779297</ele>
        <time>2013-04-14T08:54:56Z</time>
      </trkpt>
      <trkpt lat="45.5644" lon="6.66441">
        <ele>907.40002441406</ele>
        <time>2013-04-14T08:54:57Z</time>
      </trkpt>
      <trkpt lat="45.56437" lon="6.66436">
        <ele>906.59997558594</ele>
        <time>2013-04-14T08:54:59Z</time>
      </trkpt>
      <trkpt lat="45.56435" lon="6.66433">
        <ele>906.20001220703</ele>
        <time>2013-04-14T08:55:00Z</time>
      </trkpt>
      <trkpt lat="45.56433" lon="6.6643">
        <ele>906</ele>
        <time>2013-04-14T08:55:01Z</time>
      </trkpt>
      <trkpt lat="45.56428" lon="6.66421">
        <ele>905.20001220703</ele>
        <time>2013-04-14T08:55:04Z</time>
      </trkpt>
      <trkpt lat="45.56418" lon="6.66402">
        <ele>903</ele>
        <time>2013-04-14T08:55:10Z</time>
      </trkpt>
      <trkpt lat="45.56416" lon="6.664">
        <ele>902.59997558594</ele>
        <time>2013-04-14T08:55:11Z</time>
      </trkpt>
      <trkpt lat="45.56413" lon="6.66393">
        <ele>901.40002441406</ele>
        <time>2013-04-14T08:55:13Z</time>
      </trkpt>
      <trkpt lat="45.56412" lon="6.66389">
        <ele>900.79998779297</ele>
        <time>2013-04-14T08:55:14Z</time>
      </trkpt>
      <trkpt lat="45.56411" lon="6.66386">
        <ele>900.20001220703</ele>
        <time>2013-04-14T08:55:15Z</time>
      </trkpt>
      <trkpt lat="45.56406" lon="6.66369">
        <ele>898</ele>
        <time>2013-04-14T08:55:20Z</time>
      </trkpt>
      <trkpt lat="45.56406" lon="6.66365">
        <ele>897.79998779297</ele>
        <time>2013-04-14T08:55:21Z</time>
      </trkpt>
      <trkpt lat="45.56406" lon="6.66362">
        <ele>897.40002441406</ele>
        <time>2013-04-14T08:55:22Z</time>
      </trkpt>
      <trkpt lat="45.56405" lon="6.66355">
        <ele>897</ele>
        <time>2013-04-14T08:55:24Z</time>
      </trkpt>
      <trkpt lat="45.56405" lon="6.66351">
        <ele>896.79998779297</ele>
        <time>2013-04-14T08:55:25Z</time>
      </trkpt>
      <trkpt lat="45.56401" lon="6.66331">
        <ele>894.59997558594</ele>
        <time>2013-04-14T08:55:31Z</time>
      </trkpt>
      <trkpt lat="45.564" lon="6.66327">
        <ele>893.79998779297</ele>
        <time>2013-04-14T08:55:32Z</time>
      </trkpt>
      <trkpt lat="45.56399" lon="6.66324">
        <ele>893.20001220703</ele>
        <time>2013-04-14T08:55:33Z</time>
      </trkpt>
      <trkpt lat="45.56398" lon="6.66318">
        <ele>892</ele>
        <time>2013-04-14T08:55:35Z</time>
      </trkpt>
      <trkpt lat="45.56394" lon="6.66301">
        <ele>889.20001220703</ele>
        <time>2013-04-14T08:55:40Z</time>
      </trkpt>
      <trkpt lat="45.56393" lon="6.66298">
        <ele>888.79998779297</ele>
        <time>2013-04-14T08:55:41Z</time>
      </trkpt>
      <trkpt lat="45.56392" lon="6.66292">
        <ele>887.79998779297</ele>
        <time>2013-04-14T08:55:43Z</time>
      </trkpt>
      <trkpt lat="45.56392" lon="6.66288">
        <ele>887.40002441406</ele>
        <time>2013-04-14T08:55:44Z</time>
      </trkpt>
      <trkpt lat="45.56392" lon="6.66284">
        <ele>887</ele>
        <time>2013-04-14T08:55:45Z</time>
      </trkpt>
      <trkpt lat="45.56392" lon="6.6628">
        <ele>886.40002441406</ele>
        <time>2013-04-14T08:55:47Z</time>
      </trkpt>
      <trkpt lat="45.56392" lon="6.66277">
        <ele>886.20001220703</ele>
        <time>2013-04-14T08:55:49Z</time>
      </trkpt>
      <trkpt lat="45.56392" lon="6.66277">
        <ele>886.20001220703</ele>
        <time>2013-04-14T08:55:50Z</time>
      </trkpt>
      <trkpt lat="45.56389" lon="6.66275">
        <ele>885.59997558594</ele>
        <time>2013-04-14T08:55:52Z</time>
      </trkpt>
      <trkpt lat="45.56388" lon="6.66272">
        <ele>885.20001220703</ele>
        <time>2013-04-14T08:55:53Z</time>
      </trkpt>
      <trkpt lat="45.56386" lon="6.66269">
        <ele>884.79998779297</ele>
        <time>2013-04-14T08:55:54Z</time>
      </trkpt>
      <trkpt lat="45.56379" lon="6.66248">
        <ele>882.59997558594</ele>
        <time>2013-04-14T08:56:00Z</time>
      </trkpt>
      <trkpt lat="45.56378" lon="6.66244">
        <ele>882.20001220703</ele>
        <time>2013-04-14T08:56:01Z</time>
      </trkpt>
      <trkpt lat="45.56377" lon="6.6624">
        <ele>881.59997558594</ele>
        <time>2013-04-14T08:56:02Z</time>
      </trkpt>
      <trkpt lat="45.56376" lon="6.66232">
        <ele>880.79998779297</ele>
        <time>2013-04-14T08:56:04Z</time>
      </trkpt>
      <trkpt lat="45.56374" lon="6.66203">
        <ele>877.59997558594</ele>
        <time>2013-04-14T08:56:11Z</time>
      </trkpt>
      <trkpt lat="45.56373" lon="6.66191">
        <ele>876.40002441406</ele>
        <time>2013-04-14T08:56:14Z</time>
      </trkpt>
      <trkpt lat="45.56372" lon="6.66187">
        <ele>876.20001220703</ele>
        <time>2013-04-14T08:56:15Z</time>
      </trkpt>
      <trkpt lat="45.56371" lon="6.66183">
        <ele>875.79998779297</ele>
        <time>2013-04-14T08:56:16Z</time>
      </trkpt>
      <trkpt lat="45.56369" lon="6.66177">
        <ele>875.59997558594</ele>
        <time>2013-04-14T08:56:18Z</time>
      </trkpt>
      <trkpt lat="45.56363" lon="6.66164">
        <ele>875.40002441406</ele>
        <time>2013-04-14T08:56:22Z</time>
      </trkpt>
      <trkpt lat="45.56362" lon="6.66161">
        <ele>875.59997558594</ele>
        <time>2013-04-14T08:56:23Z</time>
      </trkpt>
      <trkpt lat="45.56358" lon="6.66154">
        <ele>875.59997558594</ele>
        <time>2013-04-14T08:56:25Z</time>
      </trkpt>
      <trkpt lat="45.56356" lon="6.66151">
        <ele>875.79998779297</ele>
        <time>2013-04-14T08:56:26Z</time>
      </trkpt>
      <trkpt lat="45.56355" lon="6.66148">
        <ele>876</ele>
        <time>2013-04-14T08:56:27Z</time>
      </trkpt>
      <trkpt lat="45.56349" lon="6.66138">
        <ele>876.40002441406</ele>
        <time>2013-04-14T08:56:30Z</time>
      </trkpt>
      <trkpt lat="45.56348" lon="6.66135">
        <ele>876.59997558594</ele>
        <time>2013-04-14T08:56:31Z</time>
      </trkpt>
      <trkpt lat="45.56346" lon="6.66131">
        <ele>876.79998779297</ele>
        <time>2013-04-14T08:56:32Z</time>
      </trkpt>
      <trkpt lat="45.56343" lon="6.66125">
        <ele>877.20001220703</ele>
        <time>2013-04-14T08:56:34Z</time>
      </trkpt>
      <trkpt lat="45.56341" lon="6.66122">
        <ele>877.40002441406</ele>
        <time>2013-04-14T08:56:35Z</time>
      </trkpt>
      <trkpt lat="45.56339" lon="6.66118">
        <ele>877.79998779297</ele>
        <time>2013-04-14T08:56:36Z</time>
      </trkpt>
      <trkpt lat="45.56336" lon="6.66112">
        <ele>878.40002441406</ele>
        <time>2013-04-14T08:56:38Z</time>
      </trkpt>
      <trkpt lat="45.56335" lon="6.66109">
        <ele>878.59997558594</ele>
        <time>2013-04-14T08:56:39Z</time>
      </trkpt>
      <trkpt lat="45.56333" lon="6.66105">
        <ele>879</ele>
        <time>2013-04-14T08:56:40Z</time>
      </trkpt>
      <trkpt lat="45.56328" lon="6.66087">
        <ele>877</ele>
        <time>2013-04-14T08:56:45Z</time>
      </trkpt>
      <trkpt lat="45.56327" lon="6.66083">
        <ele>876.79998779297</ele>
        <time>2013-04-14T08:56:46Z</time>
      </trkpt>
      <trkpt lat="45.56327" lon="6.66076">
        <ele>876.20001220703</ele>
        <time>2013-04-14T08:56:48Z</time>
      </trkpt>
      <trkpt lat="45.56329" lon="6.66055">
        <ele>875</ele>
        <time>2013-04-14T08:56:53Z</time>
      </trkpt>
      <trkpt lat="45.56329" lon="6.66051">
        <ele>875</ele>
        <time>2013-04-14T08:56:54Z</time>
      </trkpt>
      <trkpt lat="45.5633" lon="6.66043">
        <ele>874.59997558594</ele>
        <time>2013-04-14T08:56:56Z</time>
      </trkpt>
      <trkpt lat="45.56331" lon="6.66039">
        <ele>874.40002441406</ele>
        <time>2013-04-14T08:56:57Z</time>
      </trkpt>
      <trkpt lat="45.56332" lon="6.66032">
        <ele>874</ele>
        <time>2013-04-14T08:56:59Z</time>
      </trkpt>
      <trkpt lat="45.56332" lon="6.66024">
        <ele>873.40002441406</ele>
        <time>2013-04-14T08:57:01Z</time>
      </trkpt>
      <trkpt lat="45.56333" lon="6.6602">
        <ele>873.20001220703</ele>
        <time>2013-04-14T08:57:02Z</time>
      </trkpt>
      <trkpt lat="45.56333" lon="6.66016">
        <ele>873</ele>
        <time>2013-04-14T08:57:03Z</time>
      </trkpt>
      <trkpt lat="45.56333" lon="6.66005">
        <ele>872.20001220703</ele>
        <time>2013-04-14T08:57:06Z</time>
      </trkpt>
      <trkpt lat="45.5633" lon="6.65983">
        <ele>869.40002441406</ele>
        <time>2013-04-14T08:57:12Z</time>
      </trkpt>
      <trkpt lat="45.56329" lon="6.6598">
        <ele>869</ele>
        <time>2013-04-14T08:57:13Z</time>
      </trkpt>
      <trkpt lat="45.56328" lon="6.65973">
        <ele>868</ele>
        <time>2013-04-14T08:57:15Z</time>
      </trkpt>
      <trkpt lat="45.56328" lon="6.6597">
        <ele>867.59997558594</ele>
        <time>2013-04-14T08:57:16Z</time>
      </trkpt>
      <trkpt lat="45.56327" lon="6.65966">
        <ele>867.20001220703</ele>
        <time>2013-04-14T08:57:17Z</time>
      </trkpt>
      <trkpt lat="45.56325" lon="6.65959">
        <ele>866.20001220703</ele>
        <time>2013-04-14T08:57:19Z</time>
      </trkpt>
      <trkpt lat="45.56324" lon="6.65956">
        <ele>865.79998779297</ele>
        <time>2013-04-14T08:57:20Z</time>
      </trkpt>
      <trkpt lat="45.56321" lon="6.65946">
        <ele>864.59997558594</ele>
        <time>2013-04-14T08:57:23Z</time>
      </trkpt>
      <trkpt lat="45.5632" lon="6.65943">
        <ele>864.40002441406</ele>
        <time>2013-04-14T08:57:24Z</time>
      </trkpt>
      <trkpt lat="45.56315" lon="6.65935">
        <ele>863.40002441406</ele>
        <time>2013-04-14T08:57:27Z</time>
      </trkpt>
      <trkpt lat="45.56311" lon="6.65929">
        <ele>863</ele>
        <time>2013-04-14T08:57:29Z</time>
      </trkpt>
      <trkpt lat="45.56309" lon="6.65927">
        <ele>862.79998779297</ele>
        <time>2013-04-14T08:57:30Z</time>
      </trkpt>
      <trkpt lat="45.56307" lon="6.65925">
        <ele>862.59997558594</ele>
        <time>2013-04-14T08:57:31Z</time>
      </trkpt>
      <trkpt lat="45.56301" lon="6.65918">
        <ele>862.20001220703</ele>
        <time>2013-04-14T08:57:34Z</time>
      </trkpt>
      <trkpt lat="45.56299" lon="6.65915">
        <ele>861.79998779297</ele>
        <time>2013-04-14T08:57:35Z</time>
      </trkpt>
      <trkpt lat="45.56297" lon="6.65913">
        <ele>861.40002441406</ele>
        <time>2013-04-14T08:57:36Z</time>
      </trkpt>
      <trkpt lat="45.56292" lon="6.65909">
        <ele>860.79998779297</ele>
        <time>2013-04-14T08:57:38Z</time>
      </trkpt>
      <trkpt lat="45.5629" lon="6.65907">
        <ele>860.40002441406</ele>
        <time>2013-04-14T08:57:39Z</time>
      </trkpt>
      <trkpt lat="45.56287" lon="6.65906">
        <ele>860</ele>
        <time>2013-04-14T08:57:40Z</time>
      </trkpt>
      <trkpt lat="45.56281" lon="6.659">
        <ele>859.20001220703</ele>
        <time>2013-04-14T08:57:43Z</time>
      </trkpt>
      <trkpt lat="45.56279" lon="6.65898">
        <ele>858.79998779297</ele>
        <time>2013-04-14T08:57:44Z</time>
      </trkpt>
      <trkpt lat="45.56277" lon="6.65896">
        <ele>858.59997558594</ele>
        <time>2013-04-14T08:57:45Z</time>
      </trkpt>
      <trkpt lat="45.56272" lon="6.65892">
        <ele>858</ele>
        <time>2013-04-14T08:57:47Z</time>
      </trkpt>
      <trkpt lat="45.56268" lon="6.65887">
        <ele>857.20001220703</ele>
        <time>2013-04-14T08:57:49Z</time>
      </trkpt>
      <trkpt lat="45.56265" lon="6.65885">
        <ele>857</ele>
        <time>2013-04-14T08:57:50Z</time>
      </trkpt>
      <trkpt lat="45.56261" lon="6.6588">
        <ele>856.40002441406</ele>
        <time>2013-04-14T08:57:52Z</time>
      </trkpt>
      <trkpt lat="45.56257" lon="6.65877">
        <ele>856.20001220703</ele>
        <time>2013-04-14T08:57:54Z</time>
      </trkpt>
      <trkpt lat="45.56246" lon="6.65872">
        <ele>855.20001220703</ele>
        <time>2013-04-14T08:57:59Z</time>
      </trkpt>
      <trkpt lat="45.56243" lon="6.6587">
        <ele>854.59997558594</ele>
        <time>2013-04-14T08:58:00Z</time>
      </trkpt>
      <trkpt lat="45.56242" lon="6.65869">
        <ele>854</ele>
        <time>2013-04-14T08:58:01Z</time>
      </trkpt>
      <trkpt lat="45.56237" lon="6.65865">
        <ele>852.79998779297</ele>
        <time>2013-04-14T08:58:03Z</time>
      </trkpt>
      <trkpt lat="45.56229" lon="6.6586">
        <ele>851.20001220703</ele>
        <time>2013-04-14T08:58:06Z</time>
      </trkpt>
      <trkpt lat="45.56227" lon="6.65859">
        <ele>850.59997558594</ele>
        <time>2013-04-14T08:58:07Z</time>
      </trkpt>
      <trkpt lat="45.56222" lon="6.65855">
        <ele>849.59997558594</ele>
        <time>2013-04-14T08:58:09Z</time>
      </trkpt>
      <trkpt lat="45.5622" lon="6.65854">
        <ele>849.20001220703</ele>
        <time>2013-04-14T08:58:10Z</time>
      </trkpt>
      <trkpt lat="45.56218" lon="6.65852">
        <ele>848.59997558594</ele>
        <time>2013-04-14T08:58:11Z</time>
      </trkpt>
      <trkpt lat="45.56213" lon="6.65847">
        <ele>847.79998779297</ele>
        <time>2013-04-14T08:58:13Z</time>
      </trkpt>
      <trkpt lat="45.56211" lon="6.65845">
        <ele>847.20001220703</ele>
        <time>2013-04-14T08:58:14Z</time>
      </trkpt>
      <trkpt lat="45.56209" lon="6.65843">
        <ele>846.79998779297</ele>
        <time>2013-04-14T08:58:15Z</time>
      </trkpt>
      <trkpt lat="45.56205" lon="6.65839">
        <ele>846.20001220703</ele>
        <time>2013-04-14T08:58:17Z</time>
      </trkpt>
      <trkpt lat="45.56204" lon="6.65837">
        <ele>845.79998779297</ele>
        <time>2013-04-14T08:58:18Z</time>
      </trkpt>
      <trkpt lat="45.56202" lon="6.65835">
        <ele>845.59997558594</ele>
        <time>2013-04-14T08:58:19Z</time>
      </trkpt>
      <trkpt lat="45.56198" lon="6.65832">
        <ele>844.79998779297</ele>
        <time>2013-04-14T08:58:21Z</time>
      </trkpt>
      <trkpt lat="45.56196" lon="6.6583">
        <ele>844.20001220703</ele>
        <time>2013-04-14T08:58:22Z</time>
      </trkpt>
      <trkpt lat="45.56194" lon="6.65829">
        <ele>843.79998779297</ele>
        <time>2013-04-14T08:58:23Z</time>
      </trkpt>
      <trkpt lat="45.56188" lon="6.65824">
        <ele>842.40002441406</ele>
        <time>2013-04-14T08:58:26Z</time>
      </trkpt>
      <trkpt lat="45.56187" lon="6.65823">
        <ele>842</ele>
        <time>2013-04-14T08:58:27Z</time>
      </trkpt>
      <trkpt lat="45.56184" lon="6.6582">
        <ele>841.20001220703</ele>
        <time>2013-04-14T08:58:29Z</time>
      </trkpt>
      <trkpt lat="45.56183" lon="6.65818">
        <ele>840.79998779297</ele>
        <time>2013-04-14T08:58:30Z</time>
      </trkpt>
      <trkpt lat="45.56181" lon="6.65816">
        <ele>840.40002441406</ele>
        <time>2013-04-14T08:58:31Z</time>
      </trkpt>
      <trkpt lat="45.56178" lon="6.65813">
        <ele>839.40002441406</ele>
        <time>2013-04-14T08:58:33Z</time>
      </trkpt>
      <trkpt lat="45.56177" lon="6.6581">
        <ele>839</ele>
        <time>2013-04-14T08:58:34Z</time>
      </trkpt>
      <trkpt lat="45.56176" lon="6.65808">
        <ele>838.40002441406</ele>
        <time>2013-04-14T08:58:35Z</time>
      </trkpt>
      <trkpt lat="45.56173" lon="6.65803">
        <ele>837.40002441406</ele>
        <time>2013-04-14T08:58:37Z</time>
      </trkpt>
      <trkpt lat="45.56172" lon="6.65801">
        <ele>837</ele>
        <time>2013-04-14T08:58:38Z</time>
      </trkpt>
      <trkpt lat="45.5617" lon="6.658">
        <ele>836.59997558594</ele>
        <time>2013-04-14T08:58:39Z</time>
      </trkpt>
      <trkpt lat="45.56168" lon="6.65796">
        <ele>835.79998779297</ele>
        <time>2013-04-14T08:58:41Z</time>
      </trkpt>
      <trkpt lat="45.56166" lon="6.65795">
        <ele>835.40002441406</ele>
        <time>2013-04-14T08:58:42Z</time>
      </trkpt>
      <trkpt lat="45.56164" lon="6.65793">
        <ele>834.79998779297</ele>
        <time>2013-04-14T08:58:43Z</time>
      </trkpt>
      <trkpt lat="45.5616" lon="6.65791">
        <ele>833.79998779297</ele>
        <time>2013-04-14T08:58:45Z</time>
      </trkpt>
      <trkpt lat="45.56158" lon="6.65791">
        <ele>833.40002441406</ele>
        <time>2013-04-14T08:58:46Z</time>
      </trkpt>
      <trkpt lat="45.56156" lon="6.6579">
        <ele>833</ele>
        <time>2013-04-14T08:58:47Z</time>
      </trkpt>
      <trkpt lat="45.56152" lon="6.6579">
        <ele>832.40002441406</ele>
        <time>2013-04-14T08:58:49Z</time>
      </trkpt>
      <trkpt lat="45.5615" lon="6.65791">
        <ele>832.20001220703</ele>
        <time>2013-04-14T08:58:50Z</time>
      </trkpt>
      <trkpt lat="45.56145" lon="6.65793">
        <ele>831.79998779297</ele>
        <time>2013-04-14T08:58:53Z</time>
      </trkpt>
      <trkpt lat="45.56143" lon="6.65792">
        <ele>831.40002441406</ele>
        <time>2013-04-14T08:58:54Z</time>
      </trkpt>
      <trkpt lat="45.56141" lon="6.65791">
        <ele>830.79998779297</ele>
        <time>2013-04-14T08:58:55Z</time>
      </trkpt>
      <trkpt lat="45.56137" lon="6.65789">
        <ele>830</ele>
        <time>2013-04-14T08:58:57Z</time>
      </trkpt>
      <trkpt lat="45.56135" lon="6.65789">
        <ele>829.79998779297</ele>
        <time>2013-04-14T08:58:58Z</time>
      </trkpt>
      <trkpt lat="45.56133" lon="6.65788">
        <ele>829.20001220703</ele>
        <time>2013-04-14T08:58:59Z</time>
      </trkpt>
      <trkpt lat="45.56128" lon="6.65785">
        <ele>828.20001220703</ele>
        <time>2013-04-14T08:59:01Z</time>
      </trkpt>
      <trkpt lat="45.56127" lon="6.65783">
        <ele>827.79998779297</ele>
        <time>2013-04-14T08:59:02Z</time>
      </trkpt>
      <trkpt lat="45.56124" lon="6.65781">
        <ele>827.20001220703</ele>
        <time>2013-04-14T08:59:06Z</time>
      </trkpt>
      <trkpt lat="45.56124" lon="6.65781">
        <ele>827.20001220703</ele>
        <time>2013-04-14T08:59:08Z</time>
      </trkpt>
      <trkpt lat="45.56124" lon="6.65781">
        <ele>827.20001220703</ele>
        <time>2013-04-14T08:59:09Z</time>
      </trkpt>
      <trkpt lat="45.56124" lon="6.65781">
        <ele>827.20001220703</ele>
        <time>2013-04-14T08:59:10Z</time>
      </trkpt>
      <trkpt lat="45.56118" lon="6.65781">
        <ele>826.40002441406</ele>
        <time>2013-04-14T08:59:24Z</time>
      </trkpt>
      <trkpt lat="45.56119" lon="6.65772">
        <ele>825.40002441406</ele>
        <time>2013-04-14T08:59:26Z</time>
      </trkpt>
      <trkpt lat="45.56112" lon="6.65767">
        <ele>824.20001220703</ele>
        <time>2013-04-14T08:59:30Z</time>
      </trkpt>
      <trkpt lat="45.56099" lon="6.65747">
        <ele>820.40002441406</ele>
        <time>2013-04-14T08:59:38Z</time>
      </trkpt>
      <trkpt lat="45.56097" lon="6.65744">
        <ele>819.59997558594</ele>
        <time>2013-04-14T08:59:39Z</time>
      </trkpt>
      <trkpt lat="45.56096" lon="6.65742">
        <ele>819</ele>
        <time>2013-04-14T08:59:40Z</time>
      </trkpt>
      <trkpt lat="45.56092" lon="6.65737">
        <ele>817.59997558594</ele>
        <time>2013-04-14T08:59:42Z</time>
      </trkpt>
      <trkpt lat="45.56088" lon="6.65735">
        <ele>816.79998779297</ele>
        <time>2013-04-14T08:59:44Z</time>
      </trkpt>
      <trkpt lat="45.56083" lon="6.65728">
        <ele>815</ele>
        <time>2013-04-14T08:59:47Z</time>
      </trkpt>
      <trkpt lat="45.5608" lon="6.65725">
        <ele>813.79998779297</ele>
        <time>2013-04-14T08:59:48Z</time>
      </trkpt>
      <trkpt lat="45.56079" lon="6.65721">
        <ele>812.40002441406</ele>
        <time>2013-04-14T08:59:49Z</time>
      </trkpt>
      <trkpt lat="45.56076" lon="6.65713">
        <ele>810</ele>
        <time>2013-04-14T08:59:51Z</time>
      </trkpt>
      <trkpt lat="45.56076" lon="6.6571">
        <ele>809.20001220703</ele>
        <time>2013-04-14T08:59:52Z</time>
      </trkpt>
      <trkpt lat="45.56075" lon="6.65706">
        <ele>808.20001220703</ele>
        <time>2013-04-14T08:59:53Z</time>
      </trkpt>
      <trkpt lat="45.56073" lon="6.657">
        <ele>806.40002441406</ele>
        <time>2013-04-14T08:59:55Z</time>
      </trkpt>
      <trkpt lat="45.56072" lon="6.65697">
        <ele>805.79998779297</ele>
        <time>2013-04-14T08:59:56Z</time>
      </trkpt>
      <trkpt lat="45.56072" lon="6.65694">
        <ele>805</ele>
        <time>2013-04-14T08:59:57Z</time>
      </trkpt>
      <trkpt lat="45.56069" lon="6.6569">
        <ele>803.40002441406</ele>
        <time>2013-04-14T08:59:59Z</time>
      </trkpt>
      <trkpt lat="45.56068" lon="6.65687">
        <ele>802.59997558594</ele>
        <time>2013-04-14T09:00:00Z</time>
      </trkpt>
      <trkpt lat="45.56067" lon="6.65685">
        <ele>801.79998779297</ele>
        <time>2013-04-14T09:00:01Z</time>
      </trkpt>
      <trkpt lat="45.56066" lon="6.65681">
        <ele>800.79998779297</ele>
        <time>2013-04-14T09:00:03Z</time>
      </trkpt>
      <trkpt lat="45.56066" lon="6.65678">
        <ele>800.40002441406</ele>
        <time>2013-04-14T09:00:04Z</time>
      </trkpt>
      <trkpt lat="45.56067" lon="6.65677">
        <ele>800.20001220703</ele>
        <time>2013-04-14T09:00:05Z</time>
      </trkpt>
      <trkpt lat="45.56067" lon="6.65674">
        <ele>799.79998779297</ele>
        <time>2013-04-14T09:00:07Z</time>
      </trkpt>
      <trkpt lat="45.56067" lon="6.65671">
        <ele>799</ele>
        <time>2013-04-14T09:00:08Z</time>
      </trkpt>
      <trkpt lat="45.56066" lon="6.65668">
        <ele>798.40002441406</ele>
        <time>2013-04-14T09:00:09Z</time>
      </trkpt>
      <trkpt lat="45.56065" lon="6.65659">
        <ele>795.79998779297</ele>
        <time>2013-04-14T09:00:12Z</time>
      </trkpt>
      <trkpt lat="45.56064" lon="6.65657">
        <ele>795</ele>
        <time>2013-04-14T09:00:13Z</time>
      </trkpt>
      <trkpt lat="45.56065" lon="6.65652">
        <ele>794</ele>
        <time>2013-04-14T09:00:15Z</time>
      </trkpt>
      <trkpt lat="45.56066" lon="6.65649">
        <ele>793.59997558594</ele>
        <time>2013-04-14T09:00:16Z</time>
      </trkpt>
      <trkpt lat="45.56066" lon="6.65646">
        <ele>792.59997558594</ele>
        <time>2013-04-14T09:00:17Z</time>
      </trkpt>
      <trkpt lat="45.56065" lon="6.65639">
        <ele>790.59997558594</ele>
        <time>2013-04-14T09:00:19Z</time>
      </trkpt>
      <trkpt lat="45.56065" lon="6.65636">
        <ele>790</ele>
        <time>2013-04-14T09:00:20Z</time>
      </trkpt>
      <trkpt lat="45.56066" lon="6.65634">
        <ele>789.59997558594</ele>
        <time>2013-04-14T09:00:21Z</time>
      </trkpt>
      <trkpt lat="45.56067" lon="6.65629">
        <ele>788.40002441406</ele>
        <time>2013-04-14T09:00:23Z</time>
      </trkpt>
      <trkpt lat="45.56066" lon="6.65625">
        <ele>787.59997558594</ele>
        <time>2013-04-14T09:00:24Z</time>
      </trkpt>
      <trkpt lat="45.56065" lon="6.65622">
        <ele>786.59997558594</ele>
        <time>2013-04-14T09:00:25Z</time>
      </trkpt>
      <trkpt lat="45.56064" lon="6.65616">
        <ele>784.79998779297</ele>
        <time>2013-04-14T09:00:27Z</time>
      </trkpt>
      <trkpt lat="45.56063" lon="6.65613">
        <ele>784</ele>
        <time>2013-04-14T09:00:28Z</time>
      </trkpt>
      <trkpt lat="45.56062" lon="6.6561">
        <ele>783.20001220703</ele>
        <time>2013-04-14T09:00:29Z</time>
      </trkpt>
      <trkpt lat="45.56061" lon="6.65604">
        <ele>781.59997558594</ele>
        <time>2013-04-14T09:00:31Z</time>
      </trkpt>
      <trkpt lat="45.56059" lon="6.65601">
        <ele>780.59997558594</ele>
        <time>2013-04-14T09:00:32Z</time>
      </trkpt>
      <trkpt lat="45.56057" lon="6.65598">
        <ele>779.79998779297</ele>
        <time>2013-04-14T09:00:33Z</time>
      </trkpt>
      <trkpt lat="45.56054" lon="6.65592">
        <ele>778.20001220703</ele>
        <time>2013-04-14T09:00:35Z</time>
      </trkpt>
      <trkpt lat="45.56052" lon="6.65589">
        <ele>777.40002441406</ele>
        <time>2013-04-14T09:00:36Z</time>
      </trkpt>
      <trkpt lat="45.56047" lon="6.65583">
        <ele>775.79998779297</ele>
        <time>2013-04-14T09:00:39Z</time>
      </trkpt>
      <trkpt lat="45.56045" lon="6.65579">
        <ele>774.40002441406</ele>
        <time>2013-04-14T09:00:40Z</time>
      </trkpt>
      <trkpt lat="45.56044" lon="6.65576">
        <ele>773.59997558594</ele>
        <time>2013-04-14T09:00:41Z</time>
      </trkpt>
      <trkpt lat="45.5604" lon="6.6557">
        <ele>771.79998779297</ele>
        <time>2013-04-14T09:00:43Z</time>
      </trkpt>
      <trkpt lat="45.56038" lon="6.65568">
        <ele>771.20001220703</ele>
        <time>2013-04-14T09:00:44Z</time>
      </trkpt>
      <trkpt lat="45.56035" lon="6.65565">
        <ele>770.20001220703</ele>
        <time>2013-04-14T09:00:45Z</time>
      </trkpt>
      <trkpt lat="45.56033" lon="6.65561">
        <ele>769.20001220703</ele>
        <time>2013-04-14T09:00:47Z</time>
      </trkpt>
      <trkpt lat="45.56031" lon="6.65558">
        <ele>768.59997558594</ele>
        <time>2013-04-14T09:00:48Z</time>
      </trkpt>
      <trkpt lat="45.5603" lon="6.65555">
        <ele>767.79998779297</ele>
        <time>2013-04-14T09:00:49Z</time>
      </trkpt>
      <trkpt lat="45.56026" lon="6.6555">
        <ele>766.59997558594</ele>
        <time>2013-04-14T09:00:51Z</time>
      </trkpt>
      <trkpt lat="45.5602" lon="6.6554">
        <ele>764.40002441406</ele>
        <time>2013-04-14T09:00:55Z</time>
      </trkpt>
      <trkpt lat="45.56019" lon="6.65534">
        <ele>763.20001220703</ele>
        <time>2013-04-14T09:00:57Z</time>
      </trkpt>
      <trkpt lat="45.56018" lon="6.65528">
        <ele>762</ele>
        <time>2013-04-14T09:00:59Z</time>
      </trkpt>
      <trkpt lat="45.56017" lon="6.65525">
        <ele>761.40002441406</ele>
        <time>2013-04-14T09:01:00Z</time>
      </trkpt>
      <trkpt lat="45.56015" lon="6.65521">
        <ele>760.59997558594</ele>
        <time>2013-04-14T09:01:01Z</time>
      </trkpt>
      <trkpt lat="45.56012" lon="6.65516">
        <ele>759.79998779297</ele>
        <time>2013-04-14T09:01:03Z</time>
      </trkpt>
      <trkpt lat="45.5601" lon="6.65514">
        <ele>759.59997558594</ele>
        <time>2013-04-14T09:01:04Z</time>
      </trkpt>
      <trkpt lat="45.56009" lon="6.65511">
        <ele>759</ele>
        <time>2013-04-14T09:01:05Z</time>
      </trkpt>
      <trkpt lat="45.56008" lon="6.65505">
        <ele>758</ele>
        <time>2013-04-14T09:01:07Z</time>
      </trkpt>
      <trkpt lat="45.56008" lon="6.65498">
        <ele>756.40002441406</ele>
        <time>2013-04-14T09:01:09Z</time>
      </trkpt>
      <trkpt lat="45.56008" lon="6.65491">
        <ele>754.20001220703</ele>
        <time>2013-04-14T09:01:11Z</time>
      </trkpt>
      <trkpt lat="45.56007" lon="6.65487">
        <ele>753</ele>
        <time>2013-04-14T09:01:12Z</time>
      </trkpt>
      <trkpt lat="45.56007" lon="6.65484">
        <ele>752</ele>
        <time>2013-04-14T09:01:13Z</time>
      </trkpt>
      <trkpt lat="45.56004" lon="6.65479">
        <ele>750.79998779297</ele>
        <time>2013-04-14T09:01:15Z</time>
      </trkpt>
      <trkpt lat="45.56002" lon="6.65476">
        <ele>749.79998779297</ele>
        <time>2013-04-14T09:01:16Z</time>
      </trkpt>
      <trkpt lat="45.56001" lon="6.65474">
        <ele>749.40002441406</ele>
        <time>2013-04-14T09:01:17Z</time>
      </trkpt>
      <trkpt lat="45.55998" lon="6.6547">
        <ele>747.59997558594</ele>
        <time>2013-04-14T09:01:19Z</time>
      </trkpt>
      <trkpt lat="45.55998" lon="6.65468">
        <ele>747</ele>
        <time>2013-04-14T09:01:20Z</time>
      </trkpt>
      <trkpt lat="45.55998" lon="6.65466">
        <ele>746.20001220703</ele>
        <time>2013-04-14T09:01:21Z</time>
      </trkpt>
      <trkpt lat="45.55998" lon="6.65461">
        <ele>744.79998779297</ele>
        <time>2013-04-14T09:01:23Z</time>
      </trkpt>
      <trkpt lat="45.55998" lon="6.65457">
        <ele>743.59997558594</ele>
        <time>2013-04-14T09:01:24Z</time>
      </trkpt>
      <trkpt lat="45.55997" lon="6.65453">
        <ele>742.20001220703</ele>
        <time>2013-04-14T09:01:25Z</time>
      </trkpt>
      <trkpt lat="45.55995" lon="6.65444">
        <ele>739</ele>
        <time>2013-04-14T09:01:27Z</time>
      </trkpt>
      <trkpt lat="45.55993" lon="6.65442">
        <ele>738</ele>
        <time>2013-04-14T09:01:28Z</time>
      </trkpt>
      <trkpt lat="45.55992" lon="6.65439">
        <ele>736.79998779297</ele>
        <time>2013-04-14T09:01:29Z</time>
      </trkpt>
      <trkpt lat="45.55987" lon="6.65435">
        <ele>735.20001220703</ele>
        <time>2013-04-14T09:01:31Z</time>
      </trkpt>
      <trkpt lat="45.55985" lon="6.65434">
        <ele>734.59997558594</ele>
        <time>2013-04-14T09:01:32Z</time>
      </trkpt>
      <trkpt lat="45.55981" lon="6.65429">
        <ele>732.79998779297</ele>
        <time>2013-04-14T09:01:34Z</time>
      </trkpt>
      <trkpt lat="45.55975" lon="6.65421">
        <ele>729.79998779297</ele>
        <time>2013-04-14T09:01:37Z</time>
      </trkpt>
      <trkpt lat="45.55974" lon="6.65419">
        <ele>729.20001220703</ele>
        <time>2013-04-14T09:01:38Z</time>
      </trkpt>
      <trkpt lat="45.55969" lon="6.65414">
        <ele>727.79998779297</ele>
        <time>2013-04-14T09:01:40Z</time>
      </trkpt>
      <trkpt lat="45.55968" lon="6.65412">
        <ele>727.20001220703</ele>
        <time>2013-04-14T09:01:41Z</time>
      </trkpt>
      <trkpt lat="45.55965" lon="6.6541">
        <ele>726.40002441406</ele>
        <time>2013-04-14T09:01:42Z</time>
      </trkpt>
      <trkpt lat="45.55962" lon="6.65405">
        <ele>725.20001220703</ele>
        <time>2013-04-14T09:01:44Z</time>
      </trkpt>
      <trkpt lat="45.55959" lon="6.65402">
        <ele>724.40002441406</ele>
        <time>2013-04-14T09:01:45Z</time>
      </trkpt>
      <trkpt lat="45.55955" lon="6.65401">
        <ele>723.79998779297</ele>
        <time>2013-04-14T09:01:46Z</time>
      </trkpt>
      <trkpt lat="45.5595" lon="6.65399">
        <ele>723.20001220703</ele>
        <time>2013-04-14T09:01:48Z</time>
      </trkpt>
      <trkpt lat="45.55947" lon="6.65399">
        <ele>723</ele>
        <time>2013-04-14T09:01:49Z</time>
      </trkpt>
      <trkpt lat="45.55945" lon="6.65399">
        <ele>722.79998779297</ele>
        <time>2013-04-14T09:01:50Z</time>
      </trkpt>
      <trkpt lat="45.5594" lon="6.65397">
        <ele>722</ele>
        <time>2013-04-14T09:01:52Z</time>
      </trkpt>
      <trkpt lat="45.55938" lon="6.65395">
        <ele>721.40002441406</ele>
        <time>2013-04-14T09:01:53Z</time>
      </trkpt>
      <trkpt lat="45.55936" lon="6.65392">
        <ele>720.59997558594</ele>
        <time>2013-04-14T09:01:54Z</time>
      </trkpt>
      <trkpt lat="45.55933" lon="6.65384">
        <ele>718.79998779297</ele>
        <time>2013-04-14T09:01:57Z</time>
      </trkpt>
      <trkpt lat="45.55931" lon="6.6538">
        <ele>717.79998779297</ele>
        <time>2013-04-14T09:01:59Z</time>
      </trkpt>
      <trkpt lat="45.5593" lon="6.6538">
        <ele>717.79998779297</ele>
        <time>2013-04-14T09:02:00Z</time>
      </trkpt>
      <trkpt lat="45.55928" lon="6.65382">
        <ele>718</ele>
        <time>2013-04-14T09:02:02Z</time>
      </trkpt>
      <trkpt lat="45.55927" lon="6.65384">
        <ele>718.40002441406</ele>
        <time>2013-04-14T09:02:03Z</time>
      </trkpt>
      <trkpt lat="45.55925" lon="6.65389">
        <ele>719.20001220703</ele>
        <time>2013-04-14T09:02:06Z</time>
      </trkpt>
      <trkpt lat="45.55924" lon="6.65391">
        <ele>719.59997558594</ele>
        <time>2013-04-14T09:02:07Z</time>
      </trkpt>
      <trkpt lat="45.55923" lon="6.65392">
        <ele>719.59997558594</ele>
        <time>2013-04-14T09:02:08Z</time>
      </trkpt>
      <trkpt lat="45.55922" lon="6.65395">
        <ele>720.20001220703</ele>
        <time>2013-04-14T09:02:10Z</time>
      </trkpt>
      <trkpt lat="45.55922" lon="6.65397">
        <ele>720.40002441406</ele>
        <time>2013-04-14T09:02:11Z</time>
      </trkpt>
      <trkpt lat="45.55921" lon="6.65398">
        <ele>720.59997558594</ele>
        <time>2013-04-14T09:02:12Z</time>
      </trkpt>
      <trkpt lat="45.55921" lon="6.65399">
        <ele>720.79998779297</ele>
        <time>2013-04-14T09:02:14Z</time>
      </trkpt>
      <trkpt lat="45.5592" lon="6.654">
        <ele>721</ele>
        <time>2013-04-14T09:02:15Z</time>
      </trkpt>
      <trkpt lat="45.55919" lon="6.654">
        <ele>720.79998779297</ele>
        <time>2013-04-14T09:02:16Z</time>
      </trkpt>
      <trkpt lat="45.55917" lon="6.65399">
        <ele>720.59997558594</ele>
        <time>2013-04-14T09:02:18Z</time>
      </trkpt>
      <trkpt lat="45.55916" lon="6.65399">
        <ele>720.20001220703</ele>
        <time>2013-04-14T09:02:19Z</time>
      </trkpt>
      <trkpt lat="45.55915" lon="6.65398">
        <ele>719.79998779297</ele>
        <time>2013-04-14T09:02:20Z</time>
      </trkpt>
      <trkpt lat="45.55913" lon="6.65397">
        <ele>719</ele>
        <time>2013-04-14T09:02:22Z</time>
      </trkpt>
      <trkpt lat="45.55914" lon="6.65398">
        <ele>719.20001220703</ele>
        <time>2013-04-14T09:02:23Z</time>
      </trkpt>
      <trkpt lat="45.55913" lon="6.65398">
        <ele>719.20001220703</ele>
        <time>2013-04-14T09:02:24Z</time>
      </trkpt>
      <trkpt lat="45.55913" lon="6.65396">
        <ele>718.79998779297</ele>
        <time>2013-04-14T09:02:26Z</time>
      </trkpt>
      <trkpt lat="45.55913" lon="6.65395">
        <ele>718.40002441406</ele>
        <time>2013-04-14T09:02:27Z</time>
      </trkpt>
      <trkpt lat="45.55912" lon="6.65394">
        <ele>718.20001220703</ele>
        <time>2013-04-14T09:02:28Z</time>
      </trkpt>
      <trkpt lat="45.55912" lon="6.65393">
        <ele>717.79998779297</ele>
        <time>2013-04-14T09:02:30Z</time>
      </trkpt>
      <trkpt lat="45.5591" lon="6.65392">
        <ele>717</ele>
        <time>2013-04-14T09:02:32Z</time>
      </trkpt>
      <trkpt lat="45.55907" lon="6.65392">
        <ele>716.20001220703</ele>
        <time>2013-04-14T09:02:34Z</time>
      </trkpt>
      <trkpt lat="45.55908" lon="6.6539">
        <ele>716</ele>
        <time>2013-04-14T09:02:36Z</time>
      </trkpt>
      <trkpt lat="45.55908" lon="6.65391">
        <ele>716.40002441406</ele>
        <time>2013-04-14T09:02:37Z</time>
      </trkpt>
      <trkpt lat="45.55907" lon="6.6539">
        <ele>715.79998779297</ele>
        <time>2013-04-14T09:02:44Z</time>
      </trkpt>
      <trkpt lat="45.55905" lon="6.65387">
        <ele>714.59997558594</ele>
        <time>2013-04-14T09:02:48Z</time>
      </trkpt>
      <trkpt lat="45.55904" lon="6.65387">
        <ele>714.40002441406</ele>
        <time>2013-04-14T09:02:52Z</time>
      </trkpt>
      <trkpt lat="45.55904" lon="6.65386">
        <ele>714.20001220703</ele>
        <time>2013-04-14T09:02:58Z</time>
      </trkpt>
      <trkpt lat="45.55903" lon="6.65383">
        <ele>713.59997558594</ele>
        <time>2013-04-14T09:03:02Z</time>
      </trkpt>
      <trkpt lat="45.55903" lon="6.65381">
        <ele>713.20001220703</ele>
        <time>2013-04-14T09:03:08Z</time>
      </trkpt>
      <trkpt lat="45.55903" lon="6.65378">
        <ele>712.59997558594</ele>
        <time>2013-04-14T09:03:15Z</time>
      </trkpt>
      <trkpt lat="45.55903" lon="6.6537">
        <ele>711.40002441406</ele>
        <time>2013-04-14T09:03:18Z</time>
      </trkpt>
      <trkpt lat="45.55903" lon="6.65361">
        <ele>710</ele>
        <time>2013-04-14T09:03:22Z</time>
      </trkpt>
      <trkpt lat="45.55904" lon="6.65358">
        <ele>709.79998779297</ele>
        <time>2013-04-14T09:03:24Z</time>
      </trkpt>
      <trkpt lat="45.55904" lon="6.65357">
        <ele>709.59997558594</ele>
        <time>2013-04-14T09:03:25Z</time>
      </trkpt>
      <trkpt lat="45.55905" lon="6.65357">
        <ele>709.59997558594</ele>
        <time>2013-04-14T09:03:26Z</time>
      </trkpt>
      <trkpt lat="45.55905" lon="6.65353">
        <ele>709</ele>
        <time>2013-04-14T09:03:28Z</time>
      </trkpt>
      <trkpt lat="45.55905" lon="6.65352">
        <ele>709</ele>
        <time>2013-04-14T09:03:29Z</time>
      </trkpt>
      <trkpt lat="45.55905" lon="6.65351">
        <ele>708.79998779297</ele>
        <time>2013-04-14T09:03:30Z</time>
      </trkpt>
      <trkpt lat="45.55902" lon="6.65345">
        <ele>707.20001220703</ele>
        <time>2013-04-14T09:03:34Z</time>
      </trkpt>
      <trkpt lat="45.55901" lon="6.65342">
        <ele>706.20001220703</ele>
        <time>2013-04-14T09:03:35Z</time>
      </trkpt>
      <trkpt lat="45.55903" lon="6.65334">
        <ele>705.59997558594</ele>
        <time>2013-04-14T09:03:37Z</time>
      </trkpt>
      <trkpt lat="45.55905" lon="6.65332">
        <ele>705.59997558594</ele>
        <time>2013-04-14T09:03:38Z</time>
      </trkpt>
      <trkpt lat="45.55906" lon="6.6533">
        <ele>705.79998779297</ele>
        <time>2013-04-14T09:03:39Z</time>
      </trkpt>
      <trkpt lat="45.55918" lon="6.65318">
        <ele>706.79998779297</ele>
        <time>2013-04-14T09:03:45Z</time>
      </trkpt>
      <trkpt lat="45.5592" lon="6.65317">
        <ele>707</ele>
        <time>2013-04-14T09:03:46Z</time>
      </trkpt>
      <trkpt lat="45.55922" lon="6.65315">
        <ele>707</ele>
        <time>2013-04-14T09:03:47Z</time>
      </trkpt>
      <trkpt lat="45.55928" lon="6.65311">
        <ele>707</ele>
        <time>2013-04-14T09:03:49Z</time>
      </trkpt>
      <trkpt lat="45.5593" lon="6.6531">
        <ele>707.20001220703</ele>
        <time>2013-04-14T09:03:50Z</time>
      </trkpt>
      <trkpt lat="45.55937" lon="6.65305">
        <ele>707.40002441406</ele>
        <time>2013-04-14T09:03:53Z</time>
      </trkpt>
      <trkpt lat="45.55942" lon="6.653">
        <ele>707.59997558594</ele>
        <time>2013-04-14T09:03:55Z</time>
      </trkpt>
      <trkpt lat="45.55944" lon="6.65298">
        <ele>707.59997558594</ele>
        <time>2013-04-14T09:03:56Z</time>
      </trkpt>
      <trkpt lat="45.55946" lon="6.65296">
        <ele>707.79998779297</ele>
        <time>2013-04-14T09:03:57Z</time>
      </trkpt>
      <trkpt lat="45.55951" lon="6.65285">
        <ele>707.79998779297</ele>
        <time>2013-04-14T09:04:01Z</time>
      </trkpt>
      <trkpt lat="45.55952" lon="6.65282">
        <ele>707.79998779297</ele>
        <time>2013-04-14T09:04:02Z</time>
      </trkpt>
      <trkpt lat="45.55952" lon="6.65279">
        <ele>707.59997558594</ele>
        <time>2013-04-14T09:04:03Z</time>
      </trkpt>
      <trkpt lat="45.55952" lon="6.65273">
        <ele>707.40002441406</ele>
        <time>2013-04-14T09:04:05Z</time>
      </trkpt>
      <trkpt lat="45.55949" lon="6.65265">
        <ele>706.79998779297</ele>
        <time>2013-04-14T09:04:08Z</time>
      </trkpt>
      <trkpt lat="45.55935" lon="6.65261">
        <ele>705</ele>
        <time>2013-04-14T09:04:14Z</time>
      </trkpt>
      <trkpt lat="45.55934" lon="6.65261">
        <ele>704.79998779297</ele>
        <time>2013-04-14T09:04:15Z</time>
      </trkpt>
      <trkpt lat="45.55932" lon="6.65261">
        <ele>704.59997558594</ele>
        <time>2013-04-14T09:04:16Z</time>
      </trkpt>
      <trkpt lat="45.55926" lon="6.6526">
        <ele>703.79998779297</ele>
        <time>2013-04-14T09:04:18Z</time>
      </trkpt>
      <trkpt lat="45.55916" lon="6.65259">
        <ele>702.40002441406</ele>
        <time>2013-04-14T09:04:22Z</time>
      </trkpt>
      <trkpt lat="45.55914" lon="6.65258">
        <ele>702.20001220703</ele>
        <time>2013-04-14T09:04:23Z</time>
      </trkpt>
      <trkpt lat="45.55908" lon="6.65257">
        <ele>701.59997558594</ele>
        <time>2013-04-14T09:04:25Z</time>
      </trkpt>
      <trkpt lat="45.55906" lon="6.65257">
        <ele>701.20001220703</ele>
        <time>2013-04-14T09:04:26Z</time>
      </trkpt>
      <trkpt lat="45.55903" lon="6.65256">
        <ele>701</ele>
        <time>2013-04-14T09:04:27Z</time>
      </trkpt>
      <trkpt lat="45.55884" lon="6.65251">
        <ele>698.79998779297</ele>
        <time>2013-04-14T09:04:34Z</time>
      </trkpt>
      <trkpt lat="45.55882" lon="6.65251">
        <ele>698.59997558594</ele>
        <time>2013-04-14T09:04:35Z</time>
      </trkpt>
      <trkpt lat="45.5588" lon="6.6525">
        <ele>698.40002441406</ele>
        <time>2013-04-14T09:04:36Z</time>
      </trkpt>
      <trkpt lat="45.55875" lon="6.6525">
        <ele>698</ele>
        <time>2013-04-14T09:04:38Z</time>
      </trkpt>
      <trkpt lat="45.55873" lon="6.6525">
        <ele>697.79998779297</ele>
        <time>2013-04-14T09:04:39Z</time>
      </trkpt>
      <trkpt lat="45.5587" lon="6.65251">
        <ele>697.40002441406</ele>
        <time>2013-04-14T09:04:40Z</time>
      </trkpt>
      <trkpt lat="45.55864" lon="6.65275">
        <ele>697.40002441406</ele>
        <time>2013-04-14T09:04:47Z</time>
      </trkpt>
      <trkpt lat="45.55864" lon="6.65278">
        <ele>697.40002441406</ele>
        <time>2013-04-14T09:04:48Z</time>
      </trkpt>
      <trkpt lat="45.55863" lon="6.65282">
        <ele>697.20001220703</ele>
        <time>2013-04-14T09:04:49Z</time>
      </trkpt>
      <trkpt lat="45.55861" lon="6.65288">
        <ele>697.20001220703</ele>
        <time>2013-04-14T09:04:51Z</time>
      </trkpt>
      <trkpt lat="45.55859" lon="6.65296">
        <ele>697</ele>
        <time>2013-04-14T09:04:53Z</time>
      </trkpt>
      <trkpt lat="45.55857" lon="6.65303">
        <ele>696.79998779297</ele>
        <time>2013-04-14T09:04:55Z</time>
      </trkpt>
      <trkpt lat="45.55846" lon="6.65319">
        <ele>695.20001220703</ele>
        <time>2013-04-14T09:05:01Z</time>
      </trkpt>
      <trkpt lat="45.55839" lon="6.65324">
        <ele>694</ele>
        <time>2013-04-14T09:05:04Z</time>
      </trkpt>
      <trkpt lat="45.55835" lon="6.65327">
        <ele>693.20001220703</ele>
        <time>2013-04-14T09:05:06Z</time>
      </trkpt>
      <trkpt lat="45.55832" lon="6.65328">
        <ele>692.79998779297</ele>
        <time>2013-04-14T09:05:07Z</time>
      </trkpt>
      <trkpt lat="45.5583" lon="6.65329">
        <ele>692.59997558594</ele>
        <time>2013-04-14T09:05:08Z</time>
      </trkpt>
      <trkpt lat="45.55819" lon="6.65344">
        <ele>691.59997558594</ele>
        <time>2013-04-14T09:05:14Z</time>
      </trkpt>
      <trkpt lat="45.55818" lon="6.65347">
        <ele>691.40002441406</ele>
        <time>2013-04-14T09:05:15Z</time>
      </trkpt>
      <trkpt lat="45.55817" lon="6.65351">
        <ele>691.40002441406</ele>
        <time>2013-04-14T09:05:16Z</time>
      </trkpt>
      <trkpt lat="45.55815" lon="6.65359">
        <ele>691.20001220703</ele>
        <time>2013-04-14T09:05:18Z</time>
      </trkpt>
      <trkpt lat="45.55815" lon="6.65363">
        <ele>691.20001220703</ele>
        <time>2013-04-14T09:05:19Z</time>
      </trkpt>
      <trkpt lat="45.55814" lon="6.65367">
        <ele>691</ele>
        <time>2013-04-14T09:05:20Z</time>
      </trkpt>
      <trkpt lat="45.55809" lon="6.65396">
        <ele>690.40002441406</ele>
        <time>2013-04-14T09:05:28Z</time>
      </trkpt>
      <trkpt lat="45.55809" lon="6.65399">
        <ele>690.40002441406</ele>
        <time>2013-04-14T09:05:29Z</time>
      </trkpt>
      <trkpt lat="45.55808" lon="6.65403">
        <ele>690.20001220703</ele>
        <time>2013-04-14T09:05:30Z</time>
      </trkpt>
      <trkpt lat="45.55805" lon="6.6541">
        <ele>689.79998779297</ele>
        <time>2013-04-14T09:05:32Z</time>
      </trkpt>
      <trkpt lat="45.55803" lon="6.65412">
        <ele>689.59997558594</ele>
        <time>2013-04-14T09:05:33Z</time>
      </trkpt>
      <trkpt lat="45.55798" lon="6.65417">
        <ele>688.79998779297</ele>
        <time>2013-04-14T09:05:35Z</time>
      </trkpt>
      <trkpt lat="45.5578" lon="6.65426">
        <ele>686.20001220703</ele>
        <time>2013-04-14T09:05:42Z</time>
      </trkpt>
      <trkpt lat="45.55778" lon="6.65427">
        <ele>686</ele>
        <time>2013-04-14T09:05:43Z</time>
      </trkpt>
      <trkpt lat="45.55772" lon="6.65431">
        <ele>685.20001220703</ele>
        <time>2013-04-14T09:05:45Z</time>
      </trkpt>
      <trkpt lat="45.5577" lon="6.65432">
        <ele>684.79998779297</ele>
        <time>2013-04-14T09:05:46Z</time>
      </trkpt>
      <trkpt lat="45.55768" lon="6.65434">
        <ele>684.59997558594</ele>
        <time>2013-04-14T09:05:47Z</time>
      </trkpt>
      <trkpt lat="45.55763" lon="6.65438">
        <ele>683.79998779297</ele>
        <time>2013-04-14T09:05:49Z</time>
      </trkpt>
      <trkpt lat="45.55761" lon="6.6544">
        <ele>683.59997558594</ele>
        <time>2013-04-14T09:05:50Z</time>
      </trkpt>
      <trkpt lat="45.55759" lon="6.65441">
        <ele>683.20001220703</ele>
        <time>2013-04-14T09:05:51Z</time>
      </trkpt>
      <trkpt lat="45.55755" lon="6.65444">
        <ele>682.59997558594</ele>
        <time>2013-04-14T09:05:53Z</time>
      </trkpt>
      <trkpt lat="45.55753" lon="6.65447">
        <ele>682.20001220703</ele>
        <time>2013-04-14T09:05:54Z</time>
      </trkpt>
      <trkpt lat="45.55751" lon="6.65449">
        <ele>682</ele>
        <time>2013-04-14T09:05:55Z</time>
      </trkpt>
      <trkpt lat="45.55751" lon="6.65456">
        <ele>682</ele>
        <time>2013-04-14T09:05:57Z</time>
      </trkpt>
      <trkpt lat="45.55752" lon="6.65459">
        <ele>682.20001220703</ele>
        <time>2013-04-14T09:05:58Z</time>
      </trkpt>
      <trkpt lat="45.55754" lon="6.65478">
        <ele>682.59997558594</ele>
        <time>2013-04-14T09:06:03Z</time>
      </trkpt>
      <trkpt lat="45.55754" lon="6.65497">
        <ele>682.59997558594</ele>
        <time>2013-04-14T09:06:08Z</time>
      </trkpt>
      <trkpt lat="45.55754" lon="6.65501">
        <ele>682.40002441406</ele>
        <time>2013-04-14T09:06:09Z</time>
      </trkpt>
      <trkpt lat="45.55753" lon="6.65505">
        <ele>682.59997558594</ele>
        <time>2013-04-14T09:06:10Z</time>
      </trkpt>
      <trkpt lat="45.55753" lon="6.65512">
        <ele>682.79998779297</ele>
        <time>2013-04-14T09:06:12Z</time>
      </trkpt>
      <trkpt lat="45.55751" lon="6.65534">
        <ele>682.79998779297</ele>
        <time>2013-04-14T09:06:18Z</time>
      </trkpt>
      <trkpt lat="45.55743" lon="6.6558">
        <ele>682.79998779297</ele>
        <time>2013-04-14T09:06:31Z</time>
      </trkpt>
      <trkpt lat="45.55739" lon="6.656">
        <ele>683.40002441406</ele>
        <time>2013-04-14T09:06:37Z</time>
      </trkpt>
      <trkpt lat="45.55731" lon="6.65619">
        <ele>683.40002441406</ele>
        <time>2013-04-14T09:06:43Z</time>
      </trkpt>
      <trkpt lat="45.5572" lon="6.65653">
        <ele>683.40002441406</ele>
        <time>2013-04-14T09:06:53Z</time>
      </trkpt>
      <trkpt lat="45.55714" lon="6.65674">
        <ele>684.20001220703</ele>
        <time>2013-04-14T09:06:59Z</time>
      </trkpt>
      <trkpt lat="45.55712" lon="6.65677">
        <ele>684.20001220703</ele>
        <time>2013-04-14T09:07:00Z</time>
      </trkpt>
      <trkpt lat="45.55697" lon="6.65673">
        <ele>679.79998779297</ele>
        <time>2013-04-14T09:07:07Z</time>
      </trkpt>
      <trkpt lat="45.55689" lon="6.65673">
        <ele>677.79998779297</ele>
        <time>2013-04-14T09:07:11Z</time>
      </trkpt>
      <trkpt lat="45.55686" lon="6.65675">
        <ele>677.59997558594</ele>
        <time>2013-04-14T09:07:12Z</time>
      </trkpt>
      <trkpt lat="45.55683" lon="6.65681">
        <ele>677.59997558594</ele>
        <time>2013-04-14T09:07:14Z</time>
      </trkpt>
      <trkpt lat="45.55682" lon="6.65684">
        <ele>677.59997558594</ele>
        <time>2013-04-14T09:07:15Z</time>
      </trkpt>
      <trkpt lat="45.55681" lon="6.65687">
        <ele>677.79998779297</ele>
        <time>2013-04-14T09:07:16Z</time>
      </trkpt>
      <trkpt lat="45.5568" lon="6.65695">
        <ele>678.40002441406</ele>
        <time>2013-04-14T09:07:18Z</time>
      </trkpt>
      <trkpt lat="45.5568" lon="6.65698">
        <ele>678.79998779297</ele>
        <time>2013-04-14T09:07:19Z</time>
      </trkpt>
      <trkpt lat="45.55679" lon="6.65702">
        <ele>679</ele>
        <time>2013-04-14T09:07:20Z</time>
      </trkpt>
      <trkpt lat="45.55678" lon="6.65709">
        <ele>679.59997558594</ele>
        <time>2013-04-14T09:07:22Z</time>
      </trkpt>
      <trkpt lat="45.55678" lon="6.65712">
        <ele>680</ele>
        <time>2013-04-14T09:07:23Z</time>
      </trkpt>
      <trkpt lat="45.55677" lon="6.65724">
        <ele>680.79998779297</ele>
        <time>2013-04-14T09:07:26Z</time>
      </trkpt>
      <trkpt lat="45.55675" lon="6.65731">
        <ele>681</ele>
        <time>2013-04-14T09:07:28Z</time>
      </trkpt>
      <trkpt lat="45.55674" lon="6.65739">
        <ele>681.59997558594</ele>
        <time>2013-04-14T09:07:30Z</time>
      </trkpt>
      <trkpt lat="45.55671" lon="6.65758">
        <ele>681.40002441406</ele>
        <time>2013-04-14T09:07:35Z</time>
      </trkpt>
      <trkpt lat="45.5567" lon="6.65765">
        <ele>681.20001220703</ele>
        <time>2013-04-14T09:07:37Z</time>
      </trkpt>
      <trkpt lat="45.5567" lon="6.65769">
        <ele>680.79998779297</ele>
        <time>2013-04-14T09:07:38Z</time>
      </trkpt>
      <trkpt lat="45.55668" lon="6.65776">
        <ele>680</ele>
        <time>2013-04-14T09:07:40Z</time>
      </trkpt>
      <trkpt lat="45.55667" lon="6.65779">
        <ele>679.40002441406</ele>
        <time>2013-04-14T09:07:41Z</time>
      </trkpt>
      <trkpt lat="45.55667" lon="6.65783">
        <ele>679.20001220703</ele>
        <time>2013-04-14T09:07:42Z</time>
      </trkpt>
      <trkpt lat="45.55665" lon="6.65793">
        <ele>678.59997558594</ele>
        <time>2013-04-14T09:07:45Z</time>
      </trkpt>
      <trkpt lat="45.55665" lon="6.65796">
        <ele>678.59997558594</ele>
        <time>2013-04-14T09:07:46Z</time>
      </trkpt>
      <trkpt lat="45.55665" lon="6.658">
        <ele>678.40002441406</ele>
        <time>2013-04-14T09:07:47Z</time>
      </trkpt>
      <trkpt lat="45.55665" lon="6.65807">
        <ele>678</ele>
        <time>2013-04-14T09:07:49Z</time>
      </trkpt>
      <trkpt lat="45.55665" lon="6.65811">
        <ele>678</ele>
        <time>2013-04-14T09:07:50Z</time>
      </trkpt>
      <trkpt lat="45.55664" lon="6.65832">
        <ele>677.40002441406</ele>
        <time>2013-04-14T09:07:56Z</time>
      </trkpt>
      <trkpt lat="45.55663" lon="6.65864">
        <ele>676.79998779297</ele>
        <time>2013-04-14T09:08:05Z</time>
      </trkpt>
      <trkpt lat="45.55663" lon="6.65868">
        <ele>676.79998779297</ele>
        <time>2013-04-14T09:08:06Z</time>
      </trkpt>
      <trkpt lat="45.55663" lon="6.65871">
        <ele>676.79998779297</ele>
        <time>2013-04-14T09:08:07Z</time>
      </trkpt>
      <trkpt lat="45.55663" lon="6.65878">
        <ele>676.59997558594</ele>
        <time>2013-04-14T09:08:09Z</time>
      </trkpt>
      <trkpt lat="45.55663" lon="6.65881">
        <ele>676.40002441406</ele>
        <time>2013-04-14T09:08:10Z</time>
      </trkpt>
      <trkpt lat="45.55663" lon="6.65898">
        <ele>676.40002441406</ele>
        <time>2013-04-14T09:08:15Z</time>
      </trkpt>
      <trkpt lat="45.55665" lon="6.6591">
        <ele>676.59997558594</ele>
        <time>2013-04-14T09:08:19Z</time>
      </trkpt>
      <trkpt lat="45.55665" lon="6.65913">
        <ele>676.59997558594</ele>
        <time>2013-04-14T09:08:20Z</time>
      </trkpt>
      <trkpt lat="45.55665" lon="6.6592">
        <ele>676.40002441406</ele>
        <time>2013-04-14T09:08:22Z</time>
      </trkpt>
      <trkpt lat="45.55665" lon="6.65924">
        <ele>676.20001220703</ele>
        <time>2013-04-14T09:08:23Z</time>
      </trkpt>
      <trkpt lat="45.55665" lon="6.65935">
        <ele>675.59997558594</ele>
        <time>2013-04-14T09:08:26Z</time>
      </trkpt>
      <trkpt lat="45.55664" lon="6.65948">
        <ele>674.79998779297</ele>
        <time>2013-04-14T09:08:30Z</time>
      </trkpt>
      <trkpt lat="45.55663" lon="6.65964">
        <ele>674</ele>
        <time>2013-04-14T09:08:35Z</time>
      </trkpt>
      <trkpt lat="45.55663" lon="6.65967">
        <ele>673.79998779297</ele>
        <time>2013-04-14T09:08:36Z</time>
      </trkpt>
      <trkpt lat="45.55661" lon="6.65973">
        <ele>673.40002441406</ele>
        <time>2013-04-14T09:08:38Z</time>
      </trkpt>
      <trkpt lat="45.5566" lon="6.65976">
        <ele>673</ele>
        <time>2013-04-14T09:08:39Z</time>
      </trkpt>
      <trkpt lat="45.55659" lon="6.6598">
        <ele>672.59997558594</ele>
        <time>2013-04-14T09:08:40Z</time>
      </trkpt>
      <trkpt lat="45.55656" lon="6.66003">
        <ele>671.20001220703</ele>
        <time>2013-04-14T09:08:46Z</time>
      </trkpt>
      <trkpt lat="45.55658" lon="6.66024">
        <ele>671.20001220703</ele>
        <time>2013-04-14T09:08:51Z</time>
      </trkpt>
      <trkpt lat="45.5566" lon="6.66036">
        <ele>671.20001220703</ele>
        <time>2013-04-14T09:08:54Z</time>
      </trkpt>
      <trkpt lat="45.55661" lon="6.66043">
        <ele>671.20001220703</ele>
        <time>2013-04-14T09:08:56Z</time>
      </trkpt>
      <trkpt lat="45.55661" lon="6.66047">
        <ele>671</ele>
        <time>2013-04-14T09:08:57Z</time>
      </trkpt>
      <trkpt lat="45.55661" lon="6.66051">
        <ele>671</ele>
        <time>2013-04-14T09:08:58Z</time>
      </trkpt>
      <trkpt lat="45.55664" lon="6.66073">
        <ele>670.79998779297</ele>
        <time>2013-04-14T09:09:04Z</time>
      </trkpt>
      <trkpt lat="45.55667" lon="6.66095">
        <ele>670.40002441406</ele>
        <time>2013-04-14T09:09:10Z</time>
      </trkpt>
      <trkpt lat="45.5567" lon="6.66105">
        <ele>671.59997558594</ele>
        <time>2013-04-14T09:09:13Z</time>
      </trkpt>
      <trkpt lat="45.55671" lon="6.66109">
        <ele>672</ele>
        <time>2013-04-14T09:09:14Z</time>
      </trkpt>
      <trkpt lat="45.55672" lon="6.66112">
        <ele>672.40002441406</ele>
        <time>2013-04-14T09:09:15Z</time>
      </trkpt>
      <trkpt lat="45.55677" lon="6.66133">
        <ele>673.40002441406</ele>
        <time>2013-04-14T09:09:21Z</time>
      </trkpt>
      <trkpt lat="45.55679" lon="6.66139">
        <ele>673.79998779297</ele>
        <time>2013-04-14T09:09:23Z</time>
      </trkpt>
      <trkpt lat="45.55681" lon="6.66146">
        <ele>674.20001220703</ele>
        <time>2013-04-14T09:09:25Z</time>
      </trkpt>
      <trkpt lat="45.55683" lon="6.66159">
        <ele>674</ele>
        <time>2013-04-14T09:09:29Z</time>
      </trkpt>
      <trkpt lat="45.55686" lon="6.66172">
        <ele>674.20001220703</ele>
        <time>2013-04-14T09:09:33Z</time>
      </trkpt>
      <trkpt lat="45.55689" lon="6.6619">
        <ele>673.79998779297</ele>
        <time>2013-04-14T09:09:38Z</time>
      </trkpt>
      <trkpt lat="45.5569" lon="6.66211">
        <ele>672.40002441406</ele>
        <time>2013-04-14T09:09:44Z</time>
      </trkpt>
      <trkpt lat="45.55693" lon="6.66228">
        <ele>671.59997558594</ele>
        <time>2013-04-14T09:09:49Z</time>
      </trkpt>
      <trkpt lat="45.55698" lon="6.66248">
        <ele>671.20001220703</ele>
        <time>2013-04-14T09:09:55Z</time>
      </trkpt>
      <trkpt lat="45.55703" lon="6.66261">
        <ele>671.40002441406</ele>
        <time>2013-04-14T09:09:59Z</time>
      </trkpt>
      <trkpt lat="45.55706" lon="6.66275">
        <ele>670.59997558594</ele>
        <time>2013-04-14T09:10:03Z</time>
      </trkpt>
      <trkpt lat="45.55707" lon="6.66278">
        <ele>670.59997558594</ele>
        <time>2013-04-14T09:10:04Z</time>
      </trkpt>
      <trkpt lat="45.55713" lon="6.66305">
        <ele>668.40002441406</ele>
        <time>2013-04-14T09:10:12Z</time>
      </trkpt>
      <trkpt lat="45.55716" lon="6.66319">
        <ele>667</ele>
        <time>2013-04-14T09:10:16Z</time>
      </trkpt>
      <trkpt lat="45.55717" lon="6.66322">
        <ele>666.59997558594</ele>
        <time>2013-04-14T09:10:17Z</time>
      </trkpt>
      <trkpt lat="45.55723" lon="6.66348">
        <ele>665.20001220703</ele>
        <time>2013-04-14T09:10:25Z</time>
      </trkpt>
      <trkpt lat="45.55728" lon="6.66366">
        <ele>664.79998779297</ele>
        <time>2013-04-14T09:10:31Z</time>
      </trkpt>
      <trkpt lat="45.55727" lon="6.66373">
        <ele>664.40002441406</ele>
        <time>2013-04-14T09:10:34Z</time>
      </trkpt>
      <trkpt lat="45.55726" lon="6.66375">
        <ele>664.40002441406</ele>
        <time>2013-04-14T09:10:35Z</time>
      </trkpt>
      <trkpt lat="45.55724" lon="6.66376">
        <ele>664.20001220703</ele>
        <time>2013-04-14T09:10:36Z</time>
      </trkpt>
      <trkpt lat="45.55721" lon="6.66379">
        <ele>664</ele>
        <time>2013-04-14T09:10:38Z</time>
      </trkpt>
      <trkpt lat="45.5572" lon="6.6638">
        <ele>664</ele>
        <time>2013-04-14T09:10:39Z</time>
      </trkpt>
      <trkpt lat="45.55714" lon="6.66386">
        <ele>663.79998779297</ele>
        <time>2013-04-14T09:10:42Z</time>
      </trkpt>
      <trkpt lat="45.55708" lon="6.66395">
        <ele>663.59997558594</ele>
        <time>2013-04-14T09:10:47Z</time>
      </trkpt>
      <trkpt lat="45.55714" lon="6.66412">
        <ele>663.40002441406</ele>
        <time>2013-04-14T09:10:52Z</time>
      </trkpt>
      <trkpt lat="45.55717" lon="6.66421">
        <ele>663.20001220703</ele>
        <time>2013-04-14T09:10:55Z</time>
      </trkpt>
      <trkpt lat="45.5573" lon="6.66439">
        <ele>663.40002441406</ele>
        <time>2013-04-14T09:11:02Z</time>
      </trkpt>
      <trkpt lat="45.55741" lon="6.66455">
        <ele>663.40002441406</ele>
        <time>2013-04-14T09:11:08Z</time>
      </trkpt>
      <trkpt lat="45.55753" lon="6.6647">
        <ele>663.40002441406</ele>
        <time>2013-04-14T09:11:14Z</time>
      </trkpt>
      <trkpt lat="45.5577" lon="6.66494">
        <ele>664.40002441406</ele>
        <time>2013-04-14T09:11:24Z</time>
      </trkpt>
      <trkpt lat="45.55778" lon="6.66505">
        <ele>664.59997558594</ele>
        <time>2013-04-14T09:11:28Z</time>
      </trkpt>
      <trkpt lat="45.5578" lon="6.66508">
        <ele>664.79998779297</ele>
        <time>2013-04-14T09:11:29Z</time>
      </trkpt>
      <trkpt lat="45.55783" lon="6.66513">
        <ele>664.79998779297</ele>
        <time>2013-04-14T09:11:31Z</time>
      </trkpt>
      <trkpt lat="45.55785" lon="6.66516">
        <ele>665</ele>
        <time>2013-04-14T09:11:32Z</time>
      </trkpt>
      <trkpt lat="45.55786" lon="6.66519">
        <ele>665</ele>
        <time>2013-04-14T09:11:33Z</time>
      </trkpt>
      <trkpt lat="45.55804" lon="6.66552">
        <ele>665.59997558594</ele>
        <time>2013-04-14T09:11:46Z</time>
      </trkpt>
      <trkpt lat="45.55811" lon="6.66564">
        <ele>665.79998779297</ele>
        <time>2013-04-14T09:11:51Z</time>
      </trkpt>
      <trkpt lat="45.55828" lon="6.66591">
        <ele>666</ele>
        <time>2013-04-14T09:12:02Z</time>
      </trkpt>
      <trkpt lat="45.55829" lon="6.66593">
        <ele>666</ele>
        <time>2013-04-14T09:12:03Z</time>
      </trkpt>
      <trkpt lat="45.55831" lon="6.66594">
        <ele>666</ele>
        <time>2013-04-14T09:12:04Z</time>
      </trkpt>
      <trkpt lat="45.55836" lon="6.66597">
        <ele>666.40002441406</ele>
        <time>2013-04-14T09:12:06Z</time>
      </trkpt>
      <trkpt lat="45.55838" lon="6.66598">
        <ele>666.79998779297</ele>
        <time>2013-04-14T09:12:07Z</time>
      </trkpt>
      <trkpt lat="45.55839" lon="6.666">
        <ele>667</ele>
        <time>2013-04-14T09:12:08Z</time>
      </trkpt>
      <trkpt lat="45.55847" lon="6.66613">
        <ele>668.40002441406</ele>
        <time>2013-04-14T09:12:13Z</time>
      </trkpt>
      <trkpt lat="45.55849" lon="6.66616">
        <ele>668.59997558594</ele>
        <time>2013-04-14T09:12:15Z</time>
      </trkpt>
      <trkpt lat="45.55849" lon="6.66615">
        <ele>668.59997558594</ele>
        <time>2013-04-14T09:12:16Z</time>
      </trkpt>
      <trkpt lat="45.55849" lon="6.66615">
        <ele>668.79998779297</ele>
        <time>2013-04-14T09:12:32Z</time>
      </trkpt>
      <trkpt lat="45.55861" lon="6.66622">
        <ele>670.59997558594</ele>
        <time>2013-04-14T09:12:40Z</time>
      </trkpt>
      <trkpt lat="45.55868" lon="6.66632">
        <ele>671.20001220703</ele>
        <time>2013-04-14T09:12:45Z</time>
      </trkpt>
      <trkpt lat="45.55877" lon="6.66641">
        <ele>672</ele>
        <time>2013-04-14T09:12:50Z</time>
      </trkpt>
      <trkpt lat="45.55885" lon="6.66654">
        <ele>672.40002441406</ele>
        <time>2013-04-14T09:12:55Z</time>
      </trkpt>
      <trkpt lat="45.55887" lon="6.66656">
        <ele>672.40002441406</ele>
        <time>2013-04-14T09:12:56Z</time>
      </trkpt>
      <trkpt lat="45.55892" lon="6.66668">
        <ele>672.20001220703</ele>
        <time>2013-04-14T09:13:00Z</time>
      </trkpt>
      <trkpt lat="45.55895" lon="6.66682">
        <ele>671.79998779297</ele>
        <time>2013-04-14T09:13:04Z</time>
      </trkpt>
      <trkpt lat="45.55903" lon="6.66703">
        <ele>671.40002441406</ele>
        <time>2013-04-14T09:13:11Z</time>
      </trkpt>
      <trkpt lat="45.55904" lon="6.66707">
        <ele>671.40002441406</ele>
        <time>2013-04-14T09:13:12Z</time>
      </trkpt>
      <trkpt lat="45.55905" lon="6.6671">
        <ele>671.20001220703</ele>
        <time>2013-04-14T09:13:13Z</time>
      </trkpt>
      <trkpt lat="45.5591" lon="6.66733">
        <ele>670</ele>
        <time>2013-04-14T09:13:19Z</time>
      </trkpt>
      <trkpt lat="45.55914" lon="6.66754">
        <ele>669.20001220703</ele>
        <time>2013-04-14T09:13:25Z</time>
      </trkpt>
      <trkpt lat="45.55918" lon="6.66774">
        <ele>670.40002441406</ele>
        <time>2013-04-14T09:13:31Z</time>
      </trkpt>
      <trkpt lat="45.55926" lon="6.66812">
        <ele>674</ele>
        <time>2013-04-14T09:13:41Z</time>
      </trkpt>
      <trkpt lat="45.5593" lon="6.66831">
        <ele>675.59997558594</ele>
        <time>2013-04-14T09:13:46Z</time>
      </trkpt>
      <trkpt lat="45.55933" lon="6.66842">
        <ele>676.40002441406</ele>
        <time>2013-04-14T09:13:49Z</time>
      </trkpt>
      <trkpt lat="45.55939" lon="6.66859">
        <ele>677.59997558594</ele>
        <time>2013-04-14T09:13:54Z</time>
      </trkpt>
      <trkpt lat="45.55941" lon="6.66862">
        <ele>677.79998779297</ele>
        <time>2013-04-14T09:13:55Z</time>
      </trkpt>
      <trkpt lat="45.55949" lon="6.66882">
        <ele>679</ele>
        <time>2013-04-14T09:14:01Z</time>
      </trkpt>
      <trkpt lat="45.55962" lon="6.66906">
        <ele>680</ele>
        <time>2013-04-14T09:14:09Z</time>
      </trkpt>
      <trkpt lat="45.55963" lon="6.66909">
        <ele>680</ele>
        <time>2013-04-14T09:14:10Z</time>
      </trkpt>
      <trkpt lat="45.55965" lon="6.66912">
        <ele>680</ele>
        <time>2013-04-14T09:14:11Z</time>
      </trkpt>
      <trkpt lat="45.55967" lon="6.66918">
        <ele>680.20001220703</ele>
        <time>2013-04-14T09:14:13Z</time>
      </trkpt>
      <trkpt lat="45.55972" lon="6.66928">
        <ele>680</ele>
        <time>2013-04-14T09:14:16Z</time>
      </trkpt>
      <trkpt lat="45.55975" lon="6.66934">
        <ele>680</ele>
        <time>2013-04-14T09:14:18Z</time>
      </trkpt>
      <trkpt lat="45.55987" lon="6.6696">
        <ele>678.59997558594</ele>
        <time>2013-04-14T09:14:26Z</time>
      </trkpt>
      <trkpt lat="45.55994" lon="6.66992">
        <ele>676</ele>
        <time>2013-04-14T09:14:36Z</time>
      </trkpt>
      <trkpt lat="45.56" lon="6.67011">
        <ele>675.20001220703</ele>
        <time>2013-04-14T09:14:42Z</time>
      </trkpt>
      <trkpt lat="45.56001" lon="6.67015">
        <ele>675.79998779297</ele>
        <time>2013-04-14T09:14:43Z</time>
      </trkpt>
      <trkpt lat="45.56002" lon="6.67018">
        <ele>676.20001220703</ele>
        <time>2013-04-14T09:14:44Z</time>
      </trkpt>
      <trkpt lat="45.56005" lon="6.67025">
        <ele>677.20001220703</ele>
        <time>2013-04-14T09:14:46Z</time>
      </trkpt>
      <trkpt lat="45.56006" lon="6.67028">
        <ele>677.59997558594</ele>
        <time>2013-04-14T09:14:47Z</time>
      </trkpt>
      <trkpt lat="45.56014" lon="6.67047">
        <ele>680.40002441406</ele>
        <time>2013-04-14T09:14:53Z</time>
      </trkpt>
      <trkpt lat="45.56031" lon="6.67081">
        <ele>684.40002441406</ele>
        <time>2013-04-14T09:15:03Z</time>
      </trkpt>
      <trkpt lat="45.56032" lon="6.67083">
        <ele>684.59997558594</ele>
        <time>2013-04-14T09:15:04Z</time>
      </trkpt>
      <trkpt lat="45.56033" lon="6.67087">
        <ele>684.79998779297</ele>
        <time>2013-04-14T09:15:05Z</time>
      </trkpt>
      <trkpt lat="45.56036" lon="6.67095">
        <ele>685.20001220703</ele>
        <time>2013-04-14T09:15:07Z</time>
      </trkpt>
      <trkpt lat="45.56037" lon="6.67097">
        <ele>685.40002441406</ele>
        <time>2013-04-14T09:15:08Z</time>
      </trkpt>
      <trkpt lat="45.56039" lon="6.67101">
        <ele>685.59997558594</ele>
        <time>2013-04-14T09:15:09Z</time>
      </trkpt>
      <trkpt lat="45.56041" lon="6.67111">
        <ele>685.79998779297</ele>
        <time>2013-04-14T09:15:12Z</time>
      </trkpt>
      <trkpt lat="45.56047" lon="6.67129">
        <ele>686.20001220703</ele>
        <time>2013-04-14T09:15:17Z</time>
      </trkpt>
      <trkpt lat="45.56047" lon="6.67132">
        <ele>686</ele>
        <time>2013-04-14T09:15:18Z</time>
      </trkpt>
      <trkpt lat="45.56045" lon="6.67159">
        <ele>684.59997558594</ele>
        <time>2013-04-14T09:15:26Z</time>
      </trkpt>
      <trkpt lat="45.5604" lon="6.67174">
        <ele>683.79998779297</ele>
        <time>2013-04-14T09:15:31Z</time>
      </trkpt>
      <trkpt lat="45.56035" lon="6.67193">
        <ele>683.59997558594</ele>
        <time>2013-04-14T09:15:37Z</time>
      </trkpt>
      <trkpt lat="45.56032" lon="6.67204">
        <ele>683.40002441406</ele>
        <time>2013-04-14T09:15:40Z</time>
      </trkpt>
      <trkpt lat="45.56032" lon="6.67207">
        <ele>683.59997558594</ele>
        <time>2013-04-14T09:15:41Z</time>
      </trkpt>
      <trkpt lat="45.5603" lon="6.67228">
        <ele>683.79998779297</ele>
        <time>2013-04-14T09:15:47Z</time>
      </trkpt>
      <trkpt lat="45.5603" lon="6.67231">
        <ele>684</ele>
        <time>2013-04-14T09:15:48Z</time>
      </trkpt>
      <trkpt lat="45.56034" lon="6.67248">
        <ele>684.40002441406</ele>
        <time>2013-04-14T09:15:53Z</time>
      </trkpt>
      <trkpt lat="45.56039" lon="6.67287">
        <ele>685.20001220703</ele>
        <time>2013-04-14T09:16:04Z</time>
      </trkpt>
      <trkpt lat="45.56037" lon="6.67291">
        <ele>685.40002441406</ele>
        <time>2013-04-14T09:16:05Z</time>
      </trkpt>
      <trkpt lat="45.56038" lon="6.67299">
        <ele>685.40002441406</ele>
        <time>2013-04-14T09:16:07Z</time>
      </trkpt>
      <trkpt lat="45.56039" lon="6.67306">
        <ele>685.59997558594</ele>
        <time>2013-04-14T09:16:09Z</time>
      </trkpt>
      <trkpt lat="45.56039" lon="6.6731">
        <ele>685.59997558594</ele>
        <time>2013-04-14T09:16:10Z</time>
      </trkpt>
      <trkpt lat="45.56041" lon="6.67313">
        <ele>685.59997558594</ele>
        <time>2013-04-14T09:16:11Z</time>
      </trkpt>
      <trkpt lat="45.56047" lon="6.67332">
        <ele>685.79998779297</ele>
        <time>2013-04-14T09:16:17Z</time>
      </trkpt>
      <trkpt lat="45.56049" lon="6.67341">
        <ele>686</ele>
        <time>2013-04-14T09:16:20Z</time>
      </trkpt>
      <trkpt lat="45.56052" lon="6.67347">
        <ele>686</ele>
        <time>2013-04-14T09:16:22Z</time>
      </trkpt>
      <trkpt lat="45.56055" lon="6.6736">
        <ele>686.20001220703</ele>
        <time>2013-04-14T09:16:26Z</time>
      </trkpt>
      <trkpt lat="45.56056" lon="6.67362">
        <ele>686.20001220703</ele>
        <time>2013-04-14T09:16:27Z</time>
      </trkpt>
      <trkpt lat="45.56059" lon="6.67373">
        <ele>686.20001220703</ele>
        <time>2013-04-14T09:16:30Z</time>
      </trkpt>
      <trkpt lat="45.56067" lon="6.67399">
        <ele>686</ele>
        <time>2013-04-14T09:16:38Z</time>
      </trkpt>
      <trkpt lat="45.56073" lon="6.67416">
        <ele>685.20001220703</ele>
        <time>2013-04-14T09:16:43Z</time>
      </trkpt>
      <trkpt lat="45.56075" lon="6.67434">
        <ele>685.79998779297</ele>
        <time>2013-04-14T09:16:49Z</time>
      </trkpt>
      <trkpt lat="45.56078" lon="6.67437">
        <ele>685.40002441406</ele>
        <time>2013-04-14T09:16:50Z</time>
      </trkpt>
      <trkpt lat="45.56079" lon="6.6744">
        <ele>685.40002441406</ele>
        <time>2013-04-14T09:16:51Z</time>
      </trkpt>
      <trkpt lat="45.56078" lon="6.67446">
        <ele>685.79998779297</ele>
        <time>2013-04-14T09:16:53Z</time>
      </trkpt>
      <trkpt lat="45.56079" lon="6.67448">
        <ele>685.79998779297</ele>
        <time>2013-04-14T09:16:54Z</time>
      </trkpt>
      <trkpt lat="45.56081" lon="6.67451">
        <ele>685.59997558594</ele>
        <time>2013-04-14T09:16:55Z</time>
      </trkpt>
      <trkpt lat="45.56083" lon="6.67463">
        <ele>685.59997558594</ele>
        <time>2013-04-14T09:16:59Z</time>
      </trkpt>
      <trkpt lat="45.56086" lon="6.67473">
        <ele>686.20001220703</ele>
        <time>2013-04-14T09:17:02Z</time>
      </trkpt>
      <trkpt lat="45.56091" lon="6.67493">
        <ele>687</ele>
        <time>2013-04-14T09:17:08Z</time>
      </trkpt>
      <trkpt lat="45.56095" lon="6.67505">
        <ele>687.40002441406</ele>
        <time>2013-04-14T09:17:12Z</time>
      </trkpt>
      <trkpt lat="45.561" lon="6.67517">
        <ele>688</ele>
        <time>2013-04-14T09:17:16Z</time>
      </trkpt>
      <trkpt lat="45.56103" lon="6.67528">
        <ele>688.20001220703</ele>
        <time>2013-04-14T09:17:20Z</time>
      </trkpt>
      <trkpt lat="45.56111" lon="6.67544">
        <ele>688.40002441406</ele>
        <time>2013-04-14T09:17:26Z</time>
      </trkpt>
      <trkpt lat="45.56115" lon="6.67549">
        <ele>688.40002441406</ele>
        <time>2013-04-14T09:17:28Z</time>
      </trkpt>
      <trkpt lat="45.56117" lon="6.67551">
        <ele>688.20001220703</ele>
        <time>2013-04-14T09:17:29Z</time>
      </trkpt>
      <trkpt lat="45.56119" lon="6.67557">
        <ele>688.20001220703</ele>
        <time>2013-04-14T09:17:31Z</time>
      </trkpt>
      <trkpt lat="45.5612" lon="6.6756">
        <ele>688.20001220703</ele>
        <time>2013-04-14T09:17:32Z</time>
      </trkpt>
      <trkpt lat="45.5612" lon="6.67562">
        <ele>688.20001220703</ele>
        <time>2013-04-14T09:17:33Z</time>
      </trkpt>
      <trkpt lat="45.56123" lon="6.67571">
        <ele>688</ele>
        <time>2013-04-14T09:17:36Z</time>
      </trkpt>
      <trkpt lat="45.56131" lon="6.6758">
        <ele>687.40002441406</ele>
        <time>2013-04-14T09:17:41Z</time>
      </trkpt>
      <trkpt lat="45.56137" lon="6.67587">
        <ele>687.20001220703</ele>
        <time>2013-04-14T09:17:46Z</time>
      </trkpt>
      <trkpt lat="45.56136" lon="6.67589">
        <ele>687.40002441406</ele>
        <time>2013-04-14T09:17:51Z</time>
      </trkpt>
      <trkpt lat="45.56135" lon="6.6759">
        <ele>687.59997558594</ele>
        <time>2013-04-14T09:17:53Z</time>
      </trkpt>
      <trkpt lat="45.56134" lon="6.6759">
        <ele>687.59997558594</ele>
        <time>2013-04-14T09:17:56Z</time>
      </trkpt>
      <trkpt lat="45.56134" lon="6.67589">
        <ele>687.59997558594</ele>
        <time>2013-04-14T09:17:57Z</time>
      </trkpt>
      <trkpt lat="45.56133" lon="6.67589">
        <ele>687.79998779297</ele>
        <time>2013-04-14T09:17:58Z</time>
      </trkpt>
      <trkpt lat="45.5613" lon="6.67589">
        <ele>688</ele>
        <time>2013-04-14T09:18:03Z</time>
      </trkpt>
      <trkpt lat="45.56129" lon="6.67588">
        <ele>688</ele>
        <time>2013-04-14T09:18:04Z</time>
      </trkpt>
      <trkpt lat="45.56128" lon="6.67588">
        <ele>688</ele>
        <time>2013-04-14T09:18:05Z</time>
      </trkpt>
      <trkpt lat="45.56127" lon="6.67587">
        <ele>688.20001220703</ele>
        <time>2013-04-14T09:18:07Z</time>
      </trkpt>
      <trkpt lat="45.56126" lon="6.67587">
        <ele>688.20001220703</ele>
        <time>2013-04-14T09:18:08Z</time>
      </trkpt>
      <trkpt lat="45.56127" lon="6.67587">
        <ele>688</ele>
        <time>2013-04-14T09:18:10Z</time>
      </trkpt>
      <trkpt lat="45.56124" lon="6.67588">
        <ele>688.40002441406</ele>
        <time>2013-04-14T09:18:12Z</time>
      </trkpt>
      <trkpt lat="45.56123" lon="6.67587">
        <ele>688.59997558594</ele>
        <time>2013-04-14T09:18:13Z</time>
      </trkpt>
      <trkpt lat="45.56122" lon="6.67587">
        <ele>688.59997558594</ele>
        <time>2013-04-14T09:18:14Z</time>
      </trkpt>
      <trkpt lat="45.56117" lon="6.67588">
        <ele>689.20001220703</ele>
        <time>2013-04-14T09:18:20Z</time>
      </trkpt>
      <trkpt lat="45.56116" lon="6.67588">
        <ele>689.40002441406</ele>
        <time>2013-04-14T09:18:21Z</time>
      </trkpt>
      <trkpt lat="45.56115" lon="6.67588">
        <ele>689.40002441406</ele>
        <time>2013-04-14T09:18:22Z</time>
      </trkpt>
      <trkpt lat="45.56113" lon="6.67588">
        <ele>689.59997558594</ele>
        <time>2013-04-14T09:18:25Z</time>
      </trkpt>
      <trkpt lat="45.56112" lon="6.67587">
        <ele>689.59997558594</ele>
        <time>2013-04-14T09:18:27Z</time>
      </trkpt>
      <trkpt lat="45.5611" lon="6.67587">
        <ele>689.79998779297</ele>
        <time>2013-04-14T09:18:29Z</time>
      </trkpt>
      <trkpt lat="45.56109" lon="6.67587">
        <ele>689.79998779297</ele>
        <time>2013-04-14T09:18:30Z</time>
      </trkpt>
      <trkpt lat="45.56109" lon="6.67586">
        <ele>689.79998779297</ele>
        <time>2013-04-14T09:18:31Z</time>
      </trkpt>
      <trkpt lat="45.56107" lon="6.67585">
        <ele>689.79998779297</ele>
        <time>2013-04-14T09:18:33Z</time>
      </trkpt>
      <trkpt lat="45.56107" lon="6.67584">
        <ele>689.79998779297</ele>
        <time>2013-04-14T09:18:34Z</time>
      </trkpt>
      <trkpt lat="45.56105" lon="6.67582">
        <ele>689.79998779297</ele>
        <time>2013-04-14T09:18:37Z</time>
      </trkpt>
      <trkpt lat="45.56104" lon="6.67581">
        <ele>689.79998779297</ele>
        <time>2013-04-14T09:18:39Z</time>
      </trkpt>
      <trkpt lat="45.56103" lon="6.67581">
        <ele>690</ele>
        <time>2013-04-14T09:18:40Z</time>
      </trkpt>
      <trkpt lat="45.56102" lon="6.6758">
        <ele>690</ele>
        <time>2013-04-14T09:18:41Z</time>
      </trkpt>
      <trkpt lat="45.561" lon="6.67578">
        <ele>690.20001220703</ele>
        <time>2013-04-14T09:18:46Z</time>
      </trkpt>
      <trkpt lat="45.56099" lon="6.67578">
        <ele>690.20001220703</ele>
        <time>2013-04-14T09:18:47Z</time>
      </trkpt>
      <trkpt lat="45.56098" lon="6.67577">
        <ele>690.20001220703</ele>
        <time>2013-04-14T09:18:48Z</time>
      </trkpt>
      <trkpt lat="45.56097" lon="6.67576">
        <ele>690.20001220703</ele>
        <time>2013-04-14T09:18:50Z</time>
      </trkpt>
      <trkpt lat="45.56096" lon="6.67576">
        <ele>690.40002441406</ele>
        <time>2013-04-14T09:18:51Z</time>
      </trkpt>
      <trkpt lat="45.56095" lon="6.67575">
        <ele>690.40002441406</ele>
        <time>2013-04-14T09:18:53Z</time>
      </trkpt>
      <trkpt lat="45.56093" lon="6.67574">
        <ele>690.59997558594</ele>
        <time>2013-04-14T09:18:55Z</time>
      </trkpt>
      <trkpt lat="45.56092" lon="6.67573">
        <ele>690.59997558594</ele>
        <time>2013-04-14T09:18:56Z</time>
      </trkpt>
      <trkpt lat="45.5609" lon="6.6757">
        <ele>690.59997558594</ele>
        <time>2013-04-14T09:19:00Z</time>
      </trkpt>
      <trkpt lat="45.56089" lon="6.67569">
        <ele>690.59997558594</ele>
        <time>2013-04-14T09:19:01Z</time>
      </trkpt>
      <trkpt lat="45.56089" lon="6.67569">
        <ele>690.59997558594</ele>
        <time>2013-04-14T09:19:02Z</time>
      </trkpt>
      <trkpt lat="45.56086" lon="6.67567">
        <ele>690.59997558594</ele>
        <time>2013-04-14T09:19:04Z</time>
      </trkpt>
      <trkpt lat="45.56086" lon="6.67566">
        <ele>690.79998779297</ele>
        <time>2013-04-14T09:19:05Z</time>
      </trkpt>
      <trkpt lat="45.56084" lon="6.67565">
        <ele>690.79998779297</ele>
        <time>2013-04-14T09:19:06Z</time>
      </trkpt>
      <trkpt lat="45.56079" lon="6.67562">
        <ele>691.59997558594</ele>
        <time>2013-04-14T09:19:11Z</time>
      </trkpt>
      <trkpt lat="45.56078" lon="6.67561">
        <ele>691.79998779297</ele>
        <time>2013-04-14T09:19:12Z</time>
      </trkpt>
      <trkpt lat="45.56077" lon="6.67558">
        <ele>691.79998779297</ele>
        <time>2013-04-14T09:19:13Z</time>
      </trkpt>
      <trkpt lat="45.56074" lon="6.67557">
        <ele>692.40002441406</ele>
        <time>2013-04-14T09:19:15Z</time>
      </trkpt>
      <trkpt lat="45.56059" lon="6.67552">
        <ele>695.40002441406</ele>
        <time>2013-04-14T09:19:25Z</time>
      </trkpt>
      <trkpt lat="45.56057" lon="6.67551">
        <ele>695.59997558594</ele>
        <time>2013-04-14T09:19:26Z</time>
      </trkpt>
      <trkpt lat="45.56055" lon="6.6755">
        <ele>696.20001220703</ele>
        <time>2013-04-14T09:19:28Z</time>
      </trkpt>
      <trkpt lat="45.56053" lon="6.6755">
        <ele>696.40002441406</ele>
        <time>2013-04-14T09:19:29Z</time>
      </trkpt>
      <trkpt lat="45.56051" lon="6.67549">
        <ele>696.79998779297</ele>
        <time>2013-04-14T09:19:30Z</time>
      </trkpt>
      <trkpt lat="45.56049" lon="6.67548">
        <ele>697.20001220703</ele>
        <time>2013-04-14T09:19:32Z</time>
      </trkpt>
      <trkpt lat="45.56041" lon="6.67546">
        <ele>698.79998779297</ele>
        <time>2013-04-14T09:19:38Z</time>
      </trkpt>
      <trkpt lat="45.56039" lon="6.67545">
        <ele>699.20001220703</ele>
        <time>2013-04-14T09:19:40Z</time>
      </trkpt>
      <trkpt lat="45.56036" lon="6.67546">
        <ele>699.79998779297</ele>
        <time>2013-04-14T09:19:42Z</time>
      </trkpt>
      <trkpt lat="45.56034" lon="6.67548">
        <ele>700.40002441406</ele>
        <time>2013-04-14T09:19:44Z</time>
      </trkpt>
      <trkpt lat="45.56031" lon="6.6755">
        <ele>701.20001220703</ele>
        <time>2013-04-14T09:19:47Z</time>
      </trkpt>
      <trkpt lat="45.56027" lon="6.67553">
        <ele>702.20001220703</ele>
        <time>2013-04-14T09:19:54Z</time>
      </trkpt>
      <trkpt lat="45.56025" lon="6.67555">
        <ele>702.79998779297</ele>
        <time>2013-04-14T09:19:56Z</time>
      </trkpt>
      <trkpt lat="45.56023" lon="6.67556">
        <ele>703.20001220703</ele>
        <time>2013-04-14T09:19:58Z</time>
      </trkpt>
      <trkpt lat="45.56022" lon="6.67557">
        <ele>703.59997558594</ele>
        <time>2013-04-14T09:19:59Z</time>
      </trkpt>
      <trkpt lat="45.56021" lon="6.67558">
        <ele>703.79998779297</ele>
        <time>2013-04-14T09:20:00Z</time>
      </trkpt>
      <trkpt lat="45.56014" lon="6.67565">
        <ele>705.79998779297</ele>
        <time>2013-04-14T09:20:07Z</time>
      </trkpt>
      <trkpt lat="45.56012" lon="6.67566">
        <ele>706.20001220703</ele>
        <time>2013-04-14T09:20:08Z</time>
      </trkpt>
      <trkpt lat="45.56011" lon="6.67567">
        <ele>706.40002441406</ele>
        <time>2013-04-14T09:20:09Z</time>
      </trkpt>
      <trkpt lat="45.56009" lon="6.67568">
        <ele>707</ele>
        <time>2013-04-14T09:20:11Z</time>
      </trkpt>
      <trkpt lat="45.56008" lon="6.67569">
        <ele>707.40002441406</ele>
        <time>2013-04-14T09:20:12Z</time>
      </trkpt>
      <trkpt lat="45.56001" lon="6.67574">
        <ele>709</ele>
        <time>2013-04-14T09:20:18Z</time>
      </trkpt>
      <trkpt lat="45.56001" lon="6.67575">
        <ele>709.20001220703</ele>
        <time>2013-04-14T09:20:20Z</time>
      </trkpt>
      <trkpt lat="45.56" lon="6.67575">
        <ele>709.40002441406</ele>
        <time>2013-04-14T09:20:21Z</time>
      </trkpt>
      <trkpt lat="45.55999" lon="6.67577">
        <ele>709.59997558594</ele>
        <time>2013-04-14T09:20:22Z</time>
      </trkpt>
      <trkpt lat="45.55996" lon="6.67578">
        <ele>710</ele>
        <time>2013-04-14T09:20:24Z</time>
      </trkpt>
      <trkpt lat="45.55993" lon="6.67582">
        <ele>710.79998779297</ele>
        <time>2013-04-14T09:20:27Z</time>
      </trkpt>
      <trkpt lat="45.55989" lon="6.67585">
        <ele>711.59997558594</ele>
        <time>2013-04-14T09:20:31Z</time>
      </trkpt>
      <trkpt lat="45.55985" lon="6.67588">
        <ele>712.20001220703</ele>
        <time>2013-04-14T09:20:34Z</time>
      </trkpt>
      <trkpt lat="45.55984" lon="6.67589">
        <ele>712.40002441406</ele>
        <time>2013-04-14T09:20:35Z</time>
      </trkpt>
      <trkpt lat="45.55976" lon="6.67593">
        <ele>713.79998779297</ele>
        <time>2013-04-14T09:20:42Z</time>
      </trkpt>
      <trkpt lat="45.55975" lon="6.67595">
        <ele>714</ele>
        <time>2013-04-14T09:20:43Z</time>
      </trkpt>
      <trkpt lat="45.55974" lon="6.67596">
        <ele>714.40002441406</ele>
        <time>2013-04-14T09:20:44Z</time>
      </trkpt>
      <trkpt lat="45.55971" lon="6.67598">
        <ele>714.79998779297</ele>
        <time>2013-04-14T09:20:46Z</time>
      </trkpt>
      <trkpt lat="45.5597" lon="6.67598">
        <ele>715</ele>
        <time>2013-04-14T09:20:47Z</time>
      </trkpt>
      <trkpt lat="45.55967" lon="6.676">
        <ele>715.59997558594</ele>
        <time>2013-04-14T09:20:50Z</time>
      </trkpt>
      <trkpt lat="45.55965" lon="6.67601">
        <ele>715.79998779297</ele>
        <time>2013-04-14T09:20:53Z</time>
      </trkpt>
      <trkpt lat="45.55964" lon="6.67603">
        <ele>716</ele>
        <time>2013-04-14T09:20:54Z</time>
      </trkpt>
      <trkpt lat="45.55964" lon="6.67604">
        <ele>716.20001220703</ele>
        <time>2013-04-14T09:20:55Z</time>
      </trkpt>
      <trkpt lat="45.55962" lon="6.67606">
        <ele>716.59997558594</ele>
        <time>2013-04-14T09:20:57Z</time>
      </trkpt>
      <trkpt lat="45.55962" lon="6.67607">
        <ele>716.79998779297</ele>
        <time>2013-04-14T09:20:58Z</time>
      </trkpt>
      <trkpt lat="45.55957" lon="6.67614">
        <ele>718</ele>
        <time>2013-04-14T09:21:03Z</time>
      </trkpt>
      <trkpt lat="45.55955" lon="6.67617">
        <ele>718.40002441406</ele>
        <time>2013-04-14T09:21:05Z</time>
      </trkpt>
      <trkpt lat="45.55955" lon="6.67618">
        <ele>718.59997558594</ele>
        <time>2013-04-14T09:21:06Z</time>
      </trkpt>
      <trkpt lat="45.55954" lon="6.67619">
        <ele>718.79998779297</ele>
        <time>2013-04-14T09:21:07Z</time>
      </trkpt>
      <trkpt lat="45.55952" lon="6.67621">
        <ele>719.20001220703</ele>
        <time>2013-04-14T09:21:09Z</time>
      </trkpt>
      <trkpt lat="45.55949" lon="6.67626">
        <ele>720</ele>
        <time>2013-04-14T09:21:13Z</time>
      </trkpt>
      <trkpt lat="45.55946" lon="6.67629">
        <ele>720.79998779297</ele>
        <time>2013-04-14T09:21:16Z</time>
      </trkpt>
      <trkpt lat="45.55945" lon="6.67631">
        <ele>721</ele>
        <time>2013-04-14T09:21:17Z</time>
      </trkpt>
      <trkpt lat="45.55944" lon="6.67631">
        <ele>721.20001220703</ele>
        <time>2013-04-14T09:21:18Z</time>
      </trkpt>
      <trkpt lat="45.55942" lon="6.67635">
        <ele>721.79998779297</ele>
        <time>2013-04-14T09:21:21Z</time>
      </trkpt>
      <trkpt lat="45.55939" lon="6.67637">
        <ele>722.40002441406</ele>
        <time>2013-04-14T09:21:24Z</time>
      </trkpt>
      <trkpt lat="45.55938" lon="6.67638">
        <ele>722.40002441406</ele>
        <time>2013-04-14T09:21:25Z</time>
      </trkpt>
      <trkpt lat="45.55937" lon="6.67637">
        <ele>722.59997558594</ele>
        <time>2013-04-14T09:21:27Z</time>
      </trkpt>
      <trkpt lat="45.55936" lon="6.67638">
        <ele>722.79998779297</ele>
        <time>2013-04-14T09:21:28Z</time>
      </trkpt>
      <trkpt lat="45.55935" lon="6.67639">
        <ele>723</ele>
        <time>2013-04-14T09:21:29Z</time>
      </trkpt>
      <trkpt lat="45.55931" lon="6.67639">
        <ele>723.59997558594</ele>
        <time>2013-04-14T09:21:32Z</time>
      </trkpt>
      <trkpt lat="45.55928" lon="6.67639">
        <ele>724</ele>
        <time>2013-04-14T09:21:34Z</time>
      </trkpt>
      <trkpt lat="45.55926" lon="6.67637">
        <ele>724.20001220703</ele>
        <time>2013-04-14T09:21:35Z</time>
      </trkpt>
      <trkpt lat="45.55922" lon="6.67635">
        <ele>724.40002441406</ele>
        <time>2013-04-14T09:21:37Z</time>
      </trkpt>
      <trkpt lat="45.5592" lon="6.67634">
        <ele>724.59997558594</ele>
        <time>2013-04-14T09:21:38Z</time>
      </trkpt>
      <trkpt lat="45.55918" lon="6.67633">
        <ele>724.79998779297</ele>
        <time>2013-04-14T09:21:39Z</time>
      </trkpt>
      <trkpt lat="45.55909" lon="6.67638">
        <ele>726</ele>
        <time>2013-04-14T09:21:44Z</time>
      </trkpt>
      <trkpt lat="45.55908" lon="6.67639">
        <ele>726.20001220703</ele>
        <time>2013-04-14T09:21:45Z</time>
      </trkpt>
      <trkpt lat="45.55907" lon="6.6764">
        <ele>726.40002441406</ele>
        <time>2013-04-14T09:21:46Z</time>
      </trkpt>
      <trkpt lat="45.55904" lon="6.67642">
        <ele>726.79998779297</ele>
        <time>2013-04-14T09:21:48Z</time>
      </trkpt>
      <trkpt lat="45.559" lon="6.67647">
        <ele>727.40002441406</ele>
        <time>2013-04-14T09:21:51Z</time>
      </trkpt>
      <trkpt lat="45.55897" lon="6.67649">
        <ele>727.79998779297</ele>
        <time>2013-04-14T09:21:53Z</time>
      </trkpt>
      <trkpt lat="45.55895" lon="6.67651">
        <ele>728.20001220703</ele>
        <time>2013-04-14T09:21:54Z</time>
      </trkpt>
      <trkpt lat="45.55894" lon="6.67652">
        <ele>728.20001220703</ele>
        <time>2013-04-14T09:21:55Z</time>
      </trkpt>
      <trkpt lat="45.55887" lon="6.67661">
        <ele>729.59997558594</ele>
        <time>2013-04-14T09:22:03Z</time>
      </trkpt>
      <trkpt lat="45.55886" lon="6.67662">
        <ele>729.79998779297</ele>
        <time>2013-04-14T09:22:04Z</time>
      </trkpt>
      <trkpt lat="45.55886" lon="6.67663">
        <ele>729.79998779297</ele>
        <time>2013-04-14T09:22:05Z</time>
      </trkpt>
      <trkpt lat="45.55884" lon="6.67667">
        <ele>730.20001220703</ele>
        <time>2013-04-14T09:22:07Z</time>
      </trkpt>
      <trkpt lat="45.55881" lon="6.67672">
        <ele>730.79998779297</ele>
        <time>2013-04-14T09:22:10Z</time>
      </trkpt>
      <trkpt lat="45.55878" lon="6.67678">
        <ele>731.59997558594</ele>
        <time>2013-04-14T09:22:15Z</time>
      </trkpt>
      <trkpt lat="45.55874" lon="6.67684">
        <ele>732.40002441406</ele>
        <time>2013-04-14T09:22:19Z</time>
      </trkpt>
      <trkpt lat="45.55873" lon="6.67686">
        <ele>732.59997558594</ele>
        <time>2013-04-14T09:22:20Z</time>
      </trkpt>
      <trkpt lat="45.55872" lon="6.67687">
        <ele>732.79998779297</ele>
        <time>2013-04-14T09:22:21Z</time>
      </trkpt>
      <trkpt lat="45.5587" lon="6.67693">
        <ele>733.40002441406</ele>
        <time>2013-04-14T09:22:25Z</time>
      </trkpt>
      <trkpt lat="45.55866" lon="6.67705">
        <ele>734.59997558594</ele>
        <time>2013-04-14T09:22:32Z</time>
      </trkpt>
      <trkpt lat="45.55865" lon="6.67706">
        <ele>734.79998779297</ele>
        <time>2013-04-14T09:22:33Z</time>
      </trkpt>
      <trkpt lat="45.55863" lon="6.6771">
        <ele>735.40002441406</ele>
        <time>2013-04-14T09:22:35Z</time>
      </trkpt>
      <trkpt lat="45.55863" lon="6.67712">
        <ele>735.59997558594</ele>
        <time>2013-04-14T09:22:36Z</time>
      </trkpt>
      <trkpt lat="45.55862" lon="6.67713">
        <ele>735.79998779297</ele>
        <time>2013-04-14T09:22:37Z</time>
      </trkpt>
      <trkpt lat="45.55856" lon="6.67726">
        <ele>737.40002441406</ele>
        <time>2013-04-14T09:22:45Z</time>
      </trkpt>
      <trkpt lat="45.55855" lon="6.67728">
        <ele>737.59997558594</ele>
        <time>2013-04-14T09:22:46Z</time>
      </trkpt>
      <trkpt lat="45.55855" lon="6.67729">
        <ele>737.79998779297</ele>
        <time>2013-04-14T09:22:48Z</time>
      </trkpt>
      <trkpt lat="45.55855" lon="6.67729">
        <ele>737.79998779297</ele>
        <time>2013-04-14T09:22:49Z</time>
      </trkpt>
      <trkpt lat="45.55852" lon="6.67736">
        <ele>738.79998779297</ele>
        <time>2013-04-14T09:22:52Z</time>
      </trkpt>
      <trkpt lat="45.5585" lon="6.67741">
        <ele>739.20001220703</ele>
        <time>2013-04-14T09:22:55Z</time>
      </trkpt>
      <trkpt lat="45.5585" lon="6.67743">
        <ele>739.40002441406</ele>
        <time>2013-04-14T09:22:56Z</time>
      </trkpt>
      <trkpt lat="45.55849" lon="6.67745">
        <ele>739.79998779297</ele>
        <time>2013-04-14T09:22:57Z</time>
      </trkpt>
      <trkpt lat="45.55849" lon="6.67749">
        <ele>740.20001220703</ele>
        <time>2013-04-14T09:22:59Z</time>
      </trkpt>
      <trkpt lat="45.55848" lon="6.6775">
        <ele>740.40002441406</ele>
        <time>2013-04-14T09:23:00Z</time>
      </trkpt>
      <trkpt lat="45.55846" lon="6.67757">
        <ele>741.20001220703</ele>
        <time>2013-04-14T09:23:04Z</time>
      </trkpt>
      <trkpt lat="45.55846" lon="6.6776">
        <ele>741.40002441406</ele>
        <time>2013-04-14T09:23:06Z</time>
      </trkpt>
      <trkpt lat="45.55845" lon="6.67762">
        <ele>741.79998779297</ele>
        <time>2013-04-14T09:23:07Z</time>
      </trkpt>
      <trkpt lat="45.55845" lon="6.67763">
        <ele>741.79998779297</ele>
        <time>2013-04-14T09:23:08Z</time>
      </trkpt>
      <trkpt lat="45.55843" lon="6.67766">
        <ele>742.40002441406</ele>
        <time>2013-04-14T09:23:11Z</time>
      </trkpt>
      <trkpt lat="45.5584" lon="6.67772">
        <ele>743.20001220703</ele>
        <time>2013-04-14T09:23:16Z</time>
      </trkpt>
      <trkpt lat="45.55839" lon="6.67773">
        <ele>743.59997558594</ele>
        <time>2013-04-14T09:23:17Z</time>
      </trkpt>
      <trkpt lat="45.55838" lon="6.67776">
        <ele>744</ele>
        <time>2013-04-14T09:23:19Z</time>
      </trkpt>
      <trkpt lat="45.55837" lon="6.67779">
        <ele>744.20001220703</ele>
        <time>2013-04-14T09:23:20Z</time>
      </trkpt>
      <trkpt lat="45.55832" lon="6.67795">
        <ele>746.20001220703</ele>
        <time>2013-04-14T09:23:29Z</time>
      </trkpt>
      <trkpt lat="45.55831" lon="6.67797">
        <ele>746.59997558594</ele>
        <time>2013-04-14T09:23:30Z</time>
      </trkpt>
      <trkpt lat="45.5583" lon="6.67799">
        <ele>746.79998779297</ele>
        <time>2013-04-14T09:23:31Z</time>
      </trkpt>
      <trkpt lat="45.55828" lon="6.67802">
        <ele>747.20001220703</ele>
        <time>2013-04-14T09:23:33Z</time>
      </trkpt>
      <trkpt lat="45.55828" lon="6.67804">
        <ele>747.40002441406</ele>
        <time>2013-04-14T09:23:34Z</time>
      </trkpt>
      <trkpt lat="45.55827" lon="6.67804">
        <ele>747.40002441406</ele>
        <time>2013-04-14T09:23:35Z</time>
      </trkpt>
      <trkpt lat="45.55821" lon="6.67816">
        <ele>748.79998779297</ele>
        <time>2013-04-14T09:23:42Z</time>
      </trkpt>
      <trkpt lat="45.5582" lon="6.67818">
        <ele>749</ele>
        <time>2013-04-14T09:23:43Z</time>
      </trkpt>
      <trkpt lat="45.55819" lon="6.6782">
        <ele>749.40002441406</ele>
        <time>2013-04-14T09:23:44Z</time>
      </trkpt>
      <trkpt lat="45.55818" lon="6.67824">
        <ele>749.79998779297</ele>
        <time>2013-04-14T09:23:46Z</time>
      </trkpt>
      <trkpt lat="45.55818" lon="6.67826">
        <ele>750</ele>
        <time>2013-04-14T09:23:47Z</time>
      </trkpt>
      <trkpt lat="45.55817" lon="6.67828">
        <ele>750.20001220703</ele>
        <time>2013-04-14T09:23:48Z</time>
      </trkpt>
      <trkpt lat="45.55815" lon="6.67841">
        <ele>751.40002441406</ele>
        <time>2013-04-14T09:23:54Z</time>
      </trkpt>
      <trkpt lat="45.55814" lon="6.67844">
        <ele>751.59997558594</ele>
        <time>2013-04-14T09:23:55Z</time>
      </trkpt>
      <trkpt lat="45.55814" lon="6.67845">
        <ele>751.59997558594</ele>
        <time>2013-04-14T09:23:56Z</time>
      </trkpt>
      <trkpt lat="45.55813" lon="6.67849">
        <ele>752</ele>
        <time>2013-04-14T09:23:58Z</time>
      </trkpt>
      <trkpt lat="45.55812" lon="6.6785">
        <ele>752.20001220703</ele>
        <time>2013-04-14T09:23:59Z</time>
      </trkpt>
      <trkpt lat="45.55811" lon="6.67854">
        <ele>752.40002441406</ele>
        <time>2013-04-14T09:24:02Z</time>
      </trkpt>
      <trkpt lat="45.5581" lon="6.67857">
        <ele>752.59997558594</ele>
        <time>2013-04-14T09:24:04Z</time>
      </trkpt>
      <trkpt lat="45.55808" lon="6.6786">
        <ele>753</ele>
        <time>2013-04-14T09:24:06Z</time>
      </trkpt>
      <trkpt lat="45.55807" lon="6.67862">
        <ele>753.20001220703</ele>
        <time>2013-04-14T09:24:08Z</time>
      </trkpt>
      <trkpt lat="45.55807" lon="6.67864">
        <ele>753.40002441406</ele>
        <time>2013-04-14T09:24:09Z</time>
      </trkpt>
      <trkpt lat="45.55806" lon="6.67866">
        <ele>753.59997558594</ele>
        <time>2013-04-14T09:24:10Z</time>
      </trkpt>
      <trkpt lat="45.558" lon="6.67883">
        <ele>755.20001220703</ele>
        <time>2013-04-14T09:24:18Z</time>
      </trkpt>
      <trkpt lat="45.558" lon="6.67886">
        <ele>755.40002441406</ele>
        <time>2013-04-14T09:24:19Z</time>
      </trkpt>
      <trkpt lat="45.55799" lon="6.67888">
        <ele>755.59997558594</ele>
        <time>2013-04-14T09:24:20Z</time>
      </trkpt>
      <trkpt lat="45.55797" lon="6.67893">
        <ele>756.20001220703</ele>
        <time>2013-04-14T09:24:22Z</time>
      </trkpt>
      <trkpt lat="45.55796" lon="6.67895">
        <ele>756.40002441406</ele>
        <time>2013-04-14T09:24:23Z</time>
      </trkpt>
      <trkpt lat="45.55795" lon="6.67897">
        <ele>756.59997558594</ele>
        <time>2013-04-14T09:24:24Z</time>
      </trkpt>
      <trkpt lat="45.55793" lon="6.67901">
        <ele>757.20001220703</ele>
        <time>2013-04-14T09:24:26Z</time>
      </trkpt>
      <trkpt lat="45.55792" lon="6.67903">
        <ele>757.20001220703</ele>
        <time>2013-04-14T09:24:27Z</time>
      </trkpt>
      <trkpt lat="45.5579" lon="6.6791">
        <ele>758</ele>
        <time>2013-04-14T09:24:30Z</time>
      </trkpt>
      <trkpt lat="45.55788" lon="6.67915">
        <ele>758.59997558594</ele>
        <time>2013-04-14T09:24:32Z</time>
      </trkpt>
      <trkpt lat="45.55787" lon="6.67917">
        <ele>758.79998779297</ele>
        <time>2013-04-14T09:24:33Z</time>
      </trkpt>
      <trkpt lat="45.55786" lon="6.6792">
        <ele>759.20001220703</ele>
        <time>2013-04-14T09:24:34Z</time>
      </trkpt>
      <trkpt lat="45.55785" lon="6.67925">
        <ele>759.79998779297</ele>
        <time>2013-04-14T09:24:36Z</time>
      </trkpt>
      <trkpt lat="45.55784" lon="6.67927">
        <ele>760</ele>
        <time>2013-04-14T09:24:37Z</time>
      </trkpt>
      <trkpt lat="45.55784" lon="6.67929">
        <ele>760.20001220703</ele>
        <time>2013-04-14T09:24:38Z</time>
      </trkpt>
      <trkpt lat="45.55782" lon="6.67937">
        <ele>761.20001220703</ele>
        <time>2013-04-14T09:24:41Z</time>
      </trkpt>
      <trkpt lat="45.55781" lon="6.6794">
        <ele>761.59997558594</ele>
        <time>2013-04-14T09:24:42Z</time>
      </trkpt>
      <trkpt lat="45.55777" lon="6.67953">
        <ele>763.20001220703</ele>
        <time>2013-04-14T09:24:47Z</time>
      </trkpt>
      <trkpt lat="45.55777" lon="6.67955">
        <ele>763.40002441406</ele>
        <time>2013-04-14T09:24:48Z</time>
      </trkpt>
      <trkpt lat="45.55776" lon="6.67958">
        <ele>763.79998779297</ele>
        <time>2013-04-14T09:24:49Z</time>
      </trkpt>
      <trkpt lat="45.55774" lon="6.67964">
        <ele>764.40002441406</ele>
        <time>2013-04-14T09:24:51Z</time>
      </trkpt>
      <trkpt lat="45.55773" lon="6.67966">
        <ele>764.79998779297</ele>
        <time>2013-04-14T09:24:52Z</time>
      </trkpt>
      <trkpt lat="45.55773" lon="6.67968">
        <ele>764.79998779297</ele>
        <time>2013-04-14T09:24:53Z</time>
      </trkpt>
      <trkpt lat="45.55771" lon="6.67974">
        <ele>765.79998779297</ele>
        <time>2013-04-14T09:24:55Z</time>
      </trkpt>
      <trkpt lat="45.5577" lon="6.67977">
        <ele>766</ele>
        <time>2013-04-14T09:24:56Z</time>
      </trkpt>
      <trkpt lat="45.55769" lon="6.6798">
        <ele>766.40002441406</ele>
        <time>2013-04-14T09:24:57Z</time>
      </trkpt>
      <trkpt lat="45.55769" lon="6.67984">
        <ele>766.79998779297</ele>
        <time>2013-04-14T09:24:59Z</time>
      </trkpt>
      <trkpt lat="45.55769" lon="6.67987">
        <ele>767</ele>
        <time>2013-04-14T09:25:00Z</time>
      </trkpt>
      <trkpt lat="45.55771" lon="6.67989">
        <ele>767.20001220703</ele>
        <time>2013-04-14T09:25:01Z</time>
      </trkpt>
      <trkpt lat="45.55771" lon="6.67995">
        <ele>767.59997558594</ele>
        <time>2013-04-14T09:25:03Z</time>
      </trkpt>
      <trkpt lat="45.55772" lon="6.67997">
        <ele>767.79998779297</ele>
        <time>2013-04-14T09:25:04Z</time>
      </trkpt>
      <trkpt lat="45.55773" lon="6.68">
        <ele>768</ele>
        <time>2013-04-14T09:25:05Z</time>
      </trkpt>
      <trkpt lat="45.55773" lon="6.68013">
        <ele>769.40002441406</ele>
        <time>2013-04-14T09:25:10Z</time>
      </trkpt>
      <trkpt lat="45.55773" lon="6.68015">
        <ele>769.59997558594</ele>
        <time>2013-04-14T09:25:11Z</time>
      </trkpt>
      <trkpt lat="45.55774" lon="6.68018">
        <ele>770</ele>
        <time>2013-04-14T09:25:14Z</time>
      </trkpt>
      <trkpt lat="45.55774" lon="6.6802">
        <ele>770</ele>
        <time>2013-04-14T09:25:15Z</time>
      </trkpt>
      <trkpt lat="45.55772" lon="6.68022">
        <ele>770.40002441406</ele>
        <time>2013-04-14T09:25:21Z</time>
      </trkpt>
      <trkpt lat="45.55774" lon="6.68024">
        <ele>770.59997558594</ele>
        <time>2013-04-14T09:25:28Z</time>
      </trkpt>
      <trkpt lat="45.55774" lon="6.68024">
        <ele>770.59997558594</ele>
        <time>2013-04-14T09:25:32Z</time>
      </trkpt>
      <trkpt lat="45.55774" lon="6.68028">
        <ele>771</ele>
        <time>2013-04-14T09:25:34Z</time>
      </trkpt>
      <trkpt lat="45.5577" lon="6.68039">
        <ele>772.59997558594</ele>
        <time>2013-04-14T09:25:39Z</time>
      </trkpt>
      <trkpt lat="45.55769" lon="6.68042">
        <ele>773</ele>
        <time>2013-04-14T09:25:40Z</time>
      </trkpt>
      <trkpt lat="45.55768" lon="6.68045">
        <ele>773.40002441406</ele>
        <time>2013-04-14T09:25:41Z</time>
      </trkpt>
      <trkpt lat="45.55766" lon="6.6805">
        <ele>774.20001220703</ele>
        <time>2013-04-14T09:25:43Z</time>
      </trkpt>
      <trkpt lat="45.55766" lon="6.68053">
        <ele>774.40002441406</ele>
        <time>2013-04-14T09:25:44Z</time>
      </trkpt>
      <trkpt lat="45.55764" lon="6.68056">
        <ele>774.79998779297</ele>
        <time>2013-04-14T09:25:45Z</time>
      </trkpt>
      <trkpt lat="45.55763" lon="6.68062">
        <ele>775.59997558594</ele>
        <time>2013-04-14T09:25:47Z</time>
      </trkpt>
      <trkpt lat="45.55762" lon="6.68064">
        <ele>776</ele>
        <time>2013-04-14T09:25:48Z</time>
      </trkpt>
      <trkpt lat="45.5576" lon="6.68067">
        <ele>776.40002441406</ele>
        <time>2013-04-14T09:25:49Z</time>
      </trkpt>
      <trkpt lat="45.55758" lon="6.68071">
        <ele>777</ele>
        <time>2013-04-14T09:25:51Z</time>
      </trkpt>
      <trkpt lat="45.55756" lon="6.68073">
        <ele>777.40002441406</ele>
        <time>2013-04-14T09:25:52Z</time>
      </trkpt>
      <trkpt lat="45.55755" lon="6.68075">
        <ele>777.59997558594</ele>
        <time>2013-04-14T09:25:53Z</time>
      </trkpt>
      <trkpt lat="45.55752" lon="6.68079">
        <ele>778.20001220703</ele>
        <time>2013-04-14T09:25:55Z</time>
      </trkpt>
      <trkpt lat="45.55748" lon="6.68084">
        <ele>779.20001220703</ele>
        <time>2013-04-14T09:25:58Z</time>
      </trkpt>
      <trkpt lat="45.55744" lon="6.68088">
        <ele>779.79998779297</ele>
        <time>2013-04-14T09:26:00Z</time>
      </trkpt>
      <trkpt lat="45.55743" lon="6.68091">
        <ele>780.20001220703</ele>
        <time>2013-04-14T09:26:01Z</time>
      </trkpt>
      <trkpt lat="45.55741" lon="6.68093">
        <ele>780.59997558594</ele>
        <time>2013-04-14T09:26:02Z</time>
      </trkpt>
      <trkpt lat="45.55739" lon="6.68096">
        <ele>781</ele>
        <time>2013-04-14T09:26:04Z</time>
      </trkpt>
      <trkpt lat="45.55737" lon="6.68098">
        <ele>781.40002441406</ele>
        <time>2013-04-14T09:26:05Z</time>
      </trkpt>
      <trkpt lat="45.55736" lon="6.68099">
        <ele>781.59997558594</ele>
        <time>2013-04-14T09:26:06Z</time>
      </trkpt>
      <trkpt lat="45.55734" lon="6.68103">
        <ele>782</ele>
        <time>2013-04-14T09:26:08Z</time>
      </trkpt>
      <trkpt lat="45.55733" lon="6.68105">
        <ele>782.40002441406</ele>
        <time>2013-04-14T09:26:09Z</time>
      </trkpt>
      <trkpt lat="45.55732" lon="6.68106">
        <ele>782.59997558594</ele>
        <time>2013-04-14T09:26:10Z</time>
      </trkpt>
      <trkpt lat="45.55727" lon="6.68114">
        <ele>783.79998779297</ele>
        <time>2013-04-14T09:26:13Z</time>
      </trkpt>
      <trkpt lat="45.55724" lon="6.68117">
        <ele>784.20001220703</ele>
        <time>2013-04-14T09:26:14Z</time>
      </trkpt>
      <trkpt lat="45.55723" lon="6.68118">
        <ele>784.59997558594</ele>
        <time>2013-04-14T09:26:15Z</time>
      </trkpt>
      <trkpt lat="45.5572" lon="6.68122">
        <ele>785.20001220703</ele>
        <time>2013-04-14T09:26:17Z</time>
      </trkpt>
      <trkpt lat="45.55718" lon="6.68126">
        <ele>785.59997558594</ele>
        <time>2013-04-14T09:26:20Z</time>
      </trkpt>
      <trkpt lat="45.55716" lon="6.68129">
        <ele>786</ele>
        <time>2013-04-14T09:26:21Z</time>
      </trkpt>
      <trkpt lat="45.55713" lon="6.68133">
        <ele>786.79998779297</ele>
        <time>2013-04-14T09:26:23Z</time>
      </trkpt>
      <trkpt lat="45.55712" lon="6.68135">
        <ele>787</ele>
        <time>2013-04-14T09:26:24Z</time>
      </trkpt>
      <trkpt lat="45.55711" lon="6.68137">
        <ele>787.40002441406</ele>
        <time>2013-04-14T09:26:25Z</time>
      </trkpt>
      <trkpt lat="45.55707" lon="6.68142">
        <ele>788.20001220703</ele>
        <time>2013-04-14T09:26:28Z</time>
      </trkpt>
      <trkpt lat="45.55705" lon="6.68144">
        <ele>788.40002441406</ele>
        <time>2013-04-14T09:26:29Z</time>
      </trkpt>
      <trkpt lat="45.55703" lon="6.68148">
        <ele>789</ele>
        <time>2013-04-14T09:26:31Z</time>
      </trkpt>
      <trkpt lat="45.55702" lon="6.6815">
        <ele>789.40002441406</ele>
        <time>2013-04-14T09:26:32Z</time>
      </trkpt>
      <trkpt lat="45.557" lon="6.68152">
        <ele>789.59997558594</ele>
        <time>2013-04-14T09:26:33Z</time>
      </trkpt>
      <trkpt lat="45.55697" lon="6.68156">
        <ele>790.20001220703</ele>
        <time>2013-04-14T09:26:35Z</time>
      </trkpt>
      <trkpt lat="45.55696" lon="6.68157">
        <ele>790.59997558594</ele>
        <time>2013-04-14T09:26:36Z</time>
      </trkpt>
      <trkpt lat="45.55696" lon="6.68159">
        <ele>790.79998779297</ele>
        <time>2013-04-14T09:26:37Z</time>
      </trkpt>
      <trkpt lat="45.55693" lon="6.68163">
        <ele>791.40002441406</ele>
        <time>2013-04-14T09:26:39Z</time>
      </trkpt>
      <trkpt lat="45.55692" lon="6.68165">
        <ele>791.59997558594</ele>
        <time>2013-04-14T09:26:40Z</time>
      </trkpt>
      <trkpt lat="45.5569" lon="6.68165">
        <ele>791.79998779297</ele>
        <time>2013-04-14T09:26:41Z</time>
      </trkpt>
      <trkpt lat="45.55687" lon="6.68165">
        <ele>792</ele>
        <time>2013-04-14T09:26:43Z</time>
      </trkpt>
      <trkpt lat="45.55685" lon="6.68165">
        <ele>792.20001220703</ele>
        <time>2013-04-14T09:26:44Z</time>
      </trkpt>
      <trkpt lat="45.55683" lon="6.68163">
        <ele>792.20001220703</ele>
        <time>2013-04-14T09:26:45Z</time>
      </trkpt>
      <trkpt lat="45.55679" lon="6.68158">
        <ele>792</ele>
        <time>2013-04-14T09:26:47Z</time>
      </trkpt>
      <trkpt lat="45.55677" lon="6.68156">
        <ele>792</ele>
        <time>2013-04-14T09:26:48Z</time>
      </trkpt>
      <trkpt lat="45.55675" lon="6.68155">
        <ele>792</ele>
        <time>2013-04-14T09:26:49Z</time>
      </trkpt>
      <trkpt lat="45.55654" lon="6.68131">
        <ele>791.59997558594</ele>
        <time>2013-04-14T09:26:59Z</time>
      </trkpt>
      <trkpt lat="45.55651" lon="6.68128">
        <ele>791.59997558594</ele>
        <time>2013-04-14T09:27:00Z</time>
      </trkpt>
      <trkpt lat="45.55645" lon="6.68123">
        <ele>791.59997558594</ele>
        <time>2013-04-14T09:27:03Z</time>
      </trkpt>
      <trkpt lat="45.55642" lon="6.68121">
        <ele>791.59997558594</ele>
        <time>2013-04-14T09:27:04Z</time>
      </trkpt>
      <trkpt lat="45.55638" lon="6.68118">
        <ele>791.59997558594</ele>
        <time>2013-04-14T09:27:06Z</time>
      </trkpt>
      <trkpt lat="45.55617" lon="6.68099">
        <ele>791.20001220703</ele>
        <time>2013-04-14T09:27:15Z</time>
      </trkpt>
      <trkpt lat="45.55602" lon="6.68087">
        <ele>791</ele>
        <time>2013-04-14T09:27:21Z</time>
      </trkpt>
      <trkpt lat="45.55599" lon="6.68085">
        <ele>791</ele>
        <time>2013-04-14T09:27:22Z</time>
      </trkpt>
      <trkpt lat="45.55595" lon="6.68082">
        <ele>790.79998779297</ele>
        <time>2013-04-14T09:27:24Z</time>
      </trkpt>
      <trkpt lat="45.55592" lon="6.68079">
        <ele>790.79998779297</ele>
        <time>2013-04-14T09:27:25Z</time>
      </trkpt>
      <trkpt lat="45.5559" lon="6.68078">
        <ele>790.79998779297</ele>
        <time>2013-04-14T09:27:26Z</time>
      </trkpt>
      <trkpt lat="45.5557" lon="6.68057">
        <ele>792.59997558594</ele>
        <time>2013-04-14T09:27:36Z</time>
      </trkpt>
      <trkpt lat="45.55568" lon="6.68055">
        <ele>792.79998779297</ele>
        <time>2013-04-14T09:27:37Z</time>
      </trkpt>
      <trkpt lat="45.55566" lon="6.68052">
        <ele>793</ele>
        <time>2013-04-14T09:27:38Z</time>
      </trkpt>
      <trkpt lat="45.55562" lon="6.68047">
        <ele>793.40002441406</ele>
        <time>2013-04-14T09:27:40Z</time>
      </trkpt>
      <trkpt lat="45.5556" lon="6.68045">
        <ele>793.59997558594</ele>
        <time>2013-04-14T09:27:41Z</time>
      </trkpt>
      <trkpt lat="45.55559" lon="6.68043">
        <ele>793.59997558594</ele>
        <time>2013-04-14T09:27:42Z</time>
      </trkpt>
      <trkpt lat="45.55547" lon="6.68025">
        <ele>793.59997558594</ele>
        <time>2013-04-14T09:27:48Z</time>
      </trkpt>
      <trkpt lat="45.55546" lon="6.68022">
        <ele>793.40002441406</ele>
        <time>2013-04-14T09:27:49Z</time>
      </trkpt>
      <trkpt lat="45.55543" lon="6.6802">
        <ele>793.59997558594</ele>
        <time>2013-04-14T09:27:50Z</time>
      </trkpt>
      <trkpt lat="45.55541" lon="6.68014">
        <ele>793</ele>
        <time>2013-04-14T09:27:52Z</time>
      </trkpt>
      <trkpt lat="45.55534" lon="6.68004">
        <ele>792.59997558594</ele>
        <time>2013-04-14T09:27:56Z</time>
      </trkpt>
      <trkpt lat="45.55521" lon="6.67977">
        <ele>790.20001220703</ele>
        <time>2013-04-14T09:28:05Z</time>
      </trkpt>
      <trkpt lat="45.55519" lon="6.67974">
        <ele>789.79998779297</ele>
        <time>2013-04-14T09:28:06Z</time>
      </trkpt>
      <trkpt lat="45.55518" lon="6.67971">
        <ele>789.40002441406</ele>
        <time>2013-04-14T09:28:07Z</time>
      </trkpt>
      <trkpt lat="45.55516" lon="6.67964">
        <ele>788.59997558594</ele>
        <time>2013-04-14T09:28:09Z</time>
      </trkpt>
      <trkpt lat="45.55515" lon="6.67961">
        <ele>788.20001220703</ele>
        <time>2013-04-14T09:28:10Z</time>
      </trkpt>
      <trkpt lat="45.55513" lon="6.67957">
        <ele>787.79998779297</ele>
        <time>2013-04-14T09:28:11Z</time>
      </trkpt>
      <trkpt lat="45.55511" lon="6.67951">
        <ele>787.20001220703</ele>
        <time>2013-04-14T09:28:13Z</time>
      </trkpt>
      <trkpt lat="45.55509" lon="6.67948">
        <ele>786.59997558594</ele>
        <time>2013-04-14T09:28:14Z</time>
      </trkpt>
      <trkpt lat="45.55508" lon="6.67944">
        <ele>786.20001220703</ele>
        <time>2013-04-14T09:28:15Z</time>
      </trkpt>
      <trkpt lat="45.55497" lon="6.67922">
        <ele>784.40002441406</ele>
        <time>2013-04-14T09:28:23Z</time>
      </trkpt>
      <trkpt lat="45.55496" lon="6.6792">
        <ele>784.40002441406</ele>
        <time>2013-04-14T09:28:24Z</time>
      </trkpt>
      <trkpt lat="45.55495" lon="6.67917">
        <ele>784.40002441406</ele>
        <time>2013-04-14T09:28:25Z</time>
      </trkpt>
      <trkpt lat="45.55492" lon="6.67913">
        <ele>785.20001220703</ele>
        <time>2013-04-14T09:28:27Z</time>
      </trkpt>
      <trkpt lat="45.5549" lon="6.67911">
        <ele>786</ele>
        <time>2013-04-14T09:28:28Z</time>
      </trkpt>
      <trkpt lat="45.55488" lon="6.67909">
        <ele>786.40002441406</ele>
        <time>2013-04-14T09:28:29Z</time>
      </trkpt>
      <trkpt lat="45.55478" lon="6.67894">
        <ele>788.79998779297</ele>
        <time>2013-04-14T09:28:36Z</time>
      </trkpt>
      <trkpt lat="45.55477" lon="6.67892">
        <ele>789.20001220703</ele>
        <time>2013-04-14T09:28:37Z</time>
      </trkpt>
      <trkpt lat="45.55476" lon="6.6789">
        <ele>789.40002441406</ele>
        <time>2013-04-14T09:28:38Z</time>
      </trkpt>
      <trkpt lat="45.55471" lon="6.67884">
        <ele>790.59997558594</ele>
        <time>2013-04-14T09:28:41Z</time>
      </trkpt>
      <trkpt lat="45.55461" lon="6.6787">
        <ele>792.20001220703</ele>
        <time>2013-04-14T09:28:48Z</time>
      </trkpt>
      <trkpt lat="45.55458" lon="6.67865">
        <ele>792.40002441406</ele>
        <time>2013-04-14T09:28:50Z</time>
      </trkpt>
      <trkpt lat="45.55457" lon="6.67862">
        <ele>792.40002441406</ele>
        <time>2013-04-14T09:28:51Z</time>
      </trkpt>
      <trkpt lat="45.55455" lon="6.6786">
        <ele>792.59997558594</ele>
        <time>2013-04-14T09:28:52Z</time>
      </trkpt>
      <trkpt lat="45.55453" lon="6.67856">
        <ele>792.79998779297</ele>
        <time>2013-04-14T09:28:54Z</time>
      </trkpt>
      <trkpt lat="45.55448" lon="6.67847">
        <ele>793</ele>
        <time>2013-04-14T09:28:58Z</time>
      </trkpt>
      <trkpt lat="45.55446" lon="6.67846">
        <ele>793</ele>
        <time>2013-04-14T09:28:59Z</time>
      </trkpt>
      <trkpt lat="45.55444" lon="6.67841">
        <ele>793.20001220703</ele>
        <time>2013-04-14T09:29:01Z</time>
      </trkpt>
      <trkpt lat="45.55442" lon="6.67839">
        <ele>793.20001220703</ele>
        <time>2013-04-14T09:29:02Z</time>
      </trkpt>
      <trkpt lat="45.55441" lon="6.67836">
        <ele>793</ele>
        <time>2013-04-14T09:29:03Z</time>
      </trkpt>
      <trkpt lat="45.55436" lon="6.67827">
        <ele>793.20001220703</ele>
        <time>2013-04-14T09:29:07Z</time>
      </trkpt>
      <trkpt lat="45.55435" lon="6.67824">
        <ele>793.20001220703</ele>
        <time>2013-04-14T09:29:08Z</time>
      </trkpt>
      <trkpt lat="45.55435" lon="6.67821">
        <ele>793</ele>
        <time>2013-04-14T09:29:09Z</time>
      </trkpt>
      <trkpt lat="45.55433" lon="6.67814">
        <ele>792.59997558594</ele>
        <time>2013-04-14T09:29:11Z</time>
      </trkpt>
      <trkpt lat="45.55433" lon="6.6781">
        <ele>792.40002441406</ele>
        <time>2013-04-14T09:29:12Z</time>
      </trkpt>
      <trkpt lat="45.55432" lon="6.67807">
        <ele>792.20001220703</ele>
        <time>2013-04-14T09:29:13Z</time>
      </trkpt>
      <trkpt lat="45.55424" lon="6.67777">
        <ele>790.20001220703</ele>
        <time>2013-04-14T09:29:23Z</time>
      </trkpt>
      <trkpt lat="45.55421" lon="6.67758">
        <ele>788.20001220703</ele>
        <time>2013-04-14T09:29:29Z</time>
      </trkpt>
      <trkpt lat="45.55425" lon="6.67729">
        <ele>785.59997558594</ele>
        <time>2013-04-14T09:29:40Z</time>
      </trkpt>
    </trkseg>
  </trk>
</gpx>